<?xml version='1.0' encoding='UTF-8'?><gpx version="1.1" creator="JPX - https://github.com/jenetics/jpx" xmlns="http://www.topografix.com/GPX/1/1"><trk><trkseg><trkpt lat="45.1728212" lon="8.19216"><ele>144.0</ele><time>2026-04-04T14:25:49.557Z</time></trkpt><trkpt lat="45.1728794" lon="8.1922067"><ele>144.0</ele><time>2026-04-04T14:25:54.581Z</time></trkpt><trkpt lat="45.1729" lon="8.1923113"><ele>144.0</ele><time>2026-04-04T14:25:57.545Z</time></trkpt><trkpt lat="45.1729359" lon="8.1924233"><ele>144.0</ele><time>2026-04-04T14:26:00.564Z</time></trkpt><trkpt lat="45.1729752" lon="8.1925522"><ele>144.0</ele><time>2026-04-04T14:26:02.555Z</time></trkpt><trkpt lat="45.1730011" lon="8.1926554"><ele>144.0</ele><time>2026-04-04T14:26:04.6Z</time></trkpt><trkpt lat="45.1729932" lon="8.1927585"><ele>144.5</ele><time>2026-04-04T14:26:06.542Z</time></trkpt><trkpt lat="45.17294" lon="8.1928453"><ele>145.0</ele><time>2026-04-04T14:26:08.641Z</time></trkpt><trkpt lat="45.1728672" lon="8.1928573"><ele>145.5</ele><time>2026-04-04T14:26:10.541Z</time></trkpt><trkpt lat="45.1727906" lon="8.1928912"><ele>146.0</ele><time>2026-04-04T14:26:13.54Z</time></trkpt><trkpt lat="45.1727192" lon="8.1929156"><ele>146.5</ele><time>2026-04-04T14:26:15.541Z</time></trkpt><trkpt lat="45.1726464" lon="8.1929381"><ele>147.0</ele><time>2026-04-04T14:26:17.541Z</time></trkpt><trkpt lat="45.1725834" lon="8.1929737"><ele>147.0</ele><time>2026-04-04T14:26:19.54Z</time></trkpt><trkpt lat="45.1725232" lon="8.1930141"><ele>147.0</ele><time>2026-04-04T14:26:21.54Z</time></trkpt><trkpt lat="45.1724381" lon="8.193052"><ele>147.0</ele><time>2026-04-04T14:26:24.54Z</time></trkpt><trkpt lat="45.17238" lon="8.1930865"><ele>147.0</ele><time>2026-04-04T14:26:26.541Z</time></trkpt><trkpt lat="45.1722896" lon="8.1931311"><ele>147.0</ele><time>2026-04-04T14:26:29.54Z</time></trkpt><trkpt lat="45.1722189" lon="8.1931616"><ele>147.0</ele><time>2026-04-04T14:26:31.54Z</time></trkpt><trkpt lat="45.1721589" lon="8.1931969"><ele>146.83333333333334</ele><time>2026-04-04T14:26:33.54Z</time></trkpt><trkpt lat="45.1720931" lon="8.1932318"><ele>146.66666666666666</ele><time>2026-04-04T14:26:35.541Z</time></trkpt><trkpt lat="45.1720244" lon="8.1932641"><ele>146.5</ele><time>2026-04-04T14:26:37.541Z</time></trkpt><trkpt lat="45.1719624" lon="8.1932855"><ele>146.33333333333331</ele><time>2026-04-04T14:26:39.541Z</time></trkpt><trkpt lat="45.1718686" lon="8.1933033"><ele>146.16666666666666</ele><time>2026-04-04T14:26:42.541Z</time></trkpt><trkpt lat="45.1717949" lon="8.1933246"><ele>146.0</ele><time>2026-04-04T14:26:44.541Z</time></trkpt><trkpt lat="45.1717079" lon="8.1933492"><ele>146.0</ele><time>2026-04-04T14:26:46.54Z</time></trkpt><trkpt lat="45.171628" lon="8.1933815"><ele>146.0</ele><time>2026-04-04T14:26:48.54Z</time></trkpt><trkpt lat="45.1715532" lon="8.1934105"><ele>146.0</ele><time>2026-04-04T14:26:50.541Z</time></trkpt><trkpt lat="45.1714737" lon="8.193436"><ele>146.0</ele><time>2026-04-04T14:26:52.541Z</time></trkpt><trkpt lat="45.1713937" lon="8.1934774"><ele>146.0</ele><time>2026-04-04T14:26:54.541Z</time></trkpt><trkpt lat="45.171317" lon="8.1935231"><ele>146.0</ele><time>2026-04-04T14:26:56.541Z</time></trkpt><trkpt lat="45.1712401" lon="8.1935588"><ele>145.33333333333331</ele><time>2026-04-04T14:26:58.541Z</time></trkpt><trkpt lat="45.1711652" lon="8.1935935"><ele>144.66666666666666</ele><time>2026-04-04T14:27:00.542Z</time></trkpt><trkpt lat="45.1711029" lon="8.1936164"><ele>144.0</ele><time>2026-04-04T14:27:02.542Z</time></trkpt><trkpt lat="45.1710088" lon="8.1936605"><ele>143.33333333333334</ele><time>2026-04-04T14:27:05.542Z</time></trkpt><trkpt lat="45.1709224" lon="8.1936968"><ele>142.66666666666669</ele><time>2026-04-04T14:27:07.542Z</time></trkpt><trkpt lat="45.170856" lon="8.1937206"><ele>142.0</ele><time>2026-04-04T14:27:09.541Z</time></trkpt><trkpt lat="45.1707661" lon="8.193748"><ele>141.16666666666669</ele><time>2026-04-04T14:27:12.542Z</time></trkpt><trkpt lat="45.1706855" lon="8.1937748"><ele>140.33333333333334</ele><time>2026-04-04T14:27:14.541Z</time></trkpt><trkpt lat="45.1706114" lon="8.1937997"><ele>139.5</ele><time>2026-04-04T14:27:16.541Z</time></trkpt><trkpt lat="45.1705345" lon="8.1938242"><ele>138.66666666666666</ele><time>2026-04-04T14:27:18.542Z</time></trkpt><trkpt lat="45.1704526" lon="8.1938592"><ele>137.83333333333331</ele><time>2026-04-04T14:27:20.541Z</time></trkpt><trkpt lat="45.1703666" lon="8.1939"><ele>137.0</ele><time>2026-04-04T14:27:22.541Z</time></trkpt><trkpt lat="45.1702754" lon="8.1939449"><ele>137.0</ele><time>2026-04-04T14:27:24.542Z</time></trkpt><trkpt lat="45.1701836" lon="8.19399"><ele>137.0</ele><time>2026-04-04T14:27:26.541Z</time></trkpt><trkpt lat="45.1700936" lon="8.1940337"><ele>137.0</ele><time>2026-04-04T14:27:28.541Z</time></trkpt><trkpt lat="45.1699992" lon="8.1940801"><ele>137.0</ele><time>2026-04-04T14:27:30.542Z</time></trkpt><trkpt lat="45.169901" lon="8.1941297"><ele>137.0</ele><time>2026-04-04T14:27:32.542Z</time></trkpt><trkpt lat="45.1697947" lon="8.1941762"><ele>137.2</ele><time>2026-04-04T14:27:34.541Z</time></trkpt><trkpt lat="45.169688" lon="8.1942236"><ele>137.39999999999998</ele><time>2026-04-04T14:27:36.541Z</time></trkpt><trkpt lat="45.1695802" lon="8.1942739"><ele>137.60000000000002</ele><time>2026-04-04T14:27:38.541Z</time></trkpt><trkpt lat="45.1694813" lon="8.1943205"><ele>137.8</ele><time>2026-04-04T14:27:40.542Z</time></trkpt><trkpt lat="45.1693986" lon="8.1943546"><ele>138.0</ele><time>2026-04-04T14:27:42.542Z</time></trkpt><trkpt lat="45.1693209" lon="8.1943845"><ele>138.0</ele><time>2026-04-04T14:27:44.543Z</time></trkpt><trkpt lat="45.169256" lon="8.1944382"><ele>138.0</ele><time>2026-04-04T14:27:46.543Z</time></trkpt><trkpt lat="45.1691845" lon="8.1944675"><ele>138.0</ele><time>2026-04-04T14:27:48.543Z</time></trkpt><trkpt lat="45.169102" lon="8.1945053"><ele>138.0</ele><time>2026-04-04T14:27:50.543Z</time></trkpt><trkpt lat="45.1690194" lon="8.194543"><ele>138.0</ele><time>2026-04-04T14:27:52.542Z</time></trkpt><trkpt lat="45.1689312" lon="8.1945803"><ele>138.0</ele><time>2026-04-04T14:27:54.543Z</time></trkpt><trkpt lat="45.1688447" lon="8.1946094"><ele>138.0</ele><time>2026-04-04T14:27:56.543Z</time></trkpt><trkpt lat="45.1687789" lon="8.1946374"><ele>138.0</ele><time>2026-04-04T14:27:58.542Z</time></trkpt><trkpt lat="45.1686971" lon="8.1946345"><ele>138.0</ele><time>2026-04-04T14:28:03.542Z</time></trkpt><trkpt lat="45.1686621" lon="8.1945579"><ele>138.0</ele><time>2026-04-04T14:28:05.543Z</time></trkpt><trkpt lat="45.1686364" lon="8.1944664"><ele>138.0</ele><time>2026-04-04T14:28:07.542Z</time></trkpt><trkpt lat="45.1685983" lon="8.1943617"><ele>138.0</ele><time>2026-04-04T14:28:09.543Z</time></trkpt><trkpt lat="45.1685609" lon="8.1942632"><ele>138.0</ele><time>2026-04-04T14:28:11.542Z</time></trkpt><trkpt lat="45.1685217" lon="8.1941765"><ele>138.0</ele><time>2026-04-04T14:28:13.542Z</time></trkpt><trkpt lat="45.1684788" lon="8.1940909"><ele>138.0</ele><time>2026-04-04T14:28:15.543Z</time></trkpt><trkpt lat="45.1684346" lon="8.1940044"><ele>138.0</ele><time>2026-04-04T14:28:17.543Z</time></trkpt><trkpt lat="45.1683848" lon="8.1939072"><ele>138.0</ele><time>2026-04-04T14:28:19.542Z</time></trkpt><trkpt lat="45.168341" lon="8.1938018"><ele>138.0</ele><time>2026-04-04T14:28:21.543Z</time></trkpt><trkpt lat="45.1682942" lon="8.1936978"><ele>138.0</ele><time>2026-04-04T14:28:23.543Z</time></trkpt><trkpt lat="45.1682376" lon="8.1935874"><ele>138.0</ele><time>2026-04-04T14:28:25.542Z</time></trkpt><trkpt lat="45.1681778" lon="8.19347"><ele>138.0</ele><time>2026-04-04T14:28:27.543Z</time></trkpt><trkpt lat="45.1681181" lon="8.1933582"><ele>138.0</ele><time>2026-04-04T14:28:29.543Z</time></trkpt><trkpt lat="45.1680773" lon="8.1932612"><ele>138.0</ele><time>2026-04-04T14:28:31.543Z</time></trkpt><trkpt lat="45.1680433" lon="8.1931747"><ele>138.0</ele><time>2026-04-04T14:28:33.542Z</time></trkpt><trkpt lat="45.1680018" lon="8.1930902"><ele>138.0</ele><time>2026-04-04T14:28:35.543Z</time></trkpt><trkpt lat="45.1679482" lon="8.1929778"><ele>138.0</ele><time>2026-04-04T14:28:37.544Z</time></trkpt><trkpt lat="45.1678999" lon="8.1928669"><ele>138.0</ele><time>2026-04-04T14:28:39.544Z</time></trkpt><trkpt lat="45.1678494" lon="8.1927712"><ele>138.0</ele><time>2026-04-04T14:28:41.544Z</time></trkpt><trkpt lat="45.1678" lon="8.1926686"><ele>138.0</ele><time>2026-04-04T14:28:43.544Z</time></trkpt><trkpt lat="45.1677566" lon="8.1925638"><ele>138.0</ele><time>2026-04-04T14:28:45.544Z</time></trkpt><trkpt lat="45.1677141" lon="8.192485"><ele>138.0</ele><time>2026-04-04T14:28:47.543Z</time></trkpt><trkpt lat="45.167672" lon="8.1923952"><ele>138.0</ele><time>2026-04-04T14:28:49.543Z</time></trkpt><trkpt lat="45.1676211" lon="8.1923024"><ele>138.0</ele><time>2026-04-04T14:28:51.544Z</time></trkpt><trkpt lat="45.1675612" lon="8.1922074"><ele>138.0</ele><time>2026-04-04T14:28:53.544Z</time></trkpt><trkpt lat="45.1675135" lon="8.1920966"><ele>138.0</ele><time>2026-04-04T14:28:55.544Z</time></trkpt><trkpt lat="45.1674681" lon="8.1919995"><ele>138.0</ele><time>2026-04-04T14:28:57.544Z</time></trkpt><trkpt lat="45.1674227" lon="8.191907"><ele>138.0</ele><time>2026-04-04T14:28:59.544Z</time></trkpt><trkpt lat="45.1673637" lon="8.1917915"><ele>138.0</ele><time>2026-04-04T14:29:01.544Z</time></trkpt><trkpt lat="45.1672927" lon="8.1916619"><ele>138.0</ele><time>2026-04-04T14:29:03.544Z</time></trkpt><trkpt lat="45.167229" lon="8.1915267"><ele>138.0</ele><time>2026-04-04T14:29:05.543Z</time></trkpt><trkpt lat="45.1671745" lon="8.191404"><ele>138.0</ele><time>2026-04-04T14:29:07.544Z</time></trkpt><trkpt lat="45.1671092" lon="8.1912857"><ele>138.0</ele><time>2026-04-04T14:29:09.544Z</time></trkpt><trkpt lat="45.1670456" lon="8.1911499"><ele>138.16666666666666</ele><time>2026-04-04T14:29:11.543Z</time></trkpt><trkpt lat="45.1669881" lon="8.1910085"><ele>138.33333333333334</ele><time>2026-04-04T14:29:13.543Z</time></trkpt><trkpt lat="45.1669134" lon="8.1908644"><ele>138.5</ele><time>2026-04-04T14:29:15.543Z</time></trkpt><trkpt lat="45.1668747" lon="8.1907879"><ele>138.66666666666669</ele><time>2026-04-04T14:29:16.543Z</time></trkpt><trkpt lat="45.1668372" lon="8.1907081"><ele>138.83333333333334</ele><time>2026-04-04T14:29:17.544Z</time></trkpt><trkpt lat="45.1668012" lon="8.19063"><ele>139.0</ele><time>2026-04-04T14:29:18.543Z</time></trkpt><trkpt lat="45.1667619" lon="8.1905487"><ele>139.0</ele><time>2026-04-04T14:29:19.544Z</time></trkpt><trkpt lat="45.1667221" lon="8.1904634"><ele>139.0</ele><time>2026-04-04T14:29:20.543Z</time></trkpt><trkpt lat="45.1666812" lon="8.190377"><ele>139.0</ele><time>2026-04-04T14:29:21.544Z</time></trkpt><trkpt lat="45.1666397" lon="8.1902918"><ele>139.0</ele><time>2026-04-04T14:29:22.544Z</time></trkpt><trkpt lat="45.1665981" lon="8.1902069"><ele>139.0</ele><time>2026-04-04T14:29:23.544Z</time></trkpt><trkpt lat="45.1665559" lon="8.1901211"><ele>139.0</ele><time>2026-04-04T14:29:24.545Z</time></trkpt><trkpt lat="45.1665126" lon="8.1900327"><ele>139.0</ele><time>2026-04-04T14:29:25.544Z</time></trkpt><trkpt lat="45.1664711" lon="8.1899434"><ele>139.0</ele><time>2026-04-04T14:29:26.545Z</time></trkpt><trkpt lat="45.1664313" lon="8.1898545"><ele>139.0</ele><time>2026-04-04T14:29:27.544Z</time></trkpt><trkpt lat="45.166392" lon="8.1897661"><ele>139.0</ele><time>2026-04-04T14:29:28.545Z</time></trkpt><trkpt lat="45.1663526" lon="8.1896807"><ele>139.0</ele><time>2026-04-04T14:29:29.545Z</time></trkpt><trkpt lat="45.1663118" lon="8.1895931"><ele>139.0</ele><time>2026-04-04T14:29:30.545Z</time></trkpt><trkpt lat="45.1662692" lon="8.1895058"><ele>139.0</ele><time>2026-04-04T14:29:31.545Z</time></trkpt><trkpt lat="45.1662286" lon="8.1894223"><ele>139.0</ele><time>2026-04-04T14:29:32.545Z</time></trkpt><trkpt lat="45.1661864" lon="8.1893342"><ele>139.0</ele><time>2026-04-04T14:29:33.545Z</time></trkpt><trkpt lat="45.1661454" lon="8.1892495"><ele>139.0</ele><time>2026-04-04T14:29:34.545Z</time></trkpt><trkpt lat="45.1661039" lon="8.1891666"><ele>139.0</ele><time>2026-04-04T14:29:35.544Z</time></trkpt><trkpt lat="45.1660614" lon="8.1890781"><ele>139.0</ele><time>2026-04-04T14:29:36.545Z</time></trkpt><trkpt lat="45.1660208" lon="8.1889877"><ele>139.0</ele><time>2026-04-04T14:29:37.544Z</time></trkpt><trkpt lat="45.1659799" lon="8.1888956"><ele>139.0</ele><time>2026-04-04T14:29:38.545Z</time></trkpt><trkpt lat="45.1659372" lon="8.1888054"><ele>139.0</ele><time>2026-04-04T14:29:39.545Z</time></trkpt><trkpt lat="45.1658931" lon="8.1887169"><ele>138.83333333333334</ele><time>2026-04-04T14:29:40.545Z</time></trkpt><trkpt lat="45.1658459" lon="8.1886247"><ele>138.66666666666669</ele><time>2026-04-04T14:29:41.545Z</time></trkpt><trkpt lat="45.1657973" lon="8.1885294"><ele>138.5</ele><time>2026-04-04T14:29:42.544Z</time></trkpt><trkpt lat="45.1657534" lon="8.1884355"><ele>138.33333333333334</ele><time>2026-04-04T14:29:43.545Z</time></trkpt><trkpt lat="45.1657084" lon="8.1883394"><ele>138.16666666666666</ele><time>2026-04-04T14:29:44.544Z</time></trkpt><trkpt lat="45.1656662" lon="8.1882456"><ele>138.0</ele><time>2026-04-04T14:29:45.545Z</time></trkpt><trkpt lat="45.1656202" lon="8.1881466"><ele>138.66666666666666</ele><time>2026-04-04T14:29:46.545Z</time></trkpt><trkpt lat="45.1655705" lon="8.1880397"><ele>139.33333333333334</ele><time>2026-04-04T14:29:47.544Z</time></trkpt><trkpt lat="45.1655236" lon="8.1879394"><ele>140.0</ele><time>2026-04-04T14:29:48.545Z</time></trkpt><trkpt lat="45.1654782" lon="8.1878453"><ele>140.66666666666669</ele><time>2026-04-04T14:29:49.545Z</time></trkpt><trkpt lat="45.1654332" lon="8.1877527"><ele>141.33333333333334</ele><time>2026-04-04T14:29:50.545Z</time></trkpt><trkpt lat="45.1653922" lon="8.1876631"><ele>142.0</ele><time>2026-04-04T14:29:51.545Z</time></trkpt><trkpt lat="45.1653474" lon="8.1875687"><ele>142.0</ele><time>2026-04-04T14:29:52.545Z</time></trkpt><trkpt lat="45.1652998" lon="8.1874749"><ele>142.0</ele><time>2026-04-04T14:29:53.544Z</time></trkpt><trkpt lat="45.1652502" lon="8.1873788"><ele>142.0</ele><time>2026-04-04T14:29:54.544Z</time></trkpt><trkpt lat="45.1652027" lon="8.1872805"><ele>142.0</ele><time>2026-04-04T14:29:55.544Z</time></trkpt><trkpt lat="45.1651596" lon="8.1871864"><ele>142.0</ele><time>2026-04-04T14:29:56.544Z</time></trkpt><trkpt lat="45.1651158" lon="8.1870937"><ele>142.0</ele><time>2026-04-04T14:29:57.544Z</time></trkpt><trkpt lat="45.1650684" lon="8.1869989"><ele>142.16666666666669</ele><time>2026-04-04T14:29:58.544Z</time></trkpt><trkpt lat="45.1650214" lon="8.1869063"><ele>142.33333333333334</ele><time>2026-04-04T14:29:59.545Z</time></trkpt><trkpt lat="45.164974" lon="8.1868117"><ele>142.5</ele><time>2026-04-04T14:30:00.545Z</time></trkpt><trkpt lat="45.1649286" lon="8.186717"><ele>142.66666666666666</ele><time>2026-04-04T14:30:01.544Z</time></trkpt><trkpt lat="45.1648881" lon="8.1866218"><ele>142.83333333333331</ele><time>2026-04-04T14:30:02.545Z</time></trkpt><trkpt lat="45.1648469" lon="8.1865238"><ele>143.0</ele><time>2026-04-04T14:30:03.544Z</time></trkpt><trkpt lat="45.164803" lon="8.186428"><ele>144.66666666666666</ele><time>2026-04-04T14:30:04.544Z</time></trkpt><trkpt lat="45.1647535" lon="8.1863314"><ele>146.33333333333331</ele><time>2026-04-04T14:30:05.544Z</time></trkpt><trkpt lat="45.1647054" lon="8.1862358"><ele>148.0</ele><time>2026-04-04T14:30:06.544Z</time></trkpt><trkpt lat="45.164659" lon="8.1861411"><ele>149.66666666666666</ele><time>2026-04-04T14:30:07.544Z</time></trkpt><trkpt lat="45.1646124" lon="8.1860484"><ele>151.33333333333334</ele><time>2026-04-04T14:30:08.544Z</time></trkpt><trkpt lat="45.1645655" lon="8.1859553"><ele>153.0</ele><time>2026-04-04T14:30:09.545Z</time></trkpt><trkpt lat="45.1645181" lon="8.1858605"><ele>153.0</ele><time>2026-04-04T14:30:10.545Z</time></trkpt><trkpt lat="45.164472" lon="8.1857643"><ele>153.0</ele><time>2026-04-04T14:30:11.546Z</time></trkpt><trkpt lat="45.1644251" lon="8.1856665"><ele>153.0</ele><time>2026-04-04T14:30:12.545Z</time></trkpt><trkpt lat="45.1643779" lon="8.1855677"><ele>153.0</ele><time>2026-04-04T14:30:13.545Z</time></trkpt><trkpt lat="45.1643318" lon="8.1854696"><ele>153.0</ele><time>2026-04-04T14:30:14.545Z</time></trkpt><trkpt lat="45.1642843" lon="8.18537"><ele>153.0</ele><time>2026-04-04T14:30:15.546Z</time></trkpt><trkpt lat="45.1642369" lon="8.1852722"><ele>151.66666666666666</ele><time>2026-04-04T14:30:16.545Z</time></trkpt><trkpt lat="45.164191" lon="8.1851752"><ele>150.33333333333334</ele><time>2026-04-04T14:30:17.546Z</time></trkpt><trkpt lat="45.1641472" lon="8.1850809"><ele>149.0</ele><time>2026-04-04T14:30:18.546Z</time></trkpt><trkpt lat="45.1641022" lon="8.1849867"><ele>147.66666666666669</ele><time>2026-04-04T14:30:19.545Z</time></trkpt><trkpt lat="45.1640587" lon="8.1848921"><ele>146.33333333333334</ele><time>2026-04-04T14:30:20.545Z</time></trkpt><trkpt lat="45.1640132" lon="8.1847973"><ele>145.0</ele><time>2026-04-04T14:30:21.545Z</time></trkpt><trkpt lat="45.1639674" lon="8.1847002"><ele>148.16666666666669</ele><time>2026-04-04T14:30:22.545Z</time></trkpt><trkpt lat="45.1639217" lon="8.1846045"><ele>151.33333333333334</ele><time>2026-04-04T14:30:23.545Z</time></trkpt><trkpt lat="45.1638749" lon="8.1845005"><ele>154.5</ele><time>2026-04-04T14:30:24.546Z</time></trkpt><trkpt lat="45.1638269" lon="8.1843989"><ele>157.66666666666666</ele><time>2026-04-04T14:30:25.545Z</time></trkpt><trkpt lat="45.1637743" lon="8.1843018"><ele>160.83333333333331</ele><time>2026-04-04T14:30:26.546Z</time></trkpt><trkpt lat="45.1637178" lon="8.1842061"><ele>164.0</ele><time>2026-04-04T14:30:27.545Z</time></trkpt><trkpt lat="45.1636551" lon="8.1841031"><ele>162.0</ele><time>2026-04-04T14:30:28.546Z</time></trkpt><trkpt lat="45.1636039" lon="8.1839884"><ele>160.0</ele><time>2026-04-04T14:30:29.546Z</time></trkpt><trkpt lat="45.1635522" lon="8.1838567"><ele>158.0</ele><time>2026-04-04T14:30:30.546Z</time></trkpt><trkpt lat="45.1635016" lon="8.183737"><ele>156.0</ele><time>2026-04-04T14:30:31.546Z</time></trkpt><trkpt lat="45.1634486" lon="8.1836247"><ele>154.0</ele><time>2026-04-04T14:30:32.545Z</time></trkpt><trkpt lat="45.1633959" lon="8.1835169"><ele>154.0</ele><time>2026-04-04T14:30:33.546Z</time></trkpt><trkpt lat="45.1633382" lon="8.1834079"><ele>154.0</ele><time>2026-04-04T14:30:34.546Z</time></trkpt><trkpt lat="45.1632829" lon="8.1832983"><ele>154.0</ele><time>2026-04-04T14:30:35.546Z</time></trkpt><trkpt lat="45.163228" lon="8.1831841"><ele>154.0</ele><time>2026-04-04T14:30:36.545Z</time></trkpt><trkpt lat="45.1631774" lon="8.1830749"><ele>154.0</ele><time>2026-04-04T14:30:37.546Z</time></trkpt><trkpt lat="45.1631277" lon="8.182969"><ele>153.0</ele><time>2026-04-04T14:30:38.545Z</time></trkpt><trkpt lat="45.1630803" lon="8.1828647"><ele>152.0</ele><time>2026-04-04T14:30:39.546Z</time></trkpt><trkpt lat="45.1630331" lon="8.1827606"><ele>151.0</ele><time>2026-04-04T14:30:40.545Z</time></trkpt><trkpt lat="45.1629862" lon="8.182656"><ele>150.0</ele><time>2026-04-04T14:30:41.546Z</time></trkpt><trkpt lat="45.1629398" lon="8.1825486"><ele>149.0</ele><time>2026-04-04T14:30:42.546Z</time></trkpt><trkpt lat="45.1628899" lon="8.1824413"><ele>148.0</ele><time>2026-04-04T14:30:43.546Z</time></trkpt><trkpt lat="45.1628394" lon="8.182339"><ele>148.0</ele><time>2026-04-04T14:30:44.545Z</time></trkpt><trkpt lat="45.1627867" lon="8.1822391"><ele>148.0</ele><time>2026-04-04T14:30:45.545Z</time></trkpt><trkpt lat="45.1627362" lon="8.1821361"><ele>148.0</ele><time>2026-04-04T14:30:46.545Z</time></trkpt><trkpt lat="45.1626864" lon="8.182033"><ele>148.0</ele><time>2026-04-04T14:30:47.545Z</time></trkpt><trkpt lat="45.162638" lon="8.1819261"><ele>148.0</ele><time>2026-04-04T14:30:48.545Z</time></trkpt><trkpt lat="45.1625879" lon="8.1818207"><ele>148.0</ele><time>2026-04-04T14:30:49.546Z</time></trkpt><trkpt lat="45.1625403" lon="8.1817156"><ele>148.0</ele><time>2026-04-04T14:30:50.546Z</time></trkpt><trkpt lat="45.162494" lon="8.1816167"><ele>148.0</ele><time>2026-04-04T14:30:51.546Z</time></trkpt><trkpt lat="45.1624486" lon="8.181519"><ele>148.0</ele><time>2026-04-04T14:30:52.546Z</time></trkpt><trkpt lat="45.1624033" lon="8.1814245"><ele>148.0</ele><time>2026-04-04T14:30:53.546Z</time></trkpt><trkpt lat="45.1623602" lon="8.1813358"><ele>148.0</ele><time>2026-04-04T14:30:54.546Z</time></trkpt><trkpt lat="45.1623227" lon="8.1812582"><ele>148.0</ele><time>2026-04-04T14:30:55.545Z</time></trkpt><trkpt lat="45.1622557" lon="8.1811125"><ele>148.20000000000002</ele><time>2026-04-04T14:30:57.546Z</time></trkpt><trkpt lat="45.1622034" lon="8.1810002"><ele>148.4</ele><time>2026-04-04T14:30:59.546Z</time></trkpt><trkpt lat="45.1621566" lon="8.1809084"><ele>148.60000000000002</ele><time>2026-04-04T14:31:01.547Z</time></trkpt><trkpt lat="45.1621025" lon="8.180807"><ele>148.8</ele><time>2026-04-04T14:31:03.547Z</time></trkpt><trkpt lat="45.1620166" lon="8.180671"><ele>149.0</ele><time>2026-04-04T14:31:05.547Z</time></trkpt><trkpt lat="45.1619718" lon="8.1806046"><ele>149.0</ele><time>2026-04-04T14:31:06.546Z</time></trkpt><trkpt lat="45.1619239" lon="8.180539"><ele>149.0</ele><time>2026-04-04T14:31:07.547Z</time></trkpt><trkpt lat="45.1618316" lon="8.1804237"><ele>149.0</ele><time>2026-04-04T14:31:09.548Z</time></trkpt><trkpt lat="45.1617486" lon="8.180314"><ele>149.0</ele><time>2026-04-04T14:31:11.546Z</time></trkpt><trkpt lat="45.1616549" lon="8.1802195"><ele>149.0</ele><time>2026-04-04T14:31:13.546Z</time></trkpt><trkpt lat="45.1615988" lon="8.1801756"><ele>149.0</ele><time>2026-04-04T14:31:14.546Z</time></trkpt><trkpt lat="45.1615395" lon="8.1801345"><ele>149.0</ele><time>2026-04-04T14:31:15.546Z</time></trkpt><trkpt lat="45.1614192" lon="8.1800665"><ele>149.0</ele><time>2026-04-04T14:31:17.546Z</time></trkpt><trkpt lat="45.1613598" lon="8.1800342"><ele>149.0</ele><time>2026-04-04T14:31:18.546Z</time></trkpt><trkpt lat="45.1612985" lon="8.180004"><ele>149.0</ele><time>2026-04-04T14:31:19.547Z</time></trkpt><trkpt lat="45.1612343" lon="8.1799744"><ele>149.0</ele><time>2026-04-04T14:31:20.546Z</time></trkpt><trkpt lat="45.1611682" lon="8.1799445"><ele>148.85714285714286</ele><time>2026-04-04T14:31:21.547Z</time></trkpt><trkpt lat="45.1611009" lon="8.1799111"><ele>148.7142857142857</ele><time>2026-04-04T14:31:22.547Z</time></trkpt><trkpt lat="45.1610352" lon="8.1798768"><ele>148.57142857142856</ele><time>2026-04-04T14:31:23.547Z</time></trkpt><trkpt lat="45.160973" lon="8.1798454"><ele>148.42857142857142</ele><time>2026-04-04T14:31:24.546Z</time></trkpt><trkpt lat="45.1609083" lon="8.1798118"><ele>148.28571428571428</ele><time>2026-04-04T14:31:25.547Z</time></trkpt><trkpt lat="45.1608456" lon="8.1797792"><ele>148.14285714285714</ele><time>2026-04-04T14:31:26.546Z</time></trkpt><trkpt lat="45.1607825" lon="8.1797468"><ele>148.0</ele><time>2026-04-04T14:31:27.546Z</time></trkpt><trkpt lat="45.1607201" lon="8.1797169"><ele>147.33333333333334</ele><time>2026-04-04T14:31:28.547Z</time></trkpt><trkpt lat="45.1606601" lon="8.1796887"><ele>146.66666666666669</ele><time>2026-04-04T14:31:29.546Z</time></trkpt><trkpt lat="45.160599" lon="8.1796554"><ele>146.0</ele><time>2026-04-04T14:31:30.546Z</time></trkpt><trkpt lat="45.1604791" lon="8.1795898"><ele>145.33333333333334</ele><time>2026-04-04T14:31:32.547Z</time></trkpt><trkpt lat="45.1604173" lon="8.1795561"><ele>144.66666666666666</ele><time>2026-04-04T14:31:33.547Z</time></trkpt><trkpt lat="45.1603556" lon="8.1795252"><ele>144.0</ele><time>2026-04-04T14:31:34.546Z</time></trkpt><trkpt lat="45.1602901" lon="8.1794954"><ele>144.00000000000003</ele><time>2026-04-04T14:31:35.547Z</time></trkpt><trkpt lat="45.1602244" lon="8.1794597"><ele>144.0</ele><time>2026-04-04T14:31:36.546Z</time></trkpt><trkpt lat="45.1601563" lon="8.1794232"><ele>144.0</ele><time>2026-04-04T14:31:37.546Z</time></trkpt><trkpt lat="45.1600871" lon="8.1793866"><ele>144.0</ele><time>2026-04-04T14:31:38.547Z</time></trkpt><trkpt lat="45.1600209" lon="8.1793517"><ele>144.0</ele><time>2026-04-04T14:31:39.547Z</time></trkpt><trkpt lat="45.1599534" lon="8.1793184"><ele>144.00000000000003</ele><time>2026-04-04T14:31:40.546Z</time></trkpt><trkpt lat="45.1598836" lon="8.1792904"><ele>144.0</ele><time>2026-04-04T14:31:41.546Z</time></trkpt><trkpt lat="45.1598141" lon="8.1792643"><ele>144.16666666666666</ele><time>2026-04-04T14:31:42.547Z</time></trkpt><trkpt lat="45.1597469" lon="8.1792339"><ele>144.33333333333334</ele><time>2026-04-04T14:31:43.546Z</time></trkpt><trkpt lat="45.1596797" lon="8.1792017"><ele>144.5</ele><time>2026-04-04T14:31:44.547Z</time></trkpt><trkpt lat="45.1596169" lon="8.1791733"><ele>144.66666666666669</ele><time>2026-04-04T14:31:45.547Z</time></trkpt><trkpt lat="45.159497" lon="8.1791485"><ele>144.83333333333334</ele><time>2026-04-04T14:31:47.548Z</time></trkpt><trkpt lat="45.1593792" lon="8.179158"><ele>145.0</ele><time>2026-04-04T14:31:49.547Z</time></trkpt><trkpt lat="45.1592847" lon="8.1791664"><ele>145.0</ele><time>2026-04-04T14:31:51.547Z</time></trkpt><trkpt lat="45.1592191" lon="8.1791544"><ele>145.0</ele><time>2026-04-04T14:31:55.548Z</time></trkpt><trkpt lat="45.1591551" lon="8.1792043"><ele>145.0</ele><time>2026-04-04T14:31:57.548Z</time></trkpt><trkpt lat="45.159072" lon="8.17934"><ele>145.0</ele><time>2026-04-04T14:31:59.547Z</time></trkpt><trkpt lat="45.1590246" lon="8.1794072"><ele>145.0</ele><time>2026-04-04T14:32:00.547Z</time></trkpt><trkpt lat="45.1589701" lon="8.1794697"><ele>145.0</ele><time>2026-04-04T14:32:01.547Z</time></trkpt><trkpt lat="45.1589063" lon="8.1795341"><ele>145.66666666666669</ele><time>2026-04-04T14:32:02.548Z</time></trkpt><trkpt lat="45.1588395" lon="8.1795922"><ele>146.33333333333334</ele><time>2026-04-04T14:32:03.547Z</time></trkpt><trkpt lat="45.1587697" lon="8.1796514"><ele>147.0</ele><time>2026-04-04T14:32:04.547Z</time></trkpt><trkpt lat="45.158702" lon="8.1797135"><ele>147.66666666666666</ele><time>2026-04-04T14:32:05.547Z</time></trkpt><trkpt lat="45.158637" lon="8.1797782"><ele>148.33333333333331</ele><time>2026-04-04T14:32:06.547Z</time></trkpt><trkpt lat="45.1585719" lon="8.1798485"><ele>149.0</ele><time>2026-04-04T14:32:07.548Z</time></trkpt><trkpt lat="45.1585095" lon="8.1799215"><ele>149.14285714285714</ele><time>2026-04-04T14:32:08.548Z</time></trkpt><trkpt lat="45.1584498" lon="8.1799869"><ele>149.28571428571428</ele><time>2026-04-04T14:32:09.547Z</time></trkpt><trkpt lat="45.1583896" lon="8.1800494"><ele>149.42857142857142</ele><time>2026-04-04T14:32:10.547Z</time></trkpt><trkpt lat="45.1583315" lon="8.1801133"><ele>149.57142857142856</ele><time>2026-04-04T14:32:11.547Z</time></trkpt><trkpt lat="45.1582709" lon="8.1801761"><ele>149.71428571428572</ele><time>2026-04-04T14:32:12.547Z</time></trkpt><trkpt lat="45.1582186" lon="8.1802399"><ele>149.85714285714283</ele><time>2026-04-04T14:32:13.547Z</time></trkpt><trkpt lat="45.158171" lon="8.1803067"><ele>150.0</ele><time>2026-04-04T14:32:14.548Z</time></trkpt><trkpt lat="45.158124" lon="8.1803815"><ele>150.28571428571428</ele><time>2026-04-04T14:32:15.548Z</time></trkpt><trkpt lat="45.1580822" lon="8.1804627"><ele>150.57142857142856</ele><time>2026-04-04T14:32:16.547Z</time></trkpt><trkpt lat="45.158045" lon="8.1805417"><ele>150.85714285714283</ele><time>2026-04-04T14:32:17.548Z</time></trkpt><trkpt lat="45.1580095" lon="8.1806221"><ele>151.14285714285714</ele><time>2026-04-04T14:32:18.547Z</time></trkpt><trkpt lat="45.1579752" lon="8.1807044"><ele>151.42857142857144</ele><time>2026-04-04T14:32:19.548Z</time></trkpt><trkpt lat="45.1579418" lon="8.1807882"><ele>151.7142857142857</ele><time>2026-04-04T14:32:20.548Z</time></trkpt><trkpt lat="45.1579102" lon="8.1808768"><ele>152.0</ele><time>2026-04-04T14:32:21.548Z</time></trkpt><trkpt lat="45.1578744" lon="8.1809661"><ele>152.85714285714286</ele><time>2026-04-04T14:32:22.548Z</time></trkpt><trkpt lat="45.1578399" lon="8.1810498"><ele>153.71428571428572</ele><time>2026-04-04T14:32:23.547Z</time></trkpt><trkpt lat="45.1578056" lon="8.181132"><ele>154.57142857142858</ele><time>2026-04-04T14:32:24.547Z</time></trkpt><trkpt lat="45.1577754" lon="8.1812208"><ele>155.42857142857144</ele><time>2026-04-04T14:32:25.547Z</time></trkpt><trkpt lat="45.1577439" lon="8.1813088"><ele>156.28571428571428</ele><time>2026-04-04T14:32:26.547Z</time></trkpt><trkpt lat="45.157714" lon="8.1813943"><ele>157.14285714285717</ele><time>2026-04-04T14:32:27.547Z</time></trkpt><trkpt lat="45.1576828" lon="8.1814823"><ele>158.0</ele><time>2026-04-04T14:32:28.547Z</time></trkpt><trkpt lat="45.157649" lon="8.1815766"><ele>158.2857142857143</ele><time>2026-04-04T14:32:29.548Z</time></trkpt><trkpt lat="45.1576132" lon="8.1816666"><ele>158.57142857142858</ele><time>2026-04-04T14:32:30.547Z</time></trkpt><trkpt lat="45.1575712" lon="8.1817481"><ele>158.85714285714286</ele><time>2026-04-04T14:32:31.548Z</time></trkpt><trkpt lat="45.1575225" lon="8.1818193"><ele>159.14285714285717</ele><time>2026-04-04T14:32:32.548Z</time></trkpt><trkpt lat="45.1574682" lon="8.1818825"><ele>159.42857142857144</ele><time>2026-04-04T14:32:33.549Z</time></trkpt><trkpt lat="45.1574069" lon="8.1819381"><ele>159.71428571428572</ele><time>2026-04-04T14:32:34.549Z</time></trkpt><trkpt lat="45.1573387" lon="8.1819852"><ele>160.0</ele><time>2026-04-04T14:32:35.549Z</time></trkpt><trkpt lat="45.1572689" lon="8.1820213"><ele>160.0</ele><time>2026-04-04T14:32:36.549Z</time></trkpt><trkpt lat="45.1571975" lon="8.1820545"><ele>160.0</ele><time>2026-04-04T14:32:37.549Z</time></trkpt><trkpt lat="45.1571272" lon="8.1820898"><ele>160.0</ele><time>2026-04-04T14:32:38.549Z</time></trkpt><trkpt lat="45.1570607" lon="8.1821301"><ele>160.0</ele><time>2026-04-04T14:32:39.548Z</time></trkpt><trkpt lat="45.157" lon="8.1821746"><ele>160.0</ele><time>2026-04-04T14:32:40.548Z</time></trkpt><trkpt lat="45.1569394" lon="8.1822302"><ele>160.0</ele><time>2026-04-04T14:32:41.548Z</time></trkpt><trkpt lat="45.1568773" lon="8.182292"><ele>160.0</ele><time>2026-04-04T14:32:42.548Z</time></trkpt><trkpt lat="45.156827" lon="8.1823629"><ele>161.42857142857142</ele><time>2026-04-04T14:32:43.549Z</time></trkpt><trkpt lat="45.1567861" lon="8.1824489"><ele>162.85714285714286</ele><time>2026-04-04T14:32:44.549Z</time></trkpt><trkpt lat="45.156755" lon="8.1825373"><ele>164.28571428571428</ele><time>2026-04-04T14:32:45.549Z</time></trkpt><trkpt lat="45.1567301" lon="8.1826374"><ele>165.71428571428572</ele><time>2026-04-04T14:32:46.549Z</time></trkpt><trkpt lat="45.1567078" lon="8.1827415"><ele>167.14285714285714</ele><time>2026-04-04T14:32:47.548Z</time></trkpt><trkpt lat="45.1566851" lon="8.1828431"><ele>168.57142857142858</ele><time>2026-04-04T14:32:48.548Z</time></trkpt><trkpt lat="45.1566575" lon="8.1829405"><ele>170.0</ele><time>2026-04-04T14:32:49.548Z</time></trkpt><trkpt lat="45.1566214" lon="8.1830251"><ele>170.0</ele><time>2026-04-04T14:32:50.549Z</time></trkpt><trkpt lat="45.1565755" lon="8.1831008"><ele>170.0</ele><time>2026-04-04T14:32:51.549Z</time></trkpt><trkpt lat="45.1565224" lon="8.1831667"><ele>170.0</ele><time>2026-04-04T14:32:52.548Z</time></trkpt><trkpt lat="45.1564651" lon="8.1832207"><ele>170.0</ele><time>2026-04-04T14:32:53.548Z</time></trkpt><trkpt lat="45.1564048" lon="8.1832701"><ele>170.0</ele><time>2026-04-04T14:32:54.548Z</time></trkpt><trkpt lat="45.156346" lon="8.183319"><ele>170.0</ele><time>2026-04-04T14:32:55.549Z</time></trkpt><trkpt lat="45.1562917" lon="8.1833747"><ele>170.0</ele><time>2026-04-04T14:32:56.549Z</time></trkpt><trkpt lat="45.1562415" lon="8.1834402"><ele>169.85714285714286</ele><time>2026-04-04T14:32:57.549Z</time></trkpt><trkpt lat="45.1561962" lon="8.1835148"><ele>169.7142857142857</ele><time>2026-04-04T14:32:58.548Z</time></trkpt><trkpt lat="45.1561565" lon="8.1836005"><ele>169.57142857142856</ele><time>2026-04-04T14:32:59.548Z</time></trkpt><trkpt lat="45.1561263" lon="8.1836948"><ele>169.42857142857144</ele><time>2026-04-04T14:33:00.548Z</time></trkpt><trkpt lat="45.1561056" lon="8.1837975"><ele>169.28571428571428</ele><time>2026-04-04T14:33:01.548Z</time></trkpt><trkpt lat="45.1560969" lon="8.183905"><ele>169.14285714285714</ele><time>2026-04-04T14:33:02.549Z</time></trkpt><trkpt lat="45.156101" lon="8.1840162"><ele>169.0</ele><time>2026-04-04T14:33:03.548Z</time></trkpt><trkpt lat="45.1561142" lon="8.1841278"><ele>170.0</ele><time>2026-04-04T14:33:04.548Z</time></trkpt><trkpt lat="45.1561389" lon="8.1842391"><ele>171.0</ele><time>2026-04-04T14:33:05.549Z</time></trkpt><trkpt lat="45.1561646" lon="8.1843561"><ele>172.0</ele><time>2026-04-04T14:33:06.549Z</time></trkpt><trkpt lat="45.1561897" lon="8.1844602"><ele>173.0</ele><time>2026-04-04T14:33:07.548Z</time></trkpt><trkpt lat="45.1562146" lon="8.1845562"><ele>174.0</ele><time>2026-04-04T14:33:08.548Z</time></trkpt><trkpt lat="45.1562429" lon="8.1846541"><ele>175.0</ele><time>2026-04-04T14:33:09.549Z</time></trkpt><trkpt lat="45.1562703" lon="8.1847636"><ele>175.33333333333334</ele><time>2026-04-04T14:33:10.549Z</time></trkpt><trkpt lat="45.156296" lon="8.1848771"><ele>175.66666666666669</ele><time>2026-04-04T14:33:11.549Z</time></trkpt><trkpt lat="45.1563244" lon="8.1849929"><ele>176.0</ele><time>2026-04-04T14:33:12.549Z</time></trkpt><trkpt lat="45.1563535" lon="8.1851103"><ele>176.33333333333334</ele><time>2026-04-04T14:33:13.549Z</time></trkpt><trkpt lat="45.1563816" lon="8.185224"><ele>176.66666666666666</ele><time>2026-04-04T14:33:14.549Z</time></trkpt><trkpt lat="45.1564079" lon="8.185334"><ele>177.0</ele><time>2026-04-04T14:33:15.549Z</time></trkpt><trkpt lat="45.1564351" lon="8.1854463"><ele>177.0</ele><time>2026-04-04T14:33:16.55Z</time></trkpt><trkpt lat="45.1564608" lon="8.1855584"><ele>177.0</ele><time>2026-04-04T14:33:17.549Z</time></trkpt><trkpt lat="45.1564877" lon="8.1856773"><ele>177.0</ele><time>2026-04-04T14:33:18.548Z</time></trkpt><trkpt lat="45.1565189" lon="8.1857985"><ele>177.0</ele><time>2026-04-04T14:33:19.548Z</time></trkpt><trkpt lat="45.156548" lon="8.1859127"><ele>177.0</ele><time>2026-04-04T14:33:20.549Z</time></trkpt><trkpt lat="45.1565799" lon="8.1860243"><ele>177.0</ele><time>2026-04-04T14:33:21.549Z</time></trkpt><trkpt lat="45.1566136" lon="8.1861345"><ele>178.5</ele><time>2026-04-04T14:33:22.55Z</time></trkpt><trkpt lat="45.1566511" lon="8.186241"><ele>180.0</ele><time>2026-04-04T14:33:23.55Z</time></trkpt><trkpt lat="45.156696" lon="8.1863372"><ele>181.5</ele><time>2026-04-04T14:33:24.55Z</time></trkpt><trkpt lat="45.1567625" lon="8.1864259"><ele>183.0</ele><time>2026-04-04T14:33:25.549Z</time></trkpt><trkpt lat="45.1568392" lon="8.186495"><ele>184.5</ele><time>2026-04-04T14:33:26.55Z</time></trkpt><trkpt lat="45.1569198" lon="8.1865453"><ele>186.0</ele><time>2026-04-04T14:33:27.55Z</time></trkpt><trkpt lat="45.1570022" lon="8.1865799"><ele>187.0</ele><time>2026-04-04T14:33:28.549Z</time></trkpt><trkpt lat="45.157085" lon="8.1866025"><ele>188.0</ele><time>2026-04-04T14:33:29.549Z</time></trkpt><trkpt lat="45.1571687" lon="8.186625"><ele>189.0</ele><time>2026-04-04T14:33:30.55Z</time></trkpt><trkpt lat="45.1572498" lon="8.1866459"><ele>190.0</ele><time>2026-04-04T14:33:31.549Z</time></trkpt><trkpt lat="45.1573315" lon="8.1866758"><ele>191.0</ele><time>2026-04-04T14:33:32.55Z</time></trkpt><trkpt lat="45.1574114" lon="8.1867184"><ele>192.0</ele><time>2026-04-04T14:33:33.55Z</time></trkpt><trkpt lat="45.1574854" lon="8.1867887"><ele>193.0</ele><time>2026-04-04T14:33:34.55Z</time></trkpt><trkpt lat="45.1575491" lon="8.1868862"><ele>194.0</ele><time>2026-04-04T14:33:35.55Z</time></trkpt><trkpt lat="45.1575958" lon="8.1870019"><ele>195.0</ele><time>2026-04-04T14:33:36.549Z</time></trkpt><trkpt lat="45.1576237" lon="8.1871268"><ele>196.0</ele><time>2026-04-04T14:33:37.549Z</time></trkpt><trkpt lat="45.1576355" lon="8.1872495"><ele>197.0</ele><time>2026-04-04T14:33:38.55Z</time></trkpt><trkpt lat="45.1576314" lon="8.1873688"><ele>198.00000000000003</ele><time>2026-04-04T14:33:39.55Z</time></trkpt><trkpt lat="45.1576199" lon="8.1874915"><ele>199.0</ele><time>2026-04-04T14:33:40.55Z</time></trkpt><trkpt lat="45.1576004" lon="8.1876086"><ele>200.0</ele><time>2026-04-04T14:33:41.549Z</time></trkpt><trkpt lat="45.1575779" lon="8.1877239"><ele>201.0</ele><time>2026-04-04T14:33:42.549Z</time></trkpt><trkpt lat="45.1575551" lon="8.1878375"><ele>202.00000000000003</ele><time>2026-04-04T14:33:43.55Z</time></trkpt><trkpt lat="45.1575357" lon="8.1879533"><ele>203.0</ele><time>2026-04-04T14:33:44.549Z</time></trkpt><trkpt lat="45.1575188" lon="8.1880713"><ele>203.83333333333334</ele><time>2026-04-04T14:33:45.55Z</time></trkpt><trkpt lat="45.1575036" lon="8.1881896"><ele>204.66666666666669</ele><time>2026-04-04T14:33:46.55Z</time></trkpt><trkpt lat="45.1574884" lon="8.1883074"><ele>205.5</ele><time>2026-04-04T14:33:47.549Z</time></trkpt><trkpt lat="45.1574733" lon="8.1884267"><ele>206.33333333333331</ele><time>2026-04-04T14:33:48.549Z</time></trkpt><trkpt lat="45.157458" lon="8.1885465"><ele>207.16666666666666</ele><time>2026-04-04T14:33:49.55Z</time></trkpt><trkpt lat="45.1574433" lon="8.1886653"><ele>208.0</ele><time>2026-04-04T14:33:50.55Z</time></trkpt><trkpt lat="45.157429" lon="8.1887856"><ele>207.99999999999997</ele><time>2026-04-04T14:33:51.549Z</time></trkpt><trkpt lat="45.1574163" lon="8.188905"><ele>208.0</ele><time>2026-04-04T14:33:52.549Z</time></trkpt><trkpt lat="45.1574013" lon="8.1890235"><ele>208.0</ele><time>2026-04-04T14:33:53.55Z</time></trkpt><trkpt lat="45.1573761" lon="8.1891392"><ele>208.0</ele><time>2026-04-04T14:33:54.55Z</time></trkpt><trkpt lat="45.157332" lon="8.1892505"><ele>207.99999999999997</ele><time>2026-04-04T14:33:55.55Z</time></trkpt><trkpt lat="45.1572718" lon="8.1893461"><ele>208.0</ele><time>2026-04-04T14:33:56.55Z</time></trkpt><trkpt lat="45.157194" lon="8.189426"><ele>209.2</ele><time>2026-04-04T14:33:57.55Z</time></trkpt><trkpt lat="45.1571087" lon="8.1894855"><ele>210.4</ele><time>2026-04-04T14:33:58.549Z</time></trkpt><trkpt lat="45.1570243" lon="8.1895201"><ele>211.59999999999997</ele><time>2026-04-04T14:33:59.549Z</time></trkpt><trkpt lat="45.1569348" lon="8.1895391"><ele>212.79999999999998</ele><time>2026-04-04T14:34:00.55Z</time></trkpt><trkpt lat="45.156842" lon="8.1895394"><ele>214.0</ele><time>2026-04-04T14:34:01.549Z</time></trkpt><trkpt lat="45.1567464" lon="8.1895315"><ele>214.0</ele><time>2026-04-04T14:34:02.55Z</time></trkpt><trkpt lat="45.156655" lon="8.1895221"><ele>213.99999999999997</ele><time>2026-04-04T14:34:03.55Z</time></trkpt><trkpt lat="45.1565652" lon="8.18953"><ele>213.99999999999997</ele><time>2026-04-04T14:34:04.55Z</time></trkpt><trkpt lat="45.1564738" lon="8.1895402"><ele>214.0</ele><time>2026-04-04T14:34:05.549Z</time></trkpt><trkpt lat="45.1563834" lon="8.1895498"><ele>214.0</ele><time>2026-04-04T14:34:06.549Z</time></trkpt><trkpt lat="45.1562944" lon="8.1895595"><ele>213.99999999999997</ele><time>2026-04-04T14:34:07.55Z</time></trkpt><trkpt lat="45.1562081" lon="8.1895689"><ele>214.0</ele><time>2026-04-04T14:34:08.55Z</time></trkpt><trkpt lat="45.1561232" lon="8.1895786"><ele>214.0</ele><time>2026-04-04T14:34:09.55Z</time></trkpt><trkpt lat="45.1560376" lon="8.189589"><ele>214.0</ele><time>2026-04-04T14:34:10.55Z</time></trkpt><trkpt lat="45.1559536" lon="8.1895988"><ele>213.99999999999997</ele><time>2026-04-04T14:34:11.55Z</time></trkpt><trkpt lat="45.1558725" lon="8.1896111"><ele>214.0</ele><time>2026-04-04T14:34:12.551Z</time></trkpt><trkpt lat="45.1558001" lon="8.1896249"><ele>214.83333333333331</ele><time>2026-04-04T14:34:13.55Z</time></trkpt><trkpt lat="45.1556793" lon="8.1896405"><ele>215.66666666666666</ele><time>2026-04-04T14:34:15.55Z</time></trkpt><trkpt lat="45.1556078" lon="8.1896401"><ele>216.5</ele><time>2026-04-04T14:34:16.551Z</time></trkpt><trkpt lat="45.1555337" lon="8.1896334"><ele>217.33333333333331</ele><time>2026-04-04T14:34:17.551Z</time></trkpt><trkpt lat="45.1554492" lon="8.1896366"><ele>218.16666666666666</ele><time>2026-04-04T14:34:18.55Z</time></trkpt><trkpt lat="45.1553644" lon="8.1896345"><ele>219.0</ele><time>2026-04-04T14:34:19.551Z</time></trkpt><trkpt lat="45.1552857" lon="8.189638"><ele>219.0</ele><time>2026-04-04T14:34:20.551Z</time></trkpt><trkpt lat="45.1552068" lon="8.1896412"><ele>219.0</ele><time>2026-04-04T14:34:21.55Z</time></trkpt><trkpt lat="45.1551244" lon="8.1896453"><ele>219.0</ele><time>2026-04-04T14:34:22.55Z</time></trkpt><trkpt lat="45.1550448" lon="8.1896541"><ele>219.0</ele><time>2026-04-04T14:34:23.55Z</time></trkpt><trkpt lat="45.1549679" lon="8.1896635"><ele>219.0</ele><time>2026-04-04T14:34:24.55Z</time></trkpt><trkpt lat="45.1548913" lon="8.1896664"><ele>219.0</ele><time>2026-04-04T14:34:25.551Z</time></trkpt><trkpt lat="45.154819" lon="8.1896776"><ele>219.33333333333334</ele><time>2026-04-04T14:34:26.551Z</time></trkpt><trkpt lat="45.1547536" lon="8.1896863"><ele>219.66666666666669</ele><time>2026-04-04T14:34:27.551Z</time></trkpt><trkpt lat="45.1546209" lon="8.1897165"><ele>220.0</ele><time>2026-04-04T14:34:29.551Z</time></trkpt><trkpt lat="45.1545469" lon="8.1897385"><ele>220.33333333333334</ele><time>2026-04-04T14:34:30.551Z</time></trkpt><trkpt lat="45.154476" lon="8.1897562"><ele>220.66666666666669</ele><time>2026-04-04T14:34:31.551Z</time></trkpt><trkpt lat="45.1544008" lon="8.1897845"><ele>221.0</ele><time>2026-04-04T14:34:32.551Z</time></trkpt><trkpt lat="45.1543246" lon="8.189827"><ele>220.50000000000003</ele><time>2026-04-04T14:34:33.55Z</time></trkpt><trkpt lat="45.1542504" lon="8.1898852"><ele>220.0</ele><time>2026-04-04T14:34:34.551Z</time></trkpt><trkpt lat="45.154177" lon="8.1899549"><ele>219.5</ele><time>2026-04-04T14:34:35.551Z</time></trkpt><trkpt lat="45.1541039" lon="8.1900316"><ele>219.0</ele><time>2026-04-04T14:34:36.551Z</time></trkpt><trkpt lat="45.1540389" lon="8.1901022"><ele>218.50000000000003</ele><time>2026-04-04T14:34:37.55Z</time></trkpt><trkpt lat="45.1539876" lon="8.1901581"><ele>218.0</ele><time>2026-04-04T14:34:38.551Z</time></trkpt><trkpt lat="45.1539113" lon="8.1902419"><ele>218.00000000000003</ele><time>2026-04-04T14:34:40.551Z</time></trkpt><trkpt lat="45.153831" lon="8.1903413"><ele>218.0</ele><time>2026-04-04T14:34:42.551Z</time></trkpt><trkpt lat="45.1537775" lon="8.1904015"><ele>218.0</ele><time>2026-04-04T14:34:43.551Z</time></trkpt><trkpt lat="45.1537145" lon="8.1904677"><ele>218.0</ele><time>2026-04-04T14:34:44.551Z</time></trkpt><trkpt lat="45.153647" lon="8.1905407"><ele>218.00000000000003</ele><time>2026-04-04T14:34:45.551Z</time></trkpt><trkpt lat="45.1535777" lon="8.1906197"><ele>218.0</ele><time>2026-04-04T14:34:46.55Z</time></trkpt><trkpt lat="45.1535043" lon="8.1906993"><ele>217.0</ele><time>2026-04-04T14:34:47.551Z</time></trkpt><trkpt lat="45.1534292" lon="8.1907789"><ele>216.0</ele><time>2026-04-04T14:34:48.55Z</time></trkpt><trkpt lat="45.1533543" lon="8.1908608"><ele>215.0</ele><time>2026-04-04T14:34:49.551Z</time></trkpt><trkpt lat="45.1532796" lon="8.1909425"><ele>214.0</ele><time>2026-04-04T14:34:50.551Z</time></trkpt><trkpt lat="45.1532066" lon="8.1910231"><ele>213.0</ele><time>2026-04-04T14:34:51.552Z</time></trkpt><trkpt lat="45.1531339" lon="8.1911007"><ele>213.0</ele><time>2026-04-04T14:34:52.55Z</time></trkpt><trkpt lat="45.1530612" lon="8.1911757"><ele>213.0</ele><time>2026-04-04T14:34:53.55Z</time></trkpt><trkpt lat="45.1529886" lon="8.1912508"><ele>213.0</ele><time>2026-04-04T14:34:54.55Z</time></trkpt><trkpt lat="45.1529144" lon="8.1913263"><ele>213.0</ele><time>2026-04-04T14:34:55.55Z</time></trkpt><trkpt lat="45.1528417" lon="8.1914025"><ele>213.0</ele><time>2026-04-04T14:34:56.55Z</time></trkpt><trkpt lat="45.1527695" lon="8.191482"><ele>212.2</ele><time>2026-04-04T14:34:57.551Z</time></trkpt><trkpt lat="45.1526977" lon="8.1915631"><ele>211.4</ele><time>2026-04-04T14:34:58.551Z</time></trkpt><trkpt lat="45.1526248" lon="8.1916432"><ele>210.6</ele><time>2026-04-04T14:34:59.552Z</time></trkpt><trkpt lat="45.1525501" lon="8.1917243"><ele>209.79999999999998</ele><time>2026-04-04T14:35:00.552Z</time></trkpt><trkpt lat="45.1524753" lon="8.1918087"><ele>209.0</ele><time>2026-04-04T14:35:01.552Z</time></trkpt><trkpt lat="45.1524019" lon="8.1918946"><ele>208.6</ele><time>2026-04-04T14:35:02.552Z</time></trkpt><trkpt lat="45.1523294" lon="8.1919857"><ele>208.2</ele><time>2026-04-04T14:35:03.552Z</time></trkpt><trkpt lat="45.1522575" lon="8.1920783"><ele>207.79999999999998</ele><time>2026-04-04T14:35:04.552Z</time></trkpt><trkpt lat="45.1521864" lon="8.1921717"><ele>207.39999999999998</ele><time>2026-04-04T14:35:05.552Z</time></trkpt><trkpt lat="45.1521185" lon="8.1922653"><ele>207.0</ele><time>2026-04-04T14:35:06.551Z</time></trkpt><trkpt lat="45.1520501" lon="8.1923569"><ele>206.2</ele><time>2026-04-04T14:35:07.551Z</time></trkpt><trkpt lat="45.1519797" lon="8.1924447"><ele>205.39999999999998</ele><time>2026-04-04T14:35:08.551Z</time></trkpt><trkpt lat="45.1519081" lon="8.1925302"><ele>204.60000000000002</ele><time>2026-04-04T14:35:09.552Z</time></trkpt><trkpt lat="45.1518361" lon="8.1926164"><ele>203.8</ele><time>2026-04-04T14:35:10.551Z</time></trkpt><trkpt lat="45.1517645" lon="8.1927055"><ele>203.0</ele><time>2026-04-04T14:35:11.551Z</time></trkpt><trkpt lat="45.151692" lon="8.1927958"><ele>203.0</ele><time>2026-04-04T14:35:12.552Z</time></trkpt><trkpt lat="45.1516198" lon="8.192886"><ele>203.0</ele><time>2026-04-04T14:35:13.552Z</time></trkpt><trkpt lat="45.1515453" lon="8.192979"><ele>203.0</ele><time>2026-04-04T14:35:14.551Z</time></trkpt><trkpt lat="45.1514728" lon="8.1930742"><ele>203.0</ele><time>2026-04-04T14:35:15.551Z</time></trkpt><trkpt lat="45.1514043" lon="8.193169"><ele>203.0</ele><time>2026-04-04T14:35:16.552Z</time></trkpt><trkpt lat="45.1513368" lon="8.1932634"><ele>202.8</ele><time>2026-04-04T14:35:17.551Z</time></trkpt><trkpt lat="45.1512712" lon="8.1933578"><ele>202.60000000000002</ele><time>2026-04-04T14:35:18.552Z</time></trkpt><trkpt lat="45.1512036" lon="8.193449"><ele>202.39999999999998</ele><time>2026-04-04T14:35:19.551Z</time></trkpt><trkpt lat="45.1511365" lon="8.1935359"><ele>202.2</ele><time>2026-04-04T14:35:20.551Z</time></trkpt><trkpt lat="45.1510687" lon="8.1936225"><ele>202.0</ele><time>2026-04-04T14:35:21.552Z</time></trkpt><trkpt lat="45.1510002" lon="8.1937061"><ele>202.0</ele><time>2026-04-04T14:35:22.552Z</time></trkpt><trkpt lat="45.1509316" lon="8.1937839"><ele>202.0</ele><time>2026-04-04T14:35:23.552Z</time></trkpt><trkpt lat="45.1508638" lon="8.1938681"><ele>202.0</ele><time>2026-04-04T14:35:24.551Z</time></trkpt><trkpt lat="45.1507949" lon="8.1939568"><ele>202.0</ele><time>2026-04-04T14:35:25.552Z</time></trkpt><trkpt lat="45.150729" lon="8.194051"><ele>202.0</ele><time>2026-04-04T14:35:26.551Z</time></trkpt><trkpt lat="45.1506643" lon="8.1941478"><ele>201.2</ele><time>2026-04-04T14:35:27.552Z</time></trkpt><trkpt lat="45.1505974" lon="8.1942423"><ele>200.39999999999998</ele><time>2026-04-04T14:35:28.551Z</time></trkpt><trkpt lat="45.1505276" lon="8.1943367"><ele>199.60000000000002</ele><time>2026-04-04T14:35:29.551Z</time></trkpt><trkpt lat="45.1504562" lon="8.1944286"><ele>198.8</ele><time>2026-04-04T14:35:30.551Z</time></trkpt><trkpt lat="45.150383" lon="8.1945205"><ele>198.0</ele><time>2026-04-04T14:35:31.552Z</time></trkpt><trkpt lat="45.1503109" lon="8.1946126"><ele>198.0</ele><time>2026-04-04T14:35:32.551Z</time></trkpt><trkpt lat="45.150236" lon="8.1947087"><ele>198.0</ele><time>2026-04-04T14:35:33.552Z</time></trkpt><trkpt lat="45.1501626" lon="8.1948025"><ele>198.0</ele><time>2026-04-04T14:35:34.552Z</time></trkpt><trkpt lat="45.1500879" lon="8.1948992"><ele>198.0</ele><time>2026-04-04T14:35:35.551Z</time></trkpt><trkpt lat="45.1500137" lon="8.194996"><ele>198.0</ele><time>2026-04-04T14:35:36.552Z</time></trkpt><trkpt lat="45.1499407" lon="8.19509"><ele>198.2</ele><time>2026-04-04T14:35:37.551Z</time></trkpt><trkpt lat="45.1498696" lon="8.195182"><ele>198.4</ele><time>2026-04-04T14:35:38.552Z</time></trkpt><trkpt lat="45.1497981" lon="8.1952737"><ele>198.6</ele><time>2026-04-04T14:35:39.551Z</time></trkpt><trkpt lat="45.1497273" lon="8.1953668"><ele>198.79999999999998</ele><time>2026-04-04T14:35:40.551Z</time></trkpt><trkpt lat="45.1496563" lon="8.195459"><ele>199.0</ele><time>2026-04-04T14:35:41.552Z</time></trkpt><trkpt lat="45.1495873" lon="8.1955509"><ele>199.0</ele><time>2026-04-04T14:35:42.553Z</time></trkpt><trkpt lat="45.1495181" lon="8.1956434"><ele>199.0</ele><time>2026-04-04T14:35:43.552Z</time></trkpt><trkpt lat="45.1494476" lon="8.1957358"><ele>199.0</ele><time>2026-04-04T14:35:44.551Z</time></trkpt><trkpt lat="45.1493802" lon="8.1958269"><ele>199.0</ele><time>2026-04-04T14:35:45.553Z</time></trkpt><trkpt lat="45.149313" lon="8.1959185"><ele>199.0</ele><time>2026-04-04T14:35:46.553Z</time></trkpt><trkpt lat="45.1492431" lon="8.1960063"><ele>199.79999999999998</ele><time>2026-04-04T14:35:47.552Z</time></trkpt><trkpt lat="45.1491698" lon="8.1960937"><ele>200.6</ele><time>2026-04-04T14:35:48.552Z</time></trkpt><trkpt lat="45.1490898" lon="8.1961897"><ele>201.4</ele><time>2026-04-04T14:35:49.553Z</time></trkpt><trkpt lat="45.1490146" lon="8.1962831"><ele>202.2</ele><time>2026-04-04T14:35:50.553Z</time></trkpt><trkpt lat="45.1489427" lon="8.1963729"><ele>203.0</ele><time>2026-04-04T14:35:51.552Z</time></trkpt><trkpt lat="45.1488732" lon="8.1964635"><ele>200.8</ele><time>2026-04-04T14:35:52.553Z</time></trkpt><trkpt lat="45.1488043" lon="8.1965548"><ele>198.60000000000002</ele><time>2026-04-04T14:35:53.552Z</time></trkpt><trkpt lat="45.1487351" lon="8.1966451"><ele>196.39999999999998</ele><time>2026-04-04T14:35:54.552Z</time></trkpt><trkpt lat="45.1486672" lon="8.1967334"><ele>194.2</ele><time>2026-04-04T14:35:55.553Z</time></trkpt><trkpt lat="45.1485992" lon="8.1968193"><ele>192.0</ele><time>2026-04-04T14:35:56.553Z</time></trkpt><trkpt lat="45.1485317" lon="8.1969059"><ele>192.0</ele><time>2026-04-04T14:35:57.552Z</time></trkpt><trkpt lat="45.1484632" lon="8.1969923"><ele>192.0</ele><time>2026-04-04T14:35:58.553Z</time></trkpt><trkpt lat="45.14839" lon="8.1970766"><ele>192.0</ele><time>2026-04-04T14:35:59.552Z</time></trkpt><trkpt lat="45.1483097" lon="8.1971527"><ele>192.0</ele><time>2026-04-04T14:36:00.553Z</time></trkpt><trkpt lat="45.1482255" lon="8.1972174"><ele>192.0</ele><time>2026-04-04T14:36:01.553Z</time></trkpt><trkpt lat="45.1481376" lon="8.1972711"><ele>191.2</ele><time>2026-04-04T14:36:02.552Z</time></trkpt><trkpt lat="45.1480479" lon="8.1973158"><ele>190.39999999999998</ele><time>2026-04-04T14:36:03.552Z</time></trkpt><trkpt lat="45.1479585" lon="8.1973558"><ele>189.60000000000002</ele><time>2026-04-04T14:36:04.552Z</time></trkpt><trkpt lat="45.147868" lon="8.1973957"><ele>188.8</ele><time>2026-04-04T14:36:05.552Z</time></trkpt><trkpt lat="45.147779" lon="8.1974381"><ele>188.0</ele><time>2026-04-04T14:36:06.552Z</time></trkpt><trkpt lat="45.1476887" lon="8.1974824"><ele>188.0</ele><time>2026-04-04T14:36:07.553Z</time></trkpt><trkpt lat="45.1475977" lon="8.1975274"><ele>188.0</ele><time>2026-04-04T14:36:08.553Z</time></trkpt><trkpt lat="45.1475063" lon="8.1975718"><ele>188.0</ele><time>2026-04-04T14:36:09.552Z</time></trkpt><trkpt lat="45.1474178" lon="8.1976158"><ele>188.0</ele><time>2026-04-04T14:36:10.552Z</time></trkpt><trkpt lat="45.1473312" lon="8.1976603"><ele>188.0</ele><time>2026-04-04T14:36:11.553Z</time></trkpt><trkpt lat="45.1472467" lon="8.1977052"><ele>188.2</ele><time>2026-04-04T14:36:12.552Z</time></trkpt><trkpt lat="45.1471587" lon="8.1977491"><ele>188.4</ele><time>2026-04-04T14:36:13.553Z</time></trkpt><trkpt lat="45.1470686" lon="8.1977944"><ele>188.6</ele><time>2026-04-04T14:36:14.552Z</time></trkpt><trkpt lat="45.1469798" lon="8.1978409"><ele>188.79999999999998</ele><time>2026-04-04T14:36:15.552Z</time></trkpt><trkpt lat="45.1468902" lon="8.1978882"><ele>189.0</ele><time>2026-04-04T14:36:16.553Z</time></trkpt><trkpt lat="45.1468012" lon="8.1979336"><ele>189.0</ele><time>2026-04-04T14:36:17.553Z</time></trkpt><trkpt lat="45.1467107" lon="8.1979793"><ele>189.0</ele><time>2026-04-04T14:36:18.553Z</time></trkpt><trkpt lat="45.1466185" lon="8.198024"><ele>189.0</ele><time>2026-04-04T14:36:19.552Z</time></trkpt><trkpt lat="45.1465261" lon="8.1980684"><ele>189.0</ele><time>2026-04-04T14:36:20.552Z</time></trkpt><trkpt lat="45.1464329" lon="8.1981123"><ele>189.0</ele><time>2026-04-04T14:36:21.553Z</time></trkpt><trkpt lat="45.1463402" lon="8.1981579"><ele>189.2</ele><time>2026-04-04T14:36:22.553Z</time></trkpt><trkpt lat="45.1462479" lon="8.1982093"><ele>189.39999999999998</ele><time>2026-04-04T14:36:23.553Z</time></trkpt><trkpt lat="45.1461594" lon="8.1982714"><ele>189.6</ele><time>2026-04-04T14:36:24.552Z</time></trkpt><trkpt lat="45.1460762" lon="8.1983448"><ele>189.8</ele><time>2026-04-04T14:36:25.553Z</time></trkpt><trkpt lat="45.1460011" lon="8.1984277"><ele>190.0</ele><time>2026-04-04T14:36:26.552Z</time></trkpt><trkpt lat="45.1459381" lon="8.1985145"><ele>190.0</ele><time>2026-04-04T14:36:27.553Z</time></trkpt><trkpt lat="45.1458801" lon="8.1986243"><ele>190.0</ele><time>2026-04-04T14:36:28.552Z</time></trkpt><trkpt lat="45.1458353" lon="8.198744"><ele>190.0</ele><time>2026-04-04T14:36:29.552Z</time></trkpt><trkpt lat="45.1457992" lon="8.1988707"><ele>190.0</ele><time>2026-04-04T14:36:30.552Z</time></trkpt><trkpt lat="45.1457662" lon="8.1990059"><ele>190.0</ele><time>2026-04-04T14:36:31.553Z</time></trkpt><trkpt lat="45.145734" lon="8.1991449"><ele>192.6</ele><time>2026-04-04T14:36:32.553Z</time></trkpt><trkpt lat="45.1456985" lon="8.1992814"><ele>195.2</ele><time>2026-04-04T14:36:33.553Z</time></trkpt><trkpt lat="45.1456637" lon="8.1994115"><ele>197.8</ele><time>2026-04-04T14:36:34.554Z</time></trkpt><trkpt lat="45.1456279" lon="8.1995386"><ele>200.4</ele><time>2026-04-04T14:36:35.554Z</time></trkpt><trkpt lat="45.1455897" lon="8.1996679"><ele>203.0</ele><time>2026-04-04T14:36:36.553Z</time></trkpt><trkpt lat="45.1455522" lon="8.1997964"><ele>201.0</ele><time>2026-04-04T14:36:37.553Z</time></trkpt><trkpt lat="45.1455174" lon="8.1999258"><ele>199.0</ele><time>2026-04-04T14:36:38.554Z</time></trkpt><trkpt lat="45.145485" lon="8.2000478"><ele>197.0</ele><time>2026-04-04T14:36:39.554Z</time></trkpt><trkpt lat="45.1454507" lon="8.2001688"><ele>195.0</ele><time>2026-04-04T14:36:40.553Z</time></trkpt><trkpt lat="45.1454165" lon="8.2002933"><ele>193.0</ele><time>2026-04-04T14:36:41.554Z</time></trkpt><trkpt lat="45.1453828" lon="8.2004252"><ele>193.0</ele><time>2026-04-04T14:36:42.554Z</time></trkpt><trkpt lat="45.1453411" lon="8.2005595"><ele>193.0</ele><time>2026-04-04T14:36:43.553Z</time></trkpt><trkpt lat="45.1453005" lon="8.2006921"><ele>193.0</ele><time>2026-04-04T14:36:44.553Z</time></trkpt><trkpt lat="45.1452631" lon="8.2008257"><ele>193.0</ele><time>2026-04-04T14:36:45.553Z</time></trkpt><trkpt lat="45.1452259" lon="8.2009637"><ele>193.0</ele><time>2026-04-04T14:36:46.553Z</time></trkpt><trkpt lat="45.1451887" lon="8.2010992"><ele>191.8</ele><time>2026-04-04T14:36:47.554Z</time></trkpt><trkpt lat="45.1451531" lon="8.2012301"><ele>190.60000000000002</ele><time>2026-04-04T14:36:48.554Z</time></trkpt><trkpt lat="45.145117" lon="8.201359"><ele>189.39999999999998</ele><time>2026-04-04T14:36:49.553Z</time></trkpt><trkpt lat="45.1450779" lon="8.2014866"><ele>188.2</ele><time>2026-04-04T14:36:50.553Z</time></trkpt><trkpt lat="45.1450408" lon="8.2016165"><ele>187.0</ele><time>2026-04-04T14:36:51.553Z</time></trkpt><trkpt lat="45.1450037" lon="8.2017463"><ele>186.8</ele><time>2026-04-04T14:36:52.554Z</time></trkpt><trkpt lat="45.1449662" lon="8.201876"><ele>186.6</ele><time>2026-04-04T14:36:53.553Z</time></trkpt><trkpt lat="45.1449318" lon="8.2020043"><ele>186.4</ele><time>2026-04-04T14:36:54.553Z</time></trkpt><trkpt lat="45.1448961" lon="8.2021285"><ele>186.20000000000002</ele><time>2026-04-04T14:36:55.553Z</time></trkpt><trkpt lat="45.1448604" lon="8.2022552"><ele>186.0</ele><time>2026-04-04T14:36:56.553Z</time></trkpt><trkpt lat="45.1448283" lon="8.2023895"><ele>185.4</ele><time>2026-04-04T14:36:57.553Z</time></trkpt><trkpt lat="45.1447948" lon="8.2025273"><ele>184.8</ele><time>2026-04-04T14:36:58.553Z</time></trkpt><trkpt lat="45.1447582" lon="8.2026659"><ele>184.20000000000002</ele><time>2026-04-04T14:36:59.553Z</time></trkpt><trkpt lat="45.1447212" lon="8.2027971"><ele>183.60000000000002</ele><time>2026-04-04T14:37:00.554Z</time></trkpt><trkpt lat="45.1446855" lon="8.2029277"><ele>183.0</ele><time>2026-04-04T14:37:01.554Z</time></trkpt><trkpt lat="45.1446505" lon="8.2030555"><ele>182.8</ele><time>2026-04-04T14:37:02.554Z</time></trkpt><trkpt lat="45.1446143" lon="8.2031808"><ele>182.60000000000002</ele><time>2026-04-04T14:37:03.554Z</time></trkpt><trkpt lat="45.1445766" lon="8.2033114"><ele>182.39999999999998</ele><time>2026-04-04T14:37:04.553Z</time></trkpt><trkpt lat="45.1445396" lon="8.2034406"><ele>182.2</ele><time>2026-04-04T14:37:05.554Z</time></trkpt><trkpt lat="45.1445039" lon="8.2035697"><ele>182.0</ele><time>2026-04-04T14:37:06.553Z</time></trkpt><trkpt lat="45.1444682" lon="8.2036987"><ele>182.0</ele><time>2026-04-04T14:37:07.554Z</time></trkpt><trkpt lat="45.1444331" lon="8.2038253"><ele>182.0</ele><time>2026-04-04T14:37:08.554Z</time></trkpt><trkpt lat="45.144396" lon="8.2039538"><ele>182.0</ele><time>2026-04-04T14:37:09.553Z</time></trkpt><trkpt lat="45.1443575" lon="8.2040826"><ele>182.0</ele><time>2026-04-04T14:37:10.553Z</time></trkpt><trkpt lat="45.1443198" lon="8.2042139"><ele>182.0</ele><time>2026-04-04T14:37:11.554Z</time></trkpt><trkpt lat="45.1442847" lon="8.2043464"><ele>181.2</ele><time>2026-04-04T14:37:12.553Z</time></trkpt><trkpt lat="45.1442498" lon="8.2044755"><ele>180.39999999999998</ele><time>2026-04-04T14:37:13.553Z</time></trkpt><trkpt lat="45.1442146" lon="8.204599"><ele>179.60000000000002</ele><time>2026-04-04T14:37:14.553Z</time></trkpt><trkpt lat="45.1441776" lon="8.2047227"><ele>178.8</ele><time>2026-04-04T14:37:15.553Z</time></trkpt><trkpt lat="45.1441421" lon="8.2048468"><ele>178.0</ele><time>2026-04-04T14:37:16.553Z</time></trkpt><trkpt lat="45.1441068" lon="8.2049739"><ele>178.0</ele><time>2026-04-04T14:37:17.553Z</time></trkpt><trkpt lat="45.1440706" lon="8.2051028"><ele>178.0</ele><time>2026-04-04T14:37:18.554Z</time></trkpt><trkpt lat="45.1440344" lon="8.2052317"><ele>178.0</ele><time>2026-04-04T14:37:19.554Z</time></trkpt><trkpt lat="45.1439963" lon="8.2053585"><ele>178.0</ele><time>2026-04-04T14:37:20.554Z</time></trkpt><trkpt lat="45.143957" lon="8.2054867"><ele>178.0</ele><time>2026-04-04T14:37:21.555Z</time></trkpt><trkpt lat="45.1439211" lon="8.2056125"><ele>178.4</ele><time>2026-04-04T14:37:22.555Z</time></trkpt><trkpt lat="45.1438848" lon="8.2057417"><ele>178.8</ele><time>2026-04-04T14:37:23.554Z</time></trkpt><trkpt lat="45.1438484" lon="8.2058676"><ele>179.2</ele><time>2026-04-04T14:37:24.555Z</time></trkpt><trkpt lat="45.143811" lon="8.2059936"><ele>179.6</ele><time>2026-04-04T14:37:25.555Z</time></trkpt><trkpt lat="45.1437704" lon="8.2061218"><ele>180.0</ele><time>2026-04-04T14:37:26.554Z</time></trkpt><trkpt lat="45.1437288" lon="8.2062534"><ele>180.0</ele><time>2026-04-04T14:37:27.554Z</time></trkpt><trkpt lat="45.1436859" lon="8.206382"><ele>180.0</ele><time>2026-04-04T14:37:28.554Z</time></trkpt><trkpt lat="45.1436449" lon="8.2065103"><ele>180.0</ele><time>2026-04-04T14:37:29.555Z</time></trkpt><trkpt lat="45.1436033" lon="8.2066445"><ele>180.0</ele><time>2026-04-04T14:37:30.555Z</time></trkpt><trkpt lat="45.1435631" lon="8.2067758"><ele>180.0</ele><time>2026-04-04T14:37:31.555Z</time></trkpt><trkpt lat="45.1435209" lon="8.2069108"><ele>179.4</ele><time>2026-04-04T14:37:32.554Z</time></trkpt><trkpt lat="45.1434796" lon="8.2070441"><ele>178.8</ele><time>2026-04-04T14:37:33.554Z</time></trkpt><trkpt lat="45.1434392" lon="8.2071765"><ele>178.2</ele><time>2026-04-04T14:37:34.555Z</time></trkpt><trkpt lat="45.1433997" lon="8.2073089"><ele>177.6</ele><time>2026-04-04T14:37:35.554Z</time></trkpt><trkpt lat="45.1433602" lon="8.207437"><ele>177.0</ele><time>2026-04-04T14:37:36.555Z</time></trkpt><trkpt lat="45.1433206" lon="8.2075652"><ele>176.8</ele><time>2026-04-04T14:37:37.555Z</time></trkpt><trkpt lat="45.1432824" lon="8.2076949"><ele>176.6</ele><time>2026-04-04T14:37:38.555Z</time></trkpt><trkpt lat="45.1432432" lon="8.2078177"><ele>176.4</ele><time>2026-04-04T14:37:39.555Z</time></trkpt><trkpt lat="45.1432009" lon="8.2079416"><ele>176.20000000000002</ele><time>2026-04-04T14:37:40.554Z</time></trkpt><trkpt lat="45.143158" lon="8.2080652"><ele>176.0</ele><time>2026-04-04T14:37:41.555Z</time></trkpt><trkpt lat="45.1431138" lon="8.2081931"><ele>175.60000000000002</ele><time>2026-04-04T14:37:42.554Z</time></trkpt><trkpt lat="45.1430703" lon="8.2083216"><ele>175.2</ele><time>2026-04-04T14:37:43.554Z</time></trkpt><trkpt lat="45.143029" lon="8.2084486"><ele>174.8</ele><time>2026-04-04T14:37:44.554Z</time></trkpt><trkpt lat="45.142989" lon="8.2085733"><ele>174.39999999999998</ele><time>2026-04-04T14:37:45.555Z</time></trkpt><trkpt lat="45.1429501" lon="8.2086971"><ele>174.0</ele><time>2026-04-04T14:37:46.555Z</time></trkpt><trkpt lat="45.1429099" lon="8.2088214"><ele>174.0</ele><time>2026-04-04T14:37:47.554Z</time></trkpt><trkpt lat="45.1428687" lon="8.2089453"><ele>174.0</ele><time>2026-04-04T14:37:48.554Z</time></trkpt><trkpt lat="45.1428275" lon="8.2090709"><ele>174.0</ele><time>2026-04-04T14:37:49.555Z</time></trkpt><trkpt lat="45.1427874" lon="8.2091985"><ele>174.0</ele><time>2026-04-04T14:37:50.555Z</time></trkpt><trkpt lat="45.1427472" lon="8.2093257"><ele>174.0</ele><time>2026-04-04T14:37:51.554Z</time></trkpt><trkpt lat="45.1427072" lon="8.2094519"><ele>174.39999999999998</ele><time>2026-04-04T14:37:52.555Z</time></trkpt><trkpt lat="45.1426682" lon="8.2095773"><ele>174.8</ele><time>2026-04-04T14:37:53.554Z</time></trkpt><trkpt lat="45.1426287" lon="8.2097044"><ele>175.2</ele><time>2026-04-04T14:37:54.554Z</time></trkpt><trkpt lat="45.142589" lon="8.2098341"><ele>175.60000000000002</ele><time>2026-04-04T14:37:55.554Z</time></trkpt><trkpt lat="45.1425509" lon="8.209963"><ele>176.0</ele><time>2026-04-04T14:37:56.554Z</time></trkpt><trkpt lat="45.1425119" lon="8.2100928"><ele>176.20000000000002</ele><time>2026-04-04T14:37:57.554Z</time></trkpt><trkpt lat="45.1424726" lon="8.210221"><ele>176.4</ele><time>2026-04-04T14:37:58.555Z</time></trkpt><trkpt lat="45.1424346" lon="8.2103509"><ele>176.6</ele><time>2026-04-04T14:37:59.555Z</time></trkpt><trkpt lat="45.1423967" lon="8.2104832"><ele>176.8</ele><time>2026-04-04T14:38:00.554Z</time></trkpt><trkpt lat="45.1423605" lon="8.2106147"><ele>177.0</ele><time>2026-04-04T14:38:01.554Z</time></trkpt><trkpt lat="45.1423216" lon="8.2107424"><ele>177.0</ele><time>2026-04-04T14:38:02.554Z</time></trkpt><trkpt lat="45.1422803" lon="8.2108662"><ele>177.0</ele><time>2026-04-04T14:38:03.555Z</time></trkpt><trkpt lat="45.1422379" lon="8.2109946"><ele>177.0</ele><time>2026-04-04T14:38:04.554Z</time></trkpt><trkpt lat="45.1421925" lon="8.2111201"><ele>177.0</ele><time>2026-04-04T14:38:05.555Z</time></trkpt><trkpt lat="45.1421462" lon="8.2112469"><ele>177.0</ele><time>2026-04-04T14:38:06.556Z</time></trkpt><trkpt lat="45.1421049" lon="8.2113766"><ele>176.8</ele><time>2026-04-04T14:38:07.555Z</time></trkpt><trkpt lat="45.1420645" lon="8.2115126"><ele>176.6</ele><time>2026-04-04T14:38:08.556Z</time></trkpt><trkpt lat="45.1420248" lon="8.2116512"><ele>176.4</ele><time>2026-04-04T14:38:09.556Z</time></trkpt><trkpt lat="45.1419861" lon="8.2117833"><ele>176.20000000000002</ele><time>2026-04-04T14:38:10.555Z</time></trkpt><trkpt lat="45.1419459" lon="8.2119182"><ele>176.0</ele><time>2026-04-04T14:38:11.556Z</time></trkpt><trkpt lat="45.1419046" lon="8.2120546"><ele>176.0</ele><time>2026-04-04T14:38:12.556Z</time></trkpt><trkpt lat="45.1418646" lon="8.2121872"><ele>176.0</ele><time>2026-04-04T14:38:13.556Z</time></trkpt><trkpt lat="45.141823" lon="8.2123178"><ele>176.0</ele><time>2026-04-04T14:38:14.555Z</time></trkpt><trkpt lat="45.1417796" lon="8.212449"><ele>176.0</ele><time>2026-04-04T14:38:15.556Z</time></trkpt><trkpt lat="45.1417346" lon="8.2125784"><ele>176.0</ele><time>2026-04-04T14:38:16.555Z</time></trkpt><trkpt lat="45.1416875" lon="8.2127058"><ele>176.0</ele><time>2026-04-04T14:38:17.556Z</time></trkpt><trkpt lat="45.1416368" lon="8.2128301"><ele>176.0</ele><time>2026-04-04T14:38:18.556Z</time></trkpt><trkpt lat="45.1415857" lon="8.2129483"><ele>176.0</ele><time>2026-04-04T14:38:19.555Z</time></trkpt><trkpt lat="45.1415293" lon="8.2130583"><ele>176.0</ele><time>2026-04-04T14:38:20.555Z</time></trkpt><trkpt lat="45.1414688" lon="8.2131638"><ele>176.0</ele><time>2026-04-04T14:38:21.556Z</time></trkpt><trkpt lat="45.1414048" lon="8.2132787"><ele>175.60000000000002</ele><time>2026-04-04T14:38:22.556Z</time></trkpt><trkpt lat="45.1413398" lon="8.2133969"><ele>175.2</ele><time>2026-04-04T14:38:23.556Z</time></trkpt><trkpt lat="45.141277" lon="8.2135163"><ele>174.8</ele><time>2026-04-04T14:38:24.555Z</time></trkpt><trkpt lat="45.1412159" lon="8.2136424"><ele>174.39999999999998</ele><time>2026-04-04T14:38:25.556Z</time></trkpt><trkpt lat="45.1411589" lon="8.213762"><ele>174.0</ele><time>2026-04-04T14:38:26.555Z</time></trkpt><trkpt lat="45.141103" lon="8.213881"><ele>174.0</ele><time>2026-04-04T14:38:27.555Z</time></trkpt><trkpt lat="45.1410444" lon="8.2139922"><ele>174.0</ele><time>2026-04-04T14:38:28.556Z</time></trkpt><trkpt lat="45.1409824" lon="8.2141113"><ele>174.0</ele><time>2026-04-04T14:38:29.556Z</time></trkpt><trkpt lat="45.1409197" lon="8.2142314"><ele>174.0</ele><time>2026-04-04T14:38:30.555Z</time></trkpt><trkpt lat="45.1408602" lon="8.2143481"><ele>174.0</ele><time>2026-04-04T14:38:31.555Z</time></trkpt><trkpt lat="45.1408026" lon="8.2144641"><ele>174.0</ele><time>2026-04-04T14:38:32.555Z</time></trkpt><trkpt lat="45.1407461" lon="8.2145812"><ele>174.0</ele><time>2026-04-04T14:38:33.555Z</time></trkpt><trkpt lat="45.1406879" lon="8.2146979"><ele>174.0</ele><time>2026-04-04T14:38:34.556Z</time></trkpt><trkpt lat="45.1406302" lon="8.2148077"><ele>174.0</ele><time>2026-04-04T14:38:35.556Z</time></trkpt><trkpt lat="45.1405726" lon="8.2149182"><ele>174.0</ele><time>2026-04-04T14:38:36.556Z</time></trkpt><trkpt lat="45.1405168" lon="8.2150254"><ele>174.39999999999998</ele><time>2026-04-04T14:38:37.556Z</time></trkpt><trkpt lat="45.1404601" lon="8.2151317"><ele>174.8</ele><time>2026-04-04T14:38:38.556Z</time></trkpt><trkpt lat="45.1404024" lon="8.2152435"><ele>175.2</ele><time>2026-04-04T14:38:39.556Z</time></trkpt><trkpt lat="45.1403455" lon="8.2153538"><ele>175.60000000000002</ele><time>2026-04-04T14:38:40.556Z</time></trkpt><trkpt lat="45.1402832" lon="8.2154661"><ele>176.0</ele><time>2026-04-04T14:38:41.555Z</time></trkpt><trkpt lat="45.1402164" lon="8.2155713"><ele>176.4</ele><time>2026-04-04T14:38:42.556Z</time></trkpt><trkpt lat="45.1401441" lon="8.2156717"><ele>176.8</ele><time>2026-04-04T14:38:43.555Z</time></trkpt><trkpt lat="45.1400703" lon="8.2157707"><ele>177.20000000000002</ele><time>2026-04-04T14:38:44.556Z</time></trkpt><trkpt lat="45.1399975" lon="8.2158695"><ele>177.60000000000002</ele><time>2026-04-04T14:38:45.555Z</time></trkpt><trkpt lat="45.1399237" lon="8.2159696"><ele>178.0</ele><time>2026-04-04T14:38:46.556Z</time></trkpt><trkpt lat="45.1398467" lon="8.2160657"><ele>177.0</ele><time>2026-04-04T14:38:47.556Z</time></trkpt><trkpt lat="45.1397674" lon="8.2161555"><ele>176.0</ele><time>2026-04-04T14:38:48.556Z</time></trkpt><trkpt lat="45.1396878" lon="8.2162456"><ele>175.0</ele><time>2026-04-04T14:38:49.556Z</time></trkpt><trkpt lat="45.1396079" lon="8.2163346"><ele>174.0</ele><time>2026-04-04T14:38:50.556Z</time></trkpt><trkpt lat="45.1395266" lon="8.216423"><ele>173.0</ele><time>2026-04-04T14:38:51.556Z</time></trkpt><trkpt lat="45.1394456" lon="8.2165081"><ele>172.8</ele><time>2026-04-04T14:38:52.556Z</time></trkpt><trkpt lat="45.1393663" lon="8.2165958"><ele>172.60000000000002</ele><time>2026-04-04T14:38:53.555Z</time></trkpt><trkpt lat="45.1392882" lon="8.2166841"><ele>172.39999999999998</ele><time>2026-04-04T14:38:54.556Z</time></trkpt><trkpt lat="45.1392097" lon="8.2167736"><ele>172.2</ele><time>2026-04-04T14:38:55.556Z</time></trkpt><trkpt lat="45.1391295" lon="8.2168601"><ele>172.0</ele><time>2026-04-04T14:38:56.556Z</time></trkpt><trkpt lat="45.1390476" lon="8.2169454"><ele>172.0</ele><time>2026-04-04T14:38:57.556Z</time></trkpt><trkpt lat="45.1389662" lon="8.217032"><ele>172.0</ele><time>2026-04-04T14:38:58.556Z</time></trkpt><trkpt lat="45.1388867" lon="8.2171204"><ele>172.0</ele><time>2026-04-04T14:38:59.557Z</time></trkpt><trkpt lat="45.1388083" lon="8.2172083"><ele>172.0</ele><time>2026-04-04T14:39:00.557Z</time></trkpt><trkpt lat="45.1387305" lon="8.2172957"><ele>172.0</ele><time>2026-04-04T14:39:01.556Z</time></trkpt><trkpt lat="45.1386531" lon="8.2173843"><ele>172.8</ele><time>2026-04-04T14:39:02.557Z</time></trkpt><trkpt lat="45.1385762" lon="8.2174752"><ele>173.6</ele><time>2026-04-04T14:39:03.556Z</time></trkpt><trkpt lat="45.1384985" lon="8.217562"><ele>174.4</ele><time>2026-04-04T14:39:04.557Z</time></trkpt><trkpt lat="45.1384185" lon="8.2176422"><ele>175.20000000000002</ele><time>2026-04-04T14:39:05.556Z</time></trkpt><trkpt lat="45.1383378" lon="8.2177224"><ele>176.0</ele><time>2026-04-04T14:39:06.556Z</time></trkpt><trkpt lat="45.1382595" lon="8.2178066"><ele>175.8</ele><time>2026-04-04T14:39:07.557Z</time></trkpt><trkpt lat="45.1381826" lon="8.2178945"><ele>175.60000000000002</ele><time>2026-04-04T14:39:08.556Z</time></trkpt><trkpt lat="45.138106" lon="8.2179818"><ele>175.4</ele><time>2026-04-04T14:39:09.557Z</time></trkpt><trkpt lat="45.1380295" lon="8.2180683"><ele>175.2</ele><time>2026-04-04T14:39:10.556Z</time></trkpt><trkpt lat="45.1379527" lon="8.2181536"><ele>175.0</ele><time>2026-04-04T14:39:11.557Z</time></trkpt><trkpt lat="45.1378737" lon="8.2182402"><ele>175.0</ele><time>2026-04-04T14:39:12.556Z</time></trkpt><trkpt lat="45.1377945" lon="8.2183263"><ele>175.0</ele><time>2026-04-04T14:39:13.556Z</time></trkpt><trkpt lat="45.1377149" lon="8.2184133"><ele>175.0</ele><time>2026-04-04T14:39:14.557Z</time></trkpt><trkpt lat="45.1376356" lon="8.2185003"><ele>175.0</ele><time>2026-04-04T14:39:15.557Z</time></trkpt><trkpt lat="45.1375556" lon="8.2185914"><ele>175.0</ele><time>2026-04-04T14:39:16.557Z</time></trkpt><trkpt lat="45.137475" lon="8.2186828"><ele>175.0</ele><time>2026-04-04T14:39:17.557Z</time></trkpt><trkpt lat="45.1373951" lon="8.2187732"><ele>175.0</ele><time>2026-04-04T14:39:18.557Z</time></trkpt><trkpt lat="45.1373158" lon="8.2188617"><ele>175.0</ele><time>2026-04-04T14:39:19.557Z</time></trkpt><trkpt lat="45.137235" lon="8.2189489"><ele>175.0</ele><time>2026-04-04T14:39:20.557Z</time></trkpt><trkpt lat="45.137155" lon="8.2190349"><ele>175.0</ele><time>2026-04-04T14:39:21.556Z</time></trkpt><trkpt lat="45.1370751" lon="8.2191234"><ele>175.2</ele><time>2026-04-04T14:39:22.556Z</time></trkpt><trkpt lat="45.1369982" lon="8.2192106"><ele>175.4</ele><time>2026-04-04T14:39:23.556Z</time></trkpt><trkpt lat="45.1369217" lon="8.2192993"><ele>175.60000000000002</ele><time>2026-04-04T14:39:24.557Z</time></trkpt><trkpt lat="45.136845" lon="8.2193864"><ele>175.8</ele><time>2026-04-04T14:39:25.556Z</time></trkpt><trkpt lat="45.136768" lon="8.2194714"><ele>176.0</ele><time>2026-04-04T14:39:26.556Z</time></trkpt><trkpt lat="45.1366905" lon="8.2195565"><ele>176.0</ele><time>2026-04-04T14:39:27.557Z</time></trkpt><trkpt lat="45.1366139" lon="8.2196436"><ele>176.0</ele><time>2026-04-04T14:39:28.557Z</time></trkpt><trkpt lat="45.1365375" lon="8.2197315"><ele>176.0</ele><time>2026-04-04T14:39:29.556Z</time></trkpt><trkpt lat="45.1364594" lon="8.2198181"><ele>176.0</ele><time>2026-04-04T14:39:30.557Z</time></trkpt><trkpt lat="45.1363802" lon="8.2199022"><ele>176.0</ele><time>2026-04-04T14:39:31.556Z</time></trkpt><trkpt lat="45.1363012" lon="8.2199886"><ele>175.8</ele><time>2026-04-04T14:39:32.557Z</time></trkpt><trkpt lat="45.1362223" lon="8.2200773"><ele>175.60000000000002</ele><time>2026-04-04T14:39:33.556Z</time></trkpt><trkpt lat="45.1361434" lon="8.2201656"><ele>175.4</ele><time>2026-04-04T14:39:34.556Z</time></trkpt><trkpt lat="45.1360644" lon="8.220254"><ele>175.2</ele><time>2026-04-04T14:39:35.556Z</time></trkpt><trkpt lat="45.1359849" lon="8.2203437"><ele>175.0</ele><time>2026-04-04T14:39:36.556Z</time></trkpt><trkpt lat="45.1359051" lon="8.2204337"><ele>175.0</ele><time>2026-04-04T14:39:37.557Z</time></trkpt><trkpt lat="45.1358248" lon="8.2205213"><ele>175.0</ele><time>2026-04-04T14:39:38.557Z</time></trkpt><trkpt lat="45.1357442" lon="8.2206086"><ele>175.0</ele><time>2026-04-04T14:39:39.556Z</time></trkpt><trkpt lat="45.135664" lon="8.2206963"><ele>175.0</ele><time>2026-04-04T14:39:40.556Z</time></trkpt><trkpt lat="45.135585" lon="8.2207836"><ele>175.0</ele><time>2026-04-04T14:39:41.556Z</time></trkpt><trkpt lat="45.1355058" lon="8.2208715"><ele>173.8</ele><time>2026-04-04T14:39:42.557Z</time></trkpt><trkpt lat="45.135425" lon="8.2209627"><ele>172.6</ele><time>2026-04-04T14:39:43.557Z</time></trkpt><trkpt lat="45.1353442" lon="8.2210523"><ele>171.39999999999998</ele><time>2026-04-04T14:39:44.558Z</time></trkpt><trkpt lat="45.1352636" lon="8.2211403"><ele>170.2</ele><time>2026-04-04T14:39:45.558Z</time></trkpt><trkpt lat="45.1351829" lon="8.2212284"><ele>169.0</ele><time>2026-04-04T14:39:46.557Z</time></trkpt><trkpt lat="45.1351031" lon="8.2213174"><ele>169.0</ele><time>2026-04-04T14:39:47.558Z</time></trkpt><trkpt lat="45.1350233" lon="8.2214082"><ele>169.0</ele><time>2026-04-04T14:39:48.558Z</time></trkpt><trkpt lat="45.1349437" lon="8.2214983"><ele>169.0</ele><time>2026-04-04T14:39:49.558Z</time></trkpt><trkpt lat="45.1348646" lon="8.2215869"><ele>169.0</ele><time>2026-04-04T14:39:50.557Z</time></trkpt><trkpt lat="45.1347876" lon="8.2216743"><ele>169.0</ele><time>2026-04-04T14:39:51.558Z</time></trkpt><trkpt lat="45.1347114" lon="8.2217603"><ele>169.0</ele><time>2026-04-04T14:39:52.557Z</time></trkpt><trkpt lat="45.1346346" lon="8.221843"><ele>169.0</ele><time>2026-04-04T14:39:53.558Z</time></trkpt><trkpt lat="45.134558" lon="8.2219252"><ele>169.0</ele><time>2026-04-04T14:39:54.558Z</time></trkpt><trkpt lat="45.134483" lon="8.2220086"><ele>169.0</ele><time>2026-04-04T14:39:55.558Z</time></trkpt><trkpt lat="45.1344073" lon="8.2220939"><ele>169.0</ele><time>2026-04-04T14:39:56.557Z</time></trkpt><trkpt lat="45.1343326" lon="8.222181"><ele>169.0</ele><time>2026-04-04T14:39:57.557Z</time></trkpt><trkpt lat="45.1342584" lon="8.2222674"><ele>169.0</ele><time>2026-04-04T14:39:58.558Z</time></trkpt><trkpt lat="45.134184" lon="8.2223522"><ele>169.0</ele><time>2026-04-04T14:39:59.558Z</time></trkpt><trkpt lat="45.1341092" lon="8.2224382"><ele>169.0</ele><time>2026-04-04T14:40:00.558Z</time></trkpt><trkpt lat="45.1340325" lon="8.2225233"><ele>169.0</ele><time>2026-04-04T14:40:01.557Z</time></trkpt><trkpt lat="45.1339538" lon="8.2226068"><ele>169.2</ele><time>2026-04-04T14:40:02.557Z</time></trkpt><trkpt lat="45.1338763" lon="8.2226904"><ele>169.39999999999998</ele><time>2026-04-04T14:40:03.557Z</time></trkpt><trkpt lat="45.1337997" lon="8.2227754"><ele>169.6</ele><time>2026-04-04T14:40:04.557Z</time></trkpt><trkpt lat="45.1337234" lon="8.2228611"><ele>169.8</ele><time>2026-04-04T14:40:05.557Z</time></trkpt><trkpt lat="45.133649" lon="8.2229453"><ele>170.0</ele><time>2026-04-04T14:40:06.558Z</time></trkpt><trkpt lat="45.1335737" lon="8.2230271"><ele>170.0</ele><time>2026-04-04T14:40:07.557Z</time></trkpt><trkpt lat="45.1334986" lon="8.2231075"><ele>170.0</ele><time>2026-04-04T14:40:08.557Z</time></trkpt><trkpt lat="45.1334227" lon="8.2231881"><ele>170.0</ele><time>2026-04-04T14:40:09.558Z</time></trkpt><trkpt lat="45.1333482" lon="8.2232705"><ele>170.0</ele><time>2026-04-04T14:40:10.558Z</time></trkpt><trkpt lat="45.1332749" lon="8.2233538"><ele>170.0</ele><time>2026-04-04T14:40:11.557Z</time></trkpt><trkpt lat="45.1332019" lon="8.2234379"><ele>170.0</ele><time>2026-04-04T14:40:12.557Z</time></trkpt><trkpt lat="45.13313" lon="8.2235184"><ele>170.0</ele><time>2026-04-04T14:40:13.557Z</time></trkpt><trkpt lat="45.1330562" lon="8.2235991"><ele>170.0</ele><time>2026-04-04T14:40:14.558Z</time></trkpt><trkpt lat="45.1329821" lon="8.2236779"><ele>170.0</ele><time>2026-04-04T14:40:15.558Z</time></trkpt><trkpt lat="45.1329098" lon="8.2237568"><ele>170.0</ele><time>2026-04-04T14:40:16.557Z</time></trkpt><trkpt lat="45.1328388" lon="8.2238363"><ele>170.0</ele><time>2026-04-04T14:40:17.557Z</time></trkpt><trkpt lat="45.1327701" lon="8.223915"><ele>170.0</ele><time>2026-04-04T14:40:18.557Z</time></trkpt><trkpt lat="45.1326978" lon="8.2239984"><ele>170.0</ele><time>2026-04-04T14:40:19.558Z</time></trkpt><trkpt lat="45.1326273" lon="8.2240744"><ele>170.0</ele><time>2026-04-04T14:40:20.557Z</time></trkpt><trkpt lat="45.1325527" lon="8.2241535"><ele>170.0</ele><time>2026-04-04T14:40:21.558Z</time></trkpt><trkpt lat="45.1324726" lon="8.2242427"><ele>170.2</ele><time>2026-04-04T14:40:22.558Z</time></trkpt><trkpt lat="45.1323937" lon="8.2243326"><ele>170.4</ele><time>2026-04-04T14:40:23.557Z</time></trkpt><trkpt lat="45.1323155" lon="8.2244256"><ele>170.60000000000002</ele><time>2026-04-04T14:40:24.557Z</time></trkpt><trkpt lat="45.1322363" lon="8.2245166"><ele>170.8</ele><time>2026-04-04T14:40:25.557Z</time></trkpt><trkpt lat="45.1321572" lon="8.2246004"><ele>171.0</ele><time>2026-04-04T14:40:26.558Z</time></trkpt><trkpt lat="45.1320784" lon="8.2246838"><ele>170.60000000000002</ele><time>2026-04-04T14:40:27.557Z</time></trkpt><trkpt lat="45.1320013" lon="8.2247705"><ele>170.2</ele><time>2026-04-04T14:40:28.558Z</time></trkpt><trkpt lat="45.1319252" lon="8.224858"><ele>169.8</ele><time>2026-04-04T14:40:29.558Z</time></trkpt><trkpt lat="45.1318505" lon="8.2249401"><ele>169.39999999999998</ele><time>2026-04-04T14:40:30.558Z</time></trkpt><trkpt lat="45.1317764" lon="8.2250237"><ele>169.0</ele><time>2026-04-04T14:40:31.559Z</time></trkpt><trkpt lat="45.1317017" lon="8.2251039"><ele>169.0</ele><time>2026-04-04T14:40:32.558Z</time></trkpt><trkpt lat="45.1316264" lon="8.2251789"><ele>169.0</ele><time>2026-04-04T14:40:33.558Z</time></trkpt><trkpt lat="45.1315505" lon="8.2252549"><ele>169.0</ele><time>2026-04-04T14:40:34.559Z</time></trkpt><trkpt lat="45.1314737" lon="8.2253317"><ele>169.0</ele><time>2026-04-04T14:40:35.558Z</time></trkpt><trkpt lat="45.1313956" lon="8.2254061"><ele>169.0</ele><time>2026-04-04T14:40:36.559Z</time></trkpt><trkpt lat="45.131317" lon="8.2254773"><ele>169.2</ele><time>2026-04-04T14:40:37.559Z</time></trkpt><trkpt lat="45.1312406" lon="8.225548"><ele>169.39999999999998</ele><time>2026-04-04T14:40:38.559Z</time></trkpt><trkpt lat="45.1311658" lon="8.2256188"><ele>169.6</ele><time>2026-04-04T14:40:39.558Z</time></trkpt><trkpt lat="45.1310906" lon="8.2256878"><ele>169.8</ele><time>2026-04-04T14:40:40.558Z</time></trkpt><trkpt lat="45.1310128" lon="8.2257567"><ele>170.0</ele><time>2026-04-04T14:40:41.559Z</time></trkpt><trkpt lat="45.1309347" lon="8.2258285"><ele>169.8</ele><time>2026-04-04T14:40:42.558Z</time></trkpt><trkpt lat="45.1308564" lon="8.2259039"><ele>169.6</ele><time>2026-04-04T14:40:43.559Z</time></trkpt><trkpt lat="45.1307762" lon="8.2259813"><ele>169.39999999999998</ele><time>2026-04-04T14:40:44.558Z</time></trkpt><trkpt lat="45.130693" lon="8.2260593"><ele>169.2</ele><time>2026-04-04T14:40:45.558Z</time></trkpt><trkpt lat="45.1306094" lon="8.2261381"><ele>169.0</ele><time>2026-04-04T14:40:46.558Z</time></trkpt><trkpt lat="45.1305243" lon="8.2262181"><ele>169.0</ele><time>2026-04-04T14:40:47.559Z</time></trkpt><trkpt lat="45.1304395" lon="8.2262985"><ele>169.0</ele><time>2026-04-04T14:40:48.559Z</time></trkpt><trkpt lat="45.1303545" lon="8.2263786"><ele>169.0</ele><time>2026-04-04T14:40:49.558Z</time></trkpt><trkpt lat="45.130272" lon="8.2264564"><ele>169.0</ele><time>2026-04-04T14:40:50.559Z</time></trkpt><trkpt lat="45.1301907" lon="8.2265336"><ele>169.0</ele><time>2026-04-04T14:40:51.559Z</time></trkpt><trkpt lat="45.1301081" lon="8.2266063"><ele>169.0</ele><time>2026-04-04T14:40:52.558Z</time></trkpt><trkpt lat="45.1300248" lon="8.2266756"><ele>169.0</ele><time>2026-04-04T14:40:53.558Z</time></trkpt><trkpt lat="45.1299394" lon="8.2267477"><ele>169.0</ele><time>2026-04-04T14:40:54.558Z</time></trkpt><trkpt lat="45.1298527" lon="8.2268245"><ele>169.0</ele><time>2026-04-04T14:40:55.558Z</time></trkpt><trkpt lat="45.129769" lon="8.2269013"><ele>169.0</ele><time>2026-04-04T14:40:56.558Z</time></trkpt><trkpt lat="45.1296868" lon="8.2269743"><ele>169.0</ele><time>2026-04-04T14:40:57.558Z</time></trkpt><trkpt lat="45.1296049" lon="8.2270492"><ele>169.0</ele><time>2026-04-04T14:40:58.559Z</time></trkpt><trkpt lat="45.1295248" lon="8.2271244"><ele>169.0</ele><time>2026-04-04T14:40:59.558Z</time></trkpt><trkpt lat="45.1294455" lon="8.227201"><ele>169.0</ele><time>2026-04-04T14:41:00.559Z</time></trkpt><trkpt lat="45.1293631" lon="8.2272752"><ele>169.0</ele><time>2026-04-04T14:41:01.558Z</time></trkpt><trkpt lat="45.1292814" lon="8.2273513"><ele>168.39999999999998</ele><time>2026-04-04T14:41:02.559Z</time></trkpt><trkpt lat="45.1291985" lon="8.2274284"><ele>167.8</ele><time>2026-04-04T14:41:03.558Z</time></trkpt><trkpt lat="45.129114" lon="8.2275027"><ele>167.2</ele><time>2026-04-04T14:41:04.558Z</time></trkpt><trkpt lat="45.1290303" lon="8.2275778"><ele>166.60000000000002</ele><time>2026-04-04T14:41:05.559Z</time></trkpt><trkpt lat="45.1289451" lon="8.2276534"><ele>166.0</ele><time>2026-04-04T14:41:06.559Z</time></trkpt><trkpt lat="45.1288613" lon="8.2277306"><ele>166.0</ele><time>2026-04-04T14:41:07.559Z</time></trkpt><trkpt lat="45.1287772" lon="8.2278082"><ele>166.0</ele><time>2026-04-04T14:41:08.559Z</time></trkpt><trkpt lat="45.1286895" lon="8.2278855"><ele>166.0</ele><time>2026-04-04T14:41:09.558Z</time></trkpt><trkpt lat="45.1286023" lon="8.2279613"><ele>166.0</ele><time>2026-04-04T14:41:10.559Z</time></trkpt><trkpt lat="45.128519" lon="8.2280376"><ele>166.0</ele><time>2026-04-04T14:41:11.559Z</time></trkpt><trkpt lat="45.1284354" lon="8.2281142"><ele>166.20000000000002</ele><time>2026-04-04T14:41:12.558Z</time></trkpt><trkpt lat="45.1283541" lon="8.228191"><ele>166.4</ele><time>2026-04-04T14:41:13.558Z</time></trkpt><trkpt lat="45.128277" lon="8.2282742"><ele>166.6</ele><time>2026-04-04T14:41:14.559Z</time></trkpt><trkpt lat="45.1281991" lon="8.2283576"><ele>166.8</ele><time>2026-04-04T14:41:15.558Z</time></trkpt><trkpt lat="45.1281224" lon="8.2284435"><ele>167.0</ele><time>2026-04-04T14:41:16.558Z</time></trkpt><trkpt lat="45.1280477" lon="8.2285321"><ele>167.0</ele><time>2026-04-04T14:41:17.56Z</time></trkpt><trkpt lat="45.1279761" lon="8.2286269"><ele>167.0</ele><time>2026-04-04T14:41:18.558Z</time></trkpt><trkpt lat="45.1279077" lon="8.2287284"><ele>167.0</ele><time>2026-04-04T14:41:19.559Z</time></trkpt><trkpt lat="45.1278441" lon="8.2288325"><ele>167.0</ele><time>2026-04-04T14:41:20.559Z</time></trkpt><trkpt lat="45.1277832" lon="8.22894"><ele>167.0</ele><time>2026-04-04T14:41:21.559Z</time></trkpt><trkpt lat="45.1277221" lon="8.2290496"><ele>167.2</ele><time>2026-04-04T14:41:22.56Z</time></trkpt><trkpt lat="45.1276608" lon="8.2291629"><ele>167.39999999999998</ele><time>2026-04-04T14:41:23.56Z</time></trkpt><trkpt lat="45.1275994" lon="8.2292787"><ele>167.60000000000002</ele><time>2026-04-04T14:41:24.559Z</time></trkpt><trkpt lat="45.1275363" lon="8.2293953"><ele>167.8</ele><time>2026-04-04T14:41:25.56Z</time></trkpt><trkpt lat="45.127473" lon="8.2295108"><ele>168.0</ele><time>2026-04-04T14:41:26.559Z</time></trkpt><trkpt lat="45.1274112" lon="8.2296241"><ele>167.2</ele><time>2026-04-04T14:41:27.559Z</time></trkpt><trkpt lat="45.1273494" lon="8.2297348"><ele>166.4</ele><time>2026-04-04T14:41:28.56Z</time></trkpt><trkpt lat="45.1272877" lon="8.2298467"><ele>165.6</ele><time>2026-04-04T14:41:29.559Z</time></trkpt><trkpt lat="45.1272261" lon="8.2299558"><ele>164.79999999999998</ele><time>2026-04-04T14:41:30.56Z</time></trkpt><trkpt lat="45.1271663" lon="8.2300624"><ele>164.0</ele><time>2026-04-04T14:41:31.559Z</time></trkpt><trkpt lat="45.1271052" lon="8.2301698"><ele>164.0</ele><time>2026-04-04T14:41:32.559Z</time></trkpt><trkpt lat="45.1270435" lon="8.2302782"><ele>164.0</ele><time>2026-04-04T14:41:33.559Z</time></trkpt><trkpt lat="45.1269817" lon="8.2303884"><ele>164.0</ele><time>2026-04-04T14:41:34.56Z</time></trkpt><trkpt lat="45.126922" lon="8.2304991"><ele>164.0</ele><time>2026-04-04T14:41:35.56Z</time></trkpt><trkpt lat="45.1268611" lon="8.2306115"><ele>164.0</ele><time>2026-04-04T14:41:36.56Z</time></trkpt><trkpt lat="45.1267985" lon="8.2307246"><ele>164.0</ele><time>2026-04-04T14:41:37.559Z</time></trkpt><trkpt lat="45.1267333" lon="8.2308377"><ele>164.0</ele><time>2026-04-04T14:41:38.559Z</time></trkpt><trkpt lat="45.1266685" lon="8.2309513"><ele>164.0</ele><time>2026-04-04T14:41:39.56Z</time></trkpt><trkpt lat="45.1266042" lon="8.2310658"><ele>164.0</ele><time>2026-04-04T14:41:40.559Z</time></trkpt><trkpt lat="45.1265413" lon="8.2311828"><ele>164.0</ele><time>2026-04-04T14:41:41.56Z</time></trkpt><trkpt lat="45.1264786" lon="8.2312978"><ele>164.0</ele><time>2026-04-04T14:41:42.559Z</time></trkpt><trkpt lat="45.126415" lon="8.231412"><ele>164.0</ele><time>2026-04-04T14:41:43.559Z</time></trkpt><trkpt lat="45.1263511" lon="8.2315238"><ele>164.0</ele><time>2026-04-04T14:41:44.56Z</time></trkpt><trkpt lat="45.1262891" lon="8.2316336"><ele>164.0</ele><time>2026-04-04T14:41:45.559Z</time></trkpt><trkpt lat="45.1262304" lon="8.2317397"><ele>164.0</ele><time>2026-04-04T14:41:46.559Z</time></trkpt><trkpt lat="45.1261702" lon="8.2318474"><ele>164.6</ele><time>2026-04-04T14:41:47.559Z</time></trkpt><trkpt lat="45.1261095" lon="8.2319545"><ele>165.2</ele><time>2026-04-04T14:41:48.559Z</time></trkpt><trkpt lat="45.1260487" lon="8.2320646"><ele>165.79999999999998</ele><time>2026-04-04T14:41:49.56Z</time></trkpt><trkpt lat="45.1259886" lon="8.2321768"><ele>166.39999999999998</ele><time>2026-04-04T14:41:50.559Z</time></trkpt><trkpt lat="45.1259281" lon="8.2322892"><ele>167.0</ele><time>2026-04-04T14:41:51.559Z</time></trkpt><trkpt lat="45.1258674" lon="8.232399"><ele>167.0</ele><time>2026-04-04T14:41:52.559Z</time></trkpt><trkpt lat="45.1258061" lon="8.2325065"><ele>167.0</ele><time>2026-04-04T14:41:53.56Z</time></trkpt><trkpt lat="45.1257454" lon="8.2326132"><ele>167.0</ele><time>2026-04-04T14:41:54.56Z</time></trkpt><trkpt lat="45.1256856" lon="8.2327209"><ele>167.0</ele><time>2026-04-04T14:41:55.559Z</time></trkpt><trkpt lat="45.1256258" lon="8.2328281"><ele>167.0</ele><time>2026-04-04T14:41:56.559Z</time></trkpt><trkpt lat="45.1255658" lon="8.2329357"><ele>166.0</ele><time>2026-04-04T14:41:57.56Z</time></trkpt><trkpt lat="45.1255049" lon="8.2330425"><ele>165.0</ele><time>2026-04-04T14:41:58.559Z</time></trkpt><trkpt lat="45.1254426" lon="8.2331485"><ele>164.0</ele><time>2026-04-04T14:41:59.56Z</time></trkpt><trkpt lat="45.1253827" lon="8.2332557"><ele>163.0</ele><time>2026-04-04T14:42:00.559Z</time></trkpt><trkpt lat="45.1253244" lon="8.2333644"><ele>162.0</ele><time>2026-04-04T14:42:01.559Z</time></trkpt><trkpt lat="45.1252649" lon="8.2334724"><ele>162.0</ele><time>2026-04-04T14:42:02.559Z</time></trkpt><trkpt lat="45.1252048" lon="8.2335775"><ele>162.0</ele><time>2026-04-04T14:42:03.559Z</time></trkpt><trkpt lat="45.1251443" lon="8.2336805"><ele>162.0</ele><time>2026-04-04T14:42:04.559Z</time></trkpt><trkpt lat="45.1250848" lon="8.23378"><ele>162.0</ele><time>2026-04-04T14:42:05.559Z</time></trkpt><trkpt lat="45.1250249" lon="8.233876"><ele>162.0</ele><time>2026-04-04T14:42:06.56Z</time></trkpt><trkpt lat="45.124965" lon="8.2339732"><ele>162.2</ele><time>2026-04-04T14:42:07.56Z</time></trkpt><trkpt lat="45.1249044" lon="8.2340736"><ele>162.39999999999998</ele><time>2026-04-04T14:42:08.56Z</time></trkpt><trkpt lat="45.1248414" lon="8.2341759"><ele>162.60000000000002</ele><time>2026-04-04T14:42:09.56Z</time></trkpt><trkpt lat="45.1247766" lon="8.2342767"><ele>162.8</ele><time>2026-04-04T14:42:10.56Z</time></trkpt><trkpt lat="45.1247113" lon="8.2343782"><ele>163.0</ele><time>2026-04-04T14:42:11.56Z</time></trkpt><trkpt lat="45.1246454" lon="8.2344812"><ele>163.2</ele><time>2026-04-04T14:42:12.561Z</time></trkpt><trkpt lat="45.1245804" lon="8.2345847"><ele>163.4</ele><time>2026-04-04T14:42:13.56Z</time></trkpt><trkpt lat="45.1245151" lon="8.2346854"><ele>163.6</ele><time>2026-04-04T14:42:14.561Z</time></trkpt><trkpt lat="45.1244498" lon="8.234787"><ele>163.79999999999998</ele><time>2026-04-04T14:42:15.56Z</time></trkpt><trkpt lat="45.1243846" lon="8.2348915"><ele>164.0</ele><time>2026-04-04T14:42:16.561Z</time></trkpt><trkpt lat="45.1243175" lon="8.2349951"><ele>164.0</ele><time>2026-04-04T14:42:17.561Z</time></trkpt><trkpt lat="45.1242505" lon="8.2350978"><ele>164.0</ele><time>2026-04-04T14:42:18.56Z</time></trkpt><trkpt lat="45.1241864" lon="8.2351995"><ele>164.0</ele><time>2026-04-04T14:42:19.561Z</time></trkpt><trkpt lat="45.1241237" lon="8.235301"><ele>164.0</ele><time>2026-04-04T14:42:20.56Z</time></trkpt><trkpt lat="45.1240596" lon="8.2354028"><ele>164.0</ele><time>2026-04-04T14:42:21.56Z</time></trkpt><trkpt lat="45.1239938" lon="8.2354979"><ele>163.6</ele><time>2026-04-04T14:42:22.561Z</time></trkpt><trkpt lat="45.1239281" lon="8.2355938"><ele>163.2</ele><time>2026-04-04T14:42:23.56Z</time></trkpt><trkpt lat="45.1238614" lon="8.2356929"><ele>162.79999999999998</ele><time>2026-04-04T14:42:24.56Z</time></trkpt><trkpt lat="45.1237966" lon="8.2357944"><ele>162.39999999999998</ele><time>2026-04-04T14:42:25.561Z</time></trkpt><trkpt lat="45.1237323" lon="8.2358994"><ele>162.0</ele><time>2026-04-04T14:42:26.561Z</time></trkpt><trkpt lat="45.1236685" lon="8.2360036"><ele>162.0</ele><time>2026-04-04T14:42:27.561Z</time></trkpt><trkpt lat="45.1236046" lon="8.2361051"><ele>162.0</ele><time>2026-04-04T14:42:28.561Z</time></trkpt><trkpt lat="45.1235384" lon="8.2362058"><ele>162.0</ele><time>2026-04-04T14:42:29.56Z</time></trkpt><trkpt lat="45.1234716" lon="8.2363091"><ele>162.0</ele><time>2026-04-04T14:42:30.56Z</time></trkpt><trkpt lat="45.1234042" lon="8.2364128"><ele>162.0</ele><time>2026-04-04T14:42:31.56Z</time></trkpt><trkpt lat="45.1233382" lon="8.2365161"><ele>162.39999999999998</ele><time>2026-04-04T14:42:32.561Z</time></trkpt><trkpt lat="45.1232726" lon="8.2366185"><ele>162.79999999999998</ele><time>2026-04-04T14:42:33.561Z</time></trkpt><trkpt lat="45.1232056" lon="8.2367187"><ele>163.2</ele><time>2026-04-04T14:42:34.561Z</time></trkpt><trkpt lat="45.1231367" lon="8.2368203"><ele>163.6</ele><time>2026-04-04T14:42:35.56Z</time></trkpt><trkpt lat="45.1230702" lon="8.2369217"><ele>164.0</ele><time>2026-04-04T14:42:36.561Z</time></trkpt><trkpt lat="45.1230019" lon="8.2370294"><ele>164.0</ele><time>2026-04-04T14:42:37.56Z</time></trkpt><trkpt lat="45.1229342" lon="8.237137"><ele>164.0</ele><time>2026-04-04T14:42:38.56Z</time></trkpt><trkpt lat="45.1228669" lon="8.2372435"><ele>164.0</ele><time>2026-04-04T14:42:39.561Z</time></trkpt><trkpt lat="45.1228003" lon="8.2373474"><ele>164.0</ele><time>2026-04-04T14:42:40.561Z</time></trkpt><trkpt lat="45.1227321" lon="8.2374518"><ele>164.0</ele><time>2026-04-04T14:42:41.56Z</time></trkpt><trkpt lat="45.122665" lon="8.237556"><ele>164.39999999999998</ele><time>2026-04-04T14:42:42.56Z</time></trkpt><trkpt lat="45.1225999" lon="8.2376576"><ele>164.8</ele><time>2026-04-04T14:42:43.561Z</time></trkpt><trkpt lat="45.122535" lon="8.237758"><ele>165.2</ele><time>2026-04-04T14:42:44.561Z</time></trkpt><trkpt lat="45.12247" lon="8.2378594"><ele>165.60000000000002</ele><time>2026-04-04T14:42:45.56Z</time></trkpt><trkpt lat="45.1224052" lon="8.237962"><ele>166.0</ele><time>2026-04-04T14:42:46.56Z</time></trkpt><trkpt lat="45.1223402" lon="8.2380664"><ele>165.8</ele><time>2026-04-04T14:42:47.561Z</time></trkpt><trkpt lat="45.1222735" lon="8.2381698"><ele>165.60000000000002</ele><time>2026-04-04T14:42:48.561Z</time></trkpt><trkpt lat="45.1222061" lon="8.2382723"><ele>165.4</ele><time>2026-04-04T14:42:49.561Z</time></trkpt><trkpt lat="45.1221399" lon="8.2383765"><ele>165.2</ele><time>2026-04-04T14:42:50.561Z</time></trkpt><trkpt lat="45.1220735" lon="8.2384795"><ele>165.0</ele><time>2026-04-04T14:42:51.561Z</time></trkpt><trkpt lat="45.1220059" lon="8.2385842"><ele>165.0</ele><time>2026-04-04T14:42:52.56Z</time></trkpt><trkpt lat="45.1219375" lon="8.2386924"><ele>165.0</ele><time>2026-04-04T14:42:53.56Z</time></trkpt><trkpt lat="45.1218714" lon="8.2388018"><ele>165.0</ele><time>2026-04-04T14:42:54.56Z</time></trkpt><trkpt lat="45.1218101" lon="8.2389135"><ele>165.0</ele><time>2026-04-04T14:42:55.561Z</time></trkpt><trkpt lat="45.1217543" lon="8.2390263"><ele>165.0</ele><time>2026-04-04T14:42:56.562Z</time></trkpt><trkpt lat="45.1216997" lon="8.23914"><ele>164.6</ele><time>2026-04-04T14:42:57.561Z</time></trkpt><trkpt lat="45.1216487" lon="8.2392559"><ele>164.2</ele><time>2026-04-04T14:42:58.562Z</time></trkpt><trkpt lat="45.1216038" lon="8.2393794"><ele>163.8</ele><time>2026-04-04T14:42:59.561Z</time></trkpt><trkpt lat="45.1215639" lon="8.2395083"><ele>163.4</ele><time>2026-04-04T14:43:00.561Z</time></trkpt><trkpt lat="45.1215286" lon="8.2396401"><ele>163.0</ele><time>2026-04-04T14:43:01.562Z</time></trkpt><trkpt lat="45.1214975" lon="8.2397777"><ele>162.20000000000002</ele><time>2026-04-04T14:43:02.561Z</time></trkpt><trkpt lat="45.1214704" lon="8.2399144"><ele>161.4</ele><time>2026-04-04T14:43:03.561Z</time></trkpt><trkpt lat="45.1214456" lon="8.2400464"><ele>160.60000000000002</ele><time>2026-04-04T14:43:04.562Z</time></trkpt><trkpt lat="45.1214213" lon="8.2401742"><ele>159.8</ele><time>2026-04-04T14:43:05.562Z</time></trkpt><trkpt lat="45.1213972" lon="8.2403002"><ele>159.0</ele><time>2026-04-04T14:43:06.562Z</time></trkpt><trkpt lat="45.1213716" lon="8.2404335"><ele>159.0</ele><time>2026-04-04T14:43:07.562Z</time></trkpt><trkpt lat="45.121347" lon="8.2405661"><ele>159.0</ele><time>2026-04-04T14:43:08.562Z</time></trkpt><trkpt lat="45.1213237" lon="8.2406998"><ele>159.0</ele><time>2026-04-04T14:43:09.562Z</time></trkpt><trkpt lat="45.121298" lon="8.2408342"><ele>159.0</ele><time>2026-04-04T14:43:10.561Z</time></trkpt><trkpt lat="45.1212699" lon="8.2409681"><ele>159.0</ele><time>2026-04-04T14:43:11.561Z</time></trkpt><trkpt lat="45.1212382" lon="8.2411029"><ele>159.0</ele><time>2026-04-04T14:43:12.562Z</time></trkpt><trkpt lat="45.1212019" lon="8.2412365"><ele>159.0</ele><time>2026-04-04T14:43:13.562Z</time></trkpt><trkpt lat="45.1211643" lon="8.2413659"><ele>159.0</ele><time>2026-04-04T14:43:14.561Z</time></trkpt><trkpt lat="45.1211227" lon="8.2414909"><ele>159.0</ele><time>2026-04-04T14:43:15.562Z</time></trkpt><trkpt lat="45.1210789" lon="8.241612"><ele>159.0</ele><time>2026-04-04T14:43:16.561Z</time></trkpt><trkpt lat="45.1210306" lon="8.2417299"><ele>159.0</ele><time>2026-04-04T14:43:17.562Z</time></trkpt><trkpt lat="45.1209778" lon="8.2418532"><ele>159.0</ele><time>2026-04-04T14:43:18.561Z</time></trkpt><trkpt lat="45.120923" lon="8.241975"><ele>159.0</ele><time>2026-04-04T14:43:19.561Z</time></trkpt><trkpt lat="45.1208669" lon="8.242092"><ele>159.0</ele><time>2026-04-04T14:43:20.561Z</time></trkpt><trkpt lat="45.1208068" lon="8.242199"><ele>159.0</ele><time>2026-04-04T14:43:21.562Z</time></trkpt><trkpt lat="45.1207396" lon="8.2422951"><ele>159.2</ele><time>2026-04-04T14:43:22.562Z</time></trkpt><trkpt lat="45.1206619" lon="8.2423809"><ele>159.4</ele><time>2026-04-04T14:43:23.561Z</time></trkpt><trkpt lat="45.1205793" lon="8.2424542"><ele>159.6</ele><time>2026-04-04T14:43:24.562Z</time></trkpt><trkpt lat="45.1204919" lon="8.2425178"><ele>159.8</ele><time>2026-04-04T14:43:25.562Z</time></trkpt><trkpt lat="45.1204016" lon="8.2425713"><ele>160.0</ele><time>2026-04-04T14:43:26.562Z</time></trkpt><trkpt lat="45.1203081" lon="8.2426126"><ele>160.0</ele><time>2026-04-04T14:43:27.561Z</time></trkpt><trkpt lat="45.1202133" lon="8.2426415"><ele>160.0</ele><time>2026-04-04T14:43:28.562Z</time></trkpt><trkpt lat="45.1201149" lon="8.2426594"><ele>160.0</ele><time>2026-04-04T14:43:29.561Z</time></trkpt><trkpt lat="45.1200135" lon="8.242668"><ele>160.0</ele><time>2026-04-04T14:43:30.561Z</time></trkpt><trkpt lat="45.119914" lon="8.2426692"><ele>160.0</ele><time>2026-04-04T14:43:31.562Z</time></trkpt><trkpt lat="45.1198112" lon="8.2426743"><ele>159.6</ele><time>2026-04-04T14:43:32.561Z</time></trkpt><trkpt lat="45.1197133" lon="8.2426814"><ele>159.2</ele><time>2026-04-04T14:43:33.561Z</time></trkpt><trkpt lat="45.1196198" lon="8.242683"><ele>158.8</ele><time>2026-04-04T14:43:34.561Z</time></trkpt><trkpt lat="45.1195252" lon="8.242683"><ele>158.4</ele><time>2026-04-04T14:43:35.561Z</time></trkpt><trkpt lat="45.1194357" lon="8.2426874"><ele>158.0</ele><time>2026-04-04T14:43:36.561Z</time></trkpt><trkpt lat="45.1193521" lon="8.242695"><ele>158.0</ele><time>2026-04-04T14:43:37.561Z</time></trkpt><trkpt lat="45.1192766" lon="8.2427021"><ele>158.0</ele><time>2026-04-04T14:43:38.561Z</time></trkpt><trkpt lat="45.1192062" lon="8.2427054"><ele>158.0</ele><time>2026-04-04T14:43:39.561Z</time></trkpt><trkpt lat="45.1190995" lon="8.242703"><ele>158.0</ele><time>2026-04-04T14:43:41.561Z</time></trkpt><trkpt lat="45.119034" lon="8.242693"><ele>158.0</ele><time>2026-04-04T14:43:44.563Z</time></trkpt><trkpt lat="45.1189706" lon="8.2427604"><ele>158.0</ele><time>2026-04-04T14:43:49.562Z</time></trkpt><trkpt lat="45.1189494" lon="8.2429288"><ele>158.14285714285717</ele><time>2026-04-04T14:43:51.562Z</time></trkpt><trkpt lat="45.118954" lon="8.2430239"><ele>158.28571428571428</ele><time>2026-04-04T14:43:52.562Z</time></trkpt><trkpt lat="45.1189587" lon="8.2431196"><ele>158.42857142857144</ele><time>2026-04-04T14:43:53.562Z</time></trkpt><trkpt lat="45.118962" lon="8.2432207"><ele>158.57142857142858</ele><time>2026-04-04T14:43:54.563Z</time></trkpt><trkpt lat="45.1189609" lon="8.2433249"><ele>158.71428571428572</ele><time>2026-04-04T14:43:55.562Z</time></trkpt><trkpt lat="45.1189601" lon="8.2434307"><ele>158.85714285714286</ele><time>2026-04-04T14:43:56.562Z</time></trkpt><trkpt lat="45.1189611" lon="8.2435416"><ele>159.0</ele><time>2026-04-04T14:43:57.563Z</time></trkpt><trkpt lat="45.118962" lon="8.2436548"><ele>159.0</ele><time>2026-04-04T14:43:58.562Z</time></trkpt><trkpt lat="45.1189645" lon="8.2437673"><ele>159.0</ele><time>2026-04-04T14:43:59.564Z</time></trkpt><trkpt lat="45.118966" lon="8.2438874"><ele>159.0</ele><time>2026-04-04T14:44:00.562Z</time></trkpt><trkpt lat="45.1189658" lon="8.2440044"><ele>159.0</ele><time>2026-04-04T14:44:01.562Z</time></trkpt><trkpt lat="45.1189669" lon="8.2441209"><ele>159.0</ele><time>2026-04-04T14:44:02.562Z</time></trkpt><trkpt lat="45.1189676" lon="8.2442383"><ele>159.0</ele><time>2026-04-04T14:44:03.562Z</time></trkpt><trkpt lat="45.118971" lon="8.2443571"><ele>159.0</ele><time>2026-04-04T14:44:04.563Z</time></trkpt><trkpt lat="45.1189741" lon="8.2444793"><ele>159.0</ele><time>2026-04-04T14:44:05.563Z</time></trkpt><trkpt lat="45.1189775" lon="8.244608"><ele>159.0</ele><time>2026-04-04T14:44:06.563Z</time></trkpt><trkpt lat="45.118981" lon="8.2447445"><ele>159.0</ele><time>2026-04-04T14:44:07.563Z</time></trkpt><trkpt lat="45.1189856" lon="8.244882"><ele>159.0</ele><time>2026-04-04T14:44:08.563Z</time></trkpt><trkpt lat="45.1189883" lon="8.2450146"><ele>159.0</ele><time>2026-04-04T14:44:09.562Z</time></trkpt><trkpt lat="45.1189897" lon="8.2451476"><ele>159.0</ele><time>2026-04-04T14:44:10.562Z</time></trkpt><trkpt lat="45.1189889" lon="8.2452776"><ele>159.0</ele><time>2026-04-04T14:44:11.563Z</time></trkpt><trkpt lat="45.1189884" lon="8.2454051"><ele>159.0</ele><time>2026-04-04T14:44:12.563Z</time></trkpt><trkpt lat="45.1189885" lon="8.2455331"><ele>159.0</ele><time>2026-04-04T14:44:13.563Z</time></trkpt><trkpt lat="45.1189878" lon="8.2456571"><ele>159.0</ele><time>2026-04-04T14:44:14.563Z</time></trkpt><trkpt lat="45.118987" lon="8.2457825"><ele>159.0</ele><time>2026-04-04T14:44:15.562Z</time></trkpt><trkpt lat="45.1189874" lon="8.2459085"><ele>159.0</ele><time>2026-04-04T14:44:16.563Z</time></trkpt><trkpt lat="45.1189868" lon="8.2460342"><ele>159.0</ele><time>2026-04-04T14:44:17.562Z</time></trkpt><trkpt lat="45.1189841" lon="8.2461643"><ele>159.0</ele><time>2026-04-04T14:44:18.563Z</time></trkpt><trkpt lat="45.1189817" lon="8.2462929"><ele>159.0</ele><time>2026-04-04T14:44:19.562Z</time></trkpt><trkpt lat="45.1189809" lon="8.2464208"><ele>158.6</ele><time>2026-04-04T14:44:20.563Z</time></trkpt><trkpt lat="45.1189853" lon="8.2465476"><ele>158.2</ele><time>2026-04-04T14:44:21.563Z</time></trkpt><trkpt lat="45.1189909" lon="8.2466745"><ele>157.79999999999998</ele><time>2026-04-04T14:44:22.563Z</time></trkpt><trkpt lat="45.1189935" lon="8.2468025"><ele>157.4</ele><time>2026-04-04T14:44:23.563Z</time></trkpt><trkpt lat="45.1189933" lon="8.2469325"><ele>157.0</ele><time>2026-04-04T14:44:24.562Z</time></trkpt><trkpt lat="45.1189931" lon="8.2470632"><ele>157.0</ele><time>2026-04-04T14:44:25.562Z</time></trkpt><trkpt lat="45.1189948" lon="8.2471941"><ele>157.0</ele><time>2026-04-04T14:44:26.563Z</time></trkpt><trkpt lat="45.1189973" lon="8.2473261"><ele>157.0</ele><time>2026-04-04T14:44:27.562Z</time></trkpt><trkpt lat="45.1189983" lon="8.2474592"><ele>157.0</ele><time>2026-04-04T14:44:28.563Z</time></trkpt><trkpt lat="45.1189984" lon="8.2475941"><ele>157.0</ele><time>2026-04-04T14:44:29.562Z</time></trkpt><trkpt lat="45.1189993" lon="8.2477276"><ele>157.2</ele><time>2026-04-04T14:44:30.562Z</time></trkpt><trkpt lat="45.119" lon="8.2478616"><ele>157.39999999999998</ele><time>2026-04-04T14:44:31.564Z</time></trkpt><trkpt lat="45.1190023" lon="8.2479949"><ele>157.60000000000002</ele><time>2026-04-04T14:44:32.564Z</time></trkpt><trkpt lat="45.1190017" lon="8.2481259"><ele>157.8</ele><time>2026-04-04T14:44:33.563Z</time></trkpt><trkpt lat="45.1190039" lon="8.2482574"><ele>158.0</ele><time>2026-04-04T14:44:34.564Z</time></trkpt><trkpt lat="45.1190058" lon="8.2483862"><ele>158.0</ele><time>2026-04-04T14:44:35.564Z</time></trkpt><trkpt lat="45.119008" lon="8.248517"><ele>158.0</ele><time>2026-04-04T14:44:36.563Z</time></trkpt><trkpt lat="45.1190103" lon="8.2486479"><ele>158.0</ele><time>2026-04-04T14:44:37.563Z</time></trkpt><trkpt lat="45.1190129" lon="8.2487815"><ele>158.0</ele><time>2026-04-04T14:44:38.564Z</time></trkpt><trkpt lat="45.1190153" lon="8.2489162"><ele>158.0</ele><time>2026-04-04T14:44:39.563Z</time></trkpt><trkpt lat="45.1190163" lon="8.2490512"><ele>158.0</ele><time>2026-04-04T14:44:40.564Z</time></trkpt><trkpt lat="45.1190153" lon="8.2491847"><ele>158.0</ele><time>2026-04-04T14:44:41.563Z</time></trkpt><trkpt lat="45.1190148" lon="8.2493162"><ele>158.0</ele><time>2026-04-04T14:44:42.563Z</time></trkpt><trkpt lat="45.1190136" lon="8.2494455"><ele>158.0</ele><time>2026-04-04T14:44:43.564Z</time></trkpt><trkpt lat="45.1190102" lon="8.2495727"><ele>158.0</ele><time>2026-04-04T14:44:44.564Z</time></trkpt><trkpt lat="45.1190074" lon="8.2497036"><ele>158.0</ele><time>2026-04-04T14:44:45.564Z</time></trkpt><trkpt lat="45.119003" lon="8.2498322"><ele>158.0</ele><time>2026-04-04T14:44:46.564Z</time></trkpt><trkpt lat="45.1190021" lon="8.2499623"><ele>158.0</ele><time>2026-04-04T14:44:47.564Z</time></trkpt><trkpt lat="45.1190039" lon="8.2500911"><ele>158.0</ele><time>2026-04-04T14:44:48.563Z</time></trkpt><trkpt lat="45.1190066" lon="8.250221"><ele>158.0</ele><time>2026-04-04T14:44:49.563Z</time></trkpt><trkpt lat="45.1190096" lon="8.2503548"><ele>158.0</ele><time>2026-04-04T14:44:50.564Z</time></trkpt><trkpt lat="45.1190089" lon="8.2504872"><ele>158.0</ele><time>2026-04-04T14:44:51.564Z</time></trkpt><trkpt lat="45.1190072" lon="8.2506219"><ele>158.0</ele><time>2026-04-04T14:44:52.563Z</time></trkpt><trkpt lat="45.1190057" lon="8.2507526"><ele>158.0</ele><time>2026-04-04T14:44:53.564Z</time></trkpt><trkpt lat="45.1190026" lon="8.2508825"><ele>158.0</ele><time>2026-04-04T14:44:54.564Z</time></trkpt><trkpt lat="45.1189972" lon="8.251012"><ele>157.6</ele><time>2026-04-04T14:44:55.564Z</time></trkpt><trkpt lat="45.1189942" lon="8.2511443"><ele>157.20000000000002</ele><time>2026-04-04T14:44:56.564Z</time></trkpt><trkpt lat="45.1189908" lon="8.2512715"><ele>156.8</ele><time>2026-04-04T14:44:57.563Z</time></trkpt><trkpt lat="45.1189842" lon="8.2513976"><ele>156.4</ele><time>2026-04-04T14:44:58.563Z</time></trkpt><trkpt lat="45.1189732" lon="8.2515266"><ele>156.0</ele><time>2026-04-04T14:44:59.563Z</time></trkpt><trkpt lat="45.1189614" lon="8.2516576"><ele>156.0</ele><time>2026-04-04T14:45:00.564Z</time></trkpt><trkpt lat="45.1189485" lon="8.2517863"><ele>156.0</ele><time>2026-04-04T14:45:01.563Z</time></trkpt><trkpt lat="45.1189313" lon="8.2519106"><ele>156.0</ele><time>2026-04-04T14:45:02.564Z</time></trkpt><trkpt lat="45.1189125" lon="8.2520327"><ele>156.0</ele><time>2026-04-04T14:45:03.564Z</time></trkpt><trkpt lat="45.1188951" lon="8.2521582"><ele>156.0</ele><time>2026-04-04T14:45:04.563Z</time></trkpt><trkpt lat="45.1188768" lon="8.2522897"><ele>155.8</ele><time>2026-04-04T14:45:05.563Z</time></trkpt><trkpt lat="45.1188566" lon="8.2524224"><ele>155.6</ele><time>2026-04-04T14:45:06.564Z</time></trkpt><trkpt lat="45.1188333" lon="8.2525537"><ele>155.4</ele><time>2026-04-04T14:45:07.564Z</time></trkpt><trkpt lat="45.1188072" lon="8.2526842"><ele>155.2</ele><time>2026-04-04T14:45:08.563Z</time></trkpt><trkpt lat="45.11878" lon="8.2528126"><ele>155.0</ele><time>2026-04-04T14:45:09.564Z</time></trkpt><trkpt lat="45.1187496" lon="8.2529411"><ele>155.0</ele><time>2026-04-04T14:45:10.564Z</time></trkpt><trkpt lat="45.1187143" lon="8.2530634"><ele>155.0</ele><time>2026-04-04T14:45:11.563Z</time></trkpt><trkpt lat="45.1186737" lon="8.2531831"><ele>155.0</ele><time>2026-04-04T14:45:12.564Z</time></trkpt><trkpt lat="45.118636" lon="8.253303"><ele>155.0</ele><time>2026-04-04T14:45:13.564Z</time></trkpt><trkpt lat="45.118602" lon="8.2534267"><ele>155.0</ele><time>2026-04-04T14:45:14.564Z</time></trkpt><trkpt lat="45.1185685" lon="8.2535515"><ele>154.8</ele><time>2026-04-04T14:45:15.564Z</time></trkpt><trkpt lat="45.1185343" lon="8.2536769"><ele>154.6</ele><time>2026-04-04T14:45:16.563Z</time></trkpt><trkpt lat="45.1185005" lon="8.2538009"><ele>154.4</ele><time>2026-04-04T14:45:17.563Z</time></trkpt><trkpt lat="45.1184676" lon="8.2539265"><ele>154.2</ele><time>2026-04-04T14:45:18.564Z</time></trkpt><trkpt lat="45.118435" lon="8.2540542"><ele>154.0</ele><time>2026-04-04T14:45:19.564Z</time></trkpt><trkpt lat="45.1184021" lon="8.2541838"><ele>154.2</ele><time>2026-04-04T14:45:20.565Z</time></trkpt><trkpt lat="45.11837" lon="8.2543103"><ele>154.4</ele><time>2026-04-04T14:45:21.564Z</time></trkpt><trkpt lat="45.1183376" lon="8.2544318"><ele>154.6</ele><time>2026-04-04T14:45:22.565Z</time></trkpt><trkpt lat="45.118303" lon="8.2545522"><ele>154.8</ele><time>2026-04-04T14:45:23.564Z</time></trkpt><trkpt lat="45.1182692" lon="8.2546761"><ele>155.0</ele><time>2026-04-04T14:45:24.564Z</time></trkpt><trkpt lat="45.1182377" lon="8.254802"><ele>154.8</ele><time>2026-04-04T14:45:25.565Z</time></trkpt><trkpt lat="45.1182073" lon="8.2549287"><ele>154.6</ele><time>2026-04-04T14:45:26.564Z</time></trkpt><trkpt lat="45.1181777" lon="8.2550538"><ele>154.4</ele><time>2026-04-04T14:45:27.565Z</time></trkpt><trkpt lat="45.1181445" lon="8.255179"><ele>154.2</ele><time>2026-04-04T14:45:28.565Z</time></trkpt><trkpt lat="45.1181094" lon="8.2553019"><ele>154.0</ele><time>2026-04-04T14:45:29.564Z</time></trkpt><trkpt lat="45.1180749" lon="8.2554245"><ele>154.0</ele><time>2026-04-04T14:45:30.565Z</time></trkpt><trkpt lat="45.1180394" lon="8.2555467"><ele>154.0</ele><time>2026-04-04T14:45:31.565Z</time></trkpt><trkpt lat="45.1180044" lon="8.255669"><ele>154.0</ele><time>2026-04-04T14:45:32.564Z</time></trkpt><trkpt lat="45.1179733" lon="8.2557887"><ele>154.0</ele><time>2026-04-04T14:45:33.564Z</time></trkpt><trkpt lat="45.1179422" lon="8.2559055"><ele>154.0</ele><time>2026-04-04T14:45:34.565Z</time></trkpt><trkpt lat="45.1179087" lon="8.2560224"><ele>153.8</ele><time>2026-04-04T14:45:35.564Z</time></trkpt><trkpt lat="45.1178746" lon="8.2561386"><ele>153.60000000000002</ele><time>2026-04-04T14:45:36.565Z</time></trkpt><trkpt lat="45.1178401" lon="8.2562541"><ele>153.4</ele><time>2026-04-04T14:45:37.565Z</time></trkpt><trkpt lat="45.1178039" lon="8.2563743"><ele>153.20000000000002</ele><time>2026-04-04T14:45:38.564Z</time></trkpt><trkpt lat="45.1177678" lon="8.2564973"><ele>153.0</ele><time>2026-04-04T14:45:39.564Z</time></trkpt><trkpt lat="45.117734" lon="8.2566196"><ele>153.0</ele><time>2026-04-04T14:45:40.565Z</time></trkpt><trkpt lat="45.1177008" lon="8.2567429"><ele>153.0</ele><time>2026-04-04T14:45:41.564Z</time></trkpt><trkpt lat="45.1176694" lon="8.2568646"><ele>153.0</ele><time>2026-04-04T14:45:42.564Z</time></trkpt><trkpt lat="45.1176402" lon="8.2569866"><ele>153.0</ele><time>2026-04-04T14:45:43.565Z</time></trkpt><trkpt lat="45.1176108" lon="8.2571067"><ele>153.0</ele><time>2026-04-04T14:45:44.565Z</time></trkpt><trkpt lat="45.1175799" lon="8.2572281"><ele>153.16666666666666</ele><time>2026-04-04T14:45:45.564Z</time></trkpt><trkpt lat="45.1175501" lon="8.2573461"><ele>153.33333333333334</ele><time>2026-04-04T14:45:46.565Z</time></trkpt><trkpt lat="45.1175205" lon="8.2574648"><ele>153.5</ele><time>2026-04-04T14:45:47.565Z</time></trkpt><trkpt lat="45.1174882" lon="8.2575871"><ele>153.66666666666669</ele><time>2026-04-04T14:45:48.564Z</time></trkpt><trkpt lat="45.1174547" lon="8.257705"><ele>153.83333333333334</ele><time>2026-04-04T14:45:49.564Z</time></trkpt><trkpt lat="45.1174192" lon="8.2578201"><ele>154.0</ele><time>2026-04-04T14:45:50.564Z</time></trkpt><trkpt lat="45.1173819" lon="8.2579371"><ele>154.0</ele><time>2026-04-04T14:45:51.565Z</time></trkpt><trkpt lat="45.1173482" lon="8.2580562"><ele>154.0</ele><time>2026-04-04T14:45:52.565Z</time></trkpt><trkpt lat="45.1173162" lon="8.2581783"><ele>154.0</ele><time>2026-04-04T14:45:53.565Z</time></trkpt><trkpt lat="45.1172845" lon="8.2583028"><ele>154.0</ele><time>2026-04-04T14:45:54.565Z</time></trkpt><trkpt lat="45.1172523" lon="8.2584275"><ele>154.0</ele><time>2026-04-04T14:45:55.564Z</time></trkpt><trkpt lat="45.1172181" lon="8.2585511"><ele>154.0</ele><time>2026-04-04T14:45:56.565Z</time></trkpt><trkpt lat="45.1171853" lon="8.2586758"><ele>154.0</ele><time>2026-04-04T14:45:57.565Z</time></trkpt><trkpt lat="45.1171523" lon="8.2587956"><ele>154.0</ele><time>2026-04-04T14:45:58.565Z</time></trkpt><trkpt lat="45.1171202" lon="8.2589167"><ele>154.0</ele><time>2026-04-04T14:45:59.564Z</time></trkpt><trkpt lat="45.1170869" lon="8.2590391"><ele>154.0</ele><time>2026-04-04T14:46:00.565Z</time></trkpt><trkpt lat="45.1170516" lon="8.2591666"><ele>154.2</ele><time>2026-04-04T14:46:01.565Z</time></trkpt><trkpt lat="45.1170149" lon="8.2592907"><ele>154.4</ele><time>2026-04-04T14:46:02.564Z</time></trkpt><trkpt lat="45.1169801" lon="8.2594132"><ele>154.6</ele><time>2026-04-04T14:46:03.564Z</time></trkpt><trkpt lat="45.1169447" lon="8.2595354"><ele>154.8</ele><time>2026-04-04T14:46:04.564Z</time></trkpt><trkpt lat="45.1169086" lon="8.2596569"><ele>155.0</ele><time>2026-04-04T14:46:05.564Z</time></trkpt><trkpt lat="45.1168755" lon="8.2597841"><ele>155.0</ele><time>2026-04-04T14:46:06.565Z</time></trkpt><trkpt lat="45.1168473" lon="8.2599105"><ele>155.0</ele><time>2026-04-04T14:46:07.566Z</time></trkpt><trkpt lat="45.1168194" lon="8.2600385"><ele>155.0</ele><time>2026-04-04T14:46:08.566Z</time></trkpt><trkpt lat="45.1167918" lon="8.2601656"><ele>155.0</ele><time>2026-04-04T14:46:09.566Z</time></trkpt><trkpt lat="45.1167616" lon="8.2602911"><ele>155.0</ele><time>2026-04-04T14:46:10.566Z</time></trkpt><trkpt lat="45.1167255" lon="8.2604174"><ele>155.0</ele><time>2026-04-04T14:46:11.565Z</time></trkpt><trkpt lat="45.1166846" lon="8.2605382"><ele>155.0</ele><time>2026-04-04T14:46:12.566Z</time></trkpt><trkpt lat="45.1166466" lon="8.2606614"><ele>155.0</ele><time>2026-04-04T14:46:13.566Z</time></trkpt><trkpt lat="45.1166107" lon="8.2607857"><ele>155.0</ele><time>2026-04-04T14:46:14.565Z</time></trkpt><trkpt lat="45.1165778" lon="8.2609108"><ele>155.0</ele><time>2026-04-04T14:46:15.565Z</time></trkpt><trkpt lat="45.1165452" lon="8.2610376"><ele>154.6</ele><time>2026-04-04T14:46:16.565Z</time></trkpt><trkpt lat="45.1165089" lon="8.2611611"><ele>154.2</ele><time>2026-04-04T14:46:17.565Z</time></trkpt><trkpt lat="45.1164756" lon="8.26129"><ele>153.8</ele><time>2026-04-04T14:46:18.566Z</time></trkpt><trkpt lat="45.1164438" lon="8.2614178"><ele>153.4</ele><time>2026-04-04T14:46:19.566Z</time></trkpt><trkpt lat="45.1164112" lon="8.2615425"><ele>153.0</ele><time>2026-04-04T14:46:20.566Z</time></trkpt><trkpt lat="45.1163774" lon="8.2616669"><ele>153.0</ele><time>2026-04-04T14:46:21.566Z</time></trkpt><trkpt lat="45.116343" lon="8.2617921"><ele>153.0</ele><time>2026-04-04T14:46:22.565Z</time></trkpt><trkpt lat="45.1163094" lon="8.2619148"><ele>153.0</ele><time>2026-04-04T14:46:23.566Z</time></trkpt><trkpt lat="45.1162746" lon="8.2620381"><ele>153.0</ele><time>2026-04-04T14:46:24.566Z</time></trkpt><trkpt lat="45.1162415" lon="8.2621598"><ele>153.0</ele><time>2026-04-04T14:46:25.566Z</time></trkpt><trkpt lat="45.1162105" lon="8.2622871"><ele>153.0</ele><time>2026-04-04T14:46:26.566Z</time></trkpt><trkpt lat="45.1161821" lon="8.2624136"><ele>153.0</ele><time>2026-04-04T14:46:27.566Z</time></trkpt><trkpt lat="45.1161502" lon="8.2625392"><ele>153.0</ele><time>2026-04-04T14:46:28.566Z</time></trkpt><trkpt lat="45.1161186" lon="8.2626695"><ele>153.0</ele><time>2026-04-04T14:46:29.565Z</time></trkpt><trkpt lat="45.1160836" lon="8.2628001"><ele>153.0</ele><time>2026-04-04T14:46:30.566Z</time></trkpt><trkpt lat="45.1160501" lon="8.2629335"><ele>153.0</ele><time>2026-04-04T14:46:31.566Z</time></trkpt><trkpt lat="45.1160176" lon="8.263056"><ele>153.0</ele><time>2026-04-04T14:46:32.566Z</time></trkpt><trkpt lat="45.1159825" lon="8.2631885"><ele>153.0</ele><time>2026-04-04T14:46:33.565Z</time></trkpt><trkpt lat="45.1159469" lon="8.2633168"><ele>153.0</ele><time>2026-04-04T14:46:34.565Z</time></trkpt><trkpt lat="45.1159128" lon="8.2634402"><ele>153.0</ele><time>2026-04-04T14:46:35.565Z</time></trkpt><trkpt lat="45.1158797" lon="8.263562"><ele>153.0</ele><time>2026-04-04T14:46:36.565Z</time></trkpt><trkpt lat="45.1158463" lon="8.2636824"><ele>153.0</ele><time>2026-04-04T14:46:37.566Z</time></trkpt><trkpt lat="45.1158136" lon="8.2638041"><ele>153.0</ele><time>2026-04-04T14:46:38.565Z</time></trkpt><trkpt lat="45.1157833" lon="8.2639291"><ele>153.0</ele><time>2026-04-04T14:46:39.565Z</time></trkpt><trkpt lat="45.1157517" lon="8.2640509"><ele>153.0</ele><time>2026-04-04T14:46:40.566Z</time></trkpt><trkpt lat="45.1157167" lon="8.2641702"><ele>152.8</ele><time>2026-04-04T14:46:41.566Z</time></trkpt><trkpt lat="45.1156829" lon="8.2642873"><ele>152.60000000000002</ele><time>2026-04-04T14:46:42.565Z</time></trkpt><trkpt lat="45.1156514" lon="8.2644084"><ele>152.39999999999998</ele><time>2026-04-04T14:46:43.566Z</time></trkpt><trkpt lat="45.1156204" lon="8.2645314"><ele>152.2</ele><time>2026-04-04T14:46:44.566Z</time></trkpt><trkpt lat="45.1155887" lon="8.2646574"><ele>152.0</ele><time>2026-04-04T14:46:45.565Z</time></trkpt><trkpt lat="45.1155553" lon="8.2647836"><ele>152.6</ele><time>2026-04-04T14:46:46.565Z</time></trkpt><trkpt lat="45.1155221" lon="8.2649115"><ele>153.2</ele><time>2026-04-04T14:46:47.566Z</time></trkpt><trkpt lat="45.1154896" lon="8.2650409"><ele>153.8</ele><time>2026-04-04T14:46:48.566Z</time></trkpt><trkpt lat="45.1154565" lon="8.2651686"><ele>154.4</ele><time>2026-04-04T14:46:49.565Z</time></trkpt><trkpt lat="45.1154222" lon="8.2652944"><ele>155.0</ele><time>2026-04-04T14:46:50.567Z</time></trkpt><trkpt lat="45.1153845" lon="8.2654193"><ele>155.0</ele><time>2026-04-04T14:46:51.566Z</time></trkpt><trkpt lat="45.1153448" lon="8.2655434"><ele>155.0</ele><time>2026-04-04T14:46:52.565Z</time></trkpt><trkpt lat="45.1153053" lon="8.2656687"><ele>155.0</ele><time>2026-04-04T14:46:53.565Z</time></trkpt><trkpt lat="45.1152687" lon="8.2657949"><ele>155.0</ele><time>2026-04-04T14:46:54.565Z</time></trkpt><trkpt lat="45.1152346" lon="8.2659187"><ele>155.0</ele><time>2026-04-04T14:46:55.567Z</time></trkpt><trkpt lat="45.1152008" lon="8.2660422"><ele>155.0</ele><time>2026-04-04T14:46:56.566Z</time></trkpt><trkpt lat="45.1151651" lon="8.2661673"><ele>155.0</ele><time>2026-04-04T14:46:57.567Z</time></trkpt><trkpt lat="45.1151294" lon="8.2662935"><ele>155.0</ele><time>2026-04-04T14:46:58.566Z</time></trkpt><trkpt lat="45.1150956" lon="8.266421"><ele>155.0</ele><time>2026-04-04T14:46:59.566Z</time></trkpt><trkpt lat="45.1150604" lon="8.2665501"><ele>155.0</ele><time>2026-04-04T14:47:00.567Z</time></trkpt><trkpt lat="45.1150239" lon="8.2666792"><ele>155.0</ele><time>2026-04-04T14:47:01.566Z</time></trkpt><trkpt lat="45.1149901" lon="8.2668087"><ele>155.0</ele><time>2026-04-04T14:47:02.566Z</time></trkpt><trkpt lat="45.1149564" lon="8.2669364"><ele>155.0</ele><time>2026-04-04T14:47:03.566Z</time></trkpt><trkpt lat="45.1149225" lon="8.2670651"><ele>155.0</ele><time>2026-04-04T14:47:04.566Z</time></trkpt><trkpt lat="45.1148883" lon="8.2671944"><ele>155.0</ele><time>2026-04-04T14:47:05.566Z</time></trkpt><trkpt lat="45.1148543" lon="8.2673244"><ele>154.6</ele><time>2026-04-04T14:47:06.566Z</time></trkpt><trkpt lat="45.11482" lon="8.2674548"><ele>154.2</ele><time>2026-04-04T14:47:07.567Z</time></trkpt><trkpt lat="45.114787" lon="8.2675845"><ele>153.8</ele><time>2026-04-04T14:47:08.566Z</time></trkpt><trkpt lat="45.1147538" lon="8.2677145"><ele>153.4</ele><time>2026-04-04T14:47:09.566Z</time></trkpt><trkpt lat="45.1147202" lon="8.2678451"><ele>153.0</ele><time>2026-04-04T14:47:10.567Z</time></trkpt><trkpt lat="45.1146847" lon="8.2679773"><ele>153.0</ele><time>2026-04-04T14:47:11.567Z</time></trkpt><trkpt lat="45.1146493" lon="8.2681095"><ele>153.0</ele><time>2026-04-04T14:47:12.567Z</time></trkpt><trkpt lat="45.1146138" lon="8.2682415"><ele>153.0</ele><time>2026-04-04T14:47:13.566Z</time></trkpt><trkpt lat="45.1145786" lon="8.2683716"><ele>153.0</ele><time>2026-04-04T14:47:14.566Z</time></trkpt><trkpt lat="45.1145421" lon="8.2685025"><ele>153.0</ele><time>2026-04-04T14:47:15.566Z</time></trkpt><trkpt lat="45.1145059" lon="8.2686344"><ele>152.6</ele><time>2026-04-04T14:47:16.566Z</time></trkpt><trkpt lat="45.1144698" lon="8.2687681"><ele>152.20000000000002</ele><time>2026-04-04T14:47:17.567Z</time></trkpt><trkpt lat="45.1144335" lon="8.2689019"><ele>151.8</ele><time>2026-04-04T14:47:18.566Z</time></trkpt><trkpt lat="45.1143986" lon="8.2690325"><ele>151.4</ele><time>2026-04-04T14:47:19.567Z</time></trkpt><trkpt lat="45.1143657" lon="8.2691588"><ele>151.0</ele><time>2026-04-04T14:47:20.566Z</time></trkpt><trkpt lat="45.1143327" lon="8.2692847"><ele>151.0</ele><time>2026-04-04T14:47:21.566Z</time></trkpt><trkpt lat="45.1142979" lon="8.2694094"><ele>151.0</ele><time>2026-04-04T14:47:22.567Z</time></trkpt><trkpt lat="45.1142642" lon="8.2695353"><ele>151.0</ele><time>2026-04-04T14:47:23.567Z</time></trkpt><trkpt lat="45.114231" lon="8.2696625"><ele>151.0</ele><time>2026-04-04T14:47:24.566Z</time></trkpt><trkpt lat="45.1141976" lon="8.2697892"><ele>151.0</ele><time>2026-04-04T14:47:25.567Z</time></trkpt><trkpt lat="45.1141635" lon="8.2699162"><ele>151.0</ele><time>2026-04-04T14:47:26.567Z</time></trkpt><trkpt lat="45.1141303" lon="8.2700441"><ele>151.0</ele><time>2026-04-04T14:47:27.567Z</time></trkpt><trkpt lat="45.1140966" lon="8.2701744"><ele>151.0</ele><time>2026-04-04T14:47:28.566Z</time></trkpt><trkpt lat="45.1140632" lon="8.2703059"><ele>151.0</ele><time>2026-04-04T14:47:29.567Z</time></trkpt><trkpt lat="45.1140297" lon="8.2704348"><ele>151.0</ele><time>2026-04-04T14:47:30.566Z</time></trkpt><trkpt lat="45.1139956" lon="8.2705623"><ele>151.4</ele><time>2026-04-04T14:47:31.566Z</time></trkpt><trkpt lat="45.1139634" lon="8.2706899"><ele>151.8</ele><time>2026-04-04T14:47:32.567Z</time></trkpt><trkpt lat="45.1139335" lon="8.2708162"><ele>152.20000000000002</ele><time>2026-04-04T14:47:33.566Z</time></trkpt><trkpt lat="45.1139031" lon="8.2709431"><ele>152.6</ele><time>2026-04-04T14:47:34.566Z</time></trkpt><trkpt lat="45.1138717" lon="8.271071"><ele>153.0</ele><time>2026-04-04T14:47:35.566Z</time></trkpt><trkpt lat="45.1138383" lon="8.2711989"><ele>153.0</ele><time>2026-04-04T14:47:36.566Z</time></trkpt><trkpt lat="45.1138024" lon="8.2713266"><ele>153.0</ele><time>2026-04-04T14:47:37.567Z</time></trkpt><trkpt lat="45.1137666" lon="8.2714443"><ele>153.0</ele><time>2026-04-04T14:47:38.566Z</time></trkpt><trkpt lat="45.1137307" lon="8.2715733"><ele>153.0</ele><time>2026-04-04T14:47:39.567Z</time></trkpt><trkpt lat="45.1136976" lon="8.271704"><ele>153.0</ele><time>2026-04-04T14:47:40.567Z</time></trkpt><trkpt lat="45.1136661" lon="8.2718347"><ele>153.0</ele><time>2026-04-04T14:47:41.568Z</time></trkpt><trkpt lat="45.1136318" lon="8.2719671"><ele>153.0</ele><time>2026-04-04T14:47:42.567Z</time></trkpt><trkpt lat="45.1135933" lon="8.2720948"><ele>153.0</ele><time>2026-04-04T14:47:43.567Z</time></trkpt><trkpt lat="45.1135539" lon="8.2722223"><ele>153.0</ele><time>2026-04-04T14:47:44.567Z</time></trkpt><trkpt lat="45.113516" lon="8.2723469"><ele>153.0</ele><time>2026-04-04T14:47:45.568Z</time></trkpt><trkpt lat="45.113481" lon="8.2724735"><ele>153.20000000000002</ele><time>2026-04-04T14:47:46.567Z</time></trkpt><trkpt lat="45.1134461" lon="8.2726005"><ele>153.4</ele><time>2026-04-04T14:47:47.568Z</time></trkpt><trkpt lat="45.1134124" lon="8.2727287"><ele>153.60000000000002</ele><time>2026-04-04T14:47:48.568Z</time></trkpt><trkpt lat="45.1133793" lon="8.2728587"><ele>153.8</ele><time>2026-04-04T14:47:49.568Z</time></trkpt><trkpt lat="45.1133474" lon="8.2729882"><ele>154.0</ele><time>2026-04-04T14:47:50.567Z</time></trkpt><trkpt lat="45.1133121" lon="8.273117"><ele>153.6</ele><time>2026-04-04T14:47:51.568Z</time></trkpt><trkpt lat="45.113276" lon="8.2732464"><ele>153.2</ele><time>2026-04-04T14:47:52.568Z</time></trkpt><trkpt lat="45.11324" lon="8.2733743"><ele>152.79999999999998</ele><time>2026-04-04T14:47:53.568Z</time></trkpt><trkpt lat="45.1132039" lon="8.2735015"><ele>152.4</ele><time>2026-04-04T14:47:54.567Z</time></trkpt><trkpt lat="45.1131685" lon="8.2736289"><ele>152.0</ele><time>2026-04-04T14:47:55.567Z</time></trkpt><trkpt lat="45.1131355" lon="8.2737596"><ele>151.79999999999998</ele><time>2026-04-04T14:47:56.568Z</time></trkpt><trkpt lat="45.1131035" lon="8.2738906"><ele>151.6</ele><time>2026-04-04T14:47:57.567Z</time></trkpt><trkpt lat="45.113073" lon="8.2740226"><ele>151.39999999999998</ele><time>2026-04-04T14:47:58.568Z</time></trkpt><trkpt lat="45.1130442" lon="8.2741543"><ele>151.2</ele><time>2026-04-04T14:47:59.568Z</time></trkpt><trkpt lat="45.1130157" lon="8.2742834"><ele>151.0</ele><time>2026-04-04T14:48:00.568Z</time></trkpt><trkpt lat="45.1129877" lon="8.2744106"><ele>150.6</ele><time>2026-04-04T14:48:01.567Z</time></trkpt><trkpt lat="45.1129604" lon="8.2745406"><ele>150.2</ele><time>2026-04-04T14:48:02.568Z</time></trkpt><trkpt lat="45.1129359" lon="8.2746758"><ele>149.8</ele><time>2026-04-04T14:48:03.568Z</time></trkpt><trkpt lat="45.1129163" lon="8.2748116"><ele>149.4</ele><time>2026-04-04T14:48:04.568Z</time></trkpt><trkpt lat="45.1129002" lon="8.2749497"><ele>149.0</ele><time>2026-04-04T14:48:05.568Z</time></trkpt><trkpt lat="45.1128869" lon="8.2750864"><ele>149.0</ele><time>2026-04-04T14:48:06.568Z</time></trkpt><trkpt lat="45.1128748" lon="8.275222"><ele>149.0</ele><time>2026-04-04T14:48:07.568Z</time></trkpt><trkpt lat="45.1128635" lon="8.2753588"><ele>149.0</ele><time>2026-04-04T14:48:08.568Z</time></trkpt><trkpt lat="45.1128556" lon="8.275499"><ele>149.0</ele><time>2026-04-04T14:48:09.568Z</time></trkpt><trkpt lat="45.1128498" lon="8.2756436"><ele>149.0</ele><time>2026-04-04T14:48:10.567Z</time></trkpt><trkpt lat="45.1128443" lon="8.2757892"><ele>149.0</ele><time>2026-04-04T14:48:11.568Z</time></trkpt><trkpt lat="45.1128398" lon="8.2759356"><ele>149.0</ele><time>2026-04-04T14:48:12.568Z</time></trkpt><trkpt lat="45.1128376" lon="8.2760804"><ele>149.0</ele><time>2026-04-04T14:48:13.567Z</time></trkpt><trkpt lat="45.1128347" lon="8.2762246"><ele>149.0</ele><time>2026-04-04T14:48:14.568Z</time></trkpt><trkpt lat="45.1128298" lon="8.2763676"><ele>149.0</ele><time>2026-04-04T14:48:15.568Z</time></trkpt><trkpt lat="45.1128251" lon="8.2765114"><ele>148.8</ele><time>2026-04-04T14:48:16.567Z</time></trkpt><trkpt lat="45.1128236" lon="8.2766517"><ele>148.60000000000002</ele><time>2026-04-04T14:48:17.567Z</time></trkpt><trkpt lat="45.1128288" lon="8.2767922"><ele>148.4</ele><time>2026-04-04T14:48:18.568Z</time></trkpt><trkpt lat="45.1128364" lon="8.2769337"><ele>148.20000000000002</ele><time>2026-04-04T14:48:19.567Z</time></trkpt><trkpt lat="45.1128425" lon="8.2770754"><ele>148.0</ele><time>2026-04-04T14:48:20.567Z</time></trkpt><trkpt lat="45.1128462" lon="8.2772197"><ele>148.0</ele><time>2026-04-04T14:48:21.569Z</time></trkpt><trkpt lat="45.1128491" lon="8.277362"><ele>148.0</ele><time>2026-04-04T14:48:22.567Z</time></trkpt><trkpt lat="45.1128525" lon="8.2774954"><ele>148.0</ele><time>2026-04-04T14:48:23.567Z</time></trkpt><trkpt lat="45.1128569" lon="8.2776261"><ele>148.0</ele><time>2026-04-04T14:48:24.567Z</time></trkpt><trkpt lat="45.112861" lon="8.2777592"><ele>148.0</ele><time>2026-04-04T14:48:25.567Z</time></trkpt><trkpt lat="45.1128647" lon="8.2778889"><ele>148.0</ele><time>2026-04-04T14:48:26.569Z</time></trkpt><trkpt lat="45.1128674" lon="8.2780166"><ele>148.0</ele><time>2026-04-04T14:48:27.568Z</time></trkpt><trkpt lat="45.1128699" lon="8.2781454"><ele>148.0</ele><time>2026-04-04T14:48:28.567Z</time></trkpt><trkpt lat="45.1128733" lon="8.2782789"><ele>148.0</ele><time>2026-04-04T14:48:29.568Z</time></trkpt><trkpt lat="45.1128783" lon="8.2784112"><ele>148.0</ele><time>2026-04-04T14:48:30.568Z</time></trkpt><trkpt lat="45.1128822" lon="8.2785419"><ele>148.20000000000002</ele><time>2026-04-04T14:48:31.568Z</time></trkpt><trkpt lat="45.1128872" lon="8.278675"><ele>148.4</ele><time>2026-04-04T14:48:32.568Z</time></trkpt><trkpt lat="45.1128923" lon="8.2788115"><ele>148.60000000000002</ele><time>2026-04-04T14:48:33.568Z</time></trkpt><trkpt lat="45.1128962" lon="8.2789488"><ele>148.8</ele><time>2026-04-04T14:48:34.568Z</time></trkpt><trkpt lat="45.1128985" lon="8.2790889"><ele>149.0</ele><time>2026-04-04T14:48:35.569Z</time></trkpt><trkpt lat="45.1129001" lon="8.2792293"><ele>149.0</ele><time>2026-04-04T14:48:36.569Z</time></trkpt><trkpt lat="45.1129021" lon="8.2793699"><ele>149.0</ele><time>2026-04-04T14:48:37.568Z</time></trkpt><trkpt lat="45.1129041" lon="8.2795111"><ele>149.0</ele><time>2026-04-04T14:48:38.569Z</time></trkpt><trkpt lat="45.1129051" lon="8.279655"><ele>149.0</ele><time>2026-04-04T14:48:39.568Z</time></trkpt><trkpt lat="45.1129078" lon="8.2798009"><ele>149.0</ele><time>2026-04-04T14:48:40.568Z</time></trkpt><trkpt lat="45.1129113" lon="8.2799465"><ele>149.0</ele><time>2026-04-04T14:48:41.568Z</time></trkpt><trkpt lat="45.112916" lon="8.2800841"><ele>149.0</ele><time>2026-04-04T14:48:42.569Z</time></trkpt><trkpt lat="45.1129197" lon="8.2802219"><ele>149.0</ele><time>2026-04-04T14:48:43.568Z</time></trkpt><trkpt lat="45.1129224" lon="8.2803619"><ele>149.0</ele><time>2026-04-04T14:48:44.568Z</time></trkpt><trkpt lat="45.1129265" lon="8.2805042"><ele>149.0</ele><time>2026-04-04T14:48:45.568Z</time></trkpt><trkpt lat="45.1129313" lon="8.280649"><ele>148.6</ele><time>2026-04-04T14:48:46.568Z</time></trkpt><trkpt lat="45.1129375" lon="8.2807953"><ele>148.2</ele><time>2026-04-04T14:48:47.569Z</time></trkpt><trkpt lat="45.112943" lon="8.2809388"><ele>147.79999999999998</ele><time>2026-04-04T14:48:48.568Z</time></trkpt><trkpt lat="45.1129472" lon="8.2810812"><ele>147.4</ele><time>2026-04-04T14:48:49.568Z</time></trkpt><trkpt lat="45.1129498" lon="8.2812219"><ele>147.0</ele><time>2026-04-04T14:48:50.568Z</time></trkpt><trkpt lat="45.1129534" lon="8.2813609"><ele>146.79999999999998</ele><time>2026-04-04T14:48:51.568Z</time></trkpt><trkpt lat="45.1129566" lon="8.2815017"><ele>146.6</ele><time>2026-04-04T14:48:52.568Z</time></trkpt><trkpt lat="45.1129595" lon="8.2816433"><ele>146.39999999999998</ele><time>2026-04-04T14:48:53.568Z</time></trkpt><trkpt lat="45.1129617" lon="8.281783"><ele>146.2</ele><time>2026-04-04T14:48:54.569Z</time></trkpt><trkpt lat="45.1129642" lon="8.2819231"><ele>146.0</ele><time>2026-04-04T14:48:55.568Z</time></trkpt><trkpt lat="45.1129655" lon="8.2820627"><ele>146.0</ele><time>2026-04-04T14:48:56.568Z</time></trkpt><trkpt lat="45.1129672" lon="8.2822001"><ele>146.0</ele><time>2026-04-04T14:48:57.568Z</time></trkpt><trkpt lat="45.1129705" lon="8.2823414"><ele>146.0</ele><time>2026-04-04T14:48:58.569Z</time></trkpt><trkpt lat="45.1129757" lon="8.2824824"><ele>146.0</ele><time>2026-04-04T14:48:59.569Z</time></trkpt><trkpt lat="45.1129815" lon="8.2826208"><ele>146.0</ele><time>2026-04-04T14:49:00.568Z</time></trkpt><trkpt lat="45.1129864" lon="8.2827595"><ele>146.0</ele><time>2026-04-04T14:49:01.569Z</time></trkpt><trkpt lat="45.1129904" lon="8.2828969"><ele>146.0</ele><time>2026-04-04T14:49:02.568Z</time></trkpt><trkpt lat="45.1129929" lon="8.2830343"><ele>146.0</ele><time>2026-04-04T14:49:03.569Z</time></trkpt><trkpt lat="45.1129957" lon="8.2831727"><ele>146.0</ele><time>2026-04-04T14:49:04.569Z</time></trkpt><trkpt lat="45.1130023" lon="8.283305"><ele>146.0</ele><time>2026-04-04T14:49:05.569Z</time></trkpt><trkpt lat="45.1130089" lon="8.2834465"><ele>146.0</ele><time>2026-04-04T14:49:06.568Z</time></trkpt><trkpt lat="45.1130161" lon="8.2835839"><ele>146.0</ele><time>2026-04-04T14:49:07.568Z</time></trkpt><trkpt lat="45.1130208" lon="8.2837136"><ele>146.0</ele><time>2026-04-04T14:49:08.568Z</time></trkpt><trkpt lat="45.1130209" lon="8.2838402"><ele>146.0</ele><time>2026-04-04T14:49:09.569Z</time></trkpt><trkpt lat="45.1130203" lon="8.2839816"><ele>146.0</ele><time>2026-04-04T14:49:10.57Z</time></trkpt><trkpt lat="45.1130219" lon="8.2841255"><ele>146.0</ele><time>2026-04-04T14:49:11.569Z</time></trkpt><trkpt lat="45.1130239" lon="8.2842671"><ele>146.0</ele><time>2026-04-04T14:49:12.568Z</time></trkpt><trkpt lat="45.1130243" lon="8.2844117"><ele>146.0</ele><time>2026-04-04T14:49:13.568Z</time></trkpt><trkpt lat="45.1130207" lon="8.2845505"><ele>146.0</ele><time>2026-04-04T14:49:14.569Z</time></trkpt><trkpt lat="45.1130199" lon="8.2846908"><ele>146.0</ele><time>2026-04-04T14:49:15.568Z</time></trkpt><trkpt lat="45.1130245" lon="8.2848281"><ele>145.4</ele><time>2026-04-04T14:49:16.569Z</time></trkpt><trkpt lat="45.1130316" lon="8.2849696"><ele>144.8</ele><time>2026-04-04T14:49:17.569Z</time></trkpt><trkpt lat="45.1130397" lon="8.2851112"><ele>144.20000000000002</ele><time>2026-04-04T14:49:18.57Z</time></trkpt><trkpt lat="45.1130463" lon="8.2852525"><ele>143.6</ele><time>2026-04-04T14:49:19.57Z</time></trkpt><trkpt lat="45.113051" lon="8.2853919"><ele>143.0</ele><time>2026-04-04T14:49:20.57Z</time></trkpt><trkpt lat="45.1130549" lon="8.285532"><ele>142.8</ele><time>2026-04-04T14:49:21.569Z</time></trkpt><trkpt lat="45.1130609" lon="8.2856742"><ele>142.60000000000002</ele><time>2026-04-04T14:49:22.57Z</time></trkpt><trkpt lat="45.1130693" lon="8.2858171"><ele>142.39999999999998</ele><time>2026-04-04T14:49:23.57Z</time></trkpt><trkpt lat="45.113077" lon="8.2859574"><ele>142.2</ele><time>2026-04-04T14:49:24.569Z</time></trkpt><trkpt lat="45.1130815" lon="8.2860976"><ele>142.0</ele><time>2026-04-04T14:49:25.57Z</time></trkpt><trkpt lat="45.1130833" lon="8.2862397"><ele>142.0</ele><time>2026-04-04T14:49:26.569Z</time></trkpt><trkpt lat="45.1130827" lon="8.2863818"><ele>142.0</ele><time>2026-04-04T14:49:27.57Z</time></trkpt><trkpt lat="45.1130845" lon="8.2865204"><ele>142.0</ele><time>2026-04-04T14:49:28.57Z</time></trkpt><trkpt lat="45.113089" lon="8.286658"><ele>142.0</ele><time>2026-04-04T14:49:29.569Z</time></trkpt><trkpt lat="45.1130942" lon="8.286798"><ele>142.0</ele><time>2026-04-04T14:49:30.569Z</time></trkpt><trkpt lat="45.1130993" lon="8.2869351"><ele>142.2</ele><time>2026-04-04T14:49:31.569Z</time></trkpt><trkpt lat="45.1131034" lon="8.2870739"><ele>142.39999999999998</ele><time>2026-04-04T14:49:32.569Z</time></trkpt><trkpt lat="45.1131073" lon="8.2872125"><ele>142.60000000000002</ele><time>2026-04-04T14:49:33.57Z</time></trkpt><trkpt lat="45.1131111" lon="8.2873516"><ele>142.8</ele><time>2026-04-04T14:49:34.57Z</time></trkpt><trkpt lat="45.1131151" lon="8.2874916"><ele>143.0</ele><time>2026-04-04T14:49:35.569Z</time></trkpt><trkpt lat="45.1131191" lon="8.2876306"><ele>143.0</ele><time>2026-04-04T14:49:36.57Z</time></trkpt><trkpt lat="45.1131223" lon="8.2877683"><ele>143.0</ele><time>2026-04-04T14:49:37.569Z</time></trkpt><trkpt lat="45.1131267" lon="8.2879077"><ele>143.0</ele><time>2026-04-04T14:49:38.57Z</time></trkpt><trkpt lat="45.1131295" lon="8.2880453"><ele>143.0</ele><time>2026-04-04T14:49:39.569Z</time></trkpt><trkpt lat="45.1131318" lon="8.2881837"><ele>143.0</ele><time>2026-04-04T14:49:40.569Z</time></trkpt><trkpt lat="45.1131343" lon="8.2883226"><ele>143.0</ele><time>2026-04-04T14:49:41.569Z</time></trkpt><trkpt lat="45.1131386" lon="8.2884616"><ele>143.0</ele><time>2026-04-04T14:49:42.57Z</time></trkpt><trkpt lat="45.1131425" lon="8.288605"><ele>143.0</ele><time>2026-04-04T14:49:43.57Z</time></trkpt><trkpt lat="45.1131433" lon="8.2887457"><ele>143.0</ele><time>2026-04-04T14:49:44.57Z</time></trkpt><trkpt lat="45.1131428" lon="8.2888797"><ele>143.0</ele><time>2026-04-04T14:49:45.57Z</time></trkpt><trkpt lat="45.1131455" lon="8.2890177"><ele>143.0</ele><time>2026-04-04T14:49:46.57Z</time></trkpt><trkpt lat="45.1131478" lon="8.2891493"><ele>143.0</ele><time>2026-04-04T14:49:47.57Z</time></trkpt><trkpt lat="45.1131505" lon="8.2892814"><ele>143.0</ele><time>2026-04-04T14:49:48.569Z</time></trkpt><trkpt lat="45.1131553" lon="8.2894142"><ele>143.0</ele><time>2026-04-04T14:49:49.569Z</time></trkpt><trkpt lat="45.1131597" lon="8.2895454"><ele>143.0</ele><time>2026-04-04T14:49:50.569Z</time></trkpt><trkpt lat="45.1131644" lon="8.2896798"><ele>143.0</ele><time>2026-04-04T14:49:51.569Z</time></trkpt><trkpt lat="45.1131649" lon="8.2898192"><ele>143.0</ele><time>2026-04-04T14:49:52.569Z</time></trkpt><trkpt lat="45.1131609" lon="8.2899605"><ele>143.0</ele><time>2026-04-04T14:49:53.57Z</time></trkpt><trkpt lat="45.1131555" lon="8.2901004"><ele>143.0</ele><time>2026-04-04T14:49:54.569Z</time></trkpt><trkpt lat="45.1131537" lon="8.2902445"><ele>143.0</ele><time>2026-04-04T14:49:55.57Z</time></trkpt><trkpt lat="45.1131575" lon="8.2903836"><ele>143.0</ele><time>2026-04-04T14:49:56.57Z</time></trkpt><trkpt lat="45.1131626" lon="8.2905251"><ele>143.0</ele><time>2026-04-04T14:49:57.569Z</time></trkpt><trkpt lat="45.1131679" lon="8.2906645"><ele>143.0</ele><time>2026-04-04T14:49:58.569Z</time></trkpt><trkpt lat="45.1131715" lon="8.2908026"><ele>143.0</ele><time>2026-04-04T14:49:59.57Z</time></trkpt><trkpt lat="45.1131745" lon="8.2909417"><ele>143.0</ele><time>2026-04-04T14:50:00.57Z</time></trkpt><trkpt lat="45.1131785" lon="8.291082"><ele>143.0</ele><time>2026-04-04T14:50:01.57Z</time></trkpt><trkpt lat="45.1131819" lon="8.2912186"><ele>143.0</ele><time>2026-04-04T14:50:02.569Z</time></trkpt><trkpt lat="45.1131846" lon="8.2913548"><ele>143.0</ele><time>2026-04-04T14:50:03.569Z</time></trkpt><trkpt lat="45.1131871" lon="8.2914934"><ele>143.0</ele><time>2026-04-04T14:50:04.569Z</time></trkpt><trkpt lat="45.1131918" lon="8.2916298"><ele>143.0</ele><time>2026-04-04T14:50:05.57Z</time></trkpt><trkpt lat="45.113197" lon="8.2917663"><ele>143.0</ele><time>2026-04-04T14:50:06.57Z</time></trkpt><trkpt lat="45.1132016" lon="8.2919081"><ele>143.0</ele><time>2026-04-04T14:50:07.57Z</time></trkpt><trkpt lat="45.1132053" lon="8.2920489"><ele>143.0</ele><time>2026-04-04T14:50:08.57Z</time></trkpt><trkpt lat="45.1132088" lon="8.2921932"><ele>143.0</ele><time>2026-04-04T14:50:09.571Z</time></trkpt><trkpt lat="45.1132127" lon="8.2923386"><ele>143.0</ele><time>2026-04-04T14:50:10.57Z</time></trkpt><trkpt lat="45.1132174" lon="8.2924814"><ele>143.0</ele><time>2026-04-04T14:50:11.571Z</time></trkpt><trkpt lat="45.113222" lon="8.2926243"><ele>143.0</ele><time>2026-04-04T14:50:12.571Z</time></trkpt><trkpt lat="45.1132265" lon="8.2927744"><ele>143.0</ele><time>2026-04-04T14:50:13.57Z</time></trkpt><trkpt lat="45.1132305" lon="8.2929231"><ele>143.0</ele><time>2026-04-04T14:50:14.57Z</time></trkpt><trkpt lat="45.1132349" lon="8.2930733"><ele>143.0</ele><time>2026-04-04T14:50:15.571Z</time></trkpt><trkpt lat="45.1132383" lon="8.2932195"><ele>142.8</ele><time>2026-04-04T14:50:16.571Z</time></trkpt><trkpt lat="45.1132413" lon="8.2933667"><ele>142.60000000000002</ele><time>2026-04-04T14:50:17.571Z</time></trkpt><trkpt lat="45.1132464" lon="8.2935158"><ele>142.39999999999998</ele><time>2026-04-04T14:50:18.571Z</time></trkpt><trkpt lat="45.113251" lon="8.2936675"><ele>142.2</ele><time>2026-04-04T14:50:19.57Z</time></trkpt><trkpt lat="45.1132555" lon="8.2938208"><ele>142.0</ele><time>2026-04-04T14:50:20.571Z</time></trkpt><trkpt lat="45.1132601" lon="8.2939745"><ele>142.0</ele><time>2026-04-04T14:50:21.57Z</time></trkpt><trkpt lat="45.1132643" lon="8.2941276"><ele>142.0</ele><time>2026-04-04T14:50:22.57Z</time></trkpt><trkpt lat="45.1132689" lon="8.2942805"><ele>142.0</ele><time>2026-04-04T14:50:23.57Z</time></trkpt><trkpt lat="45.1132732" lon="8.2944373"><ele>142.0</ele><time>2026-04-04T14:50:24.571Z</time></trkpt><trkpt lat="45.113277" lon="8.2945929"><ele>142.0</ele><time>2026-04-04T14:50:25.571Z</time></trkpt><trkpt lat="45.1132794" lon="8.2947489"><ele>141.79999999999998</ele><time>2026-04-04T14:50:26.571Z</time></trkpt><trkpt lat="45.1132818" lon="8.2949032"><ele>141.6</ele><time>2026-04-04T14:50:27.57Z</time></trkpt><trkpt lat="45.1132852" lon="8.2950613"><ele>141.39999999999998</ele><time>2026-04-04T14:50:28.57Z</time></trkpt><trkpt lat="45.1132898" lon="8.2952173"><ele>141.2</ele><time>2026-04-04T14:50:29.571Z</time></trkpt><trkpt lat="45.1132935" lon="8.2953731"><ele>141.0</ele><time>2026-04-04T14:50:30.57Z</time></trkpt><trkpt lat="45.1132954" lon="8.2955198"><ele>141.2</ele><time>2026-04-04T14:50:31.571Z</time></trkpt><trkpt lat="45.1132977" lon="8.2956683"><ele>141.39999999999998</ele><time>2026-04-04T14:50:32.57Z</time></trkpt><trkpt lat="45.1133012" lon="8.2958167"><ele>141.6</ele><time>2026-04-04T14:50:33.571Z</time></trkpt><trkpt lat="45.1133071" lon="8.2959629"><ele>141.79999999999998</ele><time>2026-04-04T14:50:34.57Z</time></trkpt><trkpt lat="45.113312" lon="8.2961099"><ele>142.0</ele><time>2026-04-04T14:50:35.57Z</time></trkpt><trkpt lat="45.1133138" lon="8.2962527"><ele>142.0</ele><time>2026-04-04T14:50:36.571Z</time></trkpt><trkpt lat="45.1133171" lon="8.2963991"><ele>142.0</ele><time>2026-04-04T14:50:37.571Z</time></trkpt><trkpt lat="45.1133218" lon="8.2965461"><ele>142.0</ele><time>2026-04-04T14:50:38.57Z</time></trkpt><trkpt lat="45.1133271" lon="8.296694"><ele>142.0</ele><time>2026-04-04T14:50:39.571Z</time></trkpt><trkpt lat="45.1133321" lon="8.2968415"><ele>142.0</ele><time>2026-04-04T14:50:40.571Z</time></trkpt><trkpt lat="45.1133372" lon="8.2969896"><ele>141.79999999999998</ele><time>2026-04-04T14:50:41.57Z</time></trkpt><trkpt lat="45.1133432" lon="8.2971355"><ele>141.6</ele><time>2026-04-04T14:50:42.57Z</time></trkpt><trkpt lat="45.1133505" lon="8.2972775"><ele>141.39999999999998</ele><time>2026-04-04T14:50:43.571Z</time></trkpt><trkpt lat="45.1133585" lon="8.2974204"><ele>141.2</ele><time>2026-04-04T14:50:44.571Z</time></trkpt><trkpt lat="45.1133657" lon="8.2975638"><ele>141.0</ele><time>2026-04-04T14:50:45.57Z</time></trkpt><trkpt lat="45.1133733" lon="8.2977104"><ele>141.0</ele><time>2026-04-04T14:50:46.571Z</time></trkpt><trkpt lat="45.11338" lon="8.2978567"><ele>141.0</ele><time>2026-04-04T14:50:47.571Z</time></trkpt><trkpt lat="45.1133859" lon="8.2980007"><ele>141.0</ele><time>2026-04-04T14:50:48.57Z</time></trkpt><trkpt lat="45.1133909" lon="8.2981459"><ele>141.0</ele><time>2026-04-04T14:50:49.57Z</time></trkpt><trkpt lat="45.1133969" lon="8.2982917"><ele>141.0</ele><time>2026-04-04T14:50:50.571Z</time></trkpt><trkpt lat="45.1134051" lon="8.2984392"><ele>141.2</ele><time>2026-04-04T14:50:51.57Z</time></trkpt><trkpt lat="45.1134146" lon="8.2985807"><ele>141.39999999999998</ele><time>2026-04-04T14:50:52.571Z</time></trkpt><trkpt lat="45.113423" lon="8.29872"><ele>141.6</ele><time>2026-04-04T14:50:53.572Z</time></trkpt><trkpt lat="45.1134279" lon="8.2988663"><ele>141.79999999999998</ele><time>2026-04-04T14:50:54.572Z</time></trkpt><trkpt lat="45.1134318" lon="8.2990129"><ele>142.0</ele><time>2026-04-04T14:50:55.571Z</time></trkpt><trkpt lat="45.1134347" lon="8.2991582"><ele>142.4</ele><time>2026-04-04T14:50:56.572Z</time></trkpt><trkpt lat="45.1134375" lon="8.2993018"><ele>142.79999999999998</ele><time>2026-04-04T14:50:57.572Z</time></trkpt><trkpt lat="45.1134404" lon="8.299446"><ele>143.2</ele><time>2026-04-04T14:50:58.571Z</time></trkpt><trkpt lat="45.113442" lon="8.299596"><ele>143.6</ele><time>2026-04-04T14:50:59.571Z</time></trkpt><trkpt lat="45.113446" lon="8.2997406"><ele>144.0</ele><time>2026-04-04T14:51:00.571Z</time></trkpt><trkpt lat="45.1134502" lon="8.2998838"><ele>144.4</ele><time>2026-04-04T14:51:01.571Z</time></trkpt><trkpt lat="45.1134527" lon="8.3000264"><ele>144.8</ele><time>2026-04-04T14:51:02.572Z</time></trkpt><trkpt lat="45.1134546" lon="8.3001734"><ele>145.2</ele><time>2026-04-04T14:51:03.571Z</time></trkpt><trkpt lat="45.1134563" lon="8.3003201"><ele>145.6</ele><time>2026-04-04T14:51:04.572Z</time></trkpt><trkpt lat="45.1134597" lon="8.3004632"><ele>146.0</ele><time>2026-04-04T14:51:05.571Z</time></trkpt><trkpt lat="45.1134684" lon="8.3006096"><ele>146.2</ele><time>2026-04-04T14:51:06.572Z</time></trkpt><trkpt lat="45.113473" lon="8.3007558"><ele>146.39999999999998</ele><time>2026-04-04T14:51:07.571Z</time></trkpt><trkpt lat="45.1134756" lon="8.300904"><ele>146.6</ele><time>2026-04-04T14:51:08.572Z</time></trkpt><trkpt lat="45.1134784" lon="8.3010525"><ele>146.79999999999998</ele><time>2026-04-04T14:51:09.571Z</time></trkpt><trkpt lat="45.1134845" lon="8.3011981"><ele>147.0</ele><time>2026-04-04T14:51:10.571Z</time></trkpt><trkpt lat="45.1134922" lon="8.3013416"><ele>146.79999999999998</ele><time>2026-04-04T14:51:11.571Z</time></trkpt><trkpt lat="45.1134995" lon="8.3014849"><ele>146.6</ele><time>2026-04-04T14:51:12.572Z</time></trkpt><trkpt lat="45.1135046" lon="8.301629"><ele>146.39999999999998</ele><time>2026-04-04T14:51:13.572Z</time></trkpt><trkpt lat="45.1135073" lon="8.3017726"><ele>146.2</ele><time>2026-04-04T14:51:14.572Z</time></trkpt><trkpt lat="45.1135098" lon="8.3019135"><ele>146.0</ele><time>2026-04-04T14:51:15.572Z</time></trkpt><trkpt lat="45.1135135" lon="8.3020524"><ele>146.0</ele><time>2026-04-04T14:51:16.572Z</time></trkpt><trkpt lat="45.1135187" lon="8.3021919"><ele>146.0</ele><time>2026-04-04T14:51:17.572Z</time></trkpt><trkpt lat="45.1135241" lon="8.3023338"><ele>146.0</ele><time>2026-04-04T14:51:18.572Z</time></trkpt><trkpt lat="45.1135284" lon="8.3024772"><ele>146.0</ele><time>2026-04-04T14:51:19.572Z</time></trkpt><trkpt lat="45.1135325" lon="8.3026222"><ele>146.0</ele><time>2026-04-04T14:51:20.572Z</time></trkpt><trkpt lat="45.1135367" lon="8.3027667"><ele>146.0</ele><time>2026-04-04T14:51:21.571Z</time></trkpt><trkpt lat="45.1135415" lon="8.3029096"><ele>146.0</ele><time>2026-04-04T14:51:22.572Z</time></trkpt><trkpt lat="45.1135458" lon="8.3030549"><ele>146.0</ele><time>2026-04-04T14:51:23.571Z</time></trkpt><trkpt lat="45.113551" lon="8.303199"><ele>146.0</ele><time>2026-04-04T14:51:24.572Z</time></trkpt><trkpt lat="45.1135569" lon="8.3033432"><ele>146.0</ele><time>2026-04-04T14:51:25.572Z</time></trkpt><trkpt lat="45.113561" lon="8.3034847"><ele>146.0</ele><time>2026-04-04T14:51:26.572Z</time></trkpt><trkpt lat="45.1135634" lon="8.3036287"><ele>146.0</ele><time>2026-04-04T14:51:27.571Z</time></trkpt><trkpt lat="45.1135656" lon="8.3037746"><ele>146.0</ele><time>2026-04-04T14:51:28.571Z</time></trkpt><trkpt lat="45.1135688" lon="8.3039213"><ele>146.0</ele><time>2026-04-04T14:51:29.572Z</time></trkpt><trkpt lat="45.1135727" lon="8.3040686"><ele>146.0</ele><time>2026-04-04T14:51:30.572Z</time></trkpt><trkpt lat="45.1135758" lon="8.3042146"><ele>146.2</ele><time>2026-04-04T14:51:31.571Z</time></trkpt><trkpt lat="45.1135761" lon="8.304358"><ele>146.39999999999998</ele><time>2026-04-04T14:51:32.572Z</time></trkpt><trkpt lat="45.1135757" lon="8.3045028"><ele>146.6</ele><time>2026-04-04T14:51:33.571Z</time></trkpt><trkpt lat="45.1135777" lon="8.3046475"><ele>146.79999999999998</ele><time>2026-04-04T14:51:34.572Z</time></trkpt><trkpt lat="45.1135818" lon="8.3047926"><ele>147.0</ele><time>2026-04-04T14:51:35.571Z</time></trkpt><trkpt lat="45.1135881" lon="8.3049326"><ele>146.4</ele><time>2026-04-04T14:51:36.572Z</time></trkpt><trkpt lat="45.1135933" lon="8.3050704"><ele>145.79999999999998</ele><time>2026-04-04T14:51:37.572Z</time></trkpt><trkpt lat="45.1135995" lon="8.3052091"><ele>145.2</ele><time>2026-04-04T14:51:38.571Z</time></trkpt><trkpt lat="45.1136067" lon="8.3053483"><ele>144.6</ele><time>2026-04-04T14:51:39.572Z</time></trkpt><trkpt lat="45.1136118" lon="8.3054841"><ele>144.0</ele><time>2026-04-04T14:51:40.572Z</time></trkpt><trkpt lat="45.1136155" lon="8.3056179"><ele>143.8</ele><time>2026-04-04T14:51:41.572Z</time></trkpt><trkpt lat="45.1136182" lon="8.3057494"><ele>143.60000000000002</ele><time>2026-04-04T14:51:42.572Z</time></trkpt><trkpt lat="45.1136207" lon="8.3058824"><ele>143.4</ele><time>2026-04-04T14:51:43.572Z</time></trkpt><trkpt lat="45.1136212" lon="8.3060178"><ele>143.20000000000002</ele><time>2026-04-04T14:51:44.572Z</time></trkpt><trkpt lat="45.1136272" lon="8.3061594"><ele>143.0</ele><time>2026-04-04T14:51:45.573Z</time></trkpt><trkpt lat="45.1136308" lon="8.3063001"><ele>142.8</ele><time>2026-04-04T14:51:46.573Z</time></trkpt><trkpt lat="45.1136375" lon="8.3064347"><ele>142.60000000000002</ele><time>2026-04-04T14:51:47.573Z</time></trkpt><trkpt lat="45.1136376" lon="8.3065626"><ele>142.39999999999998</ele><time>2026-04-04T14:51:48.573Z</time></trkpt><trkpt lat="45.1136403" lon="8.3066987"><ele>142.2</ele><time>2026-04-04T14:51:49.572Z</time></trkpt><trkpt lat="45.1136408" lon="8.306837"><ele>142.0</ele><time>2026-04-04T14:51:50.572Z</time></trkpt><trkpt lat="45.1136452" lon="8.3069742"><ele>142.0</ele><time>2026-04-04T14:51:51.573Z</time></trkpt><trkpt lat="45.1136527" lon="8.3071078"><ele>142.0</ele><time>2026-04-04T14:51:52.573Z</time></trkpt><trkpt lat="45.1136586" lon="8.3072399"><ele>142.0</ele><time>2026-04-04T14:51:53.573Z</time></trkpt><trkpt lat="45.1136608" lon="8.3073734"><ele>142.0</ele><time>2026-04-04T14:51:54.572Z</time></trkpt><trkpt lat="45.1136618" lon="8.3075135"><ele>142.0</ele><time>2026-04-04T14:51:55.573Z</time></trkpt><trkpt lat="45.1136644" lon="8.3076593"><ele>142.0</ele><time>2026-04-04T14:51:56.573Z</time></trkpt><trkpt lat="45.1136682" lon="8.307804"><ele>142.0</ele><time>2026-04-04T14:51:57.572Z</time></trkpt><trkpt lat="45.1136747" lon="8.3079473"><ele>142.0</ele><time>2026-04-04T14:51:58.572Z</time></trkpt><trkpt lat="45.1136804" lon="8.3080879"><ele>142.0</ele><time>2026-04-04T14:51:59.573Z</time></trkpt><trkpt lat="45.1136846" lon="8.3082311"><ele>142.0</ele><time>2026-04-04T14:52:00.572Z</time></trkpt><trkpt lat="45.1136885" lon="8.3083659"><ele>142.0</ele><time>2026-04-04T14:52:01.572Z</time></trkpt><trkpt lat="45.1136901" lon="8.3084959"><ele>142.0</ele><time>2026-04-04T14:52:02.572Z</time></trkpt><trkpt lat="45.1136935" lon="8.308625"><ele>142.0</ele><time>2026-04-04T14:52:03.573Z</time></trkpt><trkpt lat="45.1136997" lon="8.3087535"><ele>142.0</ele><time>2026-04-04T14:52:04.572Z</time></trkpt><trkpt lat="45.1137075" lon="8.3088808"><ele>142.0</ele><time>2026-04-04T14:52:05.573Z</time></trkpt><trkpt lat="45.1137093" lon="8.3090101"><ele>141.6</ele><time>2026-04-04T14:52:06.573Z</time></trkpt><trkpt lat="45.1137093" lon="8.3091424"><ele>141.2</ele><time>2026-04-04T14:52:07.572Z</time></trkpt><trkpt lat="45.1137105" lon="8.3092696"><ele>140.8</ele><time>2026-04-04T14:52:08.573Z</time></trkpt><trkpt lat="45.1137121" lon="8.3094009"><ele>140.4</ele><time>2026-04-04T14:52:09.572Z</time></trkpt><trkpt lat="45.1137156" lon="8.3095327"><ele>140.0</ele><time>2026-04-04T14:52:10.572Z</time></trkpt><trkpt lat="45.1137191" lon="8.3096752"><ele>140.0</ele><time>2026-04-04T14:52:11.572Z</time></trkpt><trkpt lat="45.1137223" lon="8.3098157"><ele>140.0</ele><time>2026-04-04T14:52:12.573Z</time></trkpt><trkpt lat="45.1137238" lon="8.30995"><ele>140.0</ele><time>2026-04-04T14:52:13.573Z</time></trkpt><trkpt lat="45.113726" lon="8.3100845"><ele>140.0</ele><time>2026-04-04T14:52:14.572Z</time></trkpt><trkpt lat="45.1137289" lon="8.3102135"><ele>140.0</ele><time>2026-04-04T14:52:15.572Z</time></trkpt><trkpt lat="45.1137323" lon="8.310337"><ele>140.0</ele><time>2026-04-04T14:52:16.573Z</time></trkpt><trkpt lat="45.1137364" lon="8.31046"><ele>140.0</ele><time>2026-04-04T14:52:17.572Z</time></trkpt><trkpt lat="45.113739" lon="8.3105843"><ele>140.0</ele><time>2026-04-04T14:52:18.573Z</time></trkpt><trkpt lat="45.1137403" lon="8.3107156"><ele>140.0</ele><time>2026-04-04T14:52:19.572Z</time></trkpt><trkpt lat="45.1137417" lon="8.3108477"><ele>140.0</ele><time>2026-04-04T14:52:20.573Z</time></trkpt><trkpt lat="45.1137431" lon="8.3109803"><ele>140.2</ele><time>2026-04-04T14:52:21.573Z</time></trkpt><trkpt lat="45.1137492" lon="8.3111162"><ele>140.4</ele><time>2026-04-04T14:52:22.572Z</time></trkpt><trkpt lat="45.1137552" lon="8.3112503"><ele>140.6</ele><time>2026-04-04T14:52:23.573Z</time></trkpt><trkpt lat="45.1137599" lon="8.3113834"><ele>140.8</ele><time>2026-04-04T14:52:24.572Z</time></trkpt><trkpt lat="45.1137651" lon="8.3115148"><ele>141.0</ele><time>2026-04-04T14:52:25.572Z</time></trkpt><trkpt lat="45.1137688" lon="8.311649"><ele>141.0</ele><time>2026-04-04T14:52:26.573Z</time></trkpt><trkpt lat="45.1137712" lon="8.3117836"><ele>141.0</ele><time>2026-04-04T14:52:27.574Z</time></trkpt><trkpt lat="45.1137737" lon="8.3119142"><ele>141.0</ele><time>2026-04-04T14:52:28.573Z</time></trkpt><trkpt lat="45.1137793" lon="8.312043"><ele>141.0</ele><time>2026-04-04T14:52:29.573Z</time></trkpt><trkpt lat="45.1137869" lon="8.3121684"><ele>141.0</ele><time>2026-04-04T14:52:30.573Z</time></trkpt><trkpt lat="45.1137923" lon="8.3122976"><ele>141.0</ele><time>2026-04-04T14:52:31.574Z</time></trkpt><trkpt lat="45.1137958" lon="8.3124265"><ele>141.0</ele><time>2026-04-04T14:52:32.574Z</time></trkpt><trkpt lat="45.1137994" lon="8.3125563"><ele>141.0</ele><time>2026-04-04T14:52:33.573Z</time></trkpt><trkpt lat="45.1138033" lon="8.3126853"><ele>141.0</ele><time>2026-04-04T14:52:34.574Z</time></trkpt><trkpt lat="45.1138068" lon="8.3128155"><ele>141.0</ele><time>2026-04-04T14:52:35.574Z</time></trkpt><trkpt lat="45.1138092" lon="8.3129425"><ele>141.0</ele><time>2026-04-04T14:52:36.574Z</time></trkpt><trkpt lat="45.1138117" lon="8.3130719"><ele>141.0</ele><time>2026-04-04T14:52:37.574Z</time></trkpt><trkpt lat="45.113814" lon="8.3132044"><ele>141.0</ele><time>2026-04-04T14:52:38.573Z</time></trkpt><trkpt lat="45.113817" lon="8.3133389"><ele>141.0</ele><time>2026-04-04T14:52:39.573Z</time></trkpt><trkpt lat="45.1138216" lon="8.3134786"><ele>141.0</ele><time>2026-04-04T14:52:40.573Z</time></trkpt><trkpt lat="45.1138273" lon="8.3136152"><ele>140.8</ele><time>2026-04-04T14:52:41.574Z</time></trkpt><trkpt lat="45.1138315" lon="8.3137528"><ele>140.6</ele><time>2026-04-04T14:52:42.574Z</time></trkpt><trkpt lat="45.1138332" lon="8.3138878"><ele>140.4</ele><time>2026-04-04T14:52:43.573Z</time></trkpt><trkpt lat="45.1138334" lon="8.3140222"><ele>140.2</ele><time>2026-04-04T14:52:44.573Z</time></trkpt><trkpt lat="45.1138322" lon="8.3141572"><ele>140.0</ele><time>2026-04-04T14:52:45.573Z</time></trkpt><trkpt lat="45.1138329" lon="8.314291"><ele>140.2</ele><time>2026-04-04T14:52:46.574Z</time></trkpt><trkpt lat="45.1138361" lon="8.3144276"><ele>140.4</ele><time>2026-04-04T14:52:47.573Z</time></trkpt><trkpt lat="45.113841" lon="8.3145585"><ele>140.6</ele><time>2026-04-04T14:52:48.574Z</time></trkpt><trkpt lat="45.1138511" lon="8.3146961"><ele>140.8</ele><time>2026-04-04T14:52:49.573Z</time></trkpt><trkpt lat="45.1138585" lon="8.314834"><ele>141.0</ele><time>2026-04-04T14:52:50.574Z</time></trkpt><trkpt lat="45.1138637" lon="8.3149719"><ele>141.0</ele><time>2026-04-04T14:52:51.574Z</time></trkpt><trkpt lat="45.1138688" lon="8.3151093"><ele>141.0</ele><time>2026-04-04T14:52:52.574Z</time></trkpt><trkpt lat="45.1138739" lon="8.3152479"><ele>141.0</ele><time>2026-04-04T14:52:53.573Z</time></trkpt><trkpt lat="45.1138778" lon="8.3153823"><ele>141.0</ele><time>2026-04-04T14:52:54.574Z</time></trkpt><trkpt lat="45.1138805" lon="8.3155134"><ele>141.0</ele><time>2026-04-04T14:52:55.574Z</time></trkpt><trkpt lat="45.1138859" lon="8.3156445"><ele>141.0</ele><time>2026-04-04T14:52:56.574Z</time></trkpt><trkpt lat="45.1138914" lon="8.3157752"><ele>141.0</ele><time>2026-04-04T14:52:57.574Z</time></trkpt><trkpt lat="45.1138961" lon="8.3159073"><ele>141.0</ele><time>2026-04-04T14:52:58.574Z</time></trkpt><trkpt lat="45.1139012" lon="8.31604"><ele>141.0</ele><time>2026-04-04T14:52:59.574Z</time></trkpt><trkpt lat="45.1139097" lon="8.3161786"><ele>141.0</ele><time>2026-04-04T14:53:00.574Z</time></trkpt><trkpt lat="45.1139116" lon="8.3163092"><ele>140.8</ele><time>2026-04-04T14:53:01.574Z</time></trkpt><trkpt lat="45.113912" lon="8.3164394"><ele>140.6</ele><time>2026-04-04T14:53:02.574Z</time></trkpt><trkpt lat="45.1139118" lon="8.3165698"><ele>140.4</ele><time>2026-04-04T14:53:03.573Z</time></trkpt><trkpt lat="45.113912" lon="8.3166984"><ele>140.2</ele><time>2026-04-04T14:53:04.573Z</time></trkpt><trkpt lat="45.1139138" lon="8.3168255"><ele>140.0</ele><time>2026-04-04T14:53:05.574Z</time></trkpt><trkpt lat="45.1139206" lon="8.3169563"><ele>140.0</ele><time>2026-04-04T14:53:06.574Z</time></trkpt><trkpt lat="45.1139257" lon="8.3170914"><ele>140.0</ele><time>2026-04-04T14:53:07.573Z</time></trkpt><trkpt lat="45.11393" lon="8.317229"><ele>140.0</ele><time>2026-04-04T14:53:08.573Z</time></trkpt><trkpt lat="45.1139305" lon="8.3173671"><ele>140.0</ele><time>2026-04-04T14:53:09.573Z</time></trkpt><trkpt lat="45.1139297" lon="8.3175"><ele>140.0</ele><time>2026-04-04T14:53:10.573Z</time></trkpt><trkpt lat="45.1139264" lon="8.3176323"><ele>140.0</ele><time>2026-04-04T14:53:11.575Z</time></trkpt><trkpt lat="45.1139203" lon="8.3177678"><ele>140.0</ele><time>2026-04-04T14:53:12.574Z</time></trkpt><trkpt lat="45.1139115" lon="8.3179059"><ele>140.0</ele><time>2026-04-04T14:53:13.574Z</time></trkpt><trkpt lat="45.1138985" lon="8.3180464"><ele>140.0</ele><time>2026-04-04T14:53:14.575Z</time></trkpt><trkpt lat="45.1138755" lon="8.3181878"><ele>140.0</ele><time>2026-04-04T14:53:15.575Z</time></trkpt><trkpt lat="45.1138499" lon="8.318323"><ele>140.2</ele><time>2026-04-04T14:53:16.574Z</time></trkpt><trkpt lat="45.1138224" lon="8.3184539"><ele>140.4</ele><time>2026-04-04T14:53:17.574Z</time></trkpt><trkpt lat="45.1137924" lon="8.3185817"><ele>140.6</ele><time>2026-04-04T14:53:18.574Z</time></trkpt><trkpt lat="45.1137592" lon="8.3187089"><ele>140.8</ele><time>2026-04-04T14:53:19.575Z</time></trkpt><trkpt lat="45.1137266" lon="8.3188287"><ele>141.0</ele><time>2026-04-04T14:53:20.575Z</time></trkpt><trkpt lat="45.1136966" lon="8.3189459"><ele>141.0</ele><time>2026-04-04T14:53:21.574Z</time></trkpt><trkpt lat="45.11367" lon="8.3190632"><ele>141.0</ele><time>2026-04-04T14:53:22.575Z</time></trkpt><trkpt lat="45.1136464" lon="8.3191796"><ele>141.0</ele><time>2026-04-04T14:53:23.575Z</time></trkpt><trkpt lat="45.1136213" lon="8.3192936"><ele>141.0</ele><time>2026-04-04T14:53:24.575Z</time></trkpt><trkpt lat="45.1135922" lon="8.3194101"><ele>141.0</ele><time>2026-04-04T14:53:25.575Z</time></trkpt><trkpt lat="45.1135618" lon="8.3195287"><ele>141.0</ele><time>2026-04-04T14:53:26.574Z</time></trkpt><trkpt lat="45.1135305" lon="8.3196487"><ele>141.0</ele><time>2026-04-04T14:53:27.575Z</time></trkpt><trkpt lat="45.1134999" lon="8.3197705"><ele>141.0</ele><time>2026-04-04T14:53:28.575Z</time></trkpt><trkpt lat="45.1134723" lon="8.3198944"><ele>141.0</ele><time>2026-04-04T14:53:29.575Z</time></trkpt><trkpt lat="45.1134462" lon="8.3200203"><ele>141.0</ele><time>2026-04-04T14:53:30.575Z</time></trkpt><trkpt lat="45.1134187" lon="8.3201465"><ele>141.0</ele><time>2026-04-04T14:53:31.575Z</time></trkpt><trkpt lat="45.1133898" lon="8.3202725"><ele>141.0</ele><time>2026-04-04T14:53:32.574Z</time></trkpt><trkpt lat="45.1133605" lon="8.3203975"><ele>141.0</ele><time>2026-04-04T14:53:33.574Z</time></trkpt><trkpt lat="45.1133308" lon="8.3205236"><ele>141.0</ele><time>2026-04-04T14:53:34.575Z</time></trkpt><trkpt lat="45.1132999" lon="8.3206536"><ele>141.0</ele><time>2026-04-04T14:53:35.574Z</time></trkpt><trkpt lat="45.1132705" lon="8.3207836"><ele>141.0</ele><time>2026-04-04T14:53:36.575Z</time></trkpt><trkpt lat="45.1132412" lon="8.3209127"><ele>140.6</ele><time>2026-04-04T14:53:37.574Z</time></trkpt><trkpt lat="45.1132111" lon="8.3210443"><ele>140.2</ele><time>2026-04-04T14:53:38.574Z</time></trkpt><trkpt lat="45.11318" lon="8.3211785"><ele>139.8</ele><time>2026-04-04T14:53:39.574Z</time></trkpt><trkpt lat="45.1131497" lon="8.3213161"><ele>139.4</ele><time>2026-04-04T14:53:40.574Z</time></trkpt><trkpt lat="45.1131201" lon="8.3214552"><ele>139.0</ele><time>2026-04-04T14:53:41.574Z</time></trkpt><trkpt lat="45.1130922" lon="8.3215932"><ele>139.0</ele><time>2026-04-04T14:53:42.575Z</time></trkpt><trkpt lat="45.113065" lon="8.321729"><ele>139.0</ele><time>2026-04-04T14:53:43.575Z</time></trkpt><trkpt lat="45.113036" lon="8.3218638"><ele>139.0</ele><time>2026-04-04T14:53:44.574Z</time></trkpt><trkpt lat="45.1130045" lon="8.3219983"><ele>139.0</ele><time>2026-04-04T14:53:45.575Z</time></trkpt><trkpt lat="45.1129728" lon="8.3221321"><ele>139.0</ele><time>2026-04-04T14:53:46.575Z</time></trkpt><trkpt lat="45.1129429" lon="8.3222673"><ele>138.8</ele><time>2026-04-04T14:53:47.574Z</time></trkpt><trkpt lat="45.1129134" lon="8.3224047"><ele>138.60000000000002</ele><time>2026-04-04T14:53:48.575Z</time></trkpt><trkpt lat="45.1128828" lon="8.3225416"><ele>138.4</ele><time>2026-04-04T14:53:49.575Z</time></trkpt><trkpt lat="45.1128509" lon="8.3226784"><ele>138.20000000000002</ele><time>2026-04-04T14:53:50.574Z</time></trkpt><trkpt lat="45.112821" lon="8.3228095"><ele>138.0</ele><time>2026-04-04T14:53:51.574Z</time></trkpt><trkpt lat="45.1127929" lon="8.3229331"><ele>138.0</ele><time>2026-04-04T14:53:52.575Z</time></trkpt><trkpt lat="45.112767" lon="8.3230486"><ele>138.0</ele><time>2026-04-04T14:53:53.574Z</time></trkpt><trkpt lat="45.1127431" lon="8.323154"><ele>138.0</ele><time>2026-04-04T14:53:54.575Z</time></trkpt><trkpt lat="45.1127221" lon="8.3232501"><ele>138.0</ele><time>2026-04-04T14:53:55.575Z</time></trkpt><trkpt lat="45.1127002" lon="8.3233469"><ele>138.0</ele><time>2026-04-04T14:53:56.574Z</time></trkpt><trkpt lat="45.1126757" lon="8.3234488"><ele>138.0</ele><time>2026-04-04T14:53:57.574Z</time></trkpt><trkpt lat="45.1126485" lon="8.3235603"><ele>138.16666666666666</ele><time>2026-04-04T14:53:58.576Z</time></trkpt><trkpt lat="45.112621" lon="8.3236768"><ele>138.33333333333334</ele><time>2026-04-04T14:53:59.576Z</time></trkpt><trkpt lat="45.1125946" lon="8.3237941"><ele>138.5</ele><time>2026-04-04T14:54:00.576Z</time></trkpt><trkpt lat="45.1125731" lon="8.3239031"><ele>138.66666666666669</ele><time>2026-04-04T14:54:01.576Z</time></trkpt><trkpt lat="45.1125647" lon="8.323994"><ele>138.83333333333334</ele><time>2026-04-04T14:54:02.576Z</time></trkpt><trkpt lat="45.1126152" lon="8.3241333"><ele>139.0</ele><time>2026-04-04T14:54:04.576Z</time></trkpt><trkpt lat="45.1126727" lon="8.3241761"><ele>138.5</ele><time>2026-04-04T14:54:05.575Z</time></trkpt><trkpt lat="45.1127435" lon="8.3241948"><ele>138.0</ele><time>2026-04-04T14:54:06.576Z</time></trkpt><trkpt lat="45.1128155" lon="8.3241896"><ele>137.5</ele><time>2026-04-04T14:54:07.575Z</time></trkpt><trkpt lat="45.1128837" lon="8.3241492"><ele>137.0</ele><time>2026-04-04T14:54:08.576Z</time></trkpt><trkpt lat="45.1129466" lon="8.3240839"><ele>136.5</ele><time>2026-04-04T14:54:09.575Z</time></trkpt><trkpt lat="45.1129995" lon="8.323998"><ele>136.0</ele><time>2026-04-04T14:54:10.575Z</time></trkpt><trkpt lat="45.1130427" lon="8.3239059"><ele>136.0</ele><time>2026-04-04T14:54:11.576Z</time></trkpt><trkpt lat="45.1130843" lon="8.3238094"><ele>136.0</ele><time>2026-04-04T14:54:12.576Z</time></trkpt><trkpt lat="45.1131262" lon="8.3237083"><ele>136.0</ele><time>2026-04-04T14:54:13.575Z</time></trkpt><trkpt lat="45.1131686" lon="8.3236022"><ele>136.0</ele><time>2026-04-04T14:54:14.576Z</time></trkpt><trkpt lat="45.1132107" lon="8.3234881"><ele>136.0</ele><time>2026-04-04T14:54:15.576Z</time></trkpt><trkpt lat="45.1132582" lon="8.3233703"><ele>136.0</ele><time>2026-04-04T14:54:16.575Z</time></trkpt><trkpt lat="45.1133135" lon="8.3232396"><ele>136.0</ele><time>2026-04-04T14:54:17.575Z</time></trkpt><trkpt lat="45.11337" lon="8.3231033"><ele>136.0</ele><time>2026-04-04T14:54:18.576Z</time></trkpt><trkpt lat="45.1134256" lon="8.3229717"><ele>136.0</ele><time>2026-04-04T14:54:19.576Z</time></trkpt><trkpt lat="45.1134803" lon="8.32284"><ele>136.0</ele><time>2026-04-04T14:54:20.575Z</time></trkpt><trkpt lat="45.1135339" lon="8.3227145"><ele>136.0</ele><time>2026-04-04T14:54:21.576Z</time></trkpt><trkpt lat="45.1135862" lon="8.3225956"><ele>136.2</ele><time>2026-04-04T14:54:22.575Z</time></trkpt><trkpt lat="45.1136378" lon="8.3224842"><ele>136.39999999999998</ele><time>2026-04-04T14:54:23.576Z</time></trkpt><trkpt lat="45.1136953" lon="8.3223851"><ele>136.6</ele><time>2026-04-04T14:54:24.575Z</time></trkpt><trkpt lat="45.1137652" lon="8.3222981"><ele>136.79999999999998</ele><time>2026-04-04T14:54:25.575Z</time></trkpt><trkpt lat="45.1138372" lon="8.3222144"><ele>137.0</ele><time>2026-04-04T14:54:26.575Z</time></trkpt><trkpt lat="45.1139199" lon="8.3221464"><ele>137.4</ele><time>2026-04-04T14:54:27.576Z</time></trkpt><trkpt lat="45.1140055" lon="8.3221059"><ele>137.79999999999998</ele><time>2026-04-04T14:54:28.575Z</time></trkpt><trkpt lat="45.1140933" lon="8.3220915"><ele>138.2</ele><time>2026-04-04T14:54:29.576Z</time></trkpt><trkpt lat="45.114183" lon="8.3220971"><ele>138.6</ele><time>2026-04-04T14:54:30.576Z</time></trkpt><trkpt lat="45.1142775" lon="8.3221155"><ele>139.0</ele><time>2026-04-04T14:54:31.576Z</time></trkpt><trkpt lat="45.1143703" lon="8.322146"><ele>138.2</ele><time>2026-04-04T14:54:32.575Z</time></trkpt><trkpt lat="45.1144687" lon="8.3221917"><ele>137.4</ele><time>2026-04-04T14:54:33.576Z</time></trkpt><trkpt lat="45.1145606" lon="8.322253"><ele>136.6</ele><time>2026-04-04T14:54:34.576Z</time></trkpt><trkpt lat="45.1146447" lon="8.3223243"><ele>135.8</ele><time>2026-04-04T14:54:35.575Z</time></trkpt><trkpt lat="45.1147293" lon="8.322403"><ele>135.0</ele><time>2026-04-04T14:54:36.576Z</time></trkpt><trkpt lat="45.1148154" lon="8.3224824"><ele>135.0</ele><time>2026-04-04T14:54:37.576Z</time></trkpt><trkpt lat="45.1149012" lon="8.32256"><ele>135.0</ele><time>2026-04-04T14:54:38.576Z</time></trkpt><trkpt lat="45.1149861" lon="8.3226362"><ele>135.0</ele><time>2026-04-04T14:54:39.576Z</time></trkpt><trkpt lat="45.1150719" lon="8.3227118"><ele>135.0</ele><time>2026-04-04T14:54:40.576Z</time></trkpt><trkpt lat="45.1151571" lon="8.3227877"><ele>135.0</ele><time>2026-04-04T14:54:41.575Z</time></trkpt><trkpt lat="45.1152397" lon="8.3228631"><ele>135.0</ele><time>2026-04-04T14:54:42.575Z</time></trkpt><trkpt lat="45.1153219" lon="8.3229413"><ele>135.0</ele><time>2026-04-04T14:54:43.576Z</time></trkpt><trkpt lat="45.1154039" lon="8.323024"><ele>135.0</ele><time>2026-04-04T14:54:44.576Z</time></trkpt><trkpt lat="45.115488" lon="8.3231081"><ele>135.0</ele><time>2026-04-04T14:54:45.576Z</time></trkpt><trkpt lat="45.1155734" lon="8.323188"><ele>135.0</ele><time>2026-04-04T14:54:46.576Z</time></trkpt><trkpt lat="45.1156611" lon="8.323265"><ele>135.0</ele><time>2026-04-04T14:54:47.577Z</time></trkpt><trkpt lat="45.1157503" lon="8.3233422"><ele>135.0</ele><time>2026-04-04T14:54:48.576Z</time></trkpt><trkpt lat="45.1158389" lon="8.3234219"><ele>135.0</ele><time>2026-04-04T14:54:49.577Z</time></trkpt><trkpt lat="45.1159254" lon="8.3235043"><ele>135.0</ele><time>2026-04-04T14:54:50.577Z</time></trkpt><trkpt lat="45.1160129" lon="8.3235896"><ele>135.0</ele><time>2026-04-04T14:54:51.576Z</time></trkpt><trkpt lat="45.1161015" lon="8.323675"><ele>135.0</ele><time>2026-04-04T14:54:52.576Z</time></trkpt><trkpt lat="45.1161908" lon="8.3237586"><ele>135.0</ele><time>2026-04-04T14:54:53.576Z</time></trkpt><trkpt lat="45.1162814" lon="8.3238417"><ele>135.0</ele><time>2026-04-04T14:54:54.576Z</time></trkpt><trkpt lat="45.1163688" lon="8.3239201"><ele>135.0</ele><time>2026-04-04T14:54:55.576Z</time></trkpt><trkpt lat="45.1164567" lon="8.3240003"><ele>135.0</ele><time>2026-04-04T14:54:56.576Z</time></trkpt><trkpt lat="45.1165469" lon="8.3240847"><ele>135.2</ele><time>2026-04-04T14:54:57.577Z</time></trkpt><trkpt lat="45.1166346" lon="8.3241686"><ele>135.4</ele><time>2026-04-04T14:54:58.576Z</time></trkpt><trkpt lat="45.1167229" lon="8.3242539"><ele>135.6</ele><time>2026-04-04T14:54:59.577Z</time></trkpt><trkpt lat="45.1168119" lon="8.3243396"><ele>135.8</ele><time>2026-04-04T14:55:00.576Z</time></trkpt><trkpt lat="45.1169013" lon="8.32442"><ele>136.0</ele><time>2026-04-04T14:55:01.577Z</time></trkpt><trkpt lat="45.1169906" lon="8.3244992"><ele>136.0</ele><time>2026-04-04T14:55:02.576Z</time></trkpt><trkpt lat="45.1170779" lon="8.3245802"><ele>136.0</ele><time>2026-04-04T14:55:03.577Z</time></trkpt><trkpt lat="45.1171653" lon="8.3246624"><ele>136.0</ele><time>2026-04-04T14:55:04.576Z</time></trkpt><trkpt lat="45.1172522" lon="8.3247442"><ele>136.0</ele><time>2026-04-04T14:55:05.577Z</time></trkpt><trkpt lat="45.117339" lon="8.3248265"><ele>136.0</ele><time>2026-04-04T14:55:06.577Z</time></trkpt><trkpt lat="45.1174244" lon="8.3249077"><ele>136.0</ele><time>2026-04-04T14:55:07.576Z</time></trkpt><trkpt lat="45.1175091" lon="8.324988"><ele>136.0</ele><time>2026-04-04T14:55:08.576Z</time></trkpt><trkpt lat="45.1175931" lon="8.3250688"><ele>136.0</ele><time>2026-04-04T14:55:09.577Z</time></trkpt><trkpt lat="45.1176775" lon="8.3251488"><ele>136.0</ele><time>2026-04-04T14:55:10.577Z</time></trkpt><trkpt lat="45.1177624" lon="8.3252261"><ele>136.0</ele><time>2026-04-04T14:55:11.576Z</time></trkpt><trkpt lat="45.117847" lon="8.325298"><ele>136.0</ele><time>2026-04-04T14:55:12.577Z</time></trkpt><trkpt lat="45.1179297" lon="8.3253718"><ele>136.0</ele><time>2026-04-04T14:55:13.576Z</time></trkpt><trkpt lat="45.1180113" lon="8.3254477"><ele>136.0</ele><time>2026-04-04T14:55:14.576Z</time></trkpt><trkpt lat="45.1180923" lon="8.3255247"><ele>136.0</ele><time>2026-04-04T14:55:15.576Z</time></trkpt><trkpt lat="45.1181726" lon="8.3256035"><ele>136.0</ele><time>2026-04-04T14:55:16.577Z</time></trkpt><trkpt lat="45.1182528" lon="8.3256825"><ele>136.2</ele><time>2026-04-04T14:55:17.577Z</time></trkpt><trkpt lat="45.1183339" lon="8.3257616"><ele>136.39999999999998</ele><time>2026-04-04T14:55:18.577Z</time></trkpt><trkpt lat="45.1184153" lon="8.3258378"><ele>136.6</ele><time>2026-04-04T14:55:19.577Z</time></trkpt><trkpt lat="45.1184964" lon="8.3259117"><ele>136.79999999999998</ele><time>2026-04-04T14:55:20.577Z</time></trkpt><trkpt lat="45.1185764" lon="8.3259854"><ele>137.0</ele><time>2026-04-04T14:55:21.577Z</time></trkpt><trkpt lat="45.1186563" lon="8.32606"><ele>137.0</ele><time>2026-04-04T14:55:22.577Z</time></trkpt><trkpt lat="45.1187358" lon="8.3261341"><ele>137.0</ele><time>2026-04-04T14:55:23.576Z</time></trkpt><trkpt lat="45.1188158" lon="8.3262101"><ele>137.0</ele><time>2026-04-04T14:55:24.577Z</time></trkpt><trkpt lat="45.1188951" lon="8.3262863"><ele>137.0</ele><time>2026-04-04T14:55:25.576Z</time></trkpt><trkpt lat="45.1189747" lon="8.3263618"><ele>137.0</ele><time>2026-04-04T14:55:26.576Z</time></trkpt><trkpt lat="45.1190546" lon="8.3264369"><ele>137.4</ele><time>2026-04-04T14:55:27.576Z</time></trkpt><trkpt lat="45.119135" lon="8.3265116"><ele>137.79999999999998</ele><time>2026-04-04T14:55:28.577Z</time></trkpt><trkpt lat="45.1192126" lon="8.326584"><ele>138.2</ele><time>2026-04-04T14:55:29.577Z</time></trkpt><trkpt lat="45.11929" lon="8.3266588"><ele>138.6</ele><time>2026-04-04T14:55:30.576Z</time></trkpt><trkpt lat="45.1193687" lon="8.3267339"><ele>139.0</ele><time>2026-04-04T14:55:31.576Z</time></trkpt><trkpt lat="45.1194484" lon="8.3268074"><ele>139.0</ele><time>2026-04-04T14:55:32.576Z</time></trkpt><trkpt lat="45.1195294" lon="8.3268784"><ele>139.0</ele><time>2026-04-04T14:55:33.578Z</time></trkpt><trkpt lat="45.1196096" lon="8.3269498"><ele>139.0</ele><time>2026-04-04T14:55:34.577Z</time></trkpt><trkpt lat="45.1196889" lon="8.3270248"><ele>139.0</ele><time>2026-04-04T14:55:35.577Z</time></trkpt><trkpt lat="45.1197695" lon="8.3271015"><ele>139.0</ele><time>2026-04-04T14:55:36.577Z</time></trkpt><trkpt lat="45.11985" lon="8.327178"><ele>139.6</ele><time>2026-04-04T14:55:37.578Z</time></trkpt><trkpt lat="45.1199313" lon="8.3272541"><ele>140.2</ele><time>2026-04-04T14:55:38.577Z</time></trkpt><trkpt lat="45.1200137" lon="8.3273288"><ele>140.79999999999998</ele><time>2026-04-04T14:55:39.578Z</time></trkpt><trkpt lat="45.1200944" lon="8.3274033"><ele>141.4</ele><time>2026-04-04T14:55:40.577Z</time></trkpt><trkpt lat="45.1201746" lon="8.3274773"><ele>142.0</ele><time>2026-04-04T14:55:41.577Z</time></trkpt><trkpt lat="45.1202542" lon="8.3275497"><ele>142.0</ele><time>2026-04-04T14:55:42.578Z</time></trkpt><trkpt lat="45.120339" lon="8.3276258"><ele>142.0</ele><time>2026-04-04T14:55:43.577Z</time></trkpt><trkpt lat="45.120423" lon="8.327702"><ele>142.0</ele><time>2026-04-04T14:55:44.578Z</time></trkpt><trkpt lat="45.1205069" lon="8.3277782"><ele>142.0</ele><time>2026-04-04T14:55:45.578Z</time></trkpt><trkpt lat="45.120591" lon="8.3278567"><ele>142.0</ele><time>2026-04-04T14:55:46.578Z</time></trkpt><trkpt lat="45.1206758" lon="8.3279353"><ele>142.0</ele><time>2026-04-04T14:55:47.578Z</time></trkpt><trkpt lat="45.1207613" lon="8.3280149"><ele>142.0</ele><time>2026-04-04T14:55:48.578Z</time></trkpt><trkpt lat="45.1208459" lon="8.3280905"><ele>142.0</ele><time>2026-04-04T14:55:49.577Z</time></trkpt><trkpt lat="45.1209286" lon="8.3281633"><ele>142.0</ele><time>2026-04-04T14:55:50.577Z</time></trkpt><trkpt lat="45.1210102" lon="8.328239"><ele>142.0</ele><time>2026-04-04T14:55:51.578Z</time></trkpt><trkpt lat="45.1210892" lon="8.3283158"><ele>142.0</ele><time>2026-04-04T14:55:52.578Z</time></trkpt><trkpt lat="45.121169" lon="8.3283946"><ele>142.0</ele><time>2026-04-04T14:55:53.578Z</time></trkpt><trkpt lat="45.12125" lon="8.3284722"><ele>142.0</ele><time>2026-04-04T14:55:54.578Z</time></trkpt><trkpt lat="45.1213319" lon="8.3285513"><ele>142.0</ele><time>2026-04-04T14:55:55.577Z</time></trkpt><trkpt lat="45.1214154" lon="8.3286321"><ele>142.0</ele><time>2026-04-04T14:55:56.577Z</time></trkpt><trkpt lat="45.1214966" lon="8.3287121"><ele>141.6</ele><time>2026-04-04T14:55:57.578Z</time></trkpt><trkpt lat="45.1215797" lon="8.328792"><ele>141.2</ele><time>2026-04-04T14:55:58.577Z</time></trkpt><trkpt lat="45.1216688" lon="8.3288766"><ele>140.8</ele><time>2026-04-04T14:55:59.578Z</time></trkpt><trkpt lat="45.1217551" lon="8.3289579"><ele>140.4</ele><time>2026-04-04T14:56:00.578Z</time></trkpt><trkpt lat="45.121841" lon="8.3290365"><ele>140.0</ele><time>2026-04-04T14:56:01.578Z</time></trkpt><trkpt lat="45.1219275" lon="8.3291161"><ele>140.0</ele><time>2026-04-04T14:56:02.578Z</time></trkpt><trkpt lat="45.1220139" lon="8.3291951"><ele>140.0</ele><time>2026-04-04T14:56:03.578Z</time></trkpt><trkpt lat="45.1221023" lon="8.3292746"><ele>140.0</ele><time>2026-04-04T14:56:04.577Z</time></trkpt><trkpt lat="45.1221894" lon="8.3293542"><ele>140.0</ele><time>2026-04-04T14:56:05.577Z</time></trkpt><trkpt lat="45.1222768" lon="8.3294361"><ele>140.0</ele><time>2026-04-04T14:56:06.578Z</time></trkpt><trkpt lat="45.1223643" lon="8.3295227"><ele>140.0</ele><time>2026-04-04T14:56:07.577Z</time></trkpt><trkpt lat="45.1224529" lon="8.3296083"><ele>140.0</ele><time>2026-04-04T14:56:08.578Z</time></trkpt><trkpt lat="45.1225389" lon="8.3296943"><ele>140.0</ele><time>2026-04-04T14:56:09.577Z</time></trkpt><trkpt lat="45.1226228" lon="8.3297752"><ele>140.0</ele><time>2026-04-04T14:56:10.577Z</time></trkpt><trkpt lat="45.1227893" lon="8.3299325"><ele>139.8</ele><time>2026-04-04T14:56:12.577Z</time></trkpt><trkpt lat="45.1228768" lon="8.3300167"><ele>139.6</ele><time>2026-04-04T14:56:13.578Z</time></trkpt><trkpt lat="45.1229634" lon="8.3301014"><ele>139.4</ele><time>2026-04-04T14:56:14.578Z</time></trkpt><trkpt lat="45.1230504" lon="8.3301838"><ele>139.2</ele><time>2026-04-04T14:56:15.578Z</time></trkpt><trkpt lat="45.1231364" lon="8.3302618"><ele>139.0</ele><time>2026-04-04T14:56:16.578Z</time></trkpt><trkpt lat="45.1232206" lon="8.3303364"><ele>139.2</ele><time>2026-04-04T14:56:17.577Z</time></trkpt><trkpt lat="45.1233032" lon="8.3304105"><ele>139.4</ele><time>2026-04-04T14:56:18.577Z</time></trkpt><trkpt lat="45.123385" lon="8.3304868"><ele>139.6</ele><time>2026-04-04T14:56:19.579Z</time></trkpt><trkpt lat="45.1234664" lon="8.3305655"><ele>139.8</ele><time>2026-04-04T14:56:20.579Z</time></trkpt><trkpt lat="45.1235487" lon="8.330645"><ele>140.0</ele><time>2026-04-04T14:56:21.579Z</time></trkpt><trkpt lat="45.1236317" lon="8.3307242"><ele>139.6</ele><time>2026-04-04T14:56:22.578Z</time></trkpt><trkpt lat="45.1237164" lon="8.3308012"><ele>139.2</ele><time>2026-04-04T14:56:23.578Z</time></trkpt><trkpt lat="45.1238019" lon="8.330877"><ele>138.8</ele><time>2026-04-04T14:56:24.578Z</time></trkpt><trkpt lat="45.1238846" lon="8.3309501"><ele>138.4</ele><time>2026-04-04T14:56:25.579Z</time></trkpt><trkpt lat="45.1239666" lon="8.331025"><ele>138.0</ele><time>2026-04-04T14:56:26.578Z</time></trkpt><trkpt lat="45.1240489" lon="8.3310989"><ele>138.0</ele><time>2026-04-04T14:56:27.579Z</time></trkpt><trkpt lat="45.1241311" lon="8.3311757"><ele>138.0</ele><time>2026-04-04T14:56:28.579Z</time></trkpt><trkpt lat="45.1242149" lon="8.3312568"><ele>138.0</ele><time>2026-04-04T14:56:29.579Z</time></trkpt><trkpt lat="45.1242953" lon="8.3313346"><ele>138.0</ele><time>2026-04-04T14:56:30.578Z</time></trkpt><trkpt lat="45.1243776" lon="8.3314148"><ele>138.0</ele><time>2026-04-04T14:56:31.579Z</time></trkpt><trkpt lat="45.1244602" lon="8.3314925"><ele>138.0</ele><time>2026-04-04T14:56:32.579Z</time></trkpt><trkpt lat="45.124544" lon="8.3315699"><ele>138.0</ele><time>2026-04-04T14:56:33.578Z</time></trkpt><trkpt lat="45.1246278" lon="8.331646"><ele>138.0</ele><time>2026-04-04T14:56:34.578Z</time></trkpt><trkpt lat="45.1247111" lon="8.3317222"><ele>138.0</ele><time>2026-04-04T14:56:35.578Z</time></trkpt><trkpt lat="45.1247951" lon="8.331798"><ele>138.0</ele><time>2026-04-04T14:56:36.579Z</time></trkpt><trkpt lat="45.1248801" lon="8.3318772"><ele>138.0</ele><time>2026-04-04T14:56:37.578Z</time></trkpt><trkpt lat="45.1249662" lon="8.3319587"><ele>138.0</ele><time>2026-04-04T14:56:38.578Z</time></trkpt><trkpt lat="45.1250519" lon="8.3320367"><ele>138.0</ele><time>2026-04-04T14:56:39.579Z</time></trkpt><trkpt lat="45.1251388" lon="8.3321143"><ele>138.0</ele><time>2026-04-04T14:56:40.578Z</time></trkpt><trkpt lat="45.1252256" lon="8.3321927"><ele>138.0</ele><time>2026-04-04T14:56:41.578Z</time></trkpt><trkpt lat="45.1253093" lon="8.3322708"><ele>138.0</ele><time>2026-04-04T14:56:42.579Z</time></trkpt><trkpt lat="45.1253939" lon="8.3323506"><ele>138.0</ele><time>2026-04-04T14:56:43.578Z</time></trkpt><trkpt lat="45.1254785" lon="8.332431"><ele>138.0</ele><time>2026-04-04T14:56:44.578Z</time></trkpt><trkpt lat="45.1255631" lon="8.3325102"><ele>138.0</ele><time>2026-04-04T14:56:45.579Z</time></trkpt><trkpt lat="45.1256464" lon="8.3325866"><ele>138.0</ele><time>2026-04-04T14:56:46.578Z</time></trkpt><trkpt lat="45.125729" lon="8.3326629"><ele>137.8</ele><time>2026-04-04T14:56:47.578Z</time></trkpt><trkpt lat="45.12581" lon="8.3327431"><ele>137.60000000000002</ele><time>2026-04-04T14:56:48.579Z</time></trkpt><trkpt lat="45.1258904" lon="8.3328175"><ele>137.39999999999998</ele><time>2026-04-04T14:56:49.579Z</time></trkpt><trkpt lat="45.1259728" lon="8.3328951"><ele>137.2</ele><time>2026-04-04T14:56:50.578Z</time></trkpt><trkpt lat="45.1260522" lon="8.3329662"><ele>137.0</ele><time>2026-04-04T14:56:51.578Z</time></trkpt><trkpt lat="45.1261354" lon="8.3330432"><ele>137.0</ele><time>2026-04-04T14:56:52.579Z</time></trkpt><trkpt lat="45.1262195" lon="8.3331229"><ele>137.0</ele><time>2026-04-04T14:56:53.578Z</time></trkpt><trkpt lat="45.1263057" lon="8.3332059"><ele>137.0</ele><time>2026-04-04T14:56:54.579Z</time></trkpt><trkpt lat="45.1263905" lon="8.3332873"><ele>137.0</ele><time>2026-04-04T14:56:55.578Z</time></trkpt><trkpt lat="45.12648" lon="8.3333713"><ele>137.0</ele><time>2026-04-04T14:56:56.578Z</time></trkpt><trkpt lat="45.1265716" lon="8.3334568"><ele>137.2</ele><time>2026-04-04T14:56:57.578Z</time></trkpt><trkpt lat="45.1266606" lon="8.3335383"><ele>137.39999999999998</ele><time>2026-04-04T14:56:58.579Z</time></trkpt><trkpt lat="45.1267482" lon="8.3336178"><ele>137.60000000000002</ele><time>2026-04-04T14:56:59.578Z</time></trkpt><trkpt lat="45.126836" lon="8.3336982"><ele>137.8</ele><time>2026-04-04T14:57:00.579Z</time></trkpt><trkpt lat="45.126924" lon="8.3337803"><ele>138.0</ele><time>2026-04-04T14:57:01.579Z</time></trkpt><trkpt lat="45.1270109" lon="8.3338664"><ele>137.8</ele><time>2026-04-04T14:57:02.578Z</time></trkpt><trkpt lat="45.1270978" lon="8.3339542"><ele>137.60000000000002</ele><time>2026-04-04T14:57:03.579Z</time></trkpt><trkpt lat="45.1271813" lon="8.3340344"><ele>137.39999999999998</ele><time>2026-04-04T14:57:04.579Z</time></trkpt><trkpt lat="45.1272683" lon="8.3341133"><ele>137.2</ele><time>2026-04-04T14:57:05.58Z</time></trkpt><trkpt lat="45.1273578" lon="8.3341955"><ele>137.0</ele><time>2026-04-04T14:57:06.579Z</time></trkpt><trkpt lat="45.1274445" lon="8.33427"><ele>137.0</ele><time>2026-04-04T14:57:07.58Z</time></trkpt><trkpt lat="45.1275315" lon="8.3343459"><ele>137.0</ele><time>2026-04-04T14:57:08.58Z</time></trkpt><trkpt lat="45.1276253" lon="8.3344389"><ele>137.0</ele><time>2026-04-04T14:57:09.579Z</time></trkpt><trkpt lat="45.1277139" lon="8.3345235"><ele>137.0</ele><time>2026-04-04T14:57:10.58Z</time></trkpt><trkpt lat="45.1278017" lon="8.3346096"><ele>137.0</ele><time>2026-04-04T14:57:11.579Z</time></trkpt><trkpt lat="45.127888" lon="8.3346887"><ele>136.6</ele><time>2026-04-04T14:57:12.58Z</time></trkpt><trkpt lat="45.127975" lon="8.3347696"><ele>136.2</ele><time>2026-04-04T14:57:13.579Z</time></trkpt><trkpt lat="45.1280603" lon="8.3348505"><ele>135.8</ele><time>2026-04-04T14:57:14.58Z</time></trkpt><trkpt lat="45.1281479" lon="8.3349354"><ele>135.4</ele><time>2026-04-04T14:57:15.579Z</time></trkpt><trkpt lat="45.1282335" lon="8.335014"><ele>135.0</ele><time>2026-04-04T14:57:16.579Z</time></trkpt><trkpt lat="45.1283189" lon="8.3350942"><ele>135.0</ele><time>2026-04-04T14:57:17.579Z</time></trkpt><trkpt lat="45.1284031" lon="8.3351787"><ele>135.0</ele><time>2026-04-04T14:57:18.579Z</time></trkpt><trkpt lat="45.1284858" lon="8.3352615"><ele>135.0</ele><time>2026-04-04T14:57:19.58Z</time></trkpt><trkpt lat="45.128572" lon="8.3353457"><ele>135.0</ele><time>2026-04-04T14:57:20.579Z</time></trkpt><trkpt lat="45.1286547" lon="8.3354226"><ele>135.0</ele><time>2026-04-04T14:57:21.58Z</time></trkpt><trkpt lat="45.1287364" lon="8.3355014"><ele>134.6</ele><time>2026-04-04T14:57:22.58Z</time></trkpt><trkpt lat="45.1288228" lon="8.3355822"><ele>134.2</ele><time>2026-04-04T14:57:23.58Z</time></trkpt><trkpt lat="45.1289167" lon="8.3356674"><ele>133.8</ele><time>2026-04-04T14:57:24.579Z</time></trkpt><trkpt lat="45.1290069" lon="8.3357497"><ele>133.4</ele><time>2026-04-04T14:57:25.579Z</time></trkpt><trkpt lat="45.129094" lon="8.3358318"><ele>133.0</ele><time>2026-04-04T14:57:26.58Z</time></trkpt><trkpt lat="45.1291797" lon="8.3359127"><ele>132.6</ele><time>2026-04-04T14:57:27.579Z</time></trkpt><trkpt lat="45.1292689" lon="8.3359947"><ele>132.20000000000002</ele><time>2026-04-04T14:57:28.579Z</time></trkpt><trkpt lat="45.129356" lon="8.3360706"><ele>131.8</ele><time>2026-04-04T14:57:29.58Z</time></trkpt><trkpt lat="45.1294424" lon="8.3361515"><ele>131.4</ele><time>2026-04-04T14:57:30.579Z</time></trkpt><trkpt lat="45.1295274" lon="8.3362311"><ele>131.0</ele><time>2026-04-04T14:57:31.579Z</time></trkpt><trkpt lat="45.1296149" lon="8.3363093"><ele>130.8</ele><time>2026-04-04T14:57:32.579Z</time></trkpt><trkpt lat="45.1297039" lon="8.3363868"><ele>130.6</ele><time>2026-04-04T14:57:33.58Z</time></trkpt><trkpt lat="45.1297956" lon="8.3364633"><ele>130.4</ele><time>2026-04-04T14:57:34.58Z</time></trkpt><trkpt lat="45.1298875" lon="8.336541"><ele>130.2</ele><time>2026-04-04T14:57:35.579Z</time></trkpt><trkpt lat="45.1299759" lon="8.3366259"><ele>130.0</ele><time>2026-04-04T14:57:36.579Z</time></trkpt><trkpt lat="45.1300606" lon="8.336716"><ele>130.0</ele><time>2026-04-04T14:57:37.579Z</time></trkpt><trkpt lat="45.1301431" lon="8.3368032"><ele>130.0</ele><time>2026-04-04T14:57:38.579Z</time></trkpt><trkpt lat="45.1302309" lon="8.3368893"><ele>130.0</ele><time>2026-04-04T14:57:39.579Z</time></trkpt><trkpt lat="45.1303203" lon="8.3369709"><ele>130.0</ele><time>2026-04-04T14:57:40.579Z</time></trkpt><trkpt lat="45.1304117" lon="8.3370529"><ele>130.0</ele><time>2026-04-04T14:57:41.58Z</time></trkpt><trkpt lat="45.1305024" lon="8.3371363"><ele>130.0</ele><time>2026-04-04T14:57:42.58Z</time></trkpt><trkpt lat="45.1305873" lon="8.3372183"><ele>130.0</ele><time>2026-04-04T14:57:43.58Z</time></trkpt><trkpt lat="45.13067" lon="8.3372984"><ele>130.0</ele><time>2026-04-04T14:57:44.58Z</time></trkpt><trkpt lat="45.1307607" lon="8.3373841"><ele>130.0</ele><time>2026-04-04T14:57:45.58Z</time></trkpt><trkpt lat="45.1308515" lon="8.3374708"><ele>130.0</ele><time>2026-04-04T14:57:46.58Z</time></trkpt><trkpt lat="45.1309392" lon="8.3375589"><ele>130.0</ele><time>2026-04-04T14:57:47.579Z</time></trkpt><trkpt lat="45.1310276" lon="8.337648"><ele>130.0</ele><time>2026-04-04T14:57:48.58Z</time></trkpt><trkpt lat="45.1311136" lon="8.3377371"><ele>130.0</ele><time>2026-04-04T14:57:49.579Z</time></trkpt><trkpt lat="45.1311992" lon="8.3378286"><ele>130.0</ele><time>2026-04-04T14:57:50.579Z</time></trkpt><trkpt lat="45.1312854" lon="8.3379262"><ele>130.0</ele><time>2026-04-04T14:57:51.58Z</time></trkpt><trkpt lat="45.1313715" lon="8.3380273"><ele>130.0</ele><time>2026-04-04T14:57:52.579Z</time></trkpt><trkpt lat="45.1314547" lon="8.3381223"><ele>130.0</ele><time>2026-04-04T14:57:53.581Z</time></trkpt><trkpt lat="45.1315375" lon="8.3382216"><ele>130.0</ele><time>2026-04-04T14:57:54.58Z</time></trkpt><trkpt lat="45.1316189" lon="8.3383256"><ele>130.0</ele><time>2026-04-04T14:57:55.581Z</time></trkpt><trkpt lat="45.1317007" lon="8.3384273"><ele>130.0</ele><time>2026-04-04T14:57:56.581Z</time></trkpt><trkpt lat="45.1317811" lon="8.3385291"><ele>130.0</ele><time>2026-04-04T14:57:57.581Z</time></trkpt><trkpt lat="45.1318568" lon="8.3386239"><ele>130.0</ele><time>2026-04-04T14:57:58.581Z</time></trkpt><trkpt lat="45.1319342" lon="8.3387184"><ele>130.0</ele><time>2026-04-04T14:57:59.581Z</time></trkpt><trkpt lat="45.1320128" lon="8.3388166"><ele>130.0</ele><time>2026-04-04T14:58:00.581Z</time></trkpt><trkpt lat="45.1320915" lon="8.3389157"><ele>130.0</ele><time>2026-04-04T14:58:01.58Z</time></trkpt><trkpt lat="45.1321688" lon="8.3390144"><ele>130.4</ele><time>2026-04-04T14:58:02.581Z</time></trkpt><trkpt lat="45.1322471" lon="8.3391134"><ele>130.8</ele><time>2026-04-04T14:58:03.58Z</time></trkpt><trkpt lat="45.1323259" lon="8.3392118"><ele>131.2</ele><time>2026-04-04T14:58:04.581Z</time></trkpt><trkpt lat="45.1324059" lon="8.3393137"><ele>131.6</ele><time>2026-04-04T14:58:05.581Z</time></trkpt><trkpt lat="45.1324867" lon="8.3394153"><ele>132.0</ele><time>2026-04-04T14:58:06.58Z</time></trkpt><trkpt lat="45.1325716" lon="8.3395189"><ele>132.0</ele><time>2026-04-04T14:58:07.581Z</time></trkpt><trkpt lat="45.1326525" lon="8.339617"><ele>132.0</ele><time>2026-04-04T14:58:08.58Z</time></trkpt><trkpt lat="45.1327315" lon="8.3397143"><ele>132.0</ele><time>2026-04-04T14:58:09.58Z</time></trkpt><trkpt lat="45.1328088" lon="8.339811"><ele>132.0</ele><time>2026-04-04T14:58:10.581Z</time></trkpt><trkpt lat="45.1328877" lon="8.3399084"><ele>132.0</ele><time>2026-04-04T14:58:11.581Z</time></trkpt><trkpt lat="45.1329673" lon="8.3400061"><ele>131.79999999999998</ele><time>2026-04-04T14:58:12.58Z</time></trkpt><trkpt lat="45.1330481" lon="8.3401057"><ele>131.6</ele><time>2026-04-04T14:58:13.581Z</time></trkpt><trkpt lat="45.1331285" lon="8.3402038"><ele>131.39999999999998</ele><time>2026-04-04T14:58:14.58Z</time></trkpt><trkpt lat="45.1332101" lon="8.3402996"><ele>131.2</ele><time>2026-04-04T14:58:15.58Z</time></trkpt><trkpt lat="45.1332886" lon="8.3403978"><ele>131.0</ele><time>2026-04-04T14:58:16.58Z</time></trkpt><trkpt lat="45.1333658" lon="8.3404972"><ele>130.6</ele><time>2026-04-04T14:58:17.581Z</time></trkpt><trkpt lat="45.1334444" lon="8.3405957"><ele>130.2</ele><time>2026-04-04T14:58:18.581Z</time></trkpt><trkpt lat="45.1335227" lon="8.3406933"><ele>129.8</ele><time>2026-04-04T14:58:19.581Z</time></trkpt><trkpt lat="45.133603" lon="8.3407922"><ele>129.4</ele><time>2026-04-04T14:58:20.581Z</time></trkpt><trkpt lat="45.1336839" lon="8.3408926"><ele>129.0</ele><time>2026-04-04T14:58:21.58Z</time></trkpt><trkpt lat="45.1337643" lon="8.3409923"><ele>129.0</ele><time>2026-04-04T14:58:22.58Z</time></trkpt><trkpt lat="45.1338437" lon="8.3410905"><ele>129.0</ele><time>2026-04-04T14:58:23.581Z</time></trkpt><trkpt lat="45.1339234" lon="8.3411862"><ele>129.0</ele><time>2026-04-04T14:58:24.58Z</time></trkpt><trkpt lat="45.1340018" lon="8.3412795"><ele>129.0</ele><time>2026-04-04T14:58:25.581Z</time></trkpt><trkpt lat="45.1340816" lon="8.3413772"><ele>129.0</ele><time>2026-04-04T14:58:26.581Z</time></trkpt><trkpt lat="45.1341606" lon="8.341477"><ele>128.6</ele><time>2026-04-04T14:58:27.581Z</time></trkpt><trkpt lat="45.134243" lon="8.3415793"><ele>128.2</ele><time>2026-04-04T14:58:28.58Z</time></trkpt><trkpt lat="45.134324" lon="8.3416796"><ele>127.79999999999998</ele><time>2026-04-04T14:58:29.58Z</time></trkpt><trkpt lat="45.1344011" lon="8.3417762"><ele>127.39999999999999</ele><time>2026-04-04T14:58:30.58Z</time></trkpt><trkpt lat="45.1344791" lon="8.3418745"><ele>127.0</ele><time>2026-04-04T14:58:31.58Z</time></trkpt><trkpt lat="45.1345573" lon="8.341972"><ele>127.0</ele><time>2026-04-04T14:58:32.58Z</time></trkpt><trkpt lat="45.1346375" lon="8.3420672"><ele>126.99999999999999</ele><time>2026-04-04T14:58:33.58Z</time></trkpt><trkpt lat="45.1347176" lon="8.3421592"><ele>126.99999999999999</ele><time>2026-04-04T14:58:34.58Z</time></trkpt><trkpt lat="45.1347979" lon="8.3422542"><ele>127.0</ele><time>2026-04-04T14:58:35.58Z</time></trkpt><trkpt lat="45.1348778" lon="8.3423508"><ele>127.0</ele><time>2026-04-04T14:58:36.58Z</time></trkpt><trkpt lat="45.1349579" lon="8.3424474"><ele>127.0</ele><time>2026-04-04T14:58:37.582Z</time></trkpt><trkpt lat="45.1350407" lon="8.3425405"><ele>126.99999999999999</ele><time>2026-04-04T14:58:38.58Z</time></trkpt><trkpt lat="45.1351256" lon="8.3426302"><ele>126.99999999999999</ele><time>2026-04-04T14:58:39.58Z</time></trkpt><trkpt lat="45.1352125" lon="8.3427198"><ele>127.0</ele><time>2026-04-04T14:58:40.581Z</time></trkpt><trkpt lat="45.1353015" lon="8.3428089"><ele>127.0</ele><time>2026-04-04T14:58:41.581Z</time></trkpt><trkpt lat="45.1353912" lon="8.3428965"><ele>127.0</ele><time>2026-04-04T14:58:42.581Z</time></trkpt><trkpt lat="45.1354836" lon="8.3429823"><ele>126.99999999999999</ele><time>2026-04-04T14:58:43.582Z</time></trkpt><trkpt lat="45.1355776" lon="8.3430624"><ele>126.99999999999999</ele><time>2026-04-04T14:58:44.582Z</time></trkpt><trkpt lat="45.1356731" lon="8.3431402"><ele>127.0</ele><time>2026-04-04T14:58:45.582Z</time></trkpt><trkpt lat="45.1357687" lon="8.3432165"><ele>127.0</ele><time>2026-04-04T14:58:46.581Z</time></trkpt><trkpt lat="45.1358649" lon="8.3432917"><ele>127.0</ele><time>2026-04-04T14:58:47.582Z</time></trkpt><trkpt lat="45.1359604" lon="8.3433657"><ele>126.99999999999999</ele><time>2026-04-04T14:58:48.581Z</time></trkpt><trkpt lat="45.1360554" lon="8.3434352"><ele>126.99999999999999</ele><time>2026-04-04T14:58:49.581Z</time></trkpt><trkpt lat="45.1361504" lon="8.3435032"><ele>127.0</ele><time>2026-04-04T14:58:50.581Z</time></trkpt><trkpt lat="45.1362445" lon="8.3435671"><ele>127.0</ele><time>2026-04-04T14:58:51.581Z</time></trkpt><trkpt lat="45.1363387" lon="8.3436274"><ele>127.0</ele><time>2026-04-04T14:58:52.582Z</time></trkpt><trkpt lat="45.1364351" lon="8.3436862"><ele>126.99999999999999</ele><time>2026-04-04T14:58:53.584Z</time></trkpt><trkpt lat="45.1365314" lon="8.3437437"><ele>126.99999999999999</ele><time>2026-04-04T14:58:54.582Z</time></trkpt><trkpt lat="45.1366265" lon="8.343796"><ele>127.0</ele><time>2026-04-04T14:58:55.582Z</time></trkpt><trkpt lat="45.1367239" lon="8.343845"><ele>127.0</ele><time>2026-04-04T14:58:56.581Z</time></trkpt><trkpt lat="45.1368233" lon="8.3438939"><ele>126.8</ele><time>2026-04-04T14:58:57.582Z</time></trkpt><trkpt lat="45.136922" lon="8.3439417"><ele>126.6</ele><time>2026-04-04T14:58:58.582Z</time></trkpt><trkpt lat="45.1370181" lon="8.3439907"><ele>126.39999999999999</ele><time>2026-04-04T14:58:59.582Z</time></trkpt><trkpt lat="45.1371168" lon="8.3440362"><ele>126.19999999999999</ele><time>2026-04-04T14:59:00.581Z</time></trkpt><trkpt lat="45.1372185" lon="8.3440792"><ele>126.0</ele><time>2026-04-04T14:59:01.582Z</time></trkpt><trkpt lat="45.1373223" lon="8.3441199"><ele>125.8</ele><time>2026-04-04T14:59:02.582Z</time></trkpt><trkpt lat="45.1374247" lon="8.3441569"><ele>125.6</ele><time>2026-04-04T14:59:03.581Z</time></trkpt><trkpt lat="45.1375272" lon="8.344193"><ele>125.4</ele><time>2026-04-04T14:59:04.581Z</time></trkpt><trkpt lat="45.1376296" lon="8.3442281"><ele>125.2</ele><time>2026-04-04T14:59:05.582Z</time></trkpt><trkpt lat="45.1377305" lon="8.3442615"><ele>125.0</ele><time>2026-04-04T14:59:06.581Z</time></trkpt><trkpt lat="45.1378301" lon="8.3442923"><ele>125.0</ele><time>2026-04-04T14:59:07.582Z</time></trkpt><trkpt lat="45.1379278" lon="8.3443204"><ele>125.0</ele><time>2026-04-04T14:59:08.582Z</time></trkpt><trkpt lat="45.1380251" lon="8.3443449"><ele>125.0</ele><time>2026-04-04T14:59:09.581Z</time></trkpt><trkpt lat="45.1381234" lon="8.3443667"><ele>125.0</ele><time>2026-04-04T14:59:10.582Z</time></trkpt><trkpt lat="45.1382203" lon="8.344385"><ele>125.0</ele><time>2026-04-04T14:59:11.582Z</time></trkpt><trkpt lat="45.1383174" lon="8.3443994"><ele>125.0</ele><time>2026-04-04T14:59:12.581Z</time></trkpt><trkpt lat="45.1384183" lon="8.3444138"><ele>125.0</ele><time>2026-04-04T14:59:13.582Z</time></trkpt><trkpt lat="45.1385224" lon="8.344429"><ele>125.0</ele><time>2026-04-04T14:59:14.582Z</time></trkpt><trkpt lat="45.1386254" lon="8.3444457"><ele>125.0</ele><time>2026-04-04T14:59:15.582Z</time></trkpt><trkpt lat="45.1387257" lon="8.3444559"><ele>125.0</ele><time>2026-04-04T14:59:16.581Z</time></trkpt><trkpt lat="45.1388297" lon="8.3444619"><ele>125.0</ele><time>2026-04-04T14:59:17.582Z</time></trkpt><trkpt lat="45.138933" lon="8.3444672"><ele>125.0</ele><time>2026-04-04T14:59:18.581Z</time></trkpt><trkpt lat="45.1390357" lon="8.3444684"><ele>125.0</ele><time>2026-04-04T14:59:19.581Z</time></trkpt><trkpt lat="45.1391404" lon="8.3444668"><ele>125.0</ele><time>2026-04-04T14:59:20.582Z</time></trkpt><trkpt lat="45.1392419" lon="8.3444668"><ele>125.0</ele><time>2026-04-04T14:59:21.581Z</time></trkpt><trkpt lat="45.13934" lon="8.3444656"><ele>125.4</ele><time>2026-04-04T14:59:22.582Z</time></trkpt><trkpt lat="45.1394405" lon="8.3444626"><ele>125.8</ele><time>2026-04-04T14:59:23.581Z</time></trkpt><trkpt lat="45.1395457" lon="8.3444558"><ele>126.19999999999999</ele><time>2026-04-04T14:59:24.582Z</time></trkpt><trkpt lat="45.1396524" lon="8.3444454"><ele>126.6</ele><time>2026-04-04T14:59:25.581Z</time></trkpt><trkpt lat="45.1397573" lon="8.3444325"><ele>127.0</ele><time>2026-04-04T14:59:26.581Z</time></trkpt><trkpt lat="45.139863" lon="8.3444178"><ele>127.19999999999999</ele><time>2026-04-04T14:59:27.582Z</time></trkpt><trkpt lat="45.1399679" lon="8.3444016"><ele>127.39999999999999</ele><time>2026-04-04T14:59:28.582Z</time></trkpt><trkpt lat="45.1400698" lon="8.3443826"><ele>127.60000000000001</ele><time>2026-04-04T14:59:29.583Z</time></trkpt><trkpt lat="45.1401722" lon="8.3443612"><ele>127.80000000000001</ele><time>2026-04-04T14:59:30.583Z</time></trkpt><trkpt lat="45.1402758" lon="8.3443375"><ele>128.0</ele><time>2026-04-04T14:59:31.582Z</time></trkpt><trkpt lat="45.1403804" lon="8.3443091"><ele>128.0</ele><time>2026-04-04T14:59:32.583Z</time></trkpt><trkpt lat="45.1404873" lon="8.3442795"><ele>128.0</ele><time>2026-04-04T14:59:33.583Z</time></trkpt><trkpt lat="45.1405917" lon="8.3442494"><ele>128.0</ele><time>2026-04-04T14:59:34.583Z</time></trkpt><trkpt lat="45.1406938" lon="8.344218"><ele>128.0</ele><time>2026-04-04T14:59:35.582Z</time></trkpt><trkpt lat="45.1407958" lon="8.3441839"><ele>128.0</ele><time>2026-04-04T14:59:36.583Z</time></trkpt><trkpt lat="45.1409012" lon="8.3441492"><ele>128.20000000000002</ele><time>2026-04-04T14:59:37.583Z</time></trkpt><trkpt lat="45.1410098" lon="8.3441168"><ele>128.4</ele><time>2026-04-04T14:59:38.583Z</time></trkpt><trkpt lat="45.1411185" lon="8.3440867"><ele>128.60000000000002</ele><time>2026-04-04T14:59:39.582Z</time></trkpt><trkpt lat="45.1412246" lon="8.3440572"><ele>128.8</ele><time>2026-04-04T14:59:40.583Z</time></trkpt><trkpt lat="45.1413306" lon="8.3440279"><ele>129.0</ele><time>2026-04-04T14:59:41.582Z</time></trkpt><trkpt lat="45.1414378" lon="8.3439957"><ele>129.0</ele><time>2026-04-04T14:59:42.582Z</time></trkpt><trkpt lat="45.1415445" lon="8.3439607"><ele>129.0</ele><time>2026-04-04T14:59:43.583Z</time></trkpt><trkpt lat="45.1416521" lon="8.3439263"><ele>129.0</ele><time>2026-04-04T14:59:44.582Z</time></trkpt><trkpt lat="45.1417581" lon="8.3438942"><ele>129.0</ele><time>2026-04-04T14:59:45.582Z</time></trkpt><trkpt lat="45.1418622" lon="8.3438612"><ele>129.0</ele><time>2026-04-04T14:59:46.582Z</time></trkpt><trkpt lat="45.1419661" lon="8.3438299"><ele>129.0</ele><time>2026-04-04T14:59:47.582Z</time></trkpt><trkpt lat="45.1420702" lon="8.3437953"><ele>129.0</ele><time>2026-04-04T14:59:48.582Z</time></trkpt><trkpt lat="45.1421768" lon="8.3437603"><ele>129.0</ele><time>2026-04-04T14:59:49.583Z</time></trkpt><trkpt lat="45.1422839" lon="8.3437269"><ele>129.0</ele><time>2026-04-04T14:59:50.582Z</time></trkpt><trkpt lat="45.1423872" lon="8.3436945"><ele>129.0</ele><time>2026-04-04T14:59:51.583Z</time></trkpt><trkpt lat="45.1424927" lon="8.3436627"><ele>129.0</ele><time>2026-04-04T14:59:52.583Z</time></trkpt><trkpt lat="45.1425978" lon="8.3436315"><ele>129.0</ele><time>2026-04-04T14:59:53.582Z</time></trkpt><trkpt lat="45.1427011" lon="8.3436033"><ele>129.0</ele><time>2026-04-04T14:59:54.583Z</time></trkpt><trkpt lat="45.1428037" lon="8.343575"><ele>129.0</ele><time>2026-04-04T14:59:55.583Z</time></trkpt><trkpt lat="45.1429051" lon="8.3435437"><ele>129.0</ele><time>2026-04-04T14:59:56.582Z</time></trkpt><trkpt lat="45.1430068" lon="8.3435102"><ele>129.0</ele><time>2026-04-04T14:59:57.583Z</time></trkpt><trkpt lat="45.1431082" lon="8.343477"><ele>129.0</ele><time>2026-04-04T14:59:58.583Z</time></trkpt><trkpt lat="45.143208" lon="8.3434434"><ele>129.0</ele><time>2026-04-04T14:59:59.582Z</time></trkpt><trkpt lat="45.1433055" lon="8.343407"><ele>129.0</ele><time>2026-04-04T15:00:00.583Z</time></trkpt><trkpt lat="45.1434039" lon="8.343368"><ele>129.0</ele><time>2026-04-04T15:00:01.583Z</time></trkpt><trkpt lat="45.143503" lon="8.34333"><ele>129.0</ele><time>2026-04-04T15:00:02.583Z</time></trkpt><trkpt lat="45.1436017" lon="8.3432921"><ele>129.0</ele><time>2026-04-04T15:00:03.582Z</time></trkpt><trkpt lat="45.1436993" lon="8.3432487"><ele>129.0</ele><time>2026-04-04T15:00:04.583Z</time></trkpt><trkpt lat="45.1437954" lon="8.3431985"><ele>129.0</ele><time>2026-04-04T15:00:05.583Z</time></trkpt><trkpt lat="45.1438894" lon="8.3431419"><ele>129.0</ele><time>2026-04-04T15:00:06.582Z</time></trkpt><trkpt lat="45.1439848" lon="8.3430826"><ele>128.8</ele><time>2026-04-04T15:00:07.583Z</time></trkpt><trkpt lat="45.1440816" lon="8.3430239"><ele>128.60000000000002</ele><time>2026-04-04T15:00:08.583Z</time></trkpt><trkpt lat="45.1441795" lon="8.3429656"><ele>128.4</ele><time>2026-04-04T15:00:09.583Z</time></trkpt><trkpt lat="45.1442755" lon="8.3429073"><ele>128.20000000000002</ele><time>2026-04-04T15:00:10.583Z</time></trkpt><trkpt lat="45.1443704" lon="8.3428471"><ele>128.0</ele><time>2026-04-04T15:00:11.582Z</time></trkpt><trkpt lat="45.1444628" lon="8.3427849"><ele>128.0</ele><time>2026-04-04T15:00:12.582Z</time></trkpt><trkpt lat="45.1445512" lon="8.3427213"><ele>128.0</ele><time>2026-04-04T15:00:13.583Z</time></trkpt><trkpt lat="45.1446401" lon="8.3426566"><ele>128.0</ele><time>2026-04-04T15:00:14.583Z</time></trkpt><trkpt lat="45.1447297" lon="8.342584"><ele>128.0</ele><time>2026-04-04T15:00:15.584Z</time></trkpt><trkpt lat="45.1448229" lon="8.3425093"><ele>128.0</ele><time>2026-04-04T15:00:16.583Z</time></trkpt><trkpt lat="45.1449132" lon="8.3424333"><ele>128.0</ele><time>2026-04-04T15:00:17.583Z</time></trkpt><trkpt lat="45.1450031" lon="8.3423555"><ele>128.0</ele><time>2026-04-04T15:00:18.584Z</time></trkpt><trkpt lat="45.145092" lon="8.342277"><ele>128.0</ele><time>2026-04-04T15:00:19.584Z</time></trkpt><trkpt lat="45.145181" lon="8.3421967"><ele>128.0</ele><time>2026-04-04T15:00:20.584Z</time></trkpt><trkpt lat="45.1452717" lon="8.3421162"><ele>128.0</ele><time>2026-04-04T15:00:21.584Z</time></trkpt><trkpt lat="45.1453631" lon="8.3420348"><ele>128.0</ele><time>2026-04-04T15:00:22.583Z</time></trkpt><trkpt lat="45.145454" lon="8.3419517"><ele>128.0</ele><time>2026-04-04T15:00:23.583Z</time></trkpt><trkpt lat="45.1455422" lon="8.3418702"><ele>128.0</ele><time>2026-04-04T15:00:24.583Z</time></trkpt><trkpt lat="45.14563" lon="8.3417906"><ele>128.0</ele><time>2026-04-04T15:00:25.583Z</time></trkpt><trkpt lat="45.1457186" lon="8.3417117"><ele>128.0</ele><time>2026-04-04T15:00:26.584Z</time></trkpt><trkpt lat="45.1458078" lon="8.3416332"><ele>128.20000000000002</ele><time>2026-04-04T15:00:27.583Z</time></trkpt><trkpt lat="45.1458962" lon="8.3415552"><ele>128.4</ele><time>2026-04-04T15:00:28.583Z</time></trkpt><trkpt lat="45.1459838" lon="8.3414778"><ele>128.60000000000002</ele><time>2026-04-04T15:00:29.583Z</time></trkpt><trkpt lat="45.1460728" lon="8.3414004"><ele>128.8</ele><time>2026-04-04T15:00:30.583Z</time></trkpt><trkpt lat="45.146164" lon="8.34132"><ele>129.0</ele><time>2026-04-04T15:00:31.584Z</time></trkpt><trkpt lat="45.1462522" lon="8.3412401"><ele>128.0</ele><time>2026-04-04T15:00:32.584Z</time></trkpt><trkpt lat="45.1463389" lon="8.3411608"><ele>127.0</ele><time>2026-04-04T15:00:33.583Z</time></trkpt><trkpt lat="45.1464297" lon="8.3410789"><ele>126.0</ele><time>2026-04-04T15:00:34.583Z</time></trkpt><trkpt lat="45.1465203" lon="8.3409962"><ele>125.0</ele><time>2026-04-04T15:00:35.584Z</time></trkpt><trkpt lat="45.1466113" lon="8.3409147"><ele>124.0</ele><time>2026-04-04T15:00:36.584Z</time></trkpt><trkpt lat="45.1467022" lon="8.3408341"><ele>122.4</ele><time>2026-04-04T15:00:37.583Z</time></trkpt><trkpt lat="45.1467932" lon="8.3407512"><ele>120.80000000000001</ele><time>2026-04-04T15:00:38.584Z</time></trkpt><trkpt lat="45.1468849" lon="8.3406704"><ele>119.19999999999999</ele><time>2026-04-04T15:00:39.584Z</time></trkpt><trkpt lat="45.1469775" lon="8.3405909"><ele>117.6</ele><time>2026-04-04T15:00:40.584Z</time></trkpt><trkpt lat="45.1470683" lon="8.3405116"><ele>116.0</ele><time>2026-04-04T15:00:41.584Z</time></trkpt><trkpt lat="45.1471581" lon="8.3404324"><ele>116.0</ele><time>2026-04-04T15:00:42.583Z</time></trkpt><trkpt lat="45.1472479" lon="8.3403536"><ele>116.0</ele><time>2026-04-04T15:00:43.583Z</time></trkpt><trkpt lat="45.147337" lon="8.3402747"><ele>116.0</ele><time>2026-04-04T15:00:44.583Z</time></trkpt><trkpt lat="45.1474257" lon="8.340194"><ele>116.0</ele><time>2026-04-04T15:00:45.583Z</time></trkpt><trkpt lat="45.1475149" lon="8.3401136"><ele>116.0</ele><time>2026-04-04T15:00:46.584Z</time></trkpt><trkpt lat="45.147606" lon="8.3400329"><ele>115.8</ele><time>2026-04-04T15:00:47.583Z</time></trkpt><trkpt lat="45.1476976" lon="8.3399525"><ele>115.6</ele><time>2026-04-04T15:00:48.583Z</time></trkpt><trkpt lat="45.1477898" lon="8.3398711"><ele>115.4</ele><time>2026-04-04T15:00:49.583Z</time></trkpt><trkpt lat="45.1478821" lon="8.3397898"><ele>115.2</ele><time>2026-04-04T15:00:50.584Z</time></trkpt><trkpt lat="45.1479737" lon="8.3397084"><ele>115.0</ele><time>2026-04-04T15:00:51.584Z</time></trkpt><trkpt lat="45.1480646" lon="8.3396272"><ele>115.4</ele><time>2026-04-04T15:00:52.584Z</time></trkpt><trkpt lat="45.1481555" lon="8.3395454"><ele>115.8</ele><time>2026-04-04T15:00:53.583Z</time></trkpt><trkpt lat="45.1482478" lon="8.3394624"><ele>116.19999999999999</ele><time>2026-04-04T15:00:54.583Z</time></trkpt><trkpt lat="45.1483395" lon="8.3393795"><ele>116.6</ele><time>2026-04-04T15:00:55.584Z</time></trkpt><trkpt lat="45.1484323" lon="8.3392964"><ele>117.0</ele><time>2026-04-04T15:00:56.583Z</time></trkpt><trkpt lat="45.1485243" lon="8.3392131"><ele>117.39999999999999</ele><time>2026-04-04T15:00:57.583Z</time></trkpt><trkpt lat="45.1486158" lon="8.3391296"><ele>117.79999999999998</ele><time>2026-04-04T15:00:58.584Z</time></trkpt><trkpt lat="45.1487063" lon="8.3390475"><ele>118.2</ele><time>2026-04-04T15:00:59.583Z</time></trkpt><trkpt lat="45.1487936" lon="8.338971"><ele>118.6</ele><time>2026-04-04T15:01:00.584Z</time></trkpt><trkpt lat="45.1488827" lon="8.3388908"><ele>119.0</ele><time>2026-04-04T15:01:01.584Z</time></trkpt><trkpt lat="45.1489727" lon="8.3388092"><ele>119.6</ele><time>2026-04-04T15:01:02.585Z</time></trkpt><trkpt lat="45.1490616" lon="8.338726"><ele>120.2</ele><time>2026-04-04T15:01:03.585Z</time></trkpt><trkpt lat="45.1491493" lon="8.3386432"><ele>120.79999999999998</ele><time>2026-04-04T15:01:04.584Z</time></trkpt><trkpt lat="45.1492384" lon="8.3385626"><ele>121.39999999999999</ele><time>2026-04-04T15:01:05.584Z</time></trkpt><trkpt lat="45.1493285" lon="8.3384859"><ele>122.0</ele><time>2026-04-04T15:01:06.584Z</time></trkpt><trkpt lat="45.149418" lon="8.3384097"><ele>122.0</ele><time>2026-04-04T15:01:07.584Z</time></trkpt><trkpt lat="45.1495067" lon="8.3383343"><ele>121.99999999999999</ele><time>2026-04-04T15:01:08.585Z</time></trkpt><trkpt lat="45.1495926" lon="8.3382578"><ele>121.99999999999999</ele><time>2026-04-04T15:01:09.584Z</time></trkpt><trkpt lat="45.14968" lon="8.3381799"><ele>122.0</ele><time>2026-04-04T15:01:10.585Z</time></trkpt><trkpt lat="45.1497687" lon="8.3381027"><ele>122.0</ele><time>2026-04-04T15:01:11.585Z</time></trkpt><trkpt lat="45.149858" lon="8.3380267"><ele>122.0</ele><time>2026-04-04T15:01:12.584Z</time></trkpt><trkpt lat="45.1499467" lon="8.3379505"><ele>121.99999999999999</ele><time>2026-04-04T15:01:13.584Z</time></trkpt><trkpt lat="45.1500324" lon="8.3378723"><ele>121.99999999999999</ele><time>2026-04-04T15:01:14.584Z</time></trkpt><trkpt lat="45.1501181" lon="8.3377917"><ele>122.0</ele><time>2026-04-04T15:01:15.584Z</time></trkpt><trkpt lat="45.150205" lon="8.3377117"><ele>122.0</ele><time>2026-04-04T15:01:16.585Z</time></trkpt><trkpt lat="45.1502915" lon="8.337635"><ele>122.0</ele><time>2026-04-04T15:01:17.584Z</time></trkpt><trkpt lat="45.1503779" lon="8.3375596"><ele>121.99999999999999</ele><time>2026-04-04T15:01:18.585Z</time></trkpt><trkpt lat="45.1504625" lon="8.3374859"><ele>121.99999999999999</ele><time>2026-04-04T15:01:19.585Z</time></trkpt><trkpt lat="45.1505472" lon="8.3374095"><ele>122.0</ele><time>2026-04-04T15:01:20.585Z</time></trkpt><trkpt lat="45.1506289" lon="8.3373347"><ele>122.0</ele><time>2026-04-04T15:01:21.584Z</time></trkpt><trkpt lat="45.1507118" lon="8.3372625"><ele>122.0</ele><time>2026-04-04T15:01:22.584Z</time></trkpt><trkpt lat="45.1507964" lon="8.3371875"><ele>121.99999999999999</ele><time>2026-04-04T15:01:23.585Z</time></trkpt><trkpt lat="45.1508826" lon="8.3371106"><ele>121.99999999999999</ele><time>2026-04-04T15:01:24.584Z</time></trkpt><trkpt lat="45.1509682" lon="8.3370262"><ele>122.0</ele><time>2026-04-04T15:01:25.585Z</time></trkpt><trkpt lat="45.151052" lon="8.3369465"><ele>122.0</ele><time>2026-04-04T15:01:26.585Z</time></trkpt><trkpt lat="45.151136" lon="8.336872"><ele>122.0</ele><time>2026-04-04T15:01:27.584Z</time></trkpt><trkpt lat="45.1512203" lon="8.3367986"><ele>121.99999999999999</ele><time>2026-04-04T15:01:28.584Z</time></trkpt><trkpt lat="45.1513077" lon="8.3367248"><ele>121.99999999999999</ele><time>2026-04-04T15:01:29.585Z</time></trkpt><trkpt lat="45.1513937" lon="8.3366516"><ele>122.0</ele><time>2026-04-04T15:01:30.585Z</time></trkpt><trkpt lat="45.1514799" lon="8.3365754"><ele>122.0</ele><time>2026-04-04T15:01:31.585Z</time></trkpt><trkpt lat="45.1515665" lon="8.336496"><ele>122.0</ele><time>2026-04-04T15:01:32.584Z</time></trkpt><trkpt lat="45.1516539" lon="8.3364164"><ele>121.99999999999999</ele><time>2026-04-04T15:01:33.585Z</time></trkpt><trkpt lat="45.1517421" lon="8.3363392"><ele>121.99999999999999</ele><time>2026-04-04T15:01:34.584Z</time></trkpt><trkpt lat="45.1518297" lon="8.3362624"><ele>122.0</ele><time>2026-04-04T15:01:35.584Z</time></trkpt><trkpt lat="45.1519173" lon="8.3361892"><ele>122.0</ele><time>2026-04-04T15:01:36.584Z</time></trkpt><trkpt lat="45.1520061" lon="8.3361122"><ele>122.0</ele><time>2026-04-04T15:01:37.585Z</time></trkpt><trkpt lat="45.1520953" lon="8.3360313"><ele>121.99999999999999</ele><time>2026-04-04T15:01:38.585Z</time></trkpt><trkpt lat="45.1521849" lon="8.3359488"><ele>121.99999999999999</ele><time>2026-04-04T15:01:39.585Z</time></trkpt><trkpt lat="45.1522748" lon="8.3358702"><ele>122.0</ele><time>2026-04-04T15:01:40.585Z</time></trkpt><trkpt lat="45.1523644" lon="8.3357915"><ele>122.0</ele><time>2026-04-04T15:01:41.584Z</time></trkpt><trkpt lat="45.152455" lon="8.3357131"><ele>122.0</ele><time>2026-04-04T15:01:42.584Z</time></trkpt><trkpt lat="45.1525426" lon="8.3356331"><ele>121.99999999999999</ele><time>2026-04-04T15:01:43.585Z</time></trkpt><trkpt lat="45.1526283" lon="8.3355533"><ele>121.99999999999999</ele><time>2026-04-04T15:01:44.585Z</time></trkpt><trkpt lat="45.152717" lon="8.3354717"><ele>122.0</ele><time>2026-04-04T15:01:45.585Z</time></trkpt><trkpt lat="45.1528057" lon="8.3353924"><ele>122.0</ele><time>2026-04-04T15:01:46.586Z</time></trkpt><trkpt lat="45.1528948" lon="8.335315"><ele>121.8</ele><time>2026-04-04T15:01:47.585Z</time></trkpt><trkpt lat="45.1529847" lon="8.3352372"><ele>121.6</ele><time>2026-04-04T15:01:48.586Z</time></trkpt><trkpt lat="45.1530717" lon="8.3351608"><ele>121.39999999999999</ele><time>2026-04-04T15:01:49.585Z</time></trkpt><trkpt lat="45.1531614" lon="8.335081"><ele>121.19999999999999</ele><time>2026-04-04T15:01:50.585Z</time></trkpt><trkpt lat="45.1532493" lon="8.3350015"><ele>121.0</ele><time>2026-04-04T15:01:51.585Z</time></trkpt><trkpt lat="45.1533361" lon="8.3349223"><ele>121.0</ele><time>2026-04-04T15:01:52.585Z</time></trkpt><trkpt lat="45.1534238" lon="8.3348451"><ele>121.0</ele><time>2026-04-04T15:01:53.586Z</time></trkpt><trkpt lat="45.1535138" lon="8.3347678"><ele>121.0</ele><time>2026-04-04T15:01:54.585Z</time></trkpt><trkpt lat="45.153605" lon="8.3346877"><ele>121.0</ele><time>2026-04-04T15:01:55.586Z</time></trkpt><trkpt lat="45.1536952" lon="8.3346076"><ele>121.0</ele><time>2026-04-04T15:01:56.586Z</time></trkpt><trkpt lat="45.1537868" lon="8.3345253"><ele>121.0</ele><time>2026-04-04T15:01:57.585Z</time></trkpt><trkpt lat="45.1538767" lon="8.3344445"><ele>121.0</ele><time>2026-04-04T15:01:58.586Z</time></trkpt><trkpt lat="45.1539648" lon="8.3343672"><ele>121.0</ele><time>2026-04-04T15:01:59.585Z</time></trkpt><trkpt lat="45.1540537" lon="8.3342907"><ele>121.0</ele><time>2026-04-04T15:02:00.585Z</time></trkpt><trkpt lat="45.1541404" lon="8.3342151"><ele>121.0</ele><time>2026-04-04T15:02:01.585Z</time></trkpt><trkpt lat="45.1542274" lon="8.3341346"><ele>121.19999999999999</ele><time>2026-04-04T15:02:02.585Z</time></trkpt><trkpt lat="45.1543154" lon="8.3340547"><ele>121.39999999999999</ele><time>2026-04-04T15:02:03.586Z</time></trkpt><trkpt lat="45.1544026" lon="8.333976"><ele>121.6</ele><time>2026-04-04T15:02:04.585Z</time></trkpt><trkpt lat="45.1544915" lon="8.333897"><ele>121.8</ele><time>2026-04-04T15:02:05.586Z</time></trkpt><trkpt lat="45.1545808" lon="8.3338174"><ele>122.0</ele><time>2026-04-04T15:02:06.585Z</time></trkpt><trkpt lat="45.1546683" lon="8.3337383"><ele>122.0</ele><time>2026-04-04T15:02:07.585Z</time></trkpt><trkpt lat="45.1547562" lon="8.3336618"><ele>121.99999999999999</ele><time>2026-04-04T15:02:08.586Z</time></trkpt><trkpt lat="45.1548441" lon="8.3335861"><ele>121.99999999999999</ele><time>2026-04-04T15:02:09.585Z</time></trkpt><trkpt lat="45.1549352" lon="8.3335107"><ele>122.0</ele><time>2026-04-04T15:02:10.586Z</time></trkpt><trkpt lat="45.1550283" lon="8.3334377"><ele>122.0</ele><time>2026-04-04T15:02:11.586Z</time></trkpt><trkpt lat="45.1551216" lon="8.3333669"><ele>122.19999999999999</ele><time>2026-04-04T15:02:12.585Z</time></trkpt><trkpt lat="45.1552141" lon="8.3332978"><ele>122.39999999999999</ele><time>2026-04-04T15:02:13.585Z</time></trkpt><trkpt lat="45.1553087" lon="8.3332265"><ele>122.60000000000001</ele><time>2026-04-04T15:02:14.586Z</time></trkpt><trkpt lat="45.1554067" lon="8.3331562"><ele>122.80000000000001</ele><time>2026-04-04T15:02:15.585Z</time></trkpt><trkpt lat="45.1555043" lon="8.3330895"><ele>123.0</ele><time>2026-04-04T15:02:16.585Z</time></trkpt><trkpt lat="45.1556042" lon="8.3330239"><ele>123.0</ele><time>2026-04-04T15:02:17.585Z</time></trkpt><trkpt lat="45.155704" lon="8.332961"><ele>123.00000000000001</ele><time>2026-04-04T15:02:18.586Z</time></trkpt><trkpt lat="45.1558039" lon="8.3329004"><ele>123.00000000000001</ele><time>2026-04-04T15:02:19.585Z</time></trkpt><trkpt lat="45.1559052" lon="8.3328398"><ele>123.0</ele><time>2026-04-04T15:02:20.586Z</time></trkpt><trkpt lat="45.1560061" lon="8.3327806"><ele>123.0</ele><time>2026-04-04T15:02:21.585Z</time></trkpt><trkpt lat="45.1561071" lon="8.3327245"><ele>123.0</ele><time>2026-04-04T15:02:22.586Z</time></trkpt><trkpt lat="45.1562084" lon="8.3326725"><ele>123.00000000000001</ele><time>2026-04-04T15:02:23.585Z</time></trkpt><trkpt lat="45.1563132" lon="8.3326207"><ele>123.00000000000001</ele><time>2026-04-04T15:02:24.585Z</time></trkpt><trkpt lat="45.1564183" lon="8.3325665"><ele>123.0</ele><time>2026-04-04T15:02:25.585Z</time></trkpt><trkpt lat="45.1565236" lon="8.332514"><ele>123.0</ele><time>2026-04-04T15:02:26.586Z</time></trkpt><trkpt lat="45.1566264" lon="8.3324626"><ele>123.2</ele><time>2026-04-04T15:02:27.586Z</time></trkpt><trkpt lat="45.1567275" lon="8.3324161"><ele>123.4</ele><time>2026-04-04T15:02:28.585Z</time></trkpt><trkpt lat="45.1568277" lon="8.3323739"><ele>123.60000000000001</ele><time>2026-04-04T15:02:29.586Z</time></trkpt><trkpt lat="45.1569289" lon="8.3323365"><ele>123.80000000000001</ele><time>2026-04-04T15:02:30.585Z</time></trkpt><trkpt lat="45.1570334" lon="8.3323006"><ele>124.0</ele><time>2026-04-04T15:02:31.585Z</time></trkpt><trkpt lat="45.1571391" lon="8.3322624"><ele>124.0</ele><time>2026-04-04T15:02:32.587Z</time></trkpt><trkpt lat="45.1572421" lon="8.3322253"><ele>124.0</ele><time>2026-04-04T15:02:33.587Z</time></trkpt><trkpt lat="45.1573451" lon="8.3321905"><ele>124.0</ele><time>2026-04-04T15:02:34.587Z</time></trkpt><trkpt lat="45.157449" lon="8.3321587"><ele>124.0</ele><time>2026-04-04T15:02:35.587Z</time></trkpt><trkpt lat="45.157553" lon="8.3321291"><ele>124.0</ele><time>2026-04-04T15:02:36.587Z</time></trkpt><trkpt lat="45.1576591" lon="8.3320987"><ele>124.2</ele><time>2026-04-04T15:02:37.586Z</time></trkpt><trkpt lat="45.1577661" lon="8.3320713"><ele>124.4</ele><time>2026-04-04T15:02:38.587Z</time></trkpt><trkpt lat="45.1578715" lon="8.3320494"><ele>124.6</ele><time>2026-04-04T15:02:39.587Z</time></trkpt><trkpt lat="45.1579732" lon="8.3320302"><ele>124.8</ele><time>2026-04-04T15:02:40.586Z</time></trkpt><trkpt lat="45.1580777" lon="8.332008"><ele>125.0</ele><time>2026-04-04T15:02:41.587Z</time></trkpt><trkpt lat="45.158183" lon="8.3319846"><ele>124.6</ele><time>2026-04-04T15:02:42.586Z</time></trkpt><trkpt lat="45.1582881" lon="8.3319635"><ele>124.2</ele><time>2026-04-04T15:02:43.586Z</time></trkpt><trkpt lat="45.1583921" lon="8.3319462"><ele>123.80000000000001</ele><time>2026-04-04T15:02:44.586Z</time></trkpt><trkpt lat="45.1584967" lon="8.331931"><ele>123.4</ele><time>2026-04-04T15:02:45.586Z</time></trkpt><trkpt lat="45.1586023" lon="8.3319162"><ele>123.0</ele><time>2026-04-04T15:02:46.587Z</time></trkpt><trkpt lat="45.1587091" lon="8.3319029"><ele>123.0</ele><time>2026-04-04T15:02:47.586Z</time></trkpt><trkpt lat="45.1588177" lon="8.3318925"><ele>123.00000000000001</ele><time>2026-04-04T15:02:48.586Z</time></trkpt><trkpt lat="45.1589258" lon="8.3318861"><ele>123.00000000000001</ele><time>2026-04-04T15:02:49.586Z</time></trkpt><trkpt lat="45.1590334" lon="8.3318795"><ele>123.0</ele><time>2026-04-04T15:02:50.586Z</time></trkpt><trkpt lat="45.15914" lon="8.3318752"><ele>123.0</ele><time>2026-04-04T15:02:51.587Z</time></trkpt><trkpt lat="45.159246" lon="8.3318719"><ele>123.2</ele><time>2026-04-04T15:02:52.586Z</time></trkpt><trkpt lat="45.1593521" lon="8.3318705"><ele>123.4</ele><time>2026-04-04T15:02:53.586Z</time></trkpt><trkpt lat="45.159457" lon="8.33187"><ele>123.60000000000001</ele><time>2026-04-04T15:02:54.587Z</time></trkpt><trkpt lat="45.159561" lon="8.331872"><ele>123.80000000000001</ele><time>2026-04-04T15:02:55.587Z</time></trkpt><trkpt lat="45.1596664" lon="8.3318774"><ele>124.0</ele><time>2026-04-04T15:02:56.587Z</time></trkpt><trkpt lat="45.1597718" lon="8.3318878"><ele>123.80000000000001</ele><time>2026-04-04T15:02:57.586Z</time></trkpt><trkpt lat="45.1598782" lon="8.3318927"><ele>123.60000000000001</ele><time>2026-04-04T15:02:58.586Z</time></trkpt><trkpt lat="45.1599835" lon="8.3318954"><ele>123.4</ele><time>2026-04-04T15:02:59.587Z</time></trkpt><trkpt lat="45.1600898" lon="8.3318976"><ele>123.2</ele><time>2026-04-04T15:03:00.587Z</time></trkpt><trkpt lat="45.1601965" lon="8.331902"><ele>123.0</ele><time>2026-04-04T15:03:01.587Z</time></trkpt><trkpt lat="45.1603023" lon="8.3319077"><ele>123.0</ele><time>2026-04-04T15:03:02.586Z</time></trkpt><trkpt lat="45.1604079" lon="8.3319122"><ele>123.00000000000001</ele><time>2026-04-04T15:03:03.586Z</time></trkpt><trkpt lat="45.1605143" lon="8.3319162"><ele>123.00000000000001</ele><time>2026-04-04T15:03:04.586Z</time></trkpt><trkpt lat="45.1606234" lon="8.3319216"><ele>123.0</ele><time>2026-04-04T15:03:05.587Z</time></trkpt><trkpt lat="45.1607325" lon="8.3319274"><ele>123.0</ele><time>2026-04-04T15:03:06.587Z</time></trkpt><trkpt lat="45.1608411" lon="8.3319326"><ele>123.0</ele><time>2026-04-04T15:03:07.587Z</time></trkpt><trkpt lat="45.16095" lon="8.3319383"><ele>123.00000000000001</ele><time>2026-04-04T15:03:08.588Z</time></trkpt><trkpt lat="45.1610599" lon="8.3319442"><ele>123.00000000000001</ele><time>2026-04-04T15:03:09.587Z</time></trkpt><trkpt lat="45.1611709" lon="8.3319483"><ele>123.0</ele><time>2026-04-04T15:03:10.586Z</time></trkpt><trkpt lat="45.1612823" lon="8.3319538"><ele>123.0</ele><time>2026-04-04T15:03:11.586Z</time></trkpt><trkpt lat="45.1613943" lon="8.3319602"><ele>123.0</ele><time>2026-04-04T15:03:12.587Z</time></trkpt><trkpt lat="45.1615065" lon="8.3319647"><ele>123.00000000000001</ele><time>2026-04-04T15:03:13.586Z</time></trkpt><trkpt lat="45.1616173" lon="8.3319686"><ele>123.00000000000001</ele><time>2026-04-04T15:03:14.587Z</time></trkpt><trkpt lat="45.1617267" lon="8.3319726"><ele>123.0</ele><time>2026-04-04T15:03:15.586Z</time></trkpt><trkpt lat="45.1618353" lon="8.3319764"><ele>123.0</ele><time>2026-04-04T15:03:16.588Z</time></trkpt><trkpt lat="45.1619447" lon="8.331983"><ele>123.2</ele><time>2026-04-04T15:03:17.588Z</time></trkpt><trkpt lat="45.162055" lon="8.3319924"><ele>123.4</ele><time>2026-04-04T15:03:18.587Z</time></trkpt><trkpt lat="45.1621644" lon="8.3319988"><ele>123.60000000000001</ele><time>2026-04-04T15:03:19.588Z</time></trkpt><trkpt lat="45.1622742" lon="8.3320017"><ele>123.80000000000001</ele><time>2026-04-04T15:03:20.588Z</time></trkpt><trkpt lat="45.1623847" lon="8.3320041"><ele>124.0</ele><time>2026-04-04T15:03:21.588Z</time></trkpt><trkpt lat="45.1624954" lon="8.3320064"><ele>124.0</ele><time>2026-04-04T15:03:22.588Z</time></trkpt><trkpt lat="45.1626056" lon="8.3320107"><ele>124.0</ele><time>2026-04-04T15:03:23.587Z</time></trkpt><trkpt lat="45.1627151" lon="8.332017"><ele>124.0</ele><time>2026-04-04T15:03:24.588Z</time></trkpt><trkpt lat="45.1628231" lon="8.3320239"><ele>124.0</ele><time>2026-04-04T15:03:25.587Z</time></trkpt><trkpt lat="45.1629292" lon="8.3320322"><ele>124.0</ele><time>2026-04-04T15:03:26.588Z</time></trkpt><trkpt lat="45.1630374" lon="8.3320373"><ele>124.0</ele><time>2026-04-04T15:03:27.587Z</time></trkpt><trkpt lat="45.1631452" lon="8.3320429"><ele>124.0</ele><time>2026-04-04T15:03:28.588Z</time></trkpt><trkpt lat="45.1632544" lon="8.3320466"><ele>124.0</ele><time>2026-04-04T15:03:29.587Z</time></trkpt><trkpt lat="45.1633631" lon="8.3320492"><ele>124.0</ele><time>2026-04-04T15:03:30.587Z</time></trkpt><trkpt lat="45.1634681" lon="8.3320552"><ele>124.0</ele><time>2026-04-04T15:03:31.587Z</time></trkpt><trkpt lat="45.1635754" lon="8.3320591"><ele>124.0</ele><time>2026-04-04T15:03:32.587Z</time></trkpt><trkpt lat="45.1636838" lon="8.3320627"><ele>124.0</ele><time>2026-04-04T15:03:33.587Z</time></trkpt><trkpt lat="45.1637915" lon="8.3320667"><ele>124.0</ele><time>2026-04-04T15:03:34.588Z</time></trkpt><trkpt lat="45.1638981" lon="8.3320705"><ele>124.0</ele><time>2026-04-04T15:03:35.588Z</time></trkpt><trkpt lat="45.1640046" lon="8.3320742"><ele>124.0</ele><time>2026-04-04T15:03:36.587Z</time></trkpt><trkpt lat="45.1641113" lon="8.3320769"><ele>124.0</ele><time>2026-04-04T15:03:37.587Z</time></trkpt><trkpt lat="45.164218" lon="8.33208"><ele>124.0</ele><time>2026-04-04T15:03:38.588Z</time></trkpt><trkpt lat="45.1643249" lon="8.332084"><ele>124.0</ele><time>2026-04-04T15:03:39.588Z</time></trkpt><trkpt lat="45.1644307" lon="8.3320883"><ele>124.0</ele><time>2026-04-04T15:03:40.588Z</time></trkpt><trkpt lat="45.1645356" lon="8.3320942"><ele>124.0</ele><time>2026-04-04T15:03:41.588Z</time></trkpt><trkpt lat="45.1646409" lon="8.3320998"><ele>124.0</ele><time>2026-04-04T15:03:42.588Z</time></trkpt><trkpt lat="45.1647472" lon="8.3321054"><ele>124.0</ele><time>2026-04-04T15:03:43.588Z</time></trkpt><trkpt lat="45.1648538" lon="8.3321101"><ele>124.0</ele><time>2026-04-04T15:03:44.588Z</time></trkpt><trkpt lat="45.1649614" lon="8.3321136"><ele>124.0</ele><time>2026-04-04T15:03:45.587Z</time></trkpt><trkpt lat="45.1650691" lon="8.3321169"><ele>124.0</ele><time>2026-04-04T15:03:46.587Z</time></trkpt><trkpt lat="45.1651753" lon="8.3321221"><ele>124.0</ele><time>2026-04-04T15:03:47.587Z</time></trkpt><trkpt lat="45.1652817" lon="8.332126"><ele>124.0</ele><time>2026-04-04T15:03:48.588Z</time></trkpt><trkpt lat="45.1653892" lon="8.3321315"><ele>124.0</ele><time>2026-04-04T15:03:49.587Z</time></trkpt><trkpt lat="45.1654981" lon="8.3321359"><ele>124.0</ele><time>2026-04-04T15:03:50.588Z</time></trkpt><trkpt lat="45.1656048" lon="8.3321393"><ele>124.0</ele><time>2026-04-04T15:03:51.588Z</time></trkpt><trkpt lat="45.1657131" lon="8.3321417"><ele>124.0</ele><time>2026-04-04T15:03:52.587Z</time></trkpt><trkpt lat="45.1658196" lon="8.3321463"><ele>124.0</ele><time>2026-04-04T15:03:53.587Z</time></trkpt><trkpt lat="45.1659263" lon="8.332153"><ele>124.0</ele><time>2026-04-04T15:03:54.587Z</time></trkpt><trkpt lat="45.1660309" lon="8.3321591"><ele>124.0</ele><time>2026-04-04T15:03:55.588Z</time></trkpt><trkpt lat="45.1661366" lon="8.3321638"><ele>124.0</ele><time>2026-04-04T15:03:56.588Z</time></trkpt><trkpt lat="45.1662443" lon="8.3321683"><ele>124.0</ele><time>2026-04-04T15:03:57.588Z</time></trkpt><trkpt lat="45.1663553" lon="8.3321738"><ele>124.0</ele><time>2026-04-04T15:03:58.588Z</time></trkpt><trkpt lat="45.1664691" lon="8.3321794"><ele>124.0</ele><time>2026-04-04T15:03:59.588Z</time></trkpt><trkpt lat="45.1665807" lon="8.332185"><ele>124.0</ele><time>2026-04-04T15:04:00.588Z</time></trkpt><trkpt lat="45.1666901" lon="8.3321908"><ele>124.0</ele><time>2026-04-04T15:04:01.588Z</time></trkpt><trkpt lat="45.1667987" lon="8.3321953"><ele>124.2</ele><time>2026-04-04T15:04:02.588Z</time></trkpt><trkpt lat="45.1669068" lon="8.3321999"><ele>124.4</ele><time>2026-04-04T15:04:03.588Z</time></trkpt><trkpt lat="45.1670146" lon="8.3322052"><ele>124.6</ele><time>2026-04-04T15:04:04.588Z</time></trkpt><trkpt lat="45.1671226" lon="8.3322107"><ele>124.8</ele><time>2026-04-04T15:04:05.588Z</time></trkpt><trkpt lat="45.1672287" lon="8.332216"><ele>125.0</ele><time>2026-04-04T15:04:06.588Z</time></trkpt><trkpt lat="45.1673337" lon="8.33222"><ele>124.6</ele><time>2026-04-04T15:04:07.588Z</time></trkpt><trkpt lat="45.1674397" lon="8.3322256"><ele>124.2</ele><time>2026-04-04T15:04:08.588Z</time></trkpt><trkpt lat="45.1675458" lon="8.3322314"><ele>123.80000000000001</ele><time>2026-04-04T15:04:09.589Z</time></trkpt><trkpt lat="45.1676517" lon="8.3322363"><ele>123.4</ele><time>2026-04-04T15:04:10.588Z</time></trkpt><trkpt lat="45.167758" lon="8.3322397"><ele>123.0</ele><time>2026-04-04T15:04:11.588Z</time></trkpt><trkpt lat="45.1678623" lon="8.3322461"><ele>123.0</ele><time>2026-04-04T15:04:12.589Z</time></trkpt><trkpt lat="45.1679651" lon="8.3322521"><ele>123.00000000000001</ele><time>2026-04-04T15:04:13.588Z</time></trkpt><trkpt lat="45.1680647" lon="8.3322567"><ele>123.00000000000001</ele><time>2026-04-04T15:04:14.588Z</time></trkpt><trkpt lat="45.1681645" lon="8.3322601"><ele>123.0</ele><time>2026-04-04T15:04:15.588Z</time></trkpt><trkpt lat="45.1682635" lon="8.3322628"><ele>123.0</ele><time>2026-04-04T15:04:16.588Z</time></trkpt><trkpt lat="45.1683633" lon="8.3322664"><ele>123.4</ele><time>2026-04-04T15:04:17.588Z</time></trkpt><trkpt lat="45.1684637" lon="8.3322698"><ele>123.80000000000001</ele><time>2026-04-04T15:04:18.588Z</time></trkpt><trkpt lat="45.1685658" lon="8.332273"><ele>124.2</ele><time>2026-04-04T15:04:19.589Z</time></trkpt><trkpt lat="45.1686643" lon="8.3322795"><ele>124.6</ele><time>2026-04-04T15:04:20.588Z</time></trkpt><trkpt lat="45.1687642" lon="8.3322836"><ele>125.0</ele><time>2026-04-04T15:04:21.588Z</time></trkpt><trkpt lat="45.1688675" lon="8.3322881"><ele>125.0</ele><time>2026-04-04T15:04:22.589Z</time></trkpt><trkpt lat="45.1689722" lon="8.3322936"><ele>125.0</ele><time>2026-04-04T15:04:23.589Z</time></trkpt><trkpt lat="45.1690781" lon="8.3322991"><ele>125.0</ele><time>2026-04-04T15:04:24.588Z</time></trkpt><trkpt lat="45.1691866" lon="8.3323021"><ele>125.0</ele><time>2026-04-04T15:04:25.588Z</time></trkpt><trkpt lat="45.1692934" lon="8.3323052"><ele>125.0</ele><time>2026-04-04T15:04:26.588Z</time></trkpt><trkpt lat="45.1694001" lon="8.33231"><ele>125.2</ele><time>2026-04-04T15:04:27.588Z</time></trkpt><trkpt lat="45.1695053" lon="8.3323146"><ele>125.4</ele><time>2026-04-04T15:04:28.588Z</time></trkpt><trkpt lat="45.16961" lon="8.3323196"><ele>125.6</ele><time>2026-04-04T15:04:29.589Z</time></trkpt><trkpt lat="45.169713" lon="8.332325"><ele>125.8</ele><time>2026-04-04T15:04:30.588Z</time></trkpt><trkpt lat="45.1698116" lon="8.3323317"><ele>126.0</ele><time>2026-04-04T15:04:31.589Z</time></trkpt><trkpt lat="45.1699153" lon="8.3323373"><ele>126.0</ele><time>2026-04-04T15:04:32.589Z</time></trkpt><trkpt lat="45.170018" lon="8.33234"><ele>126.0</ele><time>2026-04-04T15:04:33.589Z</time></trkpt><trkpt lat="45.1701223" lon="8.3323452"><ele>126.0</ele><time>2026-04-04T15:04:34.589Z</time></trkpt><trkpt lat="45.170233" lon="8.3323497"><ele>126.0</ele><time>2026-04-04T15:04:35.589Z</time></trkpt><trkpt lat="45.1703356" lon="8.332358"><ele>126.0</ele><time>2026-04-04T15:04:36.588Z</time></trkpt><trkpt lat="45.1704374" lon="8.332363"><ele>126.0</ele><time>2026-04-04T15:04:37.589Z</time></trkpt><trkpt lat="45.1705472" lon="8.332367"><ele>126.0</ele><time>2026-04-04T15:04:38.588Z</time></trkpt><trkpt lat="45.1706557" lon="8.3323739"><ele>126.0</ele><time>2026-04-04T15:04:39.589Z</time></trkpt><trkpt lat="45.1707629" lon="8.3323759"><ele>126.0</ele><time>2026-04-04T15:04:40.589Z</time></trkpt><trkpt lat="45.1708662" lon="8.3323791"><ele>126.0</ele><time>2026-04-04T15:04:41.588Z</time></trkpt><trkpt lat="45.1709656" lon="8.3323834"><ele>125.6</ele><time>2026-04-04T15:04:42.589Z</time></trkpt><trkpt lat="45.1710656" lon="8.3323851"><ele>125.19999999999999</ele><time>2026-04-04T15:04:43.588Z</time></trkpt><trkpt lat="45.1711645" lon="8.3323915"><ele>124.80000000000001</ele><time>2026-04-04T15:04:44.588Z</time></trkpt><trkpt lat="45.1712639" lon="8.332395"><ele>124.4</ele><time>2026-04-04T15:04:45.589Z</time></trkpt><trkpt lat="45.1713626" lon="8.3323978"><ele>124.0</ele><time>2026-04-04T15:04:46.588Z</time></trkpt><trkpt lat="45.1714601" lon="8.3324016"><ele>124.0</ele><time>2026-04-04T15:04:47.59Z</time></trkpt><trkpt lat="45.1715578" lon="8.3324066"><ele>124.0</ele><time>2026-04-04T15:04:48.589Z</time></trkpt><trkpt lat="45.1716552" lon="8.3324099"><ele>124.0</ele><time>2026-04-04T15:04:49.59Z</time></trkpt><trkpt lat="45.1717548" lon="8.3324144"><ele>124.0</ele><time>2026-04-04T15:04:50.59Z</time></trkpt><trkpt lat="45.1718518" lon="8.3324187"><ele>124.0</ele><time>2026-04-04T15:04:51.589Z</time></trkpt><trkpt lat="45.1719486" lon="8.3324223"><ele>124.0</ele><time>2026-04-04T15:04:52.589Z</time></trkpt><trkpt lat="45.172047" lon="8.3324254"><ele>124.0</ele><time>2026-04-04T15:04:53.59Z</time></trkpt><trkpt lat="45.1721444" lon="8.3324317"><ele>124.0</ele><time>2026-04-04T15:04:54.589Z</time></trkpt><trkpt lat="45.1722431" lon="8.3324364"><ele>124.0</ele><time>2026-04-04T15:04:55.59Z</time></trkpt><trkpt lat="45.1723421" lon="8.3324409"><ele>124.0</ele><time>2026-04-04T15:04:56.59Z</time></trkpt><trkpt lat="45.1724416" lon="8.3324451"><ele>124.0</ele><time>2026-04-04T15:04:57.589Z</time></trkpt><trkpt lat="45.1725423" lon="8.3324486"><ele>124.0</ele><time>2026-04-04T15:04:58.589Z</time></trkpt><trkpt lat="45.1726419" lon="8.3324527"><ele>124.0</ele><time>2026-04-04T15:04:59.59Z</time></trkpt><trkpt lat="45.172742" lon="8.3324583"><ele>124.0</ele><time>2026-04-04T15:05:00.589Z</time></trkpt><trkpt lat="45.1728428" lon="8.3324616"><ele>124.0</ele><time>2026-04-04T15:05:01.589Z</time></trkpt><trkpt lat="45.1729452" lon="8.3324651"><ele>124.0</ele><time>2026-04-04T15:05:02.589Z</time></trkpt><trkpt lat="45.1730476" lon="8.3324709"><ele>124.0</ele><time>2026-04-04T15:05:03.589Z</time></trkpt><trkpt lat="45.1731496" lon="8.3324831"><ele>124.0</ele><time>2026-04-04T15:05:04.59Z</time></trkpt><trkpt lat="45.1732494" lon="8.3324958"><ele>124.0</ele><time>2026-04-04T15:05:05.59Z</time></trkpt><trkpt lat="45.1733493" lon="8.3325089"><ele>124.0</ele><time>2026-04-04T15:05:06.59Z</time></trkpt><trkpt lat="45.1734515" lon="8.3325108"><ele>124.2</ele><time>2026-04-04T15:05:07.589Z</time></trkpt><trkpt lat="45.1735523" lon="8.3325174"><ele>124.4</ele><time>2026-04-04T15:05:08.589Z</time></trkpt><trkpt lat="45.1736604" lon="8.3325224"><ele>124.6</ele><time>2026-04-04T15:05:09.589Z</time></trkpt><trkpt lat="45.1737624" lon="8.3325312"><ele>124.8</ele><time>2026-04-04T15:05:10.589Z</time></trkpt><trkpt lat="45.1738626" lon="8.3325436"><ele>125.0</ele><time>2026-04-04T15:05:11.59Z</time></trkpt><trkpt lat="45.1739615" lon="8.3325535"><ele>124.8</ele><time>2026-04-04T15:05:12.59Z</time></trkpt><trkpt lat="45.1740584" lon="8.3325594"><ele>124.6</ele><time>2026-04-04T15:05:13.59Z</time></trkpt><trkpt lat="45.1741564" lon="8.332563"><ele>124.4</ele><time>2026-04-04T15:05:14.589Z</time></trkpt><trkpt lat="45.1742547" lon="8.3325675"><ele>124.2</ele><time>2026-04-04T15:05:15.59Z</time></trkpt><trkpt lat="45.1743517" lon="8.3325736"><ele>124.0</ele><time>2026-04-04T15:05:16.59Z</time></trkpt><trkpt lat="45.1744496" lon="8.3325814"><ele>124.0</ele><time>2026-04-04T15:05:17.589Z</time></trkpt><trkpt lat="45.1745477" lon="8.3325953"><ele>124.0</ele><time>2026-04-04T15:05:18.59Z</time></trkpt><trkpt lat="45.1746434" lon="8.3326202"><ele>124.0</ele><time>2026-04-04T15:05:19.59Z</time></trkpt><trkpt lat="45.1747355" lon="8.3326656"><ele>124.0</ele><time>2026-04-04T15:05:20.589Z</time></trkpt><trkpt lat="45.1748239" lon="8.3327317"><ele>124.0</ele><time>2026-04-04T15:05:21.589Z</time></trkpt><trkpt lat="45.174908" lon="8.3328129"><ele>124.0</ele><time>2026-04-04T15:05:22.589Z</time></trkpt><trkpt lat="45.1749892" lon="8.3329072"><ele>124.0</ele><time>2026-04-04T15:05:23.59Z</time></trkpt><trkpt lat="45.1750581" lon="8.3330114"><ele>124.0</ele><time>2026-04-04T15:05:24.59Z</time></trkpt><trkpt lat="45.1751204" lon="8.3331242"><ele>124.0</ele><time>2026-04-04T15:05:25.589Z</time></trkpt><trkpt lat="45.1751788" lon="8.3332424"><ele>124.0</ele><time>2026-04-04T15:05:26.59Z</time></trkpt><trkpt lat="45.1752297" lon="8.3333627"><ele>124.0</ele><time>2026-04-04T15:05:27.59Z</time></trkpt><trkpt lat="45.1752723" lon="8.333491"><ele>124.0</ele><time>2026-04-04T15:05:28.589Z</time></trkpt><trkpt lat="45.1753041" lon="8.3336296"><ele>124.0</ele><time>2026-04-04T15:05:29.59Z</time></trkpt><trkpt lat="45.1753273" lon="8.3337755"><ele>124.0</ele><time>2026-04-04T15:05:30.59Z</time></trkpt><trkpt lat="45.1753445" lon="8.333925"><ele>124.0</ele><time>2026-04-04T15:05:31.591Z</time></trkpt><trkpt lat="45.1753615" lon="8.3340654"><ele>124.0</ele><time>2026-04-04T15:05:32.59Z</time></trkpt><trkpt lat="45.1753808" lon="8.3342047"><ele>124.0</ele><time>2026-04-04T15:05:33.59Z</time></trkpt><trkpt lat="45.1753998" lon="8.3343421"><ele>124.0</ele><time>2026-04-04T15:05:34.59Z</time></trkpt><trkpt lat="45.1754168" lon="8.3344811"><ele>124.0</ele><time>2026-04-04T15:05:35.591Z</time></trkpt><trkpt lat="45.1754282" lon="8.3346156"><ele>124.0</ele><time>2026-04-04T15:05:36.591Z</time></trkpt><trkpt lat="45.1754371" lon="8.3347506"><ele>124.0</ele><time>2026-04-04T15:05:37.591Z</time></trkpt><trkpt lat="45.1754473" lon="8.3348921"><ele>124.0</ele><time>2026-04-04T15:05:38.59Z</time></trkpt><trkpt lat="45.1754529" lon="8.3350315"><ele>124.0</ele><time>2026-04-04T15:05:39.59Z</time></trkpt><trkpt lat="45.1754489" lon="8.3351687"><ele>124.0</ele><time>2026-04-04T15:05:40.59Z</time></trkpt><trkpt lat="45.1754357" lon="8.3353066"><ele>124.0</ele><time>2026-04-04T15:05:41.59Z</time></trkpt><trkpt lat="45.1754156" lon="8.3354411"><ele>124.0</ele><time>2026-04-04T15:05:42.59Z</time></trkpt><trkpt lat="45.1753911" lon="8.335569"><ele>124.0</ele><time>2026-04-04T15:05:43.59Z</time></trkpt><trkpt lat="45.1753633" lon="8.3356964"><ele>124.0</ele><time>2026-04-04T15:05:44.591Z</time></trkpt><trkpt lat="45.175329" lon="8.3358209"><ele>124.0</ele><time>2026-04-04T15:05:45.59Z</time></trkpt><trkpt lat="45.1752883" lon="8.3359422"><ele>124.0</ele><time>2026-04-04T15:05:46.591Z</time></trkpt><trkpt lat="45.1752419" lon="8.3360602"><ele>124.0</ele><time>2026-04-04T15:05:47.59Z</time></trkpt><trkpt lat="45.17519" lon="8.3361792"><ele>124.0</ele><time>2026-04-04T15:05:48.591Z</time></trkpt><trkpt lat="45.1751367" lon="8.3362944"><ele>124.0</ele><time>2026-04-04T15:05:49.59Z</time></trkpt><trkpt lat="45.1750825" lon="8.3364065"><ele>124.0</ele><time>2026-04-04T15:05:50.59Z</time></trkpt><trkpt lat="45.1750288" lon="8.3365246"><ele>124.0</ele><time>2026-04-04T15:05:51.591Z</time></trkpt><trkpt lat="45.1749743" lon="8.336643"><ele>124.0</ele><time>2026-04-04T15:05:52.591Z</time></trkpt><trkpt lat="45.1749197" lon="8.3367603"><ele>124.0</ele><time>2026-04-04T15:05:53.591Z</time></trkpt><trkpt lat="45.1748659" lon="8.3368772"><ele>124.0</ele><time>2026-04-04T15:05:54.59Z</time></trkpt><trkpt lat="45.1748119" lon="8.3369939"><ele>124.0</ele><time>2026-04-04T15:05:55.591Z</time></trkpt><trkpt lat="45.1747571" lon="8.3371089"><ele>124.0</ele><time>2026-04-04T15:05:56.591Z</time></trkpt><trkpt lat="45.1747034" lon="8.3372245"><ele>124.2</ele><time>2026-04-04T15:05:57.59Z</time></trkpt><trkpt lat="45.1746514" lon="8.3373441"><ele>124.4</ele><time>2026-04-04T15:05:58.591Z</time></trkpt><trkpt lat="45.1745989" lon="8.3374638"><ele>124.6</ele><time>2026-04-04T15:05:59.591Z</time></trkpt><trkpt lat="45.1745463" lon="8.3375844"><ele>124.8</ele><time>2026-04-04T15:06:00.591Z</time></trkpt><trkpt lat="45.1744936" lon="8.3377066"><ele>125.0</ele><time>2026-04-04T15:06:01.59Z</time></trkpt><trkpt lat="45.1744402" lon="8.3378256"><ele>125.0</ele><time>2026-04-04T15:06:02.591Z</time></trkpt><trkpt lat="45.1743814" lon="8.3379393"><ele>125.0</ele><time>2026-04-04T15:06:03.591Z</time></trkpt><trkpt lat="45.1743185" lon="8.3380501"><ele>125.0</ele><time>2026-04-04T15:06:04.59Z</time></trkpt><trkpt lat="45.1742569" lon="8.3381623"><ele>125.0</ele><time>2026-04-04T15:06:05.59Z</time></trkpt><trkpt lat="45.1741971" lon="8.3382749"><ele>125.0</ele><time>2026-04-04T15:06:06.59Z</time></trkpt><trkpt lat="45.1741375" lon="8.3383881"><ele>124.8</ele><time>2026-04-04T15:06:07.59Z</time></trkpt><trkpt lat="45.1740777" lon="8.3385017"><ele>124.6</ele><time>2026-04-04T15:06:08.591Z</time></trkpt><trkpt lat="45.1740173" lon="8.3386177"><ele>124.4</ele><time>2026-04-04T15:06:09.591Z</time></trkpt><trkpt lat="45.1739548" lon="8.3387326"><ele>124.2</ele><time>2026-04-04T15:06:10.59Z</time></trkpt><trkpt lat="45.1738919" lon="8.3388466"><ele>124.0</ele><time>2026-04-04T15:06:11.591Z</time></trkpt><trkpt lat="45.1738293" lon="8.338964"><ele>123.80000000000001</ele><time>2026-04-04T15:06:12.591Z</time></trkpt><trkpt lat="45.1737691" lon="8.3390814"><ele>123.60000000000001</ele><time>2026-04-04T15:06:13.59Z</time></trkpt><trkpt lat="45.1737094" lon="8.3392012"><ele>123.4</ele><time>2026-04-04T15:06:14.591Z</time></trkpt><trkpt lat="45.1736507" lon="8.3393202"><ele>123.2</ele><time>2026-04-04T15:06:15.59Z</time></trkpt><trkpt lat="45.173592" lon="8.3394387"><ele>123.0</ele><time>2026-04-04T15:06:16.59Z</time></trkpt><trkpt lat="45.1735327" lon="8.3395578"><ele>123.0</ele><time>2026-04-04T15:06:17.592Z</time></trkpt><trkpt lat="45.1734726" lon="8.3396775"><ele>123.00000000000001</ele><time>2026-04-04T15:06:18.591Z</time></trkpt><trkpt lat="45.1734108" lon="8.3397977"><ele>123.00000000000001</ele><time>2026-04-04T15:06:19.592Z</time></trkpt><trkpt lat="45.1733474" lon="8.3399173"><ele>123.0</ele><time>2026-04-04T15:06:20.591Z</time></trkpt><trkpt lat="45.1732854" lon="8.3400361"><ele>123.0</ele><time>2026-04-04T15:06:21.591Z</time></trkpt><trkpt lat="45.1732241" lon="8.3401552"><ele>123.0</ele><time>2026-04-04T15:06:22.592Z</time></trkpt><trkpt lat="45.1731631" lon="8.3402746"><ele>123.00000000000001</ele><time>2026-04-04T15:06:23.592Z</time></trkpt><trkpt lat="45.1731018" lon="8.3403944"><ele>123.00000000000001</ele><time>2026-04-04T15:06:24.591Z</time></trkpt><trkpt lat="45.1730395" lon="8.3405141"><ele>123.0</ele><time>2026-04-04T15:06:25.592Z</time></trkpt><trkpt lat="45.1729784" lon="8.3406322"><ele>123.0</ele><time>2026-04-04T15:06:26.592Z</time></trkpt><trkpt lat="45.1729179" lon="8.3407491"><ele>122.80000000000001</ele><time>2026-04-04T15:06:27.592Z</time></trkpt><trkpt lat="45.1728578" lon="8.3408669"><ele>122.60000000000001</ele><time>2026-04-04T15:06:28.591Z</time></trkpt><trkpt lat="45.1727975" lon="8.3409851"><ele>122.39999999999999</ele><time>2026-04-04T15:06:29.591Z</time></trkpt><trkpt lat="45.1727369" lon="8.3411007"><ele>122.19999999999999</ele><time>2026-04-04T15:06:30.592Z</time></trkpt><trkpt lat="45.1726774" lon="8.3412134"><ele>122.0</ele><time>2026-04-04T15:06:31.591Z</time></trkpt><trkpt lat="45.1726195" lon="8.3413266"><ele>122.0</ele><time>2026-04-04T15:06:32.592Z</time></trkpt><trkpt lat="45.1725621" lon="8.3414412"><ele>121.99999999999999</ele><time>2026-04-04T15:06:33.592Z</time></trkpt><trkpt lat="45.1725032" lon="8.3415574"><ele>121.99999999999999</ele><time>2026-04-04T15:06:34.591Z</time></trkpt><trkpt lat="45.172443" lon="8.3416733"><ele>122.0</ele><time>2026-04-04T15:06:35.592Z</time></trkpt><trkpt lat="45.1723829" lon="8.341789"><ele>122.0</ele><time>2026-04-04T15:06:36.591Z</time></trkpt><trkpt lat="45.1723231" lon="8.3419053"><ele>122.0</ele><time>2026-04-04T15:06:37.592Z</time></trkpt><trkpt lat="45.1722643" lon="8.3420212"><ele>121.99999999999999</ele><time>2026-04-04T15:06:38.592Z</time></trkpt><trkpt lat="45.1722064" lon="8.3421374"><ele>121.99999999999999</ele><time>2026-04-04T15:06:39.592Z</time></trkpt><trkpt lat="45.1721508" lon="8.342251"><ele>122.0</ele><time>2026-04-04T15:06:40.592Z</time></trkpt><trkpt lat="45.1720956" lon="8.3423664"><ele>122.0</ele><time>2026-04-04T15:06:41.592Z</time></trkpt><trkpt lat="45.1720405" lon="8.3424843"><ele>122.0</ele><time>2026-04-04T15:06:42.592Z</time></trkpt><trkpt lat="45.1719863" lon="8.3426008"><ele>121.99999999999999</ele><time>2026-04-04T15:06:43.592Z</time></trkpt><trkpt lat="45.1719296" lon="8.3427171"><ele>121.99999999999999</ele><time>2026-04-04T15:06:44.591Z</time></trkpt><trkpt lat="45.1718738" lon="8.3428352"><ele>122.0</ele><time>2026-04-04T15:06:45.592Z</time></trkpt><trkpt lat="45.1718203" lon="8.3429548"><ele>122.0</ele><time>2026-04-04T15:06:46.592Z</time></trkpt><trkpt lat="45.1717682" lon="8.3430791"><ele>122.19999999999999</ele><time>2026-04-04T15:06:47.592Z</time></trkpt><trkpt lat="45.1717181" lon="8.3432073"><ele>122.39999999999999</ele><time>2026-04-04T15:06:48.592Z</time></trkpt><trkpt lat="45.1716686" lon="8.3433383"><ele>122.60000000000001</ele><time>2026-04-04T15:06:49.592Z</time></trkpt><trkpt lat="45.1716205" lon="8.3434716"><ele>122.80000000000001</ele><time>2026-04-04T15:06:50.592Z</time></trkpt><trkpt lat="45.1715744" lon="8.3436067"><ele>123.0</ele><time>2026-04-04T15:06:51.592Z</time></trkpt><trkpt lat="45.1715295" lon="8.3437426"><ele>123.0</ele><time>2026-04-04T15:06:52.591Z</time></trkpt><trkpt lat="45.1714865" lon="8.3438768"><ele>123.00000000000001</ele><time>2026-04-04T15:06:53.592Z</time></trkpt><trkpt lat="45.1714453" lon="8.3440126"><ele>123.00000000000001</ele><time>2026-04-04T15:06:54.591Z</time></trkpt><trkpt lat="45.1714061" lon="8.3441487"><ele>123.0</ele><time>2026-04-04T15:06:55.592Z</time></trkpt><trkpt lat="45.1713685" lon="8.3442874"><ele>123.0</ele><time>2026-04-04T15:06:56.592Z</time></trkpt><trkpt lat="45.1713324" lon="8.3444283"><ele>123.0</ele><time>2026-04-04T15:06:57.591Z</time></trkpt><trkpt lat="45.1712954" lon="8.3445692"><ele>123.00000000000001</ele><time>2026-04-04T15:06:58.591Z</time></trkpt><trkpt lat="45.1712589" lon="8.3447061"><ele>123.00000000000001</ele><time>2026-04-04T15:06:59.591Z</time></trkpt><trkpt lat="45.1712221" lon="8.3448424"><ele>123.0</ele><time>2026-04-04T15:07:00.591Z</time></trkpt><trkpt lat="45.1711859" lon="8.3449769"><ele>123.0</ele><time>2026-04-04T15:07:01.592Z</time></trkpt><trkpt lat="45.1711493" lon="8.3451133"><ele>123.4</ele><time>2026-04-04T15:07:02.592Z</time></trkpt><trkpt lat="45.1711131" lon="8.3452492"><ele>123.80000000000001</ele><time>2026-04-04T15:07:03.592Z</time></trkpt><trkpt lat="45.1710773" lon="8.3453845"><ele>124.2</ele><time>2026-04-04T15:07:04.592Z</time></trkpt><trkpt lat="45.1710413" lon="8.3455214"><ele>124.6</ele><time>2026-04-04T15:07:05.592Z</time></trkpt><trkpt lat="45.1710049" lon="8.3456574"><ele>125.0</ele><time>2026-04-04T15:07:06.592Z</time></trkpt><trkpt lat="45.1709687" lon="8.3457944"><ele>125.0</ele><time>2026-04-04T15:07:07.593Z</time></trkpt><trkpt lat="45.1709331" lon="8.3459332"><ele>125.0</ele><time>2026-04-04T15:07:08.592Z</time></trkpt><trkpt lat="45.1708979" lon="8.346069"><ele>125.0</ele><time>2026-04-04T15:07:09.592Z</time></trkpt><trkpt lat="45.1708627" lon="8.3462054"><ele>125.0</ele><time>2026-04-04T15:07:10.593Z</time></trkpt><trkpt lat="45.1708264" lon="8.3463424"><ele>125.0</ele><time>2026-04-04T15:07:11.592Z</time></trkpt><trkpt lat="45.17079" lon="8.3464814"><ele>124.8</ele><time>2026-04-04T15:07:12.592Z</time></trkpt><trkpt lat="45.1707542" lon="8.3466204"><ele>124.6</ele><time>2026-04-04T15:07:13.593Z</time></trkpt><trkpt lat="45.1707185" lon="8.3467599"><ele>124.4</ele><time>2026-04-04T15:07:14.593Z</time></trkpt><trkpt lat="45.1706828" lon="8.3468974"><ele>124.2</ele><time>2026-04-04T15:07:15.592Z</time></trkpt><trkpt lat="45.1706472" lon="8.3470367"><ele>124.0</ele><time>2026-04-04T15:07:16.592Z</time></trkpt><trkpt lat="45.1706098" lon="8.3471761"><ele>123.6</ele><time>2026-04-04T15:07:17.592Z</time></trkpt><trkpt lat="45.1705723" lon="8.3473136"><ele>123.2</ele><time>2026-04-04T15:07:18.593Z</time></trkpt><trkpt lat="45.1705352" lon="8.347447"><ele>122.79999999999998</ele><time>2026-04-04T15:07:19.592Z</time></trkpt><trkpt lat="45.1704982" lon="8.3475794"><ele>122.39999999999999</ele><time>2026-04-04T15:07:20.593Z</time></trkpt><trkpt lat="45.1704629" lon="8.3477138"><ele>122.0</ele><time>2026-04-04T15:07:21.592Z</time></trkpt><trkpt lat="45.170428" lon="8.3478506"><ele>122.0</ele><time>2026-04-04T15:07:22.592Z</time></trkpt><trkpt lat="45.1703925" lon="8.347986"><ele>121.99999999999999</ele><time>2026-04-04T15:07:23.592Z</time></trkpt><trkpt lat="45.1703562" lon="8.3481214"><ele>121.99999999999999</ele><time>2026-04-04T15:07:24.593Z</time></trkpt><trkpt lat="45.1703188" lon="8.3482547"><ele>122.0</ele><time>2026-04-04T15:07:25.593Z</time></trkpt><trkpt lat="45.1702834" lon="8.3483878"><ele>122.0</ele><time>2026-04-04T15:07:26.592Z</time></trkpt><trkpt lat="45.170248" lon="8.348521"><ele>121.8</ele><time>2026-04-04T15:07:27.593Z</time></trkpt><trkpt lat="45.1702113" lon="8.348655"><ele>121.6</ele><time>2026-04-04T15:07:28.592Z</time></trkpt><trkpt lat="45.1701746" lon="8.3487886"><ele>121.39999999999999</ele><time>2026-04-04T15:07:29.592Z</time></trkpt><trkpt lat="45.1701386" lon="8.3489199"><ele>121.19999999999999</ele><time>2026-04-04T15:07:30.593Z</time></trkpt><trkpt lat="45.1701024" lon="8.3490531"><ele>121.0</ele><time>2026-04-04T15:07:31.593Z</time></trkpt><trkpt lat="45.1700664" lon="8.3491869"><ele>121.0</ele><time>2026-04-04T15:07:32.593Z</time></trkpt><trkpt lat="45.1700311" lon="8.3493198"><ele>121.0</ele><time>2026-04-04T15:07:33.593Z</time></trkpt><trkpt lat="45.1699959" lon="8.3494552"><ele>121.0</ele><time>2026-04-04T15:07:34.593Z</time></trkpt><trkpt lat="45.169961" lon="8.3495898"><ele>121.0</ele><time>2026-04-04T15:07:35.593Z</time></trkpt><trkpt lat="45.1699255" lon="8.3497272"><ele>121.0</ele><time>2026-04-04T15:07:36.592Z</time></trkpt><trkpt lat="45.1698892" lon="8.3498628"><ele>120.8</ele><time>2026-04-04T15:07:37.593Z</time></trkpt><trkpt lat="45.1698535" lon="8.3499959"><ele>120.6</ele><time>2026-04-04T15:07:38.593Z</time></trkpt><trkpt lat="45.1698171" lon="8.3501285"><ele>120.4</ele><time>2026-04-04T15:07:39.592Z</time></trkpt><trkpt lat="45.1697798" lon="8.3502609"><ele>120.2</ele><time>2026-04-04T15:07:40.592Z</time></trkpt><trkpt lat="45.1697443" lon="8.3503904"><ele>120.0</ele><time>2026-04-04T15:07:41.593Z</time></trkpt><trkpt lat="45.1697116" lon="8.3505208"><ele>120.0</ele><time>2026-04-04T15:07:42.592Z</time></trkpt><trkpt lat="45.1696806" lon="8.3506515"><ele>120.0</ele><time>2026-04-04T15:07:43.592Z</time></trkpt><trkpt lat="45.1696466" lon="8.3507824"><ele>120.0</ele><time>2026-04-04T15:07:44.592Z</time></trkpt><trkpt lat="45.1696079" lon="8.3509172"><ele>120.0</ele><time>2026-04-04T15:07:45.592Z</time></trkpt><trkpt lat="45.1695704" lon="8.3510499"><ele>120.0</ele><time>2026-04-04T15:07:46.592Z</time></trkpt><trkpt lat="45.1695325" lon="8.3511816"><ele>120.0</ele><time>2026-04-04T15:07:47.594Z</time></trkpt><trkpt lat="45.1694968" lon="8.3513165"><ele>120.0</ele><time>2026-04-04T15:07:48.592Z</time></trkpt><trkpt lat="45.1694596" lon="8.3514547"><ele>120.0</ele><time>2026-04-04T15:07:49.594Z</time></trkpt><trkpt lat="45.1694221" lon="8.3515917"><ele>120.0</ele><time>2026-04-04T15:07:50.594Z</time></trkpt><trkpt lat="45.1693837" lon="8.351728"><ele>120.0</ele><time>2026-04-04T15:07:51.593Z</time></trkpt><trkpt lat="45.1693449" lon="8.3518672"><ele>120.0</ele><time>2026-04-04T15:07:52.593Z</time></trkpt><trkpt lat="45.1693086" lon="8.352002"><ele>120.0</ele><time>2026-04-04T15:07:53.594Z</time></trkpt><trkpt lat="45.1692702" lon="8.3521358"><ele>120.0</ele><time>2026-04-04T15:07:54.594Z</time></trkpt><trkpt lat="45.169232" lon="8.3522699"><ele>120.0</ele><time>2026-04-04T15:07:55.594Z</time></trkpt><trkpt lat="45.1691952" lon="8.3524063"><ele>120.0</ele><time>2026-04-04T15:07:56.593Z</time></trkpt><trkpt lat="45.1691611" lon="8.3525417"><ele>120.0</ele><time>2026-04-04T15:07:57.593Z</time></trkpt><trkpt lat="45.1691319" lon="8.3526775"><ele>120.0</ele><time>2026-04-04T15:07:58.593Z</time></trkpt><trkpt lat="45.1691137" lon="8.3528177"><ele>120.0</ele><time>2026-04-04T15:07:59.594Z</time></trkpt><trkpt lat="45.1691132" lon="8.3529625"><ele>120.0</ele><time>2026-04-04T15:08:00.594Z</time></trkpt><trkpt lat="45.1691265" lon="8.3531072"><ele>120.0</ele><time>2026-04-04T15:08:01.594Z</time></trkpt><trkpt lat="45.1691476" lon="8.3532505"><ele>120.0</ele><time>2026-04-04T15:08:02.593Z</time></trkpt><trkpt lat="45.1691696" lon="8.3533862"><ele>120.0</ele><time>2026-04-04T15:08:03.594Z</time></trkpt><trkpt lat="45.1691916" lon="8.3535143"><ele>120.0</ele><time>2026-04-04T15:08:04.593Z</time></trkpt><trkpt lat="45.1692155" lon="8.3536393"><ele>120.0</ele><time>2026-04-04T15:08:05.593Z</time></trkpt><trkpt lat="45.1692348" lon="8.3537604"><ele>120.0</ele><time>2026-04-04T15:08:06.594Z</time></trkpt><trkpt lat="45.1692477" lon="8.3538769"><ele>120.0</ele><time>2026-04-04T15:08:07.593Z</time></trkpt><trkpt lat="45.1692536" lon="8.3539891"><ele>120.0</ele><time>2026-04-04T15:08:08.594Z</time></trkpt><trkpt lat="45.1692464" lon="8.3540966"><ele>120.0</ele><time>2026-04-04T15:08:09.593Z</time></trkpt><trkpt lat="45.169228" lon="8.3542077"><ele>120.0</ele><time>2026-04-04T15:08:10.594Z</time></trkpt><trkpt lat="45.1691933" lon="8.3543158"><ele>120.0</ele><time>2026-04-04T15:08:11.593Z</time></trkpt><trkpt lat="45.1691448" lon="8.3544197"><ele>120.0</ele><time>2026-04-04T15:08:12.593Z</time></trkpt><trkpt lat="45.1690889" lon="8.3545166"><ele>120.0</ele><time>2026-04-04T15:08:13.593Z</time></trkpt><trkpt lat="45.1690264" lon="8.3546039"><ele>120.0</ele><time>2026-04-04T15:08:14.593Z</time></trkpt><trkpt lat="45.1689546" lon="8.3546787"><ele>120.0</ele><time>2026-04-04T15:08:15.594Z</time></trkpt><trkpt lat="45.1688716" lon="8.3547427"><ele>120.0</ele><time>2026-04-04T15:08:16.594Z</time></trkpt><trkpt lat="45.1687831" lon="8.3547946"><ele>120.0</ele><time>2026-04-04T15:08:17.594Z</time></trkpt><trkpt lat="45.1686958" lon="8.3548597"><ele>119.8</ele><time>2026-04-04T15:08:18.593Z</time></trkpt><trkpt lat="45.1686149" lon="8.354946"><ele>119.6</ele><time>2026-04-04T15:08:19.593Z</time></trkpt><trkpt lat="45.1685442" lon="8.355047"><ele>119.4</ele><time>2026-04-04T15:08:20.593Z</time></trkpt><trkpt lat="45.1684811" lon="8.3551621"><ele>119.2</ele><time>2026-04-04T15:08:21.594Z</time></trkpt><trkpt lat="45.1684224" lon="8.355288"><ele>119.0</ele><time>2026-04-04T15:08:22.593Z</time></trkpt><trkpt lat="45.1683741" lon="8.3554186"><ele>119.2</ele><time>2026-04-04T15:08:23.594Z</time></trkpt><trkpt lat="45.1683381" lon="8.3555537"><ele>119.4</ele><time>2026-04-04T15:08:24.593Z</time></trkpt><trkpt lat="45.1683067" lon="8.3556884"><ele>119.6</ele><time>2026-04-04T15:08:25.593Z</time></trkpt><trkpt lat="45.1682733" lon="8.3558236"><ele>119.8</ele><time>2026-04-04T15:08:26.594Z</time></trkpt><trkpt lat="45.1682382" lon="8.3559621"><ele>120.0</ele><time>2026-04-04T15:08:27.593Z</time></trkpt><trkpt lat="45.1682035" lon="8.3560951"><ele>120.0</ele><time>2026-04-04T15:08:28.594Z</time></trkpt><trkpt lat="45.1681689" lon="8.3562279"><ele>120.0</ele><time>2026-04-04T15:08:29.594Z</time></trkpt><trkpt lat="45.1681317" lon="8.3563611"><ele>120.0</ele><time>2026-04-04T15:08:30.593Z</time></trkpt><trkpt lat="45.1680943" lon="8.3564949"><ele>120.0</ele><time>2026-04-04T15:08:31.594Z</time></trkpt><trkpt lat="45.1680564" lon="8.3566327"><ele>120.0</ele><time>2026-04-04T15:08:32.593Z</time></trkpt><trkpt lat="45.1680197" lon="8.3567687"><ele>120.2</ele><time>2026-04-04T15:08:33.594Z</time></trkpt><trkpt lat="45.1679849" lon="8.3569007"><ele>120.4</ele><time>2026-04-04T15:08:34.594Z</time></trkpt><trkpt lat="45.167949" lon="8.3570358"><ele>120.6</ele><time>2026-04-04T15:08:35.594Z</time></trkpt><trkpt lat="45.167912" lon="8.3571706"><ele>120.8</ele><time>2026-04-04T15:08:36.594Z</time></trkpt><trkpt lat="45.1678749" lon="8.3573031"><ele>121.0</ele><time>2026-04-04T15:08:37.594Z</time></trkpt><trkpt lat="45.1678386" lon="8.3574372"><ele>121.0</ele><time>2026-04-04T15:08:38.595Z</time></trkpt><trkpt lat="45.1678032" lon="8.3575724"><ele>121.0</ele><time>2026-04-04T15:08:39.594Z</time></trkpt><trkpt lat="45.1677686" lon="8.3577057"><ele>121.0</ele><time>2026-04-04T15:08:40.595Z</time></trkpt><trkpt lat="45.1677335" lon="8.3578386"><ele>121.0</ele><time>2026-04-04T15:08:41.595Z</time></trkpt><trkpt lat="45.1676976" lon="8.3579699"><ele>121.0</ele><time>2026-04-04T15:08:42.594Z</time></trkpt><trkpt lat="45.1676617" lon="8.3581004"><ele>120.8</ele><time>2026-04-04T15:08:43.594Z</time></trkpt><trkpt lat="45.1676269" lon="8.3582303"><ele>120.6</ele><time>2026-04-04T15:08:44.594Z</time></trkpt><trkpt lat="45.1675927" lon="8.3583614"><ele>120.4</ele><time>2026-04-04T15:08:45.594Z</time></trkpt><trkpt lat="45.1675582" lon="8.3584931"><ele>120.2</ele><time>2026-04-04T15:08:46.594Z</time></trkpt><trkpt lat="45.1675241" lon="8.358624"><ele>120.0</ele><time>2026-04-04T15:08:47.595Z</time></trkpt><trkpt lat="45.1674883" lon="8.3587569"><ele>120.2</ele><time>2026-04-04T15:08:48.595Z</time></trkpt><trkpt lat="45.167452" lon="8.3588902"><ele>120.4</ele><time>2026-04-04T15:08:49.595Z</time></trkpt><trkpt lat="45.1674158" lon="8.359026"><ele>120.6</ele><time>2026-04-04T15:08:50.595Z</time></trkpt><trkpt lat="45.16738" lon="8.3591627"><ele>120.8</ele><time>2026-04-04T15:08:51.595Z</time></trkpt><trkpt lat="45.1673442" lon="8.3592999"><ele>121.0</ele><time>2026-04-04T15:08:52.594Z</time></trkpt><trkpt lat="45.1673081" lon="8.3594311"><ele>121.00000000000001</ele><time>2026-04-04T15:08:53.594Z</time></trkpt><trkpt lat="45.1672729" lon="8.3595607"><ele>121.0</ele><time>2026-04-04T15:08:54.595Z</time></trkpt><trkpt lat="45.1672378" lon="8.3596862"><ele>121.0</ele><time>2026-04-04T15:08:55.594Z</time></trkpt><trkpt lat="45.1672058" lon="8.3598024"><ele>121.0</ele><time>2026-04-04T15:08:56.595Z</time></trkpt><trkpt lat="45.167177" lon="8.3599091"><ele>121.00000000000001</ele><time>2026-04-04T15:08:57.594Z</time></trkpt><trkpt lat="45.1671513" lon="8.3600052"><ele>121.0</ele><time>2026-04-04T15:08:58.595Z</time></trkpt><trkpt lat="45.1671282" lon="8.3600923"><ele>121.16666666666667</ele><time>2026-04-04T15:08:59.594Z</time></trkpt><trkpt lat="45.1670902" lon="8.3602299"><ele>121.33333333333334</ele><time>2026-04-04T15:09:01.595Z</time></trkpt><trkpt lat="45.1670623" lon="8.360335"><ele>121.5</ele><time>2026-04-04T15:09:03.594Z</time></trkpt><trkpt lat="45.1670168" lon="8.3604981"><ele>121.66666666666666</ele><time>2026-04-04T15:09:05.595Z</time></trkpt><trkpt lat="45.166991" lon="8.3605805"><ele>121.83333333333333</ele><time>2026-04-04T15:09:06.594Z</time></trkpt><trkpt lat="45.1669623" lon="8.3606722"><ele>122.0</ele><time>2026-04-04T15:09:07.594Z</time></trkpt><trkpt lat="45.1669363" lon="8.3607691"><ele>121.99999999999999</ele><time>2026-04-04T15:09:08.595Z</time></trkpt><trkpt lat="45.166907" lon="8.3608818"><ele>122.0</ele><time>2026-04-04T15:09:09.594Z</time></trkpt><trkpt lat="45.1668821" lon="8.3609926"><ele>122.0</ele><time>2026-04-04T15:09:10.594Z</time></trkpt><trkpt lat="45.1668552" lon="8.3611021"><ele>122.0</ele><time>2026-04-04T15:09:11.594Z</time></trkpt><trkpt lat="45.1668263" lon="8.361216"><ele>121.99999999999999</ele><time>2026-04-04T15:09:12.595Z</time></trkpt><trkpt lat="45.1667946" lon="8.3613349"><ele>122.0</ele><time>2026-04-04T15:09:13.594Z</time></trkpt><trkpt lat="45.1667652" lon="8.3614558"><ele>121.99999999999999</ele><time>2026-04-04T15:09:14.595Z</time></trkpt><trkpt lat="45.1667388" lon="8.3615762"><ele>122.0</ele><time>2026-04-04T15:09:15.595Z</time></trkpt><trkpt lat="45.1667105" lon="8.3616902"><ele>122.0</ele><time>2026-04-04T15:09:16.595Z</time></trkpt><trkpt lat="45.1666809" lon="8.3617957"><ele>122.0</ele><time>2026-04-04T15:09:17.595Z</time></trkpt><trkpt lat="45.1666527" lon="8.3618926"><ele>121.99999999999999</ele><time>2026-04-04T15:09:18.595Z</time></trkpt><trkpt lat="45.1666276" lon="8.3619826"><ele>122.0</ele><time>2026-04-04T15:09:19.595Z</time></trkpt><trkpt lat="45.1665912" lon="8.3621203"><ele>122.0</ele><time>2026-04-04T15:09:21.594Z</time></trkpt><trkpt lat="45.1665604" lon="8.3622194"><ele>121.99999999999999</ele><time>2026-04-04T15:09:23.595Z</time></trkpt><trkpt lat="45.1665107" lon="8.3623662"><ele>121.99999999999999</ele><time>2026-04-04T15:09:25.595Z</time></trkpt><trkpt lat="45.1664698" lon="8.3625334"><ele>122.0</ele><time>2026-04-04T15:09:27.596Z</time></trkpt><trkpt lat="45.1664429" lon="8.3626236"><ele>122.0</ele><time>2026-04-04T15:09:28.596Z</time></trkpt><trkpt lat="45.1664154" lon="8.3627181"><ele>121.66666666666666</ele><time>2026-04-04T15:09:29.595Z</time></trkpt><trkpt lat="45.1663876" lon="8.3628216"><ele>121.33333333333333</ele><time>2026-04-04T15:09:30.596Z</time></trkpt><trkpt lat="45.166361" lon="8.3629241"><ele>121.0</ele><time>2026-04-04T15:09:31.595Z</time></trkpt><trkpt lat="45.1663352" lon="8.363027"><ele>120.66666666666666</ele><time>2026-04-04T15:09:32.595Z</time></trkpt><trkpt lat="45.1663069" lon="8.3631359"><ele>120.33333333333333</ele><time>2026-04-04T15:09:33.595Z</time></trkpt><trkpt lat="45.1662796" lon="8.3632397"><ele>120.0</ele><time>2026-04-04T15:09:34.595Z</time></trkpt><trkpt lat="45.1662533" lon="8.3633434"><ele>120.0</ele><time>2026-04-04T15:09:35.596Z</time></trkpt><trkpt lat="45.1662282" lon="8.3634452"><ele>120.0</ele><time>2026-04-04T15:09:36.595Z</time></trkpt><trkpt lat="45.1661988" lon="8.3635538"><ele>120.0</ele><time>2026-04-04T15:09:37.595Z</time></trkpt><trkpt lat="45.1661674" lon="8.363664"><ele>120.0</ele><time>2026-04-04T15:09:38.595Z</time></trkpt><trkpt lat="45.1661375" lon="8.3637688"><ele>120.0</ele><time>2026-04-04T15:09:39.596Z</time></trkpt><trkpt lat="45.1661087" lon="8.3638678"><ele>120.0</ele><time>2026-04-04T15:09:40.596Z</time></trkpt><trkpt lat="45.166083" lon="8.363958"><ele>120.16666666666667</ele><time>2026-04-04T15:09:41.596Z</time></trkpt><trkpt lat="45.1660424" lon="8.3641001"><ele>120.33333333333334</ele><time>2026-04-04T15:09:43.595Z</time></trkpt><trkpt lat="45.1660078" lon="8.3642086"><ele>120.5</ele><time>2026-04-04T15:09:45.595Z</time></trkpt><trkpt lat="45.1659689" lon="8.3643568"><ele>120.66666666666667</ele><time>2026-04-04T15:09:47.595Z</time></trkpt><trkpt lat="45.1659495" lon="8.3644494"><ele>120.83333333333334</ele><time>2026-04-04T15:09:48.595Z</time></trkpt><trkpt lat="45.1659289" lon="8.3645431"><ele>121.0</ele><time>2026-04-04T15:09:49.596Z</time></trkpt><trkpt lat="45.1659076" lon="8.3646368"><ele>121.16666666666667</ele><time>2026-04-04T15:09:50.595Z</time></trkpt><trkpt lat="45.1658809" lon="8.3647389"><ele>121.33333333333334</ele><time>2026-04-04T15:09:51.595Z</time></trkpt><trkpt lat="45.1658518" lon="8.3648408"><ele>121.5</ele><time>2026-04-04T15:09:52.596Z</time></trkpt><trkpt lat="45.1658191" lon="8.364948"><ele>121.66666666666666</ele><time>2026-04-04T15:09:53.595Z</time></trkpt><trkpt lat="45.1657872" lon="8.3650513"><ele>121.83333333333333</ele><time>2026-04-04T15:09:54.596Z</time></trkpt><trkpt lat="45.1657534" lon="8.365163"><ele>122.0</ele><time>2026-04-04T15:09:55.595Z</time></trkpt><trkpt lat="45.1657211" lon="8.3652702"><ele>121.8</ele><time>2026-04-04T15:09:56.595Z</time></trkpt><trkpt lat="45.1656891" lon="8.3653856"><ele>121.6</ele><time>2026-04-04T15:09:57.596Z</time></trkpt><trkpt lat="45.1656615" lon="8.3655143"><ele>121.39999999999999</ele><time>2026-04-04T15:09:58.596Z</time></trkpt><trkpt lat="45.1656333" lon="8.3656382"><ele>121.19999999999999</ele><time>2026-04-04T15:09:59.596Z</time></trkpt><trkpt lat="45.1656021" lon="8.3657575"><ele>121.0</ele><time>2026-04-04T15:10:00.596Z</time></trkpt><trkpt lat="45.1655683" lon="8.3658718"><ele>121.50000000000001</ele><time>2026-04-04T15:10:01.595Z</time></trkpt><trkpt lat="45.1655371" lon="8.3659825"><ele>122.0</ele><time>2026-04-04T15:10:02.595Z</time></trkpt><trkpt lat="45.1655062" lon="8.3660925"><ele>122.5</ele><time>2026-04-04T15:10:03.596Z</time></trkpt><trkpt lat="45.1654753" lon="8.3662029"><ele>123.0</ele><time>2026-04-04T15:10:04.596Z</time></trkpt><trkpt lat="45.1654448" lon="8.3663131"><ele>123.50000000000001</ele><time>2026-04-04T15:10:05.595Z</time></trkpt><trkpt lat="45.1654158" lon="8.3664185"><ele>124.0</ele><time>2026-04-04T15:10:06.596Z</time></trkpt><trkpt lat="45.1653829" lon="8.3665206"><ele>124.00000000000001</ele><time>2026-04-04T15:10:07.595Z</time></trkpt><trkpt lat="45.1653439" lon="8.3666184"><ele>124.0</ele><time>2026-04-04T15:10:08.596Z</time></trkpt><trkpt lat="45.1653019" lon="8.3667032"><ele>124.0</ele><time>2026-04-04T15:10:09.595Z</time></trkpt><trkpt lat="45.1652483" lon="8.3667833"><ele>124.0</ele><time>2026-04-04T15:10:10.597Z</time></trkpt><trkpt lat="45.165182" lon="8.3668527"><ele>124.00000000000001</ele><time>2026-04-04T15:10:11.597Z</time></trkpt><trkpt lat="45.1651116" lon="8.3669121"><ele>124.0</ele><time>2026-04-04T15:10:12.597Z</time></trkpt><trkpt lat="45.1650317" lon="8.3669638"><ele>124.00000000000001</ele><time>2026-04-04T15:10:13.596Z</time></trkpt><trkpt lat="45.1649562" lon="8.3670029"><ele>124.0</ele><time>2026-04-04T15:10:14.596Z</time></trkpt><trkpt lat="45.1648801" lon="8.3670281"><ele>124.0</ele><time>2026-04-04T15:10:15.597Z</time></trkpt><trkpt lat="45.164804" lon="8.3670437"><ele>124.0</ele><time>2026-04-04T15:10:16.597Z</time></trkpt><trkpt lat="45.1647258" lon="8.3670721"><ele>124.00000000000001</ele><time>2026-04-04T15:10:17.596Z</time></trkpt><trkpt lat="45.1646561" lon="8.3672155"><ele>124.0</ele><time>2026-04-04T15:10:19.596Z</time></trkpt><trkpt lat="45.1646563" lon="8.3673298"><ele>124.16666666666667</ele><time>2026-04-04T15:10:20.596Z</time></trkpt><trkpt lat="45.1646665" lon="8.3674512"><ele>124.33333333333334</ele><time>2026-04-04T15:10:21.597Z</time></trkpt><trkpt lat="45.1646941" lon="8.3675499"><ele>124.5</ele><time>2026-04-04T15:10:22.596Z</time></trkpt><trkpt lat="45.1647268" lon="8.3676529"><ele>124.66666666666666</ele><time>2026-04-04T15:10:23.597Z</time></trkpt><trkpt lat="45.1647577" lon="8.3677518"><ele>124.83333333333333</ele><time>2026-04-04T15:10:24.596Z</time></trkpt><trkpt lat="45.1647877" lon="8.3678543"><ele>125.0</ele><time>2026-04-04T15:10:25.597Z</time></trkpt><trkpt lat="45.1648174" lon="8.3679572"><ele>124.66666666666666</ele><time>2026-04-04T15:10:26.597Z</time></trkpt><trkpt lat="45.1648371" lon="8.3680548"><ele>124.33333333333333</ele><time>2026-04-04T15:10:27.596Z</time></trkpt><trkpt lat="45.1648727" lon="8.3681569"><ele>124.0</ele><time>2026-04-04T15:10:28.596Z</time></trkpt><trkpt lat="45.1649079" lon="8.3682644"><ele>123.66666666666666</ele><time>2026-04-04T15:10:29.596Z</time></trkpt><trkpt lat="45.1649346" lon="8.3683741"><ele>123.33333333333333</ele><time>2026-04-04T15:10:30.596Z</time></trkpt><trkpt lat="45.1649587" lon="8.3684816"><ele>123.0</ele><time>2026-04-04T15:10:31.596Z</time></trkpt><trkpt lat="45.16499" lon="8.3685905"><ele>123.0</ele><time>2026-04-04T15:10:32.596Z</time></trkpt><trkpt lat="45.1650186" lon="8.3686995"><ele>123.0</ele><time>2026-04-04T15:10:33.596Z</time></trkpt><trkpt lat="45.1650512" lon="8.3688106"><ele>123.0</ele><time>2026-04-04T15:10:34.597Z</time></trkpt><trkpt lat="45.1650788" lon="8.3689293"><ele>123.0</ele><time>2026-04-04T15:10:35.596Z</time></trkpt><trkpt lat="45.1651077" lon="8.3690433"><ele>123.0</ele><time>2026-04-04T15:10:36.596Z</time></trkpt><trkpt lat="45.165142" lon="8.36915"><ele>123.0</ele><time>2026-04-04T15:10:37.596Z</time></trkpt><trkpt lat="45.1651693" lon="8.3692629"><ele>122.83333333333333</ele><time>2026-04-04T15:10:38.596Z</time></trkpt><trkpt lat="45.1651956" lon="8.3693714"><ele>122.66666666666666</ele><time>2026-04-04T15:10:39.596Z</time></trkpt><trkpt lat="45.1652276" lon="8.3694804"><ele>122.5</ele><time>2026-04-04T15:10:40.597Z</time></trkpt><trkpt lat="45.1652612" lon="8.369585"><ele>122.33333333333333</ele><time>2026-04-04T15:10:41.596Z</time></trkpt><trkpt lat="45.1652931" lon="8.3696996"><ele>122.16666666666666</ele><time>2026-04-04T15:10:42.596Z</time></trkpt><trkpt lat="45.1653208" lon="8.3698203"><ele>122.0</ele><time>2026-04-04T15:10:43.596Z</time></trkpt><trkpt lat="45.1653456" lon="8.3699376"><ele>121.99999999999999</ele><time>2026-04-04T15:10:44.596Z</time></trkpt><trkpt lat="45.1653665" lon="8.3700527"><ele>122.0</ele><time>2026-04-04T15:10:45.596Z</time></trkpt><trkpt lat="45.1653853" lon="8.370166"><ele>122.0</ele><time>2026-04-04T15:10:46.597Z</time></trkpt><trkpt lat="45.165401" lon="8.3702659"><ele>122.0</ele><time>2026-04-04T15:10:47.596Z</time></trkpt><trkpt lat="45.1654124" lon="8.3703557"><ele>121.99999999999999</ele><time>2026-04-04T15:10:48.597Z</time></trkpt><trkpt lat="45.1654333" lon="8.3704949"><ele>122.0</ele><time>2026-04-04T15:10:50.596Z</time></trkpt><trkpt lat="45.1654987" lon="8.370552"><ele>121.85714285714283</ele><time>2026-04-04T15:10:52.597Z</time></trkpt><trkpt lat="45.165563" lon="8.3705621"><ele>121.71428571428571</ele><time>2026-04-04T15:10:53.596Z</time></trkpt><trkpt lat="45.165631" lon="8.3705506"><ele>121.57142857142856</ele><time>2026-04-04T15:10:54.597Z</time></trkpt><trkpt lat="45.1656997" lon="8.3705412"><ele>121.42857142857142</ele><time>2026-04-04T15:10:55.596Z</time></trkpt><trkpt lat="45.1657762" lon="8.3705335"><ele>121.28571428571428</ele><time>2026-04-04T15:10:56.596Z</time></trkpt><trkpt lat="45.1658528" lon="8.3705318"><ele>121.14285714285714</ele><time>2026-04-04T15:10:57.598Z</time></trkpt><trkpt lat="45.1659283" lon="8.3705347"><ele>121.0</ele><time>2026-04-04T15:10:58.596Z</time></trkpt><trkpt lat="45.1660058" lon="8.3705363"><ele>121.00000000000001</ele><time>2026-04-04T15:10:59.598Z</time></trkpt><trkpt lat="45.1660827" lon="8.3705414"><ele>121.0</ele><time>2026-04-04T15:11:00.597Z</time></trkpt><trkpt lat="45.1661671" lon="8.3705411"><ele>121.0</ele><time>2026-04-04T15:11:01.598Z</time></trkpt><trkpt lat="45.1662635" lon="8.3705328"><ele>121.0</ele><time>2026-04-04T15:11:02.597Z</time></trkpt><trkpt lat="45.1663491" lon="8.3705328"><ele>121.00000000000001</ele><time>2026-04-04T15:11:03.597Z</time></trkpt><trkpt lat="45.166435" lon="8.3705393"><ele>121.0</ele><time>2026-04-04T15:11:04.598Z</time></trkpt><trkpt lat="45.1665274" lon="8.3705448"><ele>120.83333333333334</ele><time>2026-04-04T15:11:05.597Z</time></trkpt><trkpt lat="45.1666236" lon="8.3705495"><ele>120.66666666666667</ele><time>2026-04-04T15:11:06.597Z</time></trkpt><trkpt lat="45.1667155" lon="8.3705554"><ele>120.5</ele><time>2026-04-04T15:11:07.597Z</time></trkpt><trkpt lat="45.1667977" lon="8.3705703"><ele>120.33333333333334</ele><time>2026-04-04T15:11:08.598Z</time></trkpt><trkpt lat="45.1668765" lon="8.3705886"><ele>120.16666666666667</ele><time>2026-04-04T15:11:09.598Z</time></trkpt><trkpt lat="45.1669505" lon="8.3706068"><ele>120.0</ele><time>2026-04-04T15:11:10.598Z</time></trkpt><trkpt lat="45.1670267" lon="8.3706325"><ele>120.0</ele><time>2026-04-04T15:11:11.597Z</time></trkpt><trkpt lat="45.1670904" lon="8.3706565"><ele>120.0</ele><time>2026-04-04T15:11:12.598Z</time></trkpt><trkpt lat="45.167225" lon="8.3707253"><ele>120.0</ele><time>2026-04-04T15:11:14.598Z</time></trkpt><trkpt lat="45.1672958" lon="8.3707587"><ele>120.0</ele><time>2026-04-04T15:11:15.597Z</time></trkpt><trkpt lat="45.1673724" lon="8.3707882"><ele>120.0</ele><time>2026-04-04T15:11:16.597Z</time></trkpt><trkpt lat="45.1674495" lon="8.370815"><ele>120.0</ele><time>2026-04-04T15:11:17.597Z</time></trkpt><trkpt lat="45.16753" lon="8.3708482"><ele>120.16666666666667</ele><time>2026-04-04T15:11:18.598Z</time></trkpt><trkpt lat="45.1676115" lon="8.3708861"><ele>120.33333333333334</ele><time>2026-04-04T15:11:19.598Z</time></trkpt><trkpt lat="45.1676936" lon="8.3709237"><ele>120.5</ele><time>2026-04-04T15:11:20.598Z</time></trkpt><trkpt lat="45.167776" lon="8.3709611"><ele>120.66666666666667</ele><time>2026-04-04T15:11:21.597Z</time></trkpt><trkpt lat="45.1678643" lon="8.3709955"><ele>120.83333333333334</ele><time>2026-04-04T15:11:22.598Z</time></trkpt><trkpt lat="45.1679444" lon="8.3710253"><ele>121.0</ele><time>2026-04-04T15:11:23.597Z</time></trkpt><trkpt lat="45.168024" lon="8.3710548"><ele>121.00000000000001</ele><time>2026-04-04T15:11:24.597Z</time></trkpt><trkpt lat="45.1681071" lon="8.3710904"><ele>121.0</ele><time>2026-04-04T15:11:25.598Z</time></trkpt><trkpt lat="45.1681935" lon="8.3711234"><ele>121.0</ele><time>2026-04-04T15:11:26.597Z</time></trkpt><trkpt lat="45.1682866" lon="8.3711574"><ele>121.0</ele><time>2026-04-04T15:11:27.598Z</time></trkpt><trkpt lat="45.1683685" lon="8.3711905"><ele>121.00000000000001</ele><time>2026-04-04T15:11:28.597Z</time></trkpt><trkpt lat="45.1684438" lon="8.3712222"><ele>121.0</ele><time>2026-04-04T15:11:29.597Z</time></trkpt><trkpt lat="45.1685069" lon="8.3712589"><ele>120.83333333333334</ele><time>2026-04-04T15:11:30.598Z</time></trkpt><trkpt lat="45.1685999" lon="8.3713683"><ele>120.66666666666667</ele><time>2026-04-04T15:11:32.597Z</time></trkpt><trkpt lat="45.1686386" lon="8.3714402"><ele>120.5</ele><time>2026-04-04T15:11:33.598Z</time></trkpt><trkpt lat="45.1686739" lon="8.3715333"><ele>120.33333333333334</ele><time>2026-04-04T15:11:34.597Z</time></trkpt><trkpt lat="45.1687103" lon="8.3716504"><ele>120.16666666666667</ele><time>2026-04-04T15:11:35.598Z</time></trkpt><trkpt lat="45.1687474" lon="8.3717597"><ele>120.0</ele><time>2026-04-04T15:11:36.597Z</time></trkpt><trkpt lat="45.1687882" lon="8.3718825"><ele>120.0</ele><time>2026-04-04T15:11:37.597Z</time></trkpt><trkpt lat="45.1688159" lon="8.3720066"><ele>120.0</ele><time>2026-04-04T15:11:38.597Z</time></trkpt><trkpt lat="45.1688226" lon="8.3721425"><ele>120.0</ele><time>2026-04-04T15:11:39.598Z</time></trkpt><trkpt lat="45.1688156" lon="8.3722658"><ele>120.0</ele><time>2026-04-04T15:11:40.597Z</time></trkpt><trkpt lat="45.168804" lon="8.372395"><ele>120.0</ele><time>2026-04-04T15:11:41.597Z</time></trkpt><trkpt lat="45.1687988" lon="8.3725261"><ele>120.0</ele><time>2026-04-04T15:11:42.598Z</time></trkpt><trkpt lat="45.1688014" lon="8.3726585"><ele>120.0</ele><time>2026-04-04T15:11:43.598Z</time></trkpt><trkpt lat="45.1688042" lon="8.3727839"><ele>120.0</ele><time>2026-04-04T15:11:44.597Z</time></trkpt><trkpt lat="45.1688077" lon="8.3729112"><ele>120.0</ele><time>2026-04-04T15:11:45.598Z</time></trkpt><trkpt lat="45.1688098" lon="8.3730346"><ele>120.0</ele><time>2026-04-04T15:11:46.598Z</time></trkpt><trkpt lat="45.1688133" lon="8.3731584"><ele>120.0</ele><time>2026-04-04T15:11:47.6Z</time></trkpt><trkpt lat="45.1688169" lon="8.3732847"><ele>120.0</ele><time>2026-04-04T15:11:48.598Z</time></trkpt><trkpt lat="45.168824" lon="8.3734093"><ele>120.0</ele><time>2026-04-04T15:11:49.598Z</time></trkpt><trkpt lat="45.1688313" lon="8.3735353"><ele>120.0</ele><time>2026-04-04T15:11:50.599Z</time></trkpt><trkpt lat="45.1688371" lon="8.3736577"><ele>120.0</ele><time>2026-04-04T15:11:51.599Z</time></trkpt><trkpt lat="45.1688435" lon="8.3737858"><ele>120.0</ele><time>2026-04-04T15:11:52.599Z</time></trkpt><trkpt lat="45.1688481" lon="8.3739159"><ele>120.0</ele><time>2026-04-04T15:11:53.599Z</time></trkpt><trkpt lat="45.1688521" lon="8.3740444"><ele>120.0</ele><time>2026-04-04T15:11:54.598Z</time></trkpt><trkpt lat="45.1688578" lon="8.374181"><ele>120.0</ele><time>2026-04-04T15:11:55.599Z</time></trkpt><trkpt lat="45.1688656" lon="8.3743159"><ele>120.0</ele><time>2026-04-04T15:11:56.599Z</time></trkpt><trkpt lat="45.1688727" lon="8.3744437"><ele>120.0</ele><time>2026-04-04T15:11:57.599Z</time></trkpt><trkpt lat="45.1688784" lon="8.3745752"><ele>120.0</ele><time>2026-04-04T15:11:58.599Z</time></trkpt><trkpt lat="45.1688818" lon="8.3747076"><ele>119.8</ele><time>2026-04-04T15:11:59.598Z</time></trkpt><trkpt lat="45.1688879" lon="8.3748482"><ele>119.6</ele><time>2026-04-04T15:12:00.598Z</time></trkpt><trkpt lat="45.1688957" lon="8.3749812"><ele>119.4</ele><time>2026-04-04T15:12:01.599Z</time></trkpt><trkpt lat="45.1689055" lon="8.375112"><ele>119.2</ele><time>2026-04-04T15:12:02.598Z</time></trkpt><trkpt lat="45.1689154" lon="8.3752445"><ele>119.0</ele><time>2026-04-04T15:12:03.598Z</time></trkpt><trkpt lat="45.1689275" lon="8.3753732"><ele>119.0</ele><time>2026-04-04T15:12:04.599Z</time></trkpt><trkpt lat="45.1689424" lon="8.3755021"><ele>119.0</ele><time>2026-04-04T15:12:05.599Z</time></trkpt><trkpt lat="45.1689638" lon="8.3756316"><ele>119.0</ele><time>2026-04-04T15:12:06.599Z</time></trkpt><trkpt lat="45.168998" lon="8.3757584"><ele>119.0</ele><time>2026-04-04T15:12:07.599Z</time></trkpt><trkpt lat="45.169044" lon="8.3758774"><ele>119.0</ele><time>2026-04-04T15:12:08.599Z</time></trkpt><trkpt lat="45.1690942" lon="8.3759935"><ele>119.0</ele><time>2026-04-04T15:12:09.598Z</time></trkpt><trkpt lat="45.1691457" lon="8.3761073"><ele>119.0</ele><time>2026-04-04T15:12:10.598Z</time></trkpt><trkpt lat="45.1691974" lon="8.3762209"><ele>119.0</ele><time>2026-04-04T15:12:11.599Z</time></trkpt><trkpt lat="45.1692491" lon="8.3763374"><ele>119.0</ele><time>2026-04-04T15:12:12.599Z</time></trkpt><trkpt lat="45.1692971" lon="8.3764557"><ele>119.0</ele><time>2026-04-04T15:12:13.598Z</time></trkpt><trkpt lat="45.169339" lon="8.3765786"><ele>119.0</ele><time>2026-04-04T15:12:14.599Z</time></trkpt><trkpt lat="45.1693795" lon="8.3767043"><ele>119.0</ele><time>2026-04-04T15:12:15.599Z</time></trkpt><trkpt lat="45.1694199" lon="8.3768256"><ele>119.0</ele><time>2026-04-04T15:12:16.599Z</time></trkpt><trkpt lat="45.1694617" lon="8.3769486"><ele>119.0</ele><time>2026-04-04T15:12:17.599Z</time></trkpt><trkpt lat="45.1695003" lon="8.3770733"><ele>119.0</ele><time>2026-04-04T15:12:18.598Z</time></trkpt><trkpt lat="45.1695365" lon="8.377202"><ele>119.2</ele><time>2026-04-04T15:12:19.599Z</time></trkpt><trkpt lat="45.1695712" lon="8.3773269"><ele>119.4</ele><time>2026-04-04T15:12:20.598Z</time></trkpt><trkpt lat="45.1696063" lon="8.3774533"><ele>119.6</ele><time>2026-04-04T15:12:21.598Z</time></trkpt><trkpt lat="45.1696386" lon="8.3775805"><ele>119.8</ele><time>2026-04-04T15:12:22.598Z</time></trkpt><trkpt lat="45.169669" lon="8.3777111"><ele>120.0</ele><time>2026-04-04T15:12:23.599Z</time></trkpt><trkpt lat="45.1696978" lon="8.3778425"><ele>120.0</ele><time>2026-04-04T15:12:24.598Z</time></trkpt><trkpt lat="45.1697271" lon="8.3779731"><ele>120.0</ele><time>2026-04-04T15:12:25.598Z</time></trkpt><trkpt lat="45.1697573" lon="8.3781037"><ele>120.0</ele><time>2026-04-04T15:12:26.598Z</time></trkpt><trkpt lat="45.1697867" lon="8.3782358"><ele>120.0</ele><time>2026-04-04T15:12:27.599Z</time></trkpt><trkpt lat="45.169815" lon="8.3783675"><ele>120.0</ele><time>2026-04-04T15:12:28.598Z</time></trkpt><trkpt lat="45.1698417" lon="8.3784983"><ele>119.8</ele><time>2026-04-04T15:12:29.598Z</time></trkpt><trkpt lat="45.1698658" lon="8.3786299"><ele>119.6</ele><time>2026-04-04T15:12:30.599Z</time></trkpt><trkpt lat="45.1698868" lon="8.3787682"><ele>119.4</ele><time>2026-04-04T15:12:31.598Z</time></trkpt><trkpt lat="45.1699027" lon="8.3789086"><ele>119.2</ele><time>2026-04-04T15:12:32.599Z</time></trkpt><trkpt lat="45.169913" lon="8.3790506"><ele>119.0</ele><time>2026-04-04T15:12:33.599Z</time></trkpt><trkpt lat="45.1699213" lon="8.3791929"><ele>118.6</ele><time>2026-04-04T15:12:34.599Z</time></trkpt><trkpt lat="45.1699305" lon="8.3793337"><ele>118.2</ele><time>2026-04-04T15:12:35.599Z</time></trkpt><trkpt lat="45.1699426" lon="8.379473"><ele>117.79999999999998</ele><time>2026-04-04T15:12:36.6Z</time></trkpt><trkpt lat="45.1699571" lon="8.3796142"><ele>117.39999999999999</ele><time>2026-04-04T15:12:37.599Z</time></trkpt><trkpt lat="45.1699708" lon="8.3797555"><ele>117.0</ele><time>2026-04-04T15:12:38.599Z</time></trkpt><trkpt lat="45.1699844" lon="8.3798944"><ele>117.0</ele><time>2026-04-04T15:12:39.6Z</time></trkpt><trkpt lat="45.1699985" lon="8.3800317"><ele>116.99999999999999</ele><time>2026-04-04T15:12:40.6Z</time></trkpt><trkpt lat="45.1700158" lon="8.3801698"><ele>116.99999999999999</ele><time>2026-04-04T15:12:41.6Z</time></trkpt><trkpt lat="45.1700334" lon="8.3803071"><ele>117.0</ele><time>2026-04-04T15:12:42.6Z</time></trkpt><trkpt lat="45.1700484" lon="8.3804436"><ele>117.0</ele><time>2026-04-04T15:12:43.6Z</time></trkpt><trkpt lat="45.1700604" lon="8.380575"><ele>117.0</ele><time>2026-04-04T15:12:44.599Z</time></trkpt><trkpt lat="45.1700722" lon="8.3807119"><ele>116.99999999999999</ele><time>2026-04-04T15:12:45.599Z</time></trkpt><trkpt lat="45.1700841" lon="8.3808498"><ele>116.99999999999999</ele><time>2026-04-04T15:12:46.599Z</time></trkpt><trkpt lat="45.1700937" lon="8.38098"><ele>117.0</ele><time>2026-04-04T15:12:47.599Z</time></trkpt><trkpt lat="45.1701086" lon="8.3810993"><ele>117.0</ele><time>2026-04-04T15:12:48.6Z</time></trkpt><trkpt lat="45.1701277" lon="8.3812221"><ele>117.0</ele><time>2026-04-04T15:12:49.6Z</time></trkpt><trkpt lat="45.1701507" lon="8.3813364"><ele>117.0</ele><time>2026-04-04T15:12:50.6Z</time></trkpt><trkpt lat="45.1701823" lon="8.3814465"><ele>117.0</ele><time>2026-04-04T15:12:51.599Z</time></trkpt><trkpt lat="45.1702227" lon="8.3815507"><ele>117.0</ele><time>2026-04-04T15:12:52.599Z</time></trkpt><trkpt lat="45.1702661" lon="8.3816475"><ele>117.0</ele><time>2026-04-04T15:12:53.6Z</time></trkpt><trkpt lat="45.1703095" lon="8.3817391"><ele>117.0</ele><time>2026-04-04T15:12:54.6Z</time></trkpt><trkpt lat="45.1703531" lon="8.3818295"><ele>117.0</ele><time>2026-04-04T15:12:55.6Z</time></trkpt><trkpt lat="45.1704006" lon="8.3819157"><ele>117.0</ele><time>2026-04-04T15:12:56.6Z</time></trkpt><trkpt lat="45.1704538" lon="8.3819967"><ele>117.0</ele><time>2026-04-04T15:12:57.599Z</time></trkpt><trkpt lat="45.1705088" lon="8.3820694"><ele>117.0</ele><time>2026-04-04T15:12:58.599Z</time></trkpt><trkpt lat="45.1705661" lon="8.3821385"><ele>117.0</ele><time>2026-04-04T15:12:59.6Z</time></trkpt><trkpt lat="45.1706269" lon="8.3822051"><ele>117.0</ele><time>2026-04-04T15:13:00.6Z</time></trkpt><trkpt lat="45.1706906" lon="8.3822648"><ele>117.33333333333333</ele><time>2026-04-04T15:13:01.6Z</time></trkpt><trkpt lat="45.1707581" lon="8.3823111"><ele>117.66666666666666</ele><time>2026-04-04T15:13:02.599Z</time></trkpt><trkpt lat="45.1708338" lon="8.3823468"><ele>118.0</ele><time>2026-04-04T15:13:03.599Z</time></trkpt><trkpt lat="45.1709167" lon="8.3823624"><ele>118.33333333333333</ele><time>2026-04-04T15:13:04.6Z</time></trkpt><trkpt lat="45.1710006" lon="8.3823649"><ele>118.66666666666666</ele><time>2026-04-04T15:13:05.6Z</time></trkpt><trkpt lat="45.1710823" lon="8.3823555"><ele>119.0</ele><time>2026-04-04T15:13:06.6Z</time></trkpt><trkpt lat="45.1711627" lon="8.3823376"><ele>119.0</ele><time>2026-04-04T15:13:07.599Z</time></trkpt><trkpt lat="45.1712416" lon="8.3823101"><ele>119.0</ele><time>2026-04-04T15:13:08.599Z</time></trkpt><trkpt lat="45.1713309" lon="8.3822798"><ele>119.0</ele><time>2026-04-04T15:13:09.599Z</time></trkpt><trkpt lat="45.1714235" lon="8.3822544"><ele>119.0</ele><time>2026-04-04T15:13:10.599Z</time></trkpt><trkpt lat="45.1715158" lon="8.3822245"><ele>119.0</ele><time>2026-04-04T15:13:11.6Z</time></trkpt><trkpt lat="45.1716061" lon="8.3821999"><ele>119.0</ele><time>2026-04-04T15:13:12.599Z</time></trkpt><trkpt lat="45.1716979" lon="8.3821923"><ele>119.0</ele><time>2026-04-04T15:13:13.599Z</time></trkpt><trkpt lat="45.1717959" lon="8.3822051"><ele>119.0</ele><time>2026-04-04T15:13:14.6Z</time></trkpt><trkpt lat="45.171884" lon="8.3822405"><ele>119.0</ele><time>2026-04-04T15:13:15.6Z</time></trkpt><trkpt lat="45.1719869" lon="8.3822991"><ele>119.0</ele><time>2026-04-04T15:13:16.599Z</time></trkpt><trkpt lat="45.1720816" lon="8.3823781"><ele>119.0</ele><time>2026-04-04T15:13:17.6Z</time></trkpt><trkpt lat="45.1721679" lon="8.3824791"><ele>119.0</ele><time>2026-04-04T15:13:18.599Z</time></trkpt><trkpt lat="45.1722419" lon="8.3825964"><ele>119.0</ele><time>2026-04-04T15:13:19.6Z</time></trkpt><trkpt lat="45.1723107" lon="8.3827224"><ele>119.0</ele><time>2026-04-04T15:13:20.6Z</time></trkpt><trkpt lat="45.1723772" lon="8.3828439"><ele>119.0</ele><time>2026-04-04T15:13:21.601Z</time></trkpt><trkpt lat="45.1724483" lon="8.3829554"><ele>118.80000000000001</ele><time>2026-04-04T15:13:22.6Z</time></trkpt><trkpt lat="45.1725189" lon="8.383061"><ele>118.60000000000001</ele><time>2026-04-04T15:13:23.601Z</time></trkpt><trkpt lat="45.1725891" lon="8.3831691"><ele>118.4</ele><time>2026-04-04T15:13:24.6Z</time></trkpt><trkpt lat="45.1726595" lon="8.3832779"><ele>118.2</ele><time>2026-04-04T15:13:25.601Z</time></trkpt><trkpt lat="45.1727311" lon="8.3833873"><ele>118.0</ele><time>2026-04-04T15:13:26.601Z</time></trkpt><trkpt lat="45.1728025" lon="8.3834951"><ele>118.0</ele><time>2026-04-04T15:13:27.601Z</time></trkpt><trkpt lat="45.1728748" lon="8.3836035"><ele>118.00000000000001</ele><time>2026-04-04T15:13:28.601Z</time></trkpt><trkpt lat="45.1729473" lon="8.3837041"><ele>118.00000000000001</ele><time>2026-04-04T15:13:29.601Z</time></trkpt><trkpt lat="45.1730224" lon="8.383801"><ele>118.0</ele><time>2026-04-04T15:13:30.6Z</time></trkpt><trkpt lat="45.1730993" lon="8.3838911"><ele>118.0</ele><time>2026-04-04T15:13:31.6Z</time></trkpt><trkpt lat="45.173179" lon="8.383976"><ele>118.0</ele><time>2026-04-04T15:13:32.6Z</time></trkpt><trkpt lat="45.1732585" lon="8.3840591"><ele>118.00000000000001</ele><time>2026-04-04T15:13:33.601Z</time></trkpt><trkpt lat="45.1733382" lon="8.3841437"><ele>118.00000000000001</ele><time>2026-04-04T15:13:34.601Z</time></trkpt><trkpt lat="45.1734167" lon="8.3842279"><ele>118.0</ele><time>2026-04-04T15:13:35.601Z</time></trkpt><trkpt lat="45.1734955" lon="8.3843135"><ele>118.0</ele><time>2026-04-04T15:13:36.6Z</time></trkpt><trkpt lat="45.1735726" lon="8.3843981"><ele>118.0</ele><time>2026-04-04T15:13:37.6Z</time></trkpt><trkpt lat="45.1736505" lon="8.38448"><ele>118.00000000000001</ele><time>2026-04-04T15:13:38.6Z</time></trkpt><trkpt lat="45.1737284" lon="8.3845637"><ele>118.00000000000001</ele><time>2026-04-04T15:13:39.601Z</time></trkpt><trkpt lat="45.1738064" lon="8.3846461"><ele>118.0</ele><time>2026-04-04T15:13:40.601Z</time></trkpt><trkpt lat="45.1738835" lon="8.3847298"><ele>118.0</ele><time>2026-04-04T15:13:41.6Z</time></trkpt><trkpt lat="45.1739611" lon="8.3848108"><ele>118.0</ele><time>2026-04-04T15:13:42.6Z</time></trkpt><trkpt lat="45.1740387" lon="8.3848921"><ele>118.00000000000001</ele><time>2026-04-04T15:13:43.6Z</time></trkpt><trkpt lat="45.1741167" lon="8.3849753"><ele>118.00000000000001</ele><time>2026-04-04T15:13:44.601Z</time></trkpt><trkpt lat="45.1741949" lon="8.3850598"><ele>118.0</ele><time>2026-04-04T15:13:45.6Z</time></trkpt><trkpt lat="45.1742727" lon="8.385144"><ele>118.0</ele><time>2026-04-04T15:13:46.601Z</time></trkpt><trkpt lat="45.1743503" lon="8.3852279"><ele>118.0</ele><time>2026-04-04T15:13:47.6Z</time></trkpt><trkpt lat="45.1744279" lon="8.3853105"><ele>118.00000000000001</ele><time>2026-04-04T15:13:48.6Z</time></trkpt><trkpt lat="45.1745067" lon="8.3853919"><ele>118.00000000000001</ele><time>2026-04-04T15:13:49.601Z</time></trkpt><trkpt lat="45.1745847" lon="8.3854742"><ele>118.0</ele><time>2026-04-04T15:13:50.601Z</time></trkpt><trkpt lat="45.1746634" lon="8.3855571"><ele>118.0</ele><time>2026-04-04T15:13:51.6Z</time></trkpt><trkpt lat="45.1747439" lon="8.3856377"><ele>117.80000000000001</ele><time>2026-04-04T15:13:52.601Z</time></trkpt><trkpt lat="45.1748261" lon="8.3857158"><ele>117.60000000000001</ele><time>2026-04-04T15:13:53.601Z</time></trkpt><trkpt lat="45.1749091" lon="8.3857914"><ele>117.39999999999999</ele><time>2026-04-04T15:13:54.601Z</time></trkpt><trkpt lat="45.1749926" lon="8.3858633"><ele>117.19999999999999</ele><time>2026-04-04T15:13:55.601Z</time></trkpt><trkpt lat="45.1750771" lon="8.3859325"><ele>117.0</ele><time>2026-04-04T15:13:56.6Z</time></trkpt><trkpt lat="45.1751627" lon="8.3859992"><ele>117.0</ele><time>2026-04-04T15:13:57.601Z</time></trkpt><trkpt lat="45.1752476" lon="8.3860675"><ele>116.99999999999999</ele><time>2026-04-04T15:13:58.6Z</time></trkpt><trkpt lat="45.1753306" lon="8.3861387"><ele>116.99999999999999</ele><time>2026-04-04T15:13:59.601Z</time></trkpt><trkpt lat="45.1754134" lon="8.38621"><ele>117.0</ele><time>2026-04-04T15:14:00.601Z</time></trkpt><trkpt lat="45.1754966" lon="8.3862797"><ele>117.0</ele><time>2026-04-04T15:14:01.6Z</time></trkpt><trkpt lat="45.175581" lon="8.3863469"><ele>117.0</ele><time>2026-04-04T15:14:02.6Z</time></trkpt><trkpt lat="45.1756662" lon="8.3864145"><ele>116.99999999999999</ele><time>2026-04-04T15:14:03.6Z</time></trkpt><trkpt lat="45.1757501" lon="8.386483"><ele>116.99999999999999</ele><time>2026-04-04T15:14:04.601Z</time></trkpt><trkpt lat="45.1758342" lon="8.3865511"><ele>117.0</ele><time>2026-04-04T15:14:05.601Z</time></trkpt><trkpt lat="45.1759192" lon="8.3866186"><ele>117.0</ele><time>2026-04-04T15:14:06.602Z</time></trkpt><trkpt lat="45.1760056" lon="8.3866878"><ele>117.19999999999999</ele><time>2026-04-04T15:14:07.602Z</time></trkpt><trkpt lat="45.1760918" lon="8.3867566"><ele>117.39999999999999</ele><time>2026-04-04T15:14:08.601Z</time></trkpt><trkpt lat="45.1761757" lon="8.3868287"><ele>117.60000000000001</ele><time>2026-04-04T15:14:09.601Z</time></trkpt><trkpt lat="45.1762553" lon="8.3869077"><ele>117.80000000000001</ele><time>2026-04-04T15:14:10.602Z</time></trkpt><trkpt lat="45.1763323" lon="8.3869936"><ele>118.0</ele><time>2026-04-04T15:14:11.602Z</time></trkpt><trkpt lat="45.1764073" lon="8.3870837"><ele>118.0</ele><time>2026-04-04T15:14:12.602Z</time></trkpt><trkpt lat="45.17648" lon="8.3871739"><ele>118.00000000000001</ele><time>2026-04-04T15:14:13.601Z</time></trkpt><trkpt lat="45.1765512" lon="8.3872661"><ele>118.00000000000001</ele><time>2026-04-04T15:14:14.602Z</time></trkpt><trkpt lat="45.1766209" lon="8.3873598"><ele>118.0</ele><time>2026-04-04T15:14:15.601Z</time></trkpt><trkpt lat="45.176691" lon="8.3874539"><ele>118.0</ele><time>2026-04-04T15:14:16.602Z</time></trkpt><trkpt lat="45.1767617" lon="8.3875476"><ele>118.0</ele><time>2026-04-04T15:14:17.601Z</time></trkpt><trkpt lat="45.1768326" lon="8.3876421"><ele>118.00000000000001</ele><time>2026-04-04T15:14:18.601Z</time></trkpt><trkpt lat="45.1769031" lon="8.387738"><ele>118.00000000000001</ele><time>2026-04-04T15:14:19.601Z</time></trkpt><trkpt lat="45.1769721" lon="8.3878361"><ele>118.0</ele><time>2026-04-04T15:14:20.601Z</time></trkpt><trkpt lat="45.1770393" lon="8.3879359"><ele>118.0</ele><time>2026-04-04T15:14:21.601Z</time></trkpt><trkpt lat="45.1771062" lon="8.3880388"><ele>117.80000000000001</ele><time>2026-04-04T15:14:22.601Z</time></trkpt><trkpt lat="45.1771749" lon="8.3881434"><ele>117.60000000000001</ele><time>2026-04-04T15:14:23.601Z</time></trkpt><trkpt lat="45.1772436" lon="8.3882477"><ele>117.39999999999999</ele><time>2026-04-04T15:14:24.602Z</time></trkpt><trkpt lat="45.1773109" lon="8.3883566"><ele>117.19999999999999</ele><time>2026-04-04T15:14:25.601Z</time></trkpt><trkpt lat="45.1773756" lon="8.3884698"><ele>117.0</ele><time>2026-04-04T15:14:26.601Z</time></trkpt><trkpt lat="45.1774328" lon="8.3885858"><ele>116.8</ele><time>2026-04-04T15:14:27.602Z</time></trkpt><trkpt lat="45.177486" lon="8.3887062"><ele>116.6</ele><time>2026-04-04T15:14:28.602Z</time></trkpt><trkpt lat="45.1775375" lon="8.3888323"><ele>116.39999999999999</ele><time>2026-04-04T15:14:29.601Z</time></trkpt><trkpt lat="45.1775865" lon="8.3889612"><ele>116.19999999999999</ele><time>2026-04-04T15:14:30.601Z</time></trkpt><trkpt lat="45.1776328" lon="8.3890883"><ele>116.0</ele><time>2026-04-04T15:14:31.602Z</time></trkpt><trkpt lat="45.1776787" lon="8.3892132"><ele>116.0</ele><time>2026-04-04T15:14:32.602Z</time></trkpt><trkpt lat="45.177728" lon="8.3893336"><ele>116.0</ele><time>2026-04-04T15:14:33.601Z</time></trkpt><trkpt lat="45.1777854" lon="8.3894477"><ele>116.0</ele><time>2026-04-04T15:14:34.602Z</time></trkpt><trkpt lat="45.1778489" lon="8.3895523"><ele>116.0</ele><time>2026-04-04T15:14:35.602Z</time></trkpt><trkpt lat="45.1779192" lon="8.3896543"><ele>116.0</ele><time>2026-04-04T15:14:36.602Z</time></trkpt><trkpt lat="45.1779938" lon="8.3897501"><ele>116.19999999999999</ele><time>2026-04-04T15:14:37.602Z</time></trkpt><trkpt lat="45.178073" lon="8.3898406"><ele>116.39999999999999</ele><time>2026-04-04T15:14:38.601Z</time></trkpt><trkpt lat="45.1781554" lon="8.3899223"><ele>116.6</ele><time>2026-04-04T15:14:39.601Z</time></trkpt><trkpt lat="45.1782414" lon="8.389998"><ele>116.8</ele><time>2026-04-04T15:14:40.601Z</time></trkpt><trkpt lat="45.1783325" lon="8.3900681"><ele>117.0</ele><time>2026-04-04T15:14:41.601Z</time></trkpt><trkpt lat="45.1784273" lon="8.3901281"><ele>117.0</ele><time>2026-04-04T15:14:42.602Z</time></trkpt><trkpt lat="45.1785246" lon="8.3901787"><ele>116.99999999999999</ele><time>2026-04-04T15:14:43.601Z</time></trkpt><trkpt lat="45.1786211" lon="8.3902258"><ele>116.99999999999999</ele><time>2026-04-04T15:14:44.602Z</time></trkpt><trkpt lat="45.1787167" lon="8.3902706"><ele>117.0</ele><time>2026-04-04T15:14:45.601Z</time></trkpt><trkpt lat="45.1788131" lon="8.390312"><ele>117.0</ele><time>2026-04-04T15:14:46.601Z</time></trkpt><trkpt lat="45.178909" lon="8.3903503"><ele>117.0</ele><time>2026-04-04T15:14:47.601Z</time></trkpt><trkpt lat="45.1790049" lon="8.3903916"><ele>116.99999999999999</ele><time>2026-04-04T15:14:48.601Z</time></trkpt><trkpt lat="45.1791012" lon="8.3904373"><ele>116.99999999999999</ele><time>2026-04-04T15:14:49.602Z</time></trkpt><trkpt lat="45.1791954" lon="8.3904859"><ele>117.0</ele><time>2026-04-04T15:14:50.601Z</time></trkpt><trkpt lat="45.1792907" lon="8.3905344"><ele>117.0</ele><time>2026-04-04T15:14:51.601Z</time></trkpt><trkpt lat="45.1793862" lon="8.390581"><ele>117.0</ele><time>2026-04-04T15:14:52.603Z</time></trkpt><trkpt lat="45.1794791" lon="8.3906263"><ele>116.99999999999999</ele><time>2026-04-04T15:14:53.602Z</time></trkpt><trkpt lat="45.1795712" lon="8.3906801"><ele>116.99999999999999</ele><time>2026-04-04T15:14:54.603Z</time></trkpt><trkpt lat="45.1796618" lon="8.3907452"><ele>117.0</ele><time>2026-04-04T15:14:55.602Z</time></trkpt><trkpt lat="45.1797502" lon="8.3908195"><ele>117.0</ele><time>2026-04-04T15:14:56.602Z</time></trkpt><trkpt lat="45.1798368" lon="8.3908987"><ele>117.19999999999999</ele><time>2026-04-04T15:14:57.603Z</time></trkpt><trkpt lat="45.1799216" lon="8.3909791"><ele>117.39999999999999</ele><time>2026-04-04T15:14:58.603Z</time></trkpt><trkpt lat="45.1800049" lon="8.3910596"><ele>117.60000000000001</ele><time>2026-04-04T15:14:59.603Z</time></trkpt><trkpt lat="45.1800855" lon="8.3911401"><ele>117.80000000000001</ele><time>2026-04-04T15:15:00.602Z</time></trkpt><trkpt lat="45.1801616" lon="8.3912197"><ele>118.0</ele><time>2026-04-04T15:15:01.603Z</time></trkpt><trkpt lat="45.1802347" lon="8.3912985"><ele>117.83333333333334</ele><time>2026-04-04T15:15:02.602Z</time></trkpt><trkpt lat="45.1803053" lon="8.391375"><ele>117.66666666666667</ele><time>2026-04-04T15:15:03.603Z</time></trkpt><trkpt lat="45.1803706" lon="8.3914493"><ele>117.5</ele><time>2026-04-04T15:15:04.603Z</time></trkpt><trkpt lat="45.1804368" lon="8.3915283"><ele>117.33333333333334</ele><time>2026-04-04T15:15:05.603Z</time></trkpt><trkpt lat="45.1805062" lon="8.3916124"><ele>117.16666666666667</ele><time>2026-04-04T15:15:06.603Z</time></trkpt><trkpt lat="45.1805815" lon="8.3917034"><ele>117.0</ele><time>2026-04-04T15:15:07.602Z</time></trkpt><trkpt lat="45.1806595" lon="8.3917859"><ele>117.0</ele><time>2026-04-04T15:15:08.603Z</time></trkpt><trkpt lat="45.1807372" lon="8.3918665"><ele>116.99999999999999</ele><time>2026-04-04T15:15:09.603Z</time></trkpt><trkpt lat="45.1808167" lon="8.3919534"><ele>116.99999999999999</ele><time>2026-04-04T15:15:10.603Z</time></trkpt><trkpt lat="45.1808964" lon="8.3920396"><ele>117.0</ele><time>2026-04-04T15:15:11.602Z</time></trkpt><trkpt lat="45.1809782" lon="8.3921239"><ele>117.0</ele><time>2026-04-04T15:15:12.603Z</time></trkpt><trkpt lat="45.1810617" lon="8.3922104"><ele>117.0</ele><time>2026-04-04T15:15:13.602Z</time></trkpt><trkpt lat="45.1811447" lon="8.3922997"><ele>116.99999999999999</ele><time>2026-04-04T15:15:14.603Z</time></trkpt><trkpt lat="45.1812276" lon="8.392391"><ele>116.99999999999999</ele><time>2026-04-04T15:15:15.602Z</time></trkpt><trkpt lat="45.1813086" lon="8.3924798"><ele>117.0</ele><time>2026-04-04T15:15:16.603Z</time></trkpt><trkpt lat="45.1813879" lon="8.3925656"><ele>117.0</ele><time>2026-04-04T15:15:17.602Z</time></trkpt><trkpt lat="45.1814651" lon="8.392649"><ele>117.0</ele><time>2026-04-04T15:15:18.602Z</time></trkpt><trkpt lat="45.1815403" lon="8.3927313"><ele>116.99999999999999</ele><time>2026-04-04T15:15:19.603Z</time></trkpt><trkpt lat="45.1816139" lon="8.3928126"><ele>116.99999999999999</ele><time>2026-04-04T15:15:20.603Z</time></trkpt><trkpt lat="45.1816869" lon="8.3928905"><ele>117.0</ele><time>2026-04-04T15:15:21.603Z</time></trkpt><trkpt lat="45.1817619" lon="8.392971"><ele>117.0</ele><time>2026-04-04T15:15:22.603Z</time></trkpt><trkpt lat="45.1818367" lon="8.3930507"><ele>117.0</ele><time>2026-04-04T15:15:23.602Z</time></trkpt><trkpt lat="45.1819119" lon="8.3931311"><ele>116.99999999999999</ele><time>2026-04-04T15:15:24.602Z</time></trkpt><trkpt lat="45.181986" lon="8.393211"><ele>116.99999999999999</ele><time>2026-04-04T15:15:25.602Z</time></trkpt><trkpt lat="45.1820594" lon="8.3932904"><ele>117.0</ele><time>2026-04-04T15:15:26.602Z</time></trkpt><trkpt lat="45.1821321" lon="8.3933693"><ele>117.0</ele><time>2026-04-04T15:15:27.602Z</time></trkpt><trkpt lat="45.1822035" lon="8.3934484"><ele>117.0</ele><time>2026-04-04T15:15:28.602Z</time></trkpt><trkpt lat="45.1822739" lon="8.3935261"><ele>116.99999999999999</ele><time>2026-04-04T15:15:29.602Z</time></trkpt><trkpt lat="45.1823472" lon="8.3935992"><ele>116.99999999999999</ele><time>2026-04-04T15:15:30.602Z</time></trkpt><trkpt lat="45.1824213" lon="8.3936768"><ele>117.0</ele><time>2026-04-04T15:15:31.602Z</time></trkpt><trkpt lat="45.1824972" lon="8.3937598"><ele>117.0</ele><time>2026-04-04T15:15:32.602Z</time></trkpt><trkpt lat="45.182572" lon="8.3938449"><ele>117.0</ele><time>2026-04-04T15:15:33.603Z</time></trkpt><trkpt lat="45.1826471" lon="8.3939274"><ele>117.0</ele><time>2026-04-04T15:15:34.603Z</time></trkpt><trkpt lat="45.1827213" lon="8.3940084"><ele>117.0</ele><time>2026-04-04T15:15:35.603Z</time></trkpt><trkpt lat="45.1827915" lon="8.3940874"><ele>117.0</ele><time>2026-04-04T15:15:36.603Z</time></trkpt><trkpt lat="45.1828515" lon="8.3941663"><ele>117.0</ele><time>2026-04-04T15:15:37.602Z</time></trkpt><trkpt lat="45.1828998" lon="8.3942503"><ele>117.0</ele><time>2026-04-04T15:15:38.603Z</time></trkpt><trkpt lat="45.1829371" lon="8.3943355"><ele>117.0</ele><time>2026-04-04T15:15:39.604Z</time></trkpt><trkpt lat="45.1829688" lon="8.3944259"><ele>117.0</ele><time>2026-04-04T15:15:40.603Z</time></trkpt><trkpt lat="45.1829928" lon="8.3945243"><ele>117.0</ele><time>2026-04-04T15:15:41.603Z</time></trkpt><trkpt lat="45.1830088" lon="8.3946277"><ele>117.0</ele><time>2026-04-04T15:15:42.604Z</time></trkpt><trkpt lat="45.1830209" lon="8.3947416"><ele>117.0</ele><time>2026-04-04T15:15:43.604Z</time></trkpt><trkpt lat="45.1830263" lon="8.3948667"><ele>117.0</ele><time>2026-04-04T15:15:44.603Z</time></trkpt><trkpt lat="45.1830336" lon="8.3949836"><ele>117.16666666666667</ele><time>2026-04-04T15:15:45.604Z</time></trkpt><trkpt lat="45.1830397" lon="8.3951035"><ele>117.33333333333334</ele><time>2026-04-04T15:15:46.603Z</time></trkpt><trkpt lat="45.1830375" lon="8.3952183"><ele>117.5</ele><time>2026-04-04T15:15:47.603Z</time></trkpt><trkpt lat="45.1830378" lon="8.3953385"><ele>117.66666666666667</ele><time>2026-04-04T15:15:48.604Z</time></trkpt><trkpt lat="45.183042" lon="8.3954684"><ele>117.83333333333334</ele><time>2026-04-04T15:15:49.604Z</time></trkpt><trkpt lat="45.1830463" lon="8.3956029"><ele>118.0</ele><time>2026-04-04T15:15:50.603Z</time></trkpt><trkpt lat="45.1830549" lon="8.3957287"><ele>118.00000000000001</ele><time>2026-04-04T15:15:51.603Z</time></trkpt><trkpt lat="45.1830664" lon="8.3958493"><ele>118.0</ele><time>2026-04-04T15:15:52.604Z</time></trkpt><trkpt lat="45.1830742" lon="8.3959659"><ele>118.0</ele><time>2026-04-04T15:15:53.603Z</time></trkpt><trkpt lat="45.1830825" lon="8.3960859"><ele>118.0</ele><time>2026-04-04T15:15:54.604Z</time></trkpt><trkpt lat="45.183085" lon="8.3962047"><ele>118.00000000000001</ele><time>2026-04-04T15:15:55.603Z</time></trkpt><trkpt lat="45.1830852" lon="8.3963194"><ele>118.0</ele><time>2026-04-04T15:15:56.604Z</time></trkpt><trkpt lat="45.1830876" lon="8.3964387"><ele>118.16666666666667</ele><time>2026-04-04T15:15:57.603Z</time></trkpt><trkpt lat="45.1830913" lon="8.3965501"><ele>118.33333333333334</ele><time>2026-04-04T15:15:58.604Z</time></trkpt><trkpt lat="45.1830963" lon="8.3966721"><ele>118.5</ele><time>2026-04-04T15:15:59.603Z</time></trkpt><trkpt lat="45.1831004" lon="8.3967934"><ele>118.66666666666666</ele><time>2026-04-04T15:16:00.604Z</time></trkpt><trkpt lat="45.1831028" lon="8.3969192"><ele>118.83333333333333</ele><time>2026-04-04T15:16:01.603Z</time></trkpt><trkpt lat="45.1831031" lon="8.3970465"><ele>119.0</ele><time>2026-04-04T15:16:02.603Z</time></trkpt><trkpt lat="45.1831064" lon="8.3971737"><ele>118.99999999999999</ele><time>2026-04-04T15:16:03.604Z</time></trkpt><trkpt lat="45.1831107" lon="8.3972951"><ele>119.0</ele><time>2026-04-04T15:16:04.603Z</time></trkpt><trkpt lat="45.183123" lon="8.3974117"><ele>119.0</ele><time>2026-04-04T15:16:05.603Z</time></trkpt><trkpt lat="45.1831394" lon="8.3975187"><ele>119.0</ele><time>2026-04-04T15:16:06.603Z</time></trkpt><trkpt lat="45.1831611" lon="8.3976313"><ele>118.99999999999999</ele><time>2026-04-04T15:16:07.603Z</time></trkpt><trkpt lat="45.1831804" lon="8.3977467"><ele>119.0</ele><time>2026-04-04T15:16:08.604Z</time></trkpt><trkpt lat="45.1831924" lon="8.3978545"><ele>119.16666666666666</ele><time>2026-04-04T15:16:09.604Z</time></trkpt><trkpt lat="45.1832221" lon="8.3979663"><ele>119.33333333333333</ele><time>2026-04-04T15:16:10.604Z</time></trkpt><trkpt lat="45.1832588" lon="8.3980709"><ele>119.5</ele><time>2026-04-04T15:16:11.603Z</time></trkpt><trkpt lat="45.1832964" lon="8.3981758"><ele>119.66666666666666</ele><time>2026-04-04T15:16:12.603Z</time></trkpt><trkpt lat="45.1833389" lon="8.3982749"><ele>119.83333333333333</ele><time>2026-04-04T15:16:13.603Z</time></trkpt><trkpt lat="45.1833803" lon="8.3983676"><ele>120.0</ele><time>2026-04-04T15:16:14.604Z</time></trkpt><trkpt lat="45.1834261" lon="8.3984545"><ele>120.0</ele><time>2026-04-04T15:16:15.603Z</time></trkpt><trkpt lat="45.1834805" lon="8.3985394"><ele>120.0</ele><time>2026-04-04T15:16:16.604Z</time></trkpt><trkpt lat="45.1835353" lon="8.3986206"><ele>120.0</ele><time>2026-04-04T15:16:17.603Z</time></trkpt><trkpt lat="45.1835849" lon="8.3987032"><ele>120.0</ele><time>2026-04-04T15:16:18.604Z</time></trkpt><trkpt lat="45.1836248" lon="8.3987945"><ele>120.0</ele><time>2026-04-04T15:16:19.603Z</time></trkpt><trkpt lat="45.1836587" lon="8.3988855"><ele>120.0</ele><time>2026-04-04T15:16:20.604Z</time></trkpt><trkpt lat="45.1836848" lon="8.3989879"><ele>119.83333333333333</ele><time>2026-04-04T15:16:21.604Z</time></trkpt><trkpt lat="45.1836941" lon="8.3990992"><ele>119.66666666666666</ele><time>2026-04-04T15:16:22.604Z</time></trkpt><trkpt lat="45.1836915" lon="8.3992166"><ele>119.5</ele><time>2026-04-04T15:16:23.603Z</time></trkpt><trkpt lat="45.1836869" lon="8.3993329"><ele>119.33333333333333</ele><time>2026-04-04T15:16:24.604Z</time></trkpt><trkpt lat="45.1836864" lon="8.3994395"><ele>119.16666666666666</ele><time>2026-04-04T15:16:25.604Z</time></trkpt><trkpt lat="45.1836934" lon="8.3995461"><ele>119.0</ele><time>2026-04-04T15:16:26.605Z</time></trkpt><trkpt lat="45.1837009" lon="8.3996524"><ele>118.99999999999999</ele><time>2026-04-04T15:16:27.604Z</time></trkpt><trkpt lat="45.1837049" lon="8.3997612"><ele>119.0</ele><time>2026-04-04T15:16:28.605Z</time></trkpt><trkpt lat="45.1837089" lon="8.3998757"><ele>119.0</ele><time>2026-04-04T15:16:29.605Z</time></trkpt><trkpt lat="45.1837088" lon="8.3999888"><ele>119.0</ele><time>2026-04-04T15:16:30.605Z</time></trkpt><trkpt lat="45.1837106" lon="8.4000997"><ele>118.99999999999999</ele><time>2026-04-04T15:16:31.604Z</time></trkpt><trkpt lat="45.183715" lon="8.4002088"><ele>119.0</ele><time>2026-04-04T15:16:32.605Z</time></trkpt><trkpt lat="45.1837229" lon="8.400312"><ele>118.99999999999999</ele><time>2026-04-04T15:16:33.604Z</time></trkpt><trkpt lat="45.1837309" lon="8.4004034"><ele>119.0</ele><time>2026-04-04T15:16:34.604Z</time></trkpt><trkpt lat="45.1837396" lon="8.4004929"><ele>119.0</ele><time>2026-04-04T15:16:35.604Z</time></trkpt><trkpt lat="45.1837493" lon="8.4006702"><ele>119.0</ele><time>2026-04-04T15:16:37.605Z</time></trkpt><trkpt lat="45.1837533" lon="8.4008049"><ele>118.99999999999999</ele><time>2026-04-04T15:16:39.604Z</time></trkpt><trkpt lat="45.1838232" lon="8.4009004"><ele>119.0</ele><time>2026-04-04T15:16:42.604Z</time></trkpt><trkpt lat="45.1839634" lon="8.4009197"><ele>119.33333333333333</ele><time>2026-04-04T15:16:44.604Z</time></trkpt><trkpt lat="45.1840455" lon="8.4009492"><ele>119.66666666666666</ele><time>2026-04-04T15:16:45.605Z</time></trkpt><trkpt lat="45.184111" lon="8.4010206"><ele>120.0</ele><time>2026-04-04T15:16:46.605Z</time></trkpt><trkpt lat="45.1841607" lon="8.4011169"><ele>120.33333333333334</ele><time>2026-04-04T15:16:47.604Z</time></trkpt><trkpt lat="45.1842017" lon="8.4012056"><ele>120.66666666666667</ele><time>2026-04-04T15:16:48.605Z</time></trkpt><trkpt lat="45.1842416" lon="8.401282"><ele>121.0</ele><time>2026-04-04T15:16:49.605Z</time></trkpt><trkpt lat="45.1842834" lon="8.4013782"><ele>121.16666666666667</ele><time>2026-04-04T15:16:50.605Z</time></trkpt><trkpt lat="45.1843261" lon="8.4014694"><ele>121.33333333333334</ele><time>2026-04-04T15:16:51.604Z</time></trkpt><trkpt lat="45.1843689" lon="8.401568"><ele>121.5</ele><time>2026-04-04T15:16:52.604Z</time></trkpt><trkpt lat="45.1844067" lon="8.4016661"><ele>121.66666666666666</ele><time>2026-04-04T15:16:53.605Z</time></trkpt><trkpt lat="45.1844455" lon="8.4017639"><ele>121.83333333333333</ele><time>2026-04-04T15:16:54.605Z</time></trkpt><trkpt lat="45.184485" lon="8.4018511"><ele>122.0</ele><time>2026-04-04T15:16:55.605Z</time></trkpt><trkpt lat="45.184529" lon="8.4019183"><ele>122.0</ele><time>2026-04-04T15:16:56.605Z</time></trkpt><trkpt lat="45.1845945" lon="8.4019489"><ele>121.99999999999999</ele><time>2026-04-04T15:16:57.605Z</time></trkpt><trkpt lat="45.1847215" lon="8.401989"><ele>121.99999999999999</ele><time>2026-04-04T15:16:59.605Z</time></trkpt><trkpt lat="45.1848154" lon="8.4020761"><ele>122.0</ele><time>2026-04-04T15:17:01.604Z</time></trkpt><trkpt lat="45.1848837" lon="8.4021619"><ele>122.0</ele><time>2026-04-04T15:17:10.604Z</time></trkpt><trkpt lat="45.1849947" lon="8.402172"><ele>121.66666666666666</ele><time>2026-04-04T15:17:12.606Z</time></trkpt><trkpt lat="45.1850832" lon="8.4021905"><ele>121.33333333333333</ele><time>2026-04-04T15:17:13.605Z</time></trkpt><trkpt lat="45.1851649" lon="8.4022022"><ele>121.0</ele><time>2026-04-04T15:17:14.606Z</time></trkpt><trkpt lat="45.1852363" lon="8.4022057"><ele>120.66666666666666</ele><time>2026-04-04T15:17:15.606Z</time></trkpt><trkpt lat="45.1853324" lon="8.4021912"><ele>120.33333333333333</ele><time>2026-04-04T15:17:16.605Z</time></trkpt><trkpt lat="45.1854132" lon="8.4021897"><ele>120.0</ele><time>2026-04-04T15:17:17.605Z</time></trkpt><trkpt lat="45.1854876" lon="8.4021925"><ele>120.0</ele><time>2026-04-04T15:17:18.606Z</time></trkpt><trkpt lat="45.1855592" lon="8.4021982"><ele>120.0</ele><time>2026-04-04T15:17:19.605Z</time></trkpt><trkpt lat="45.1856237" lon="8.402201"><ele>120.0</ele><time>2026-04-04T15:17:20.606Z</time></trkpt><trkpt lat="45.1856936" lon="8.4022063"><ele>120.0</ele><time>2026-04-04T15:17:21.606Z</time></trkpt><trkpt lat="45.1857726" lon="8.4022155"><ele>120.0</ele><time>2026-04-04T15:17:22.606Z</time></trkpt><trkpt lat="45.1858504" lon="8.4022237"><ele>120.0</ele><time>2026-04-04T15:17:23.606Z</time></trkpt><trkpt lat="45.1859258" lon="8.4022289"><ele>120.0</ele><time>2026-04-04T15:17:24.606Z</time></trkpt><trkpt lat="45.1860015" lon="8.4022284"><ele>119.83333333333333</ele><time>2026-04-04T15:17:25.605Z</time></trkpt><trkpt lat="45.1860846" lon="8.4022214"><ele>119.66666666666666</ele><time>2026-04-04T15:17:26.605Z</time></trkpt><trkpt lat="45.1861636" lon="8.4022136"><ele>119.5</ele><time>2026-04-04T15:17:27.605Z</time></trkpt><trkpt lat="45.1862407" lon="8.4022086"><ele>119.33333333333333</ele><time>2026-04-04T15:17:28.606Z</time></trkpt><trkpt lat="45.1863296" lon="8.4022037"><ele>119.16666666666666</ele><time>2026-04-04T15:17:29.606Z</time></trkpt><trkpt lat="45.1864206" lon="8.4021928"><ele>119.0</ele><time>2026-04-04T15:17:30.605Z</time></trkpt><trkpt lat="45.1865036" lon="8.402186"><ele>118.99999999999999</ele><time>2026-04-04T15:17:31.605Z</time></trkpt><trkpt lat="45.1865889" lon="8.4021712"><ele>119.0</ele><time>2026-04-04T15:17:32.605Z</time></trkpt><trkpt lat="45.1866739" lon="8.4021553"><ele>119.0</ele><time>2026-04-04T15:17:33.605Z</time></trkpt><trkpt lat="45.1867615" lon="8.4021483"><ele>119.0</ele><time>2026-04-04T15:17:34.606Z</time></trkpt><trkpt lat="45.1868624" lon="8.4021482"><ele>118.99999999999999</ele><time>2026-04-04T15:17:35.606Z</time></trkpt><trkpt lat="45.1869506" lon="8.4021439"><ele>119.0</ele><time>2026-04-04T15:17:36.606Z</time></trkpt><trkpt lat="45.1870395" lon="8.4021367"><ele>119.0</ele><time>2026-04-04T15:17:37.606Z</time></trkpt><trkpt lat="45.1871293" lon="8.4021229"><ele>119.0</ele><time>2026-04-04T15:17:38.606Z</time></trkpt><trkpt lat="45.1872135" lon="8.4021055"><ele>119.0</ele><time>2026-04-04T15:17:39.605Z</time></trkpt><trkpt lat="45.1873073" lon="8.4020818"><ele>119.0</ele><time>2026-04-04T15:17:40.605Z</time></trkpt><trkpt lat="45.1873992" lon="8.4020584"><ele>119.0</ele><time>2026-04-04T15:17:41.606Z</time></trkpt><trkpt lat="45.1874908" lon="8.4020372"><ele>118.66666666666666</ele><time>2026-04-04T15:17:42.605Z</time></trkpt><trkpt lat="45.1875818" lon="8.4020178"><ele>118.33333333333333</ele><time>2026-04-04T15:17:43.605Z</time></trkpt><trkpt lat="45.1876723" lon="8.4019946"><ele>118.0</ele><time>2026-04-04T15:17:44.605Z</time></trkpt><trkpt lat="45.187763" lon="8.4019708"><ele>117.66666666666666</ele><time>2026-04-04T15:17:45.605Z</time></trkpt><trkpt lat="45.1878489" lon="8.4019518"><ele>117.33333333333333</ele><time>2026-04-04T15:17:46.605Z</time></trkpt><trkpt lat="45.1879232" lon="8.4019411"><ele>117.0</ele><time>2026-04-04T15:17:47.606Z</time></trkpt><trkpt lat="45.1880416" lon="8.4019587"><ele>117.0</ele><time>2026-04-04T15:17:49.606Z</time></trkpt><trkpt lat="45.1881381" lon="8.4020593"><ele>116.99999999999999</ele><time>2026-04-04T15:17:51.606Z</time></trkpt><trkpt lat="45.1881747" lon="8.4021466"><ele>116.99999999999999</ele><time>2026-04-04T15:17:52.606Z</time></trkpt><trkpt lat="45.188197" lon="8.4022643"><ele>117.0</ele><time>2026-04-04T15:17:53.605Z</time></trkpt><trkpt lat="45.1882116" lon="8.402405"><ele>117.0</ele><time>2026-04-04T15:17:54.605Z</time></trkpt><trkpt lat="45.1882238" lon="8.4025466"><ele>117.19999999999999</ele><time>2026-04-04T15:17:55.606Z</time></trkpt><trkpt lat="45.1882351" lon="8.4026833"><ele>117.39999999999999</ele><time>2026-04-04T15:17:56.605Z</time></trkpt><trkpt lat="45.1882479" lon="8.4028271"><ele>117.60000000000001</ele><time>2026-04-04T15:17:57.606Z</time></trkpt><trkpt lat="45.1882613" lon="8.4029739"><ele>117.80000000000001</ele><time>2026-04-04T15:17:58.607Z</time></trkpt><trkpt lat="45.1882744" lon="8.4031183"><ele>118.0</ele><time>2026-04-04T15:17:59.607Z</time></trkpt><trkpt lat="45.1882912" lon="8.4032615"><ele>118.0</ele><time>2026-04-04T15:18:00.606Z</time></trkpt><trkpt lat="45.1883073" lon="8.4034005"><ele>118.00000000000001</ele><time>2026-04-04T15:18:01.606Z</time></trkpt><trkpt lat="45.1883231" lon="8.4035357"><ele>118.00000000000001</ele><time>2026-04-04T15:18:02.606Z</time></trkpt><trkpt lat="45.1883366" lon="8.4036642"><ele>118.0</ele><time>2026-04-04T15:18:03.606Z</time></trkpt><trkpt lat="45.1883489" lon="8.4037924"><ele>118.0</ele><time>2026-04-04T15:18:04.606Z</time></trkpt><trkpt lat="45.1883592" lon="8.4039284"><ele>118.0</ele><time>2026-04-04T15:18:05.607Z</time></trkpt><trkpt lat="45.1883658" lon="8.4040619"><ele>118.00000000000001</ele><time>2026-04-04T15:18:06.606Z</time></trkpt><trkpt lat="45.1883641" lon="8.4042011"><ele>118.00000000000001</ele><time>2026-04-04T15:18:07.607Z</time></trkpt><trkpt lat="45.1883578" lon="8.4043441"><ele>118.0</ele><time>2026-04-04T15:18:08.606Z</time></trkpt><trkpt lat="45.1883494" lon="8.4044881"><ele>118.0</ele><time>2026-04-04T15:18:09.606Z</time></trkpt><trkpt lat="45.188339" lon="8.4046297"><ele>117.60000000000001</ele><time>2026-04-04T15:18:10.606Z</time></trkpt><trkpt lat="45.1883289" lon="8.4047648"><ele>117.20000000000002</ele><time>2026-04-04T15:18:11.607Z</time></trkpt><trkpt lat="45.1883183" lon="8.4049022"><ele>116.8</ele><time>2026-04-04T15:18:12.607Z</time></trkpt><trkpt lat="45.1883085" lon="8.4050364"><ele>116.4</ele><time>2026-04-04T15:18:13.607Z</time></trkpt><trkpt lat="45.1882994" lon="8.4051738"><ele>116.0</ele><time>2026-04-04T15:18:14.606Z</time></trkpt><trkpt lat="45.1882902" lon="8.4053116"><ele>116.0</ele><time>2026-04-04T15:18:15.606Z</time></trkpt><trkpt lat="45.1882802" lon="8.4054476"><ele>116.0</ele><time>2026-04-04T15:18:16.607Z</time></trkpt><trkpt lat="45.1882699" lon="8.405583"><ele>116.0</ele><time>2026-04-04T15:18:17.606Z</time></trkpt><trkpt lat="45.1882587" lon="8.405717"><ele>116.0</ele><time>2026-04-04T15:18:18.607Z</time></trkpt><trkpt lat="45.1882476" lon="8.4058583"><ele>116.0</ele><time>2026-04-04T15:18:19.606Z</time></trkpt><trkpt lat="45.1882358" lon="8.405998"><ele>116.0</ele><time>2026-04-04T15:18:20.606Z</time></trkpt><trkpt lat="45.188222" lon="8.4061349"><ele>116.0</ele><time>2026-04-04T15:18:21.607Z</time></trkpt><trkpt lat="45.1882089" lon="8.4062698"><ele>116.0</ele><time>2026-04-04T15:18:22.606Z</time></trkpt><trkpt lat="45.188196" lon="8.4064059"><ele>116.0</ele><time>2026-04-04T15:18:23.607Z</time></trkpt><trkpt lat="45.1881829" lon="8.4065472"><ele>116.0</ele><time>2026-04-04T15:18:24.607Z</time></trkpt><trkpt lat="45.1881699" lon="8.4066837"><ele>115.8</ele><time>2026-04-04T15:18:25.606Z</time></trkpt><trkpt lat="45.1881575" lon="8.4068123"><ele>115.6</ele><time>2026-04-04T15:18:26.606Z</time></trkpt><trkpt lat="45.1881455" lon="8.406951"><ele>115.4</ele><time>2026-04-04T15:18:27.607Z</time></trkpt><trkpt lat="45.1881343" lon="8.40709"><ele>115.2</ele><time>2026-04-04T15:18:28.606Z</time></trkpt><trkpt lat="45.1881258" lon="8.4072278"><ele>115.0</ele><time>2026-04-04T15:18:29.607Z</time></trkpt><trkpt lat="45.1881139" lon="8.4073649"><ele>115.0</ele><time>2026-04-04T15:18:30.606Z</time></trkpt><trkpt lat="45.1880999" lon="8.4075039"><ele>115.0</ele><time>2026-04-04T15:18:31.606Z</time></trkpt><trkpt lat="45.188089" lon="8.4076438"><ele>115.0</ele><time>2026-04-04T15:18:32.607Z</time></trkpt><trkpt lat="45.1880777" lon="8.4077826"><ele>115.0</ele><time>2026-04-04T15:18:33.606Z</time></trkpt><trkpt lat="45.1880653" lon="8.4079241"><ele>115.0</ele><time>2026-04-04T15:18:34.606Z</time></trkpt><trkpt lat="45.1880519" lon="8.4080662"><ele>115.2</ele><time>2026-04-04T15:18:35.607Z</time></trkpt><trkpt lat="45.1880366" lon="8.4082073"><ele>115.4</ele><time>2026-04-04T15:18:36.607Z</time></trkpt><trkpt lat="45.1880203" lon="8.4083436"><ele>115.6</ele><time>2026-04-04T15:18:37.606Z</time></trkpt><trkpt lat="45.188005" lon="8.40848"><ele>115.8</ele><time>2026-04-04T15:18:38.606Z</time></trkpt><trkpt lat="45.18799" lon="8.4086143"><ele>116.0</ele><time>2026-04-04T15:18:39.607Z</time></trkpt><trkpt lat="45.1879761" lon="8.408748"><ele>116.0</ele><time>2026-04-04T15:18:40.607Z</time></trkpt><trkpt lat="45.187963" lon="8.4088917"><ele>116.0</ele><time>2026-04-04T15:18:41.607Z</time></trkpt><trkpt lat="45.1879506" lon="8.4090336"><ele>116.0</ele><time>2026-04-04T15:18:42.606Z</time></trkpt><trkpt lat="45.1879361" lon="8.4091744"><ele>116.0</ele><time>2026-04-04T15:18:43.606Z</time></trkpt><trkpt lat="45.1879224" lon="8.4093128"><ele>116.0</ele><time>2026-04-04T15:18:44.607Z</time></trkpt><trkpt lat="45.1879077" lon="8.4094547"><ele>116.0</ele><time>2026-04-04T15:18:45.608Z</time></trkpt><trkpt lat="45.1878937" lon="8.4095916"><ele>116.0</ele><time>2026-04-04T15:18:46.607Z</time></trkpt><trkpt lat="45.18788" lon="8.4097289"><ele>116.0</ele><time>2026-04-04T15:18:47.608Z</time></trkpt><trkpt lat="45.1878689" lon="8.40987"><ele>116.0</ele><time>2026-04-04T15:18:48.608Z</time></trkpt><trkpt lat="45.1878596" lon="8.4100123"><ele>116.0</ele><time>2026-04-04T15:18:49.607Z</time></trkpt><trkpt lat="45.1878504" lon="8.4101561"><ele>115.8</ele><time>2026-04-04T15:18:50.608Z</time></trkpt><trkpt lat="45.1878411" lon="8.4102976"><ele>115.6</ele><time>2026-04-04T15:18:51.608Z</time></trkpt><trkpt lat="45.1878312" lon="8.4104383"><ele>115.4</ele><time>2026-04-04T15:18:52.608Z</time></trkpt><trkpt lat="45.1878205" lon="8.410579"><ele>115.2</ele><time>2026-04-04T15:18:53.607Z</time></trkpt><trkpt lat="45.18781" lon="8.41072"><ele>115.0</ele><time>2026-04-04T15:18:54.607Z</time></trkpt><trkpt lat="45.1877997" lon="8.4108615"><ele>115.0</ele><time>2026-04-04T15:18:55.607Z</time></trkpt><trkpt lat="45.1877904" lon="8.4110027"><ele>115.0</ele><time>2026-04-04T15:18:56.608Z</time></trkpt><trkpt lat="45.1877809" lon="8.4111416"><ele>115.0</ele><time>2026-04-04T15:18:57.608Z</time></trkpt><trkpt lat="45.187771" lon="8.4112794"><ele>115.0</ele><time>2026-04-04T15:18:58.607Z</time></trkpt><trkpt lat="45.1877588" lon="8.4114191"><ele>115.0</ele><time>2026-04-04T15:18:59.607Z</time></trkpt><trkpt lat="45.1877459" lon="8.4115589"><ele>115.2</ele><time>2026-04-04T15:19:00.607Z</time></trkpt><trkpt lat="45.1877325" lon="8.4116969"><ele>115.4</ele><time>2026-04-04T15:19:01.607Z</time></trkpt><trkpt lat="45.1877185" lon="8.4118402"><ele>115.6</ele><time>2026-04-04T15:19:02.607Z</time></trkpt><trkpt lat="45.1877047" lon="8.4119807"><ele>115.8</ele><time>2026-04-04T15:19:03.608Z</time></trkpt><trkpt lat="45.1876916" lon="8.41212"><ele>116.0</ele><time>2026-04-04T15:19:04.607Z</time></trkpt><trkpt lat="45.1876769" lon="8.4122602"><ele>116.0</ele><time>2026-04-04T15:19:05.608Z</time></trkpt><trkpt lat="45.187662" lon="8.4123997"><ele>116.0</ele><time>2026-04-04T15:19:06.608Z</time></trkpt><trkpt lat="45.1876463" lon="8.4125381"><ele>116.0</ele><time>2026-04-04T15:19:07.607Z</time></trkpt><trkpt lat="45.1876311" lon="8.4126761"><ele>116.0</ele><time>2026-04-04T15:19:08.607Z</time></trkpt><trkpt lat="45.1876175" lon="8.4128131"><ele>116.0</ele><time>2026-04-04T15:19:09.608Z</time></trkpt><trkpt lat="45.187605" lon="8.4129476"><ele>116.0</ele><time>2026-04-04T15:19:10.608Z</time></trkpt><trkpt lat="45.1875916" lon="8.4130832"><ele>116.0</ele><time>2026-04-04T15:19:11.608Z</time></trkpt><trkpt lat="45.187577" lon="8.4132162"><ele>116.0</ele><time>2026-04-04T15:19:12.607Z</time></trkpt><trkpt lat="45.187563" lon="8.4133512"><ele>116.0</ele><time>2026-04-04T15:19:13.608Z</time></trkpt><trkpt lat="45.1875491" lon="8.4134848"><ele>116.0</ele><time>2026-04-04T15:19:14.608Z</time></trkpt><trkpt lat="45.1875349" lon="8.4136195"><ele>116.0</ele><time>2026-04-04T15:19:15.608Z</time></trkpt><trkpt lat="45.1875216" lon="8.4137531"><ele>116.0</ele><time>2026-04-04T15:19:16.607Z</time></trkpt><trkpt lat="45.1875057" lon="8.4138943"><ele>116.0</ele><time>2026-04-04T15:19:17.608Z</time></trkpt><trkpt lat="45.187489" lon="8.4140359"><ele>116.0</ele><time>2026-04-04T15:19:18.608Z</time></trkpt><trkpt lat="45.1874731" lon="8.4141717"><ele>116.0</ele><time>2026-04-04T15:19:19.608Z</time></trkpt><trkpt lat="45.187456" lon="8.4143028"><ele>116.0</ele><time>2026-04-04T15:19:20.607Z</time></trkpt><trkpt lat="45.1874422" lon="8.4144325"><ele>116.0</ele><time>2026-04-04T15:19:21.608Z</time></trkpt><trkpt lat="45.1874297" lon="8.4145682"><ele>116.0</ele><time>2026-04-04T15:19:22.607Z</time></trkpt><trkpt lat="45.1874187" lon="8.4147055"><ele>116.0</ele><time>2026-04-04T15:19:23.608Z</time></trkpt><trkpt lat="45.1874071" lon="8.4148432"><ele>116.0</ele><time>2026-04-04T15:19:24.608Z</time></trkpt><trkpt lat="45.1873939" lon="8.4149825"><ele>116.0</ele><time>2026-04-04T15:19:25.608Z</time></trkpt><trkpt lat="45.1873764" lon="8.4151217"><ele>116.0</ele><time>2026-04-04T15:19:26.609Z</time></trkpt><trkpt lat="45.1873583" lon="8.4152615"><ele>116.0</ele><time>2026-04-04T15:19:27.607Z</time></trkpt><trkpt lat="45.1873419" lon="8.4154005"><ele>116.0</ele><time>2026-04-04T15:19:28.607Z</time></trkpt><trkpt lat="45.1873291" lon="8.4155408"><ele>116.0</ele><time>2026-04-04T15:19:29.607Z</time></trkpt><trkpt lat="45.187317" lon="8.4156751"><ele>116.0</ele><time>2026-04-04T15:19:30.608Z</time></trkpt><trkpt lat="45.1873038" lon="8.4158115"><ele>116.0</ele><time>2026-04-04T15:19:31.609Z</time></trkpt><trkpt lat="45.1872911" lon="8.4159456"><ele>116.0</ele><time>2026-04-04T15:19:32.609Z</time></trkpt><trkpt lat="45.1872781" lon="8.41608"><ele>116.0</ele><time>2026-04-04T15:19:33.609Z</time></trkpt><trkpt lat="45.1872629" lon="8.4162138"><ele>116.0</ele><time>2026-04-04T15:19:34.609Z</time></trkpt><trkpt lat="45.1872467" lon="8.4163462"><ele>116.0</ele><time>2026-04-04T15:19:35.608Z</time></trkpt><trkpt lat="45.1872336" lon="8.4164783"><ele>116.0</ele><time>2026-04-04T15:19:36.608Z</time></trkpt><trkpt lat="45.1872217" lon="8.416614"><ele>116.0</ele><time>2026-04-04T15:19:37.609Z</time></trkpt><trkpt lat="45.1872099" lon="8.4167515"><ele>116.0</ele><time>2026-04-04T15:19:38.608Z</time></trkpt><trkpt lat="45.1871962" lon="8.4168892"><ele>116.0</ele><time>2026-04-04T15:19:39.608Z</time></trkpt><trkpt lat="45.1871818" lon="8.4170266"><ele>116.19999999999999</ele><time>2026-04-04T15:19:40.608Z</time></trkpt><trkpt lat="45.1871704" lon="8.4171639"><ele>116.39999999999999</ele><time>2026-04-04T15:19:41.608Z</time></trkpt><trkpt lat="45.1871585" lon="8.417304"><ele>116.6</ele><time>2026-04-04T15:19:42.609Z</time></trkpt><trkpt lat="45.187146" lon="8.4174442"><ele>116.8</ele><time>2026-04-04T15:19:43.609Z</time></trkpt><trkpt lat="45.1871324" lon="8.4175834"><ele>117.0</ele><time>2026-04-04T15:19:44.608Z</time></trkpt><trkpt lat="45.1871195" lon="8.4177213"><ele>117.0</ele><time>2026-04-04T15:19:45.609Z</time></trkpt><trkpt lat="45.1871075" lon="8.4178603"><ele>116.99999999999999</ele><time>2026-04-04T15:19:46.609Z</time></trkpt><trkpt lat="45.187095" lon="8.4180004"><ele>116.99999999999999</ele><time>2026-04-04T15:19:47.608Z</time></trkpt><trkpt lat="45.1870814" lon="8.4181355"><ele>117.0</ele><time>2026-04-04T15:19:48.608Z</time></trkpt><trkpt lat="45.1870689" lon="8.4182774"><ele>117.0</ele><time>2026-04-04T15:19:49.608Z</time></trkpt><trkpt lat="45.1870564" lon="8.4184194"><ele>117.0</ele><time>2026-04-04T15:19:50.609Z</time></trkpt><trkpt lat="45.1870423" lon="8.4185589"><ele>116.99999999999999</ele><time>2026-04-04T15:19:51.609Z</time></trkpt><trkpt lat="45.187029" lon="8.4186985"><ele>116.99999999999999</ele><time>2026-04-04T15:19:52.608Z</time></trkpt><trkpt lat="45.1870164" lon="8.4188396"><ele>117.0</ele><time>2026-04-04T15:19:53.609Z</time></trkpt><trkpt lat="45.1870039" lon="8.4189832"><ele>117.0</ele><time>2026-04-04T15:19:54.608Z</time></trkpt><trkpt lat="45.1869906" lon="8.4191272"><ele>117.0</ele><time>2026-04-04T15:19:55.609Z</time></trkpt><trkpt lat="45.1869772" lon="8.4192709"><ele>116.99999999999999</ele><time>2026-04-04T15:19:56.609Z</time></trkpt><trkpt lat="45.1869639" lon="8.4194138"><ele>116.99999999999999</ele><time>2026-04-04T15:19:57.609Z</time></trkpt><trkpt lat="45.1869507" lon="8.4195566"><ele>117.0</ele><time>2026-04-04T15:19:58.608Z</time></trkpt><trkpt lat="45.1869355" lon="8.4196994"><ele>117.0</ele><time>2026-04-04T15:19:59.608Z</time></trkpt><trkpt lat="45.1869205" lon="8.4198417"><ele>117.0</ele><time>2026-04-04T15:20:00.608Z</time></trkpt><trkpt lat="45.1869066" lon="8.4199846"><ele>116.99999999999999</ele><time>2026-04-04T15:20:01.609Z</time></trkpt><trkpt lat="45.1868935" lon="8.4201265"><ele>116.99999999999999</ele><time>2026-04-04T15:20:02.608Z</time></trkpt><trkpt lat="45.1868803" lon="8.4202683"><ele>117.0</ele><time>2026-04-04T15:20:03.609Z</time></trkpt><trkpt lat="45.1868681" lon="8.4204103"><ele>117.0</ele><time>2026-04-04T15:20:04.608Z</time></trkpt><trkpt lat="45.1868563" lon="8.4205514"><ele>116.8</ele><time>2026-04-04T15:20:05.609Z</time></trkpt><trkpt lat="45.1868439" lon="8.420695"><ele>116.6</ele><time>2026-04-04T15:20:06.609Z</time></trkpt><trkpt lat="45.1868302" lon="8.4208402"><ele>116.39999999999999</ele><time>2026-04-04T15:20:07.608Z</time></trkpt><trkpt lat="45.1868153" lon="8.4209826"><ele>116.19999999999999</ele><time>2026-04-04T15:20:08.609Z</time></trkpt><trkpt lat="45.1868008" lon="8.4211224"><ele>116.0</ele><time>2026-04-04T15:20:09.608Z</time></trkpt><trkpt lat="45.1867883" lon="8.4212637"><ele>116.0</ele><time>2026-04-04T15:20:10.608Z</time></trkpt><trkpt lat="45.1867758" lon="8.4214024"><ele>116.0</ele><time>2026-04-04T15:20:11.608Z</time></trkpt><trkpt lat="45.1867634" lon="8.4215396"><ele>116.0</ele><time>2026-04-04T15:20:12.61Z</time></trkpt><trkpt lat="45.1867507" lon="8.4216783"><ele>116.0</ele><time>2026-04-04T15:20:13.608Z</time></trkpt><trkpt lat="45.1867377" lon="8.421816"><ele>116.0</ele><time>2026-04-04T15:20:14.608Z</time></trkpt><trkpt lat="45.1867254" lon="8.4219539"><ele>116.0</ele><time>2026-04-04T15:20:15.608Z</time></trkpt><trkpt lat="45.1867128" lon="8.4220922"><ele>116.0</ele><time>2026-04-04T15:20:16.609Z</time></trkpt><trkpt lat="45.1867005" lon="8.4222317"><ele>116.0</ele><time>2026-04-04T15:20:17.609Z</time></trkpt><trkpt lat="45.1866884" lon="8.4223705"><ele>116.0</ele><time>2026-04-04T15:20:18.609Z</time></trkpt><trkpt lat="45.1866759" lon="8.4225077"><ele>116.0</ele><time>2026-04-04T15:20:19.609Z</time></trkpt><trkpt lat="45.1866632" lon="8.4226445"><ele>116.0</ele><time>2026-04-04T15:20:20.61Z</time></trkpt><trkpt lat="45.1866516" lon="8.4227818"><ele>116.0</ele><time>2026-04-04T15:20:21.609Z</time></trkpt><trkpt lat="45.1866407" lon="8.4229208"><ele>116.0</ele><time>2026-04-04T15:20:22.61Z</time></trkpt><trkpt lat="45.1866299" lon="8.4230588"><ele>116.0</ele><time>2026-04-04T15:20:23.609Z</time></trkpt><trkpt lat="45.1866199" lon="8.4231951"><ele>116.0</ele><time>2026-04-04T15:20:24.609Z</time></trkpt><trkpt lat="45.1866092" lon="8.4233347"><ele>115.8</ele><time>2026-04-04T15:20:25.609Z</time></trkpt><trkpt lat="45.1865971" lon="8.4234743"><ele>115.6</ele><time>2026-04-04T15:20:26.609Z</time></trkpt><trkpt lat="45.1865834" lon="8.4236119"><ele>115.4</ele><time>2026-04-04T15:20:27.61Z</time></trkpt><trkpt lat="45.1865687" lon="8.4237497"><ele>115.2</ele><time>2026-04-04T15:20:28.61Z</time></trkpt><trkpt lat="45.1865541" lon="8.4238902"><ele>115.0</ele><time>2026-04-04T15:20:29.609Z</time></trkpt><trkpt lat="45.1865399" lon="8.4240314"><ele>115.0</ele><time>2026-04-04T15:20:30.61Z</time></trkpt><trkpt lat="45.1865256" lon="8.4241735"><ele>115.0</ele><time>2026-04-04T15:20:31.61Z</time></trkpt><trkpt lat="45.1865123" lon="8.4243154"><ele>115.0</ele><time>2026-04-04T15:20:32.609Z</time></trkpt><trkpt lat="45.1864992" lon="8.4244564"><ele>115.0</ele><time>2026-04-04T15:20:33.609Z</time></trkpt><trkpt lat="45.1864854" lon="8.424597"><ele>115.0</ele><time>2026-04-04T15:20:34.61Z</time></trkpt><trkpt lat="45.1864708" lon="8.4247356"><ele>115.0</ele><time>2026-04-04T15:20:35.609Z</time></trkpt><trkpt lat="45.1864559" lon="8.4248724"><ele>115.0</ele><time>2026-04-04T15:20:36.609Z</time></trkpt><trkpt lat="45.1864424" lon="8.4250097"><ele>115.0</ele><time>2026-04-04T15:20:37.61Z</time></trkpt><trkpt lat="45.1864295" lon="8.4251474"><ele>115.0</ele><time>2026-04-04T15:20:38.609Z</time></trkpt><trkpt lat="45.1864165" lon="8.425286"><ele>115.0</ele><time>2026-04-04T15:20:39.609Z</time></trkpt><trkpt lat="45.186402" lon="8.4254237"><ele>115.0</ele><time>2026-04-04T15:20:40.61Z</time></trkpt><trkpt lat="45.1863882" lon="8.4255618"><ele>115.0</ele><time>2026-04-04T15:20:41.609Z</time></trkpt><trkpt lat="45.1863757" lon="8.425703"><ele>115.0</ele><time>2026-04-04T15:20:42.61Z</time></trkpt><trkpt lat="45.1863638" lon="8.4258424"><ele>115.0</ele><time>2026-04-04T15:20:43.609Z</time></trkpt><trkpt lat="45.1863517" lon="8.4259803"><ele>115.0</ele><time>2026-04-04T15:20:44.61Z</time></trkpt><trkpt lat="45.186338" lon="8.4261213"><ele>115.0</ele><time>2026-04-04T15:20:45.61Z</time></trkpt><trkpt lat="45.1863237" lon="8.4262653"><ele>115.0</ele><time>2026-04-04T15:20:46.61Z</time></trkpt><trkpt lat="45.1863089" lon="8.426409"><ele>115.0</ele><time>2026-04-04T15:20:47.61Z</time></trkpt><trkpt lat="45.1862931" lon="8.4265513"><ele>115.0</ele><time>2026-04-04T15:20:48.61Z</time></trkpt><trkpt lat="45.1862758" lon="8.426691"><ele>115.0</ele><time>2026-04-04T15:20:49.609Z</time></trkpt><trkpt lat="45.1862567" lon="8.426831"><ele>114.8</ele><time>2026-04-04T15:20:50.609Z</time></trkpt><trkpt lat="45.1862392" lon="8.4269717"><ele>114.6</ele><time>2026-04-04T15:20:51.61Z</time></trkpt><trkpt lat="45.1862236" lon="8.4271134"><ele>114.4</ele><time>2026-04-04T15:20:52.61Z</time></trkpt><trkpt lat="45.1862097" lon="8.4272571"><ele>114.2</ele><time>2026-04-04T15:20:53.609Z</time></trkpt><trkpt lat="45.1861958" lon="8.4274009"><ele>114.0</ele><time>2026-04-04T15:20:54.609Z</time></trkpt><trkpt lat="45.1861837" lon="8.4275376"><ele>114.0</ele><time>2026-04-04T15:20:55.609Z</time></trkpt><trkpt lat="45.1861731" lon="8.427678"><ele>114.0</ele><time>2026-04-04T15:20:56.609Z</time></trkpt><trkpt lat="45.1861649" lon="8.4278194"><ele>114.0</ele><time>2026-04-04T15:20:57.609Z</time></trkpt><trkpt lat="45.186158" lon="8.4279626"><ele>114.0</ele><time>2026-04-04T15:20:58.609Z</time></trkpt><trkpt lat="45.1861521" lon="8.4281068"><ele>114.0</ele><time>2026-04-04T15:20:59.609Z</time></trkpt><trkpt lat="45.1861451" lon="8.4282484"><ele>114.2</ele><time>2026-04-04T15:21:00.609Z</time></trkpt><trkpt lat="45.1861376" lon="8.4283912"><ele>114.4</ele><time>2026-04-04T15:21:01.61Z</time></trkpt><trkpt lat="45.1861313" lon="8.4285337"><ele>114.6</ele><time>2026-04-04T15:21:02.609Z</time></trkpt><trkpt lat="45.186123" lon="8.428673"><ele>114.8</ele><time>2026-04-04T15:21:03.61Z</time></trkpt><trkpt lat="45.1861138" lon="8.4288162"><ele>115.0</ele><time>2026-04-04T15:21:04.61Z</time></trkpt><trkpt lat="45.1861029" lon="8.428961"><ele>115.0</ele><time>2026-04-04T15:21:05.61Z</time></trkpt><trkpt lat="45.1860937" lon="8.4291057"><ele>115.0</ele><time>2026-04-04T15:21:06.611Z</time></trkpt><trkpt lat="45.1860871" lon="8.4292543"><ele>115.0</ele><time>2026-04-04T15:21:07.61Z</time></trkpt><trkpt lat="45.1860815" lon="8.4293899"><ele>115.0</ele><time>2026-04-04T15:21:08.611Z</time></trkpt><trkpt lat="45.1860731" lon="8.4295323"><ele>115.0</ele><time>2026-04-04T15:21:09.61Z</time></trkpt><trkpt lat="45.186064" lon="8.4296749"><ele>115.2</ele><time>2026-04-04T15:21:10.61Z</time></trkpt><trkpt lat="45.1860541" lon="8.4298173"><ele>115.4</ele><time>2026-04-04T15:21:11.611Z</time></trkpt><trkpt lat="45.186043" lon="8.4299619"><ele>115.6</ele><time>2026-04-04T15:21:12.61Z</time></trkpt><trkpt lat="45.1860328" lon="8.430113"><ele>115.8</ele><time>2026-04-04T15:21:13.61Z</time></trkpt><trkpt lat="45.1860248" lon="8.4302551"><ele>116.0</ele><time>2026-04-04T15:21:14.61Z</time></trkpt><trkpt lat="45.1860175" lon="8.4303917"><ele>116.0</ele><time>2026-04-04T15:21:15.611Z</time></trkpt><trkpt lat="45.1860092" lon="8.4305261"><ele>116.0</ele><time>2026-04-04T15:21:16.61Z</time></trkpt><trkpt lat="45.1859992" lon="8.4306599"><ele>116.0</ele><time>2026-04-04T15:21:17.61Z</time></trkpt><trkpt lat="45.1859887" lon="8.4307952"><ele>116.0</ele><time>2026-04-04T15:21:18.611Z</time></trkpt><trkpt lat="45.1859779" lon="8.4309325"><ele>116.0</ele><time>2026-04-04T15:21:19.611Z</time></trkpt><trkpt lat="45.185964" lon="8.4310683"><ele>116.0</ele><time>2026-04-04T15:21:20.61Z</time></trkpt><trkpt lat="45.1859457" lon="8.4312052"><ele>116.0</ele><time>2026-04-04T15:21:21.611Z</time></trkpt><trkpt lat="45.1859204" lon="8.4313418"><ele>116.0</ele><time>2026-04-04T15:21:22.611Z</time></trkpt><trkpt lat="45.1858887" lon="8.4314779"><ele>116.0</ele><time>2026-04-04T15:21:23.61Z</time></trkpt><trkpt lat="45.1858519" lon="8.4316153"><ele>116.0</ele><time>2026-04-04T15:21:24.61Z</time></trkpt><trkpt lat="45.1858162" lon="8.4317501"><ele>115.8</ele><time>2026-04-04T15:21:25.611Z</time></trkpt><trkpt lat="45.1857839" lon="8.4318815"><ele>115.6</ele><time>2026-04-04T15:21:26.61Z</time></trkpt><trkpt lat="45.1857531" lon="8.4320138"><ele>115.4</ele><time>2026-04-04T15:21:27.611Z</time></trkpt><trkpt lat="45.1857236" lon="8.4321463"><ele>115.2</ele><time>2026-04-04T15:21:28.61Z</time></trkpt><trkpt lat="45.1856968" lon="8.4322816"><ele>115.0</ele><time>2026-04-04T15:21:29.611Z</time></trkpt><trkpt lat="45.1856656" lon="8.4324167"><ele>114.6</ele><time>2026-04-04T15:21:30.61Z</time></trkpt><trkpt lat="45.1856299" lon="8.4325488"><ele>114.2</ele><time>2026-04-04T15:21:31.61Z</time></trkpt><trkpt lat="45.1855967" lon="8.4326809"><ele>113.80000000000001</ele><time>2026-04-04T15:21:32.61Z</time></trkpt><trkpt lat="45.1855691" lon="8.4328141"><ele>113.4</ele><time>2026-04-04T15:21:33.611Z</time></trkpt><trkpt lat="45.185543" lon="8.4329476"><ele>113.0</ele><time>2026-04-04T15:21:34.61Z</time></trkpt><trkpt lat="45.185515" lon="8.4330802"><ele>113.0</ele><time>2026-04-04T15:21:35.61Z</time></trkpt><trkpt lat="45.185483" lon="8.4332122"><ele>113.00000000000001</ele><time>2026-04-04T15:21:36.611Z</time></trkpt><trkpt lat="45.1854509" lon="8.4333458"><ele>113.00000000000001</ele><time>2026-04-04T15:21:37.61Z</time></trkpt><trkpt lat="45.1854179" lon="8.4334794"><ele>113.0</ele><time>2026-04-04T15:21:38.611Z</time></trkpt><trkpt lat="45.185388" lon="8.4336114"><ele>113.0</ele><time>2026-04-04T15:21:39.61Z</time></trkpt><trkpt lat="45.1853568" lon="8.4337487"><ele>113.2</ele><time>2026-04-04T15:21:40.611Z</time></trkpt><trkpt lat="45.1853257" lon="8.4338825"><ele>113.4</ele><time>2026-04-04T15:21:41.61Z</time></trkpt><trkpt lat="45.1852934" lon="8.4340187"><ele>113.60000000000001</ele><time>2026-04-04T15:21:42.61Z</time></trkpt><trkpt lat="45.185261" lon="8.4341537"><ele>113.80000000000001</ele><time>2026-04-04T15:21:43.61Z</time></trkpt><trkpt lat="45.1852301" lon="8.4342903"><ele>114.0</ele><time>2026-04-04T15:21:44.61Z</time></trkpt><trkpt lat="45.1851996" lon="8.4344234"><ele>114.0</ele><time>2026-04-04T15:21:45.61Z</time></trkpt><trkpt lat="45.1851687" lon="8.43455"><ele>114.0</ele><time>2026-04-04T15:21:46.61Z</time></trkpt><trkpt lat="45.185137" lon="8.4346773"><ele>114.0</ele><time>2026-04-04T15:21:47.61Z</time></trkpt><trkpt lat="45.1851061" lon="8.4348086"><ele>114.0</ele><time>2026-04-04T15:21:48.612Z</time></trkpt><trkpt lat="45.1850752" lon="8.4349423"><ele>114.0</ele><time>2026-04-04T15:21:49.611Z</time></trkpt><trkpt lat="45.1850432" lon="8.4350766"><ele>114.0</ele><time>2026-04-04T15:21:50.611Z</time></trkpt><trkpt lat="45.1850115" lon="8.4352086"><ele>114.0</ele><time>2026-04-04T15:21:51.612Z</time></trkpt><trkpt lat="45.1849806" lon="8.4353387"><ele>114.0</ele><time>2026-04-04T15:21:52.612Z</time></trkpt><trkpt lat="45.1849525" lon="8.4354659"><ele>114.0</ele><time>2026-04-04T15:21:53.612Z</time></trkpt><trkpt lat="45.1849253" lon="8.4355869"><ele>114.0</ele><time>2026-04-04T15:21:54.612Z</time></trkpt><trkpt lat="45.1848989" lon="8.4357037"><ele>114.0</ele><time>2026-04-04T15:21:55.612Z</time></trkpt><trkpt lat="45.1848758" lon="8.4358137"><ele>114.0</ele><time>2026-04-04T15:21:56.612Z</time></trkpt><trkpt lat="45.1848533" lon="8.4359051"><ele>114.0</ele><time>2026-04-04T15:21:57.611Z</time></trkpt><trkpt lat="45.1848209" lon="8.436018"><ele>114.0</ele><time>2026-04-04T15:21:59.611Z</time></trkpt><trkpt lat="45.1847917" lon="8.4361134"><ele>114.0</ele><time>2026-04-04T15:22:01.611Z</time></trkpt><trkpt lat="45.1847574" lon="8.4362738"><ele>114.0</ele><time>2026-04-04T15:22:03.611Z</time></trkpt><trkpt lat="45.1847409" lon="8.4363726"><ele>113.66666666666667</ele><time>2026-04-04T15:22:04.611Z</time></trkpt><trkpt lat="45.1847197" lon="8.436472"><ele>113.33333333333334</ele><time>2026-04-04T15:22:05.611Z</time></trkpt><trkpt lat="45.1846948" lon="8.4365772"><ele>113.0</ele><time>2026-04-04T15:22:06.612Z</time></trkpt><trkpt lat="45.1846664" lon="8.4366855"><ele>112.66666666666667</ele><time>2026-04-04T15:22:07.611Z</time></trkpt><trkpt lat="45.1846371" lon="8.4367957"><ele>112.33333333333334</ele><time>2026-04-04T15:22:08.612Z</time></trkpt><trkpt lat="45.1846099" lon="8.4369091"><ele>112.0</ele><time>2026-04-04T15:22:09.611Z</time></trkpt><trkpt lat="45.1845845" lon="8.437025"><ele>111.6</ele><time>2026-04-04T15:22:10.612Z</time></trkpt><trkpt lat="45.18456" lon="8.4371437"><ele>111.19999999999999</ele><time>2026-04-04T15:22:11.612Z</time></trkpt><trkpt lat="45.1845326" lon="8.4372655"><ele>110.8</ele><time>2026-04-04T15:22:12.611Z</time></trkpt><trkpt lat="45.1845021" lon="8.4373916"><ele>110.4</ele><time>2026-04-04T15:22:13.612Z</time></trkpt><trkpt lat="45.1844706" lon="8.4375172"><ele>110.0</ele><time>2026-04-04T15:22:14.611Z</time></trkpt><trkpt lat="45.1844393" lon="8.4376449"><ele>110.0</ele><time>2026-04-04T15:22:15.612Z</time></trkpt><trkpt lat="45.1844072" lon="8.4377748"><ele>110.0</ele><time>2026-04-04T15:22:16.612Z</time></trkpt><trkpt lat="45.1843749" lon="8.4379054"><ele>110.0</ele><time>2026-04-04T15:22:17.611Z</time></trkpt><trkpt lat="45.1843428" lon="8.4380375"><ele>110.0</ele><time>2026-04-04T15:22:18.612Z</time></trkpt><trkpt lat="45.1843125" lon="8.4381711"><ele>110.0</ele><time>2026-04-04T15:22:19.611Z</time></trkpt><trkpt lat="45.1842815" lon="8.4383075"><ele>110.4</ele><time>2026-04-04T15:22:20.612Z</time></trkpt><trkpt lat="45.1842507" lon="8.4384409"><ele>110.8</ele><time>2026-04-04T15:22:21.611Z</time></trkpt><trkpt lat="45.184219" lon="8.4385726"><ele>111.19999999999999</ele><time>2026-04-04T15:22:22.612Z</time></trkpt><trkpt lat="45.1841877" lon="8.4387014"><ele>111.6</ele><time>2026-04-04T15:22:23.611Z</time></trkpt><trkpt lat="45.1841571" lon="8.4388292"><ele>112.0</ele><time>2026-04-04T15:22:24.611Z</time></trkpt><trkpt lat="45.1841263" lon="8.4389568"><ele>112.19999999999999</ele><time>2026-04-04T15:22:25.612Z</time></trkpt><trkpt lat="45.1840941" lon="8.439085"><ele>112.39999999999999</ele><time>2026-04-04T15:22:26.612Z</time></trkpt><trkpt lat="45.1840614" lon="8.4392143"><ele>112.60000000000001</ele><time>2026-04-04T15:22:27.612Z</time></trkpt><trkpt lat="45.1840295" lon="8.4393427"><ele>112.80000000000001</ele><time>2026-04-04T15:22:28.612Z</time></trkpt><trkpt lat="45.1839983" lon="8.4394715"><ele>113.0</ele><time>2026-04-04T15:22:29.612Z</time></trkpt><trkpt lat="45.1839662" lon="8.4396006"><ele>113.0</ele><time>2026-04-04T15:22:30.611Z</time></trkpt><trkpt lat="45.1839351" lon="8.4397321"><ele>113.00000000000001</ele><time>2026-04-04T15:22:31.611Z</time></trkpt><trkpt lat="45.1839046" lon="8.4398656"><ele>113.00000000000001</ele><time>2026-04-04T15:22:32.612Z</time></trkpt><trkpt lat="45.1838741" lon="8.4399982"><ele>113.0</ele><time>2026-04-04T15:22:33.611Z</time></trkpt><trkpt lat="45.1838425" lon="8.4401313"><ele>113.0</ele><time>2026-04-04T15:22:34.611Z</time></trkpt><trkpt lat="45.1838105" lon="8.440268"><ele>113.0</ele><time>2026-04-04T15:22:35.612Z</time></trkpt><trkpt lat="45.1837806" lon="8.4404046"><ele>113.00000000000001</ele><time>2026-04-04T15:22:36.613Z</time></trkpt><trkpt lat="45.1837541" lon="8.4405412"><ele>113.00000000000001</ele><time>2026-04-04T15:22:37.613Z</time></trkpt><trkpt lat="45.1837302" lon="8.4406785"><ele>113.0</ele><time>2026-04-04T15:22:38.613Z</time></trkpt><trkpt lat="45.1837117" lon="8.4408162"><ele>113.0</ele><time>2026-04-04T15:22:39.613Z</time></trkpt><trkpt lat="45.1836989" lon="8.4409561"><ele>113.0</ele><time>2026-04-04T15:22:40.613Z</time></trkpt><trkpt lat="45.1836885" lon="8.4411019"><ele>113.00000000000001</ele><time>2026-04-04T15:22:41.612Z</time></trkpt><trkpt lat="45.1836801" lon="8.4412502"><ele>113.00000000000001</ele><time>2026-04-04T15:22:42.613Z</time></trkpt><trkpt lat="45.1836703" lon="8.4413996"><ele>113.0</ele><time>2026-04-04T15:22:43.613Z</time></trkpt><trkpt lat="45.1836591" lon="8.4415483"><ele>113.0</ele><time>2026-04-04T15:22:44.612Z</time></trkpt><trkpt lat="45.1836466" lon="8.4416959"><ele>113.0</ele><time>2026-04-04T15:22:45.612Z</time></trkpt><trkpt lat="45.1836331" lon="8.4418405"><ele>113.00000000000001</ele><time>2026-04-04T15:22:46.613Z</time></trkpt><trkpt lat="45.1836184" lon="8.4419823"><ele>113.00000000000001</ele><time>2026-04-04T15:22:47.613Z</time></trkpt><trkpt lat="45.1836035" lon="8.4421252"><ele>113.0</ele><time>2026-04-04T15:22:48.612Z</time></trkpt><trkpt lat="45.1835882" lon="8.4422669"><ele>113.0</ele><time>2026-04-04T15:22:49.612Z</time></trkpt><trkpt lat="45.1835727" lon="8.4424091"><ele>112.80000000000001</ele><time>2026-04-04T15:22:50.613Z</time></trkpt><trkpt lat="45.1835579" lon="8.442551"><ele>112.60000000000001</ele><time>2026-04-04T15:22:51.612Z</time></trkpt><trkpt lat="45.1835434" lon="8.4426929"><ele>112.39999999999999</ele><time>2026-04-04T15:22:52.613Z</time></trkpt><trkpt lat="45.1835285" lon="8.4428333"><ele>112.19999999999999</ele><time>2026-04-04T15:22:53.613Z</time></trkpt><trkpt lat="45.1835137" lon="8.442974"><ele>112.0</ele><time>2026-04-04T15:22:54.613Z</time></trkpt><trkpt lat="45.1835017" lon="8.4431131"><ele>112.0</ele><time>2026-04-04T15:22:55.613Z</time></trkpt><trkpt lat="45.1834903" lon="8.4432548"><ele>111.99999999999999</ele><time>2026-04-04T15:22:56.613Z</time></trkpt><trkpt lat="45.1834763" lon="8.4433975"><ele>111.99999999999999</ele><time>2026-04-04T15:22:57.612Z</time></trkpt><trkpt lat="45.1834619" lon="8.4435419"><ele>112.0</ele><time>2026-04-04T15:22:58.613Z</time></trkpt><trkpt lat="45.18345" lon="8.4436863"><ele>112.0</ele><time>2026-04-04T15:22:59.612Z</time></trkpt><trkpt lat="45.1834384" lon="8.4438307"><ele>112.0</ele><time>2026-04-04T15:23:00.613Z</time></trkpt><trkpt lat="45.1834238" lon="8.4439751"><ele>111.99999999999999</ele><time>2026-04-04T15:23:01.612Z</time></trkpt><trkpt lat="45.1834052" lon="8.4441174"><ele>111.99999999999999</ele><time>2026-04-04T15:23:02.613Z</time></trkpt><trkpt lat="45.1833831" lon="8.4442593"><ele>112.0</ele><time>2026-04-04T15:23:03.613Z</time></trkpt><trkpt lat="45.1833573" lon="8.4443989"><ele>112.0</ele><time>2026-04-04T15:23:04.612Z</time></trkpt><trkpt lat="45.1833286" lon="8.4445362"><ele>112.0</ele><time>2026-04-04T15:23:05.613Z</time></trkpt><trkpt lat="45.1832991" lon="8.4446742"><ele>111.99999999999999</ele><time>2026-04-04T15:23:06.612Z</time></trkpt><trkpt lat="45.1832679" lon="8.4448116"><ele>111.99999999999999</ele><time>2026-04-04T15:23:07.613Z</time></trkpt><trkpt lat="45.1832334" lon="8.4449465"><ele>112.0</ele><time>2026-04-04T15:23:08.612Z</time></trkpt><trkpt lat="45.1831955" lon="8.4450781"><ele>112.0</ele><time>2026-04-04T15:23:09.613Z</time></trkpt><trkpt lat="45.1831549" lon="8.4452076"><ele>112.0</ele><time>2026-04-04T15:23:10.612Z</time></trkpt><trkpt lat="45.1831124" lon="8.4453345"><ele>111.99999999999999</ele><time>2026-04-04T15:23:11.613Z</time></trkpt><trkpt lat="45.1830683" lon="8.4454573"><ele>111.99999999999999</ele><time>2026-04-04T15:23:12.612Z</time></trkpt><trkpt lat="45.1830229" lon="8.4455834"><ele>112.0</ele><time>2026-04-04T15:23:13.613Z</time></trkpt><trkpt lat="45.1829747" lon="8.4457082"><ele>112.0</ele><time>2026-04-04T15:23:14.612Z</time></trkpt><trkpt lat="45.1829245" lon="8.4458302"><ele>111.8</ele><time>2026-04-04T15:23:15.613Z</time></trkpt><trkpt lat="45.1828744" lon="8.4459488"><ele>111.6</ele><time>2026-04-04T15:23:16.612Z</time></trkpt><trkpt lat="45.1828225" lon="8.4460669"><ele>111.39999999999999</ele><time>2026-04-04T15:23:17.612Z</time></trkpt><trkpt lat="45.1827685" lon="8.4461824"><ele>111.19999999999999</ele><time>2026-04-04T15:23:18.613Z</time></trkpt><trkpt lat="45.1827132" lon="8.4462981"><ele>111.0</ele><time>2026-04-04T15:23:19.612Z</time></trkpt><trkpt lat="45.1826567" lon="8.4464158"><ele>111.0</ele><time>2026-04-04T15:23:20.613Z</time></trkpt><trkpt lat="45.1825991" lon="8.4465321"><ele>111.0</ele><time>2026-04-04T15:23:21.612Z</time></trkpt><trkpt lat="45.1825418" lon="8.4466498"><ele>111.0</ele><time>2026-04-04T15:23:22.613Z</time></trkpt><trkpt lat="45.1824868" lon="8.4467759"><ele>111.0</ele><time>2026-04-04T15:23:23.613Z</time></trkpt><trkpt lat="45.1824401" lon="8.4469014"><ele>111.0</ele><time>2026-04-04T15:23:24.614Z</time></trkpt><trkpt lat="45.1823981" lon="8.4470278"><ele>111.19999999999999</ele><time>2026-04-04T15:23:25.614Z</time></trkpt><trkpt lat="45.1823585" lon="8.4471606"><ele>111.39999999999999</ele><time>2026-04-04T15:23:26.614Z</time></trkpt><trkpt lat="45.1823198" lon="8.447291"><ele>111.6</ele><time>2026-04-04T15:23:27.613Z</time></trkpt><trkpt lat="45.1822792" lon="8.4474235"><ele>111.8</ele><time>2026-04-04T15:23:28.614Z</time></trkpt><trkpt lat="45.1822379" lon="8.447557"><ele>112.0</ele><time>2026-04-04T15:23:29.614Z</time></trkpt><trkpt lat="45.1821959" lon="8.4476872"><ele>112.0</ele><time>2026-04-04T15:23:30.614Z</time></trkpt><trkpt lat="45.1821541" lon="8.4478168"><ele>111.99999999999999</ele><time>2026-04-04T15:23:31.614Z</time></trkpt><trkpt lat="45.1821105" lon="8.4479467"><ele>111.99999999999999</ele><time>2026-04-04T15:23:32.614Z</time></trkpt><trkpt lat="45.1820644" lon="8.448075"><ele>112.0</ele><time>2026-04-04T15:23:33.614Z</time></trkpt><trkpt lat="45.1820182" lon="8.4482048"><ele>112.0</ele><time>2026-04-04T15:23:34.613Z</time></trkpt><trkpt lat="45.1819726" lon="8.4483325"><ele>112.19999999999999</ele><time>2026-04-04T15:23:35.614Z</time></trkpt><trkpt lat="45.1819297" lon="8.4484602"><ele>112.39999999999999</ele><time>2026-04-04T15:23:36.614Z</time></trkpt><trkpt lat="45.181887" lon="8.4485903"><ele>112.60000000000001</ele><time>2026-04-04T15:23:37.614Z</time></trkpt><trkpt lat="45.1818444" lon="8.4487181"><ele>112.80000000000001</ele><time>2026-04-04T15:23:38.613Z</time></trkpt><trkpt lat="45.1818009" lon="8.448847"><ele>113.0</ele><time>2026-04-04T15:23:39.613Z</time></trkpt><trkpt lat="45.1817555" lon="8.4489736"><ele>113.0</ele><time>2026-04-04T15:23:40.614Z</time></trkpt><trkpt lat="45.1817107" lon="8.4491014"><ele>113.00000000000001</ele><time>2026-04-04T15:23:41.614Z</time></trkpt><trkpt lat="45.1816663" lon="8.4492319"><ele>113.00000000000001</ele><time>2026-04-04T15:23:42.614Z</time></trkpt><trkpt lat="45.1816244" lon="8.4493613"><ele>113.0</ele><time>2026-04-04T15:23:43.613Z</time></trkpt><trkpt lat="45.1815809" lon="8.4494919"><ele>113.0</ele><time>2026-04-04T15:23:44.613Z</time></trkpt><trkpt lat="45.1815345" lon="8.4496266"><ele>112.4</ele><time>2026-04-04T15:23:45.613Z</time></trkpt><trkpt lat="45.18149" lon="8.4497635"><ele>111.80000000000001</ele><time>2026-04-04T15:23:46.614Z</time></trkpt><trkpt lat="45.1814463" lon="8.4498993"><ele>111.2</ele><time>2026-04-04T15:23:47.613Z</time></trkpt><trkpt lat="45.1814023" lon="8.450032"><ele>110.6</ele><time>2026-04-04T15:23:48.613Z</time></trkpt><trkpt lat="45.1813563" lon="8.4501628"><ele>110.0</ele><time>2026-04-04T15:23:49.613Z</time></trkpt><trkpt lat="45.1813083" lon="8.4502909"><ele>110.0</ele><time>2026-04-04T15:23:50.613Z</time></trkpt><trkpt lat="45.1812618" lon="8.4504227"><ele>110.0</ele><time>2026-04-04T15:23:51.613Z</time></trkpt><trkpt lat="45.1812171" lon="8.4505539"><ele>110.0</ele><time>2026-04-04T15:23:52.613Z</time></trkpt><trkpt lat="45.1811726" lon="8.4506867"><ele>110.0</ele><time>2026-04-04T15:23:53.613Z</time></trkpt><trkpt lat="45.1811298" lon="8.4508137"><ele>110.0</ele><time>2026-04-04T15:23:54.613Z</time></trkpt><trkpt lat="45.1810856" lon="8.4509409"><ele>110.2</ele><time>2026-04-04T15:23:55.613Z</time></trkpt><trkpt lat="45.1810432" lon="8.451067"><ele>110.4</ele><time>2026-04-04T15:23:56.614Z</time></trkpt><trkpt lat="45.181001" lon="8.4511932"><ele>110.6</ele><time>2026-04-04T15:23:57.614Z</time></trkpt><trkpt lat="45.1809593" lon="8.4513199"><ele>110.8</ele><time>2026-04-04T15:23:58.614Z</time></trkpt><trkpt lat="45.1809176" lon="8.4514459"><ele>111.0</ele><time>2026-04-04T15:23:59.613Z</time></trkpt><trkpt lat="45.1808768" lon="8.4515691"><ele>111.0</ele><time>2026-04-04T15:24:00.614Z</time></trkpt><trkpt lat="45.1808355" lon="8.451692"><ele>111.0</ele><time>2026-04-04T15:24:01.615Z</time></trkpt><trkpt lat="45.1807934" lon="8.4518179"><ele>111.0</ele><time>2026-04-04T15:24:02.614Z</time></trkpt><trkpt lat="45.1807549" lon="8.4519441"><ele>111.0</ele><time>2026-04-04T15:24:03.614Z</time></trkpt><trkpt lat="45.1807205" lon="8.4520711"><ele>111.0</ele><time>2026-04-04T15:24:04.614Z</time></trkpt><trkpt lat="45.1806932" lon="8.4522011"><ele>111.0</ele><time>2026-04-04T15:24:05.614Z</time></trkpt><trkpt lat="45.1806699" lon="8.4523364"><ele>111.0</ele><time>2026-04-04T15:24:06.614Z</time></trkpt><trkpt lat="45.1806493" lon="8.4524709"><ele>111.0</ele><time>2026-04-04T15:24:07.614Z</time></trkpt><trkpt lat="45.1806296" lon="8.4526081"><ele>111.0</ele><time>2026-04-04T15:24:08.613Z</time></trkpt><trkpt lat="45.1806115" lon="8.4527493"><ele>111.0</ele><time>2026-04-04T15:24:09.613Z</time></trkpt><trkpt lat="45.1805927" lon="8.4528908"><ele>111.19999999999999</ele><time>2026-04-04T15:24:10.614Z</time></trkpt><trkpt lat="45.1805735" lon="8.4530303"><ele>111.39999999999999</ele><time>2026-04-04T15:24:11.615Z</time></trkpt><trkpt lat="45.1805523" lon="8.4531703"><ele>111.6</ele><time>2026-04-04T15:24:12.615Z</time></trkpt><trkpt lat="45.1805301" lon="8.4533052"><ele>111.8</ele><time>2026-04-04T15:24:13.614Z</time></trkpt><trkpt lat="45.1805081" lon="8.4534394"><ele>112.0</ele><time>2026-04-04T15:24:14.614Z</time></trkpt><trkpt lat="45.1804876" lon="8.4535761"><ele>112.0</ele><time>2026-04-04T15:24:15.615Z</time></trkpt><trkpt lat="45.180466" lon="8.4537129"><ele>111.99999999999999</ele><time>2026-04-04T15:24:16.614Z</time></trkpt><trkpt lat="45.1804443" lon="8.4538438"><ele>111.99999999999999</ele><time>2026-04-04T15:24:17.615Z</time></trkpt><trkpt lat="45.1804206" lon="8.4539772"><ele>112.0</ele><time>2026-04-04T15:24:18.615Z</time></trkpt><trkpt lat="45.1803965" lon="8.4541098"><ele>112.0</ele><time>2026-04-04T15:24:19.614Z</time></trkpt><trkpt lat="45.1803739" lon="8.4542461"><ele>112.0</ele><time>2026-04-04T15:24:20.614Z</time></trkpt><trkpt lat="45.180354" lon="8.4543783"><ele>111.99999999999999</ele><time>2026-04-04T15:24:21.614Z</time></trkpt><trkpt lat="45.1803322" lon="8.4545116"><ele>111.99999999999999</ele><time>2026-04-04T15:24:22.615Z</time></trkpt><trkpt lat="45.1803085" lon="8.4546454"><ele>112.0</ele><time>2026-04-04T15:24:23.614Z</time></trkpt><trkpt lat="45.1802846" lon="8.4547807"><ele>112.0</ele><time>2026-04-04T15:24:24.615Z</time></trkpt><trkpt lat="45.1802609" lon="8.4549209"><ele>112.0</ele><time>2026-04-04T15:24:25.615Z</time></trkpt><trkpt lat="45.1802379" lon="8.4550629"><ele>111.99999999999999</ele><time>2026-04-04T15:24:26.615Z</time></trkpt><trkpt lat="45.1802145" lon="8.4552098"><ele>111.99999999999999</ele><time>2026-04-04T15:24:27.615Z</time></trkpt><trkpt lat="45.1801925" lon="8.4553555"><ele>112.0</ele><time>2026-04-04T15:24:28.615Z</time></trkpt><trkpt lat="45.1801736" lon="8.455503"><ele>112.0</ele><time>2026-04-04T15:24:29.614Z</time></trkpt><trkpt lat="45.18016" lon="8.4556525"><ele>112.0</ele><time>2026-04-04T15:24:30.615Z</time></trkpt><trkpt lat="45.1801524" lon="8.4558021"><ele>111.99999999999999</ele><time>2026-04-04T15:24:31.614Z</time></trkpt><trkpt lat="45.1801478" lon="8.4559543"><ele>111.99999999999999</ele><time>2026-04-04T15:24:32.615Z</time></trkpt><trkpt lat="45.1801446" lon="8.4561073"><ele>112.0</ele><time>2026-04-04T15:24:33.614Z</time></trkpt><trkpt lat="45.1801448" lon="8.4562617"><ele>112.0</ele><time>2026-04-04T15:24:34.614Z</time></trkpt><trkpt lat="45.1801469" lon="8.456419"><ele>111.75</ele><time>2026-04-04T15:24:35.614Z</time></trkpt><trkpt lat="45.1801505" lon="8.4565772"><ele>111.5</ele><time>2026-04-04T15:24:36.615Z</time></trkpt><trkpt lat="45.1801536" lon="8.456736"><ele>111.25</ele><time>2026-04-04T15:24:37.614Z</time></trkpt><trkpt lat="45.1801575" lon="8.4568982"><ele>111.0</ele><time>2026-04-04T15:24:38.615Z</time></trkpt><trkpt lat="45.1801594" lon="8.4570589"><ele>110.5</ele><time>2026-04-04T15:24:39.615Z</time></trkpt><trkpt lat="45.1801603" lon="8.457219"><ele>110.0</ele><time>2026-04-04T15:24:40.614Z</time></trkpt><trkpt lat="45.1801603" lon="8.4573786"><ele>109.5</ele><time>2026-04-04T15:24:41.614Z</time></trkpt><trkpt lat="45.1801608" lon="8.4575399"><ele>109.0</ele><time>2026-04-04T15:24:42.614Z</time></trkpt><trkpt lat="45.1801622" lon="8.4577012"><ele>109.0</ele><time>2026-04-04T15:24:43.615Z</time></trkpt><trkpt lat="45.1801635" lon="8.4578612"><ele>109.0</ele><time>2026-04-04T15:24:44.614Z</time></trkpt><trkpt lat="45.180164" lon="8.4580182"><ele>109.0</ele><time>2026-04-04T15:24:45.614Z</time></trkpt><trkpt lat="45.1801646" lon="8.4581738"><ele>109.0</ele><time>2026-04-04T15:24:46.614Z</time></trkpt><trkpt lat="45.1801641" lon="8.4583298"><ele>109.0</ele><time>2026-04-04T15:24:47.614Z</time></trkpt><trkpt lat="45.1801637" lon="8.4584878"><ele>109.0</ele><time>2026-04-04T15:24:48.614Z</time></trkpt><trkpt lat="45.1801651" lon="8.4586457"><ele>109.0</ele><time>2026-04-04T15:24:49.614Z</time></trkpt><trkpt lat="45.1801674" lon="8.4588027"><ele>109.0</ele><time>2026-04-04T15:24:50.614Z</time></trkpt><trkpt lat="45.1801687" lon="8.4589593"><ele>109.0</ele><time>2026-04-04T15:24:51.615Z</time></trkpt><trkpt lat="45.1801699" lon="8.4591156"><ele>109.0</ele><time>2026-04-04T15:24:52.616Z</time></trkpt><trkpt lat="45.1801703" lon="8.4592713"><ele>109.0</ele><time>2026-04-04T15:24:53.614Z</time></trkpt><trkpt lat="45.180167" lon="8.4594247"><ele>109.0</ele><time>2026-04-04T15:24:54.615Z</time></trkpt><trkpt lat="45.1801577" lon="8.4595773"><ele>109.0</ele><time>2026-04-04T15:24:55.614Z</time></trkpt><trkpt lat="45.1801437" lon="8.4597286"><ele>109.0</ele><time>2026-04-04T15:24:56.615Z</time></trkpt><trkpt lat="45.1801279" lon="8.459878"><ele>109.0</ele><time>2026-04-04T15:24:57.615Z</time></trkpt><trkpt lat="45.1801107" lon="8.4600257"><ele>109.0</ele><time>2026-04-04T15:24:58.616Z</time></trkpt><trkpt lat="45.1800906" lon="8.4601712"><ele>109.0</ele><time>2026-04-04T15:24:59.615Z</time></trkpt><trkpt lat="45.1800656" lon="8.4603169"><ele>109.0</ele><time>2026-04-04T15:25:00.615Z</time></trkpt><trkpt lat="45.1800366" lon="8.4604617"><ele>109.0</ele><time>2026-04-04T15:25:01.616Z</time></trkpt><trkpt lat="45.1800034" lon="8.4606095"><ele>109.0</ele><time>2026-04-04T15:25:02.616Z</time></trkpt><trkpt lat="45.1799687" lon="8.460754"><ele>109.0</ele><time>2026-04-04T15:25:03.615Z</time></trkpt><trkpt lat="45.179933" lon="8.4608966"><ele>109.0</ele><time>2026-04-04T15:25:04.616Z</time></trkpt><trkpt lat="45.1798955" lon="8.4610349"><ele>109.0</ele><time>2026-04-04T15:25:05.615Z</time></trkpt><trkpt lat="45.1798558" lon="8.4611713"><ele>109.0</ele><time>2026-04-04T15:25:06.615Z</time></trkpt><trkpt lat="45.1798148" lon="8.4613083"><ele>109.0</ele><time>2026-04-04T15:25:07.616Z</time></trkpt><trkpt lat="45.1797736" lon="8.4614465"><ele>109.2</ele><time>2026-04-04T15:25:08.615Z</time></trkpt><trkpt lat="45.1797317" lon="8.4615839"><ele>109.4</ele><time>2026-04-04T15:25:09.615Z</time></trkpt><trkpt lat="45.1796878" lon="8.4617167"><ele>109.6</ele><time>2026-04-04T15:25:10.615Z</time></trkpt><trkpt lat="45.1796402" lon="8.4618495"><ele>109.8</ele><time>2026-04-04T15:25:11.615Z</time></trkpt><trkpt lat="45.1795905" lon="8.4619811"><ele>110.0</ele><time>2026-04-04T15:25:12.615Z</time></trkpt><trkpt lat="45.1795387" lon="8.4621101"><ele>110.0</ele><time>2026-04-04T15:25:13.615Z</time></trkpt><trkpt lat="45.1794894" lon="8.4622373"><ele>110.0</ele><time>2026-04-04T15:25:14.616Z</time></trkpt><trkpt lat="45.1794452" lon="8.4623697"><ele>110.0</ele><time>2026-04-04T15:25:15.615Z</time></trkpt><trkpt lat="45.1794125" lon="8.4625062"><ele>110.0</ele><time>2026-04-04T15:25:16.616Z</time></trkpt><trkpt lat="45.1793887" lon="8.4626516"><ele>110.0</ele><time>2026-04-04T15:25:17.615Z</time></trkpt><trkpt lat="45.1793711" lon="8.4627982"><ele>110.0</ele><time>2026-04-04T15:25:18.616Z</time></trkpt><trkpt lat="45.1793584" lon="8.4629464"><ele>110.0</ele><time>2026-04-04T15:25:19.615Z</time></trkpt><trkpt lat="45.1793521" lon="8.4630903"><ele>110.0</ele><time>2026-04-04T15:25:20.615Z</time></trkpt><trkpt lat="45.1793495" lon="8.4632344"><ele>110.0</ele><time>2026-04-04T15:25:21.616Z</time></trkpt><trkpt lat="45.1793469" lon="8.4633809"><ele>110.0</ele><time>2026-04-04T15:25:22.615Z</time></trkpt><trkpt lat="45.1793434" lon="8.4635272"><ele>110.0</ele><time>2026-04-04T15:25:23.615Z</time></trkpt><trkpt lat="45.1793425" lon="8.463674"><ele>110.0</ele><time>2026-04-04T15:25:24.616Z</time></trkpt><trkpt lat="45.1793446" lon="8.4638199"><ele>110.0</ele><time>2026-04-04T15:25:25.615Z</time></trkpt><trkpt lat="45.1793523" lon="8.4639666"><ele>110.0</ele><time>2026-04-04T15:25:26.615Z</time></trkpt><trkpt lat="45.1793617" lon="8.4641146"><ele>110.0</ele><time>2026-04-04T15:25:27.615Z</time></trkpt><trkpt lat="45.1793733" lon="8.4642633"><ele>110.0</ele><time>2026-04-04T15:25:28.615Z</time></trkpt><trkpt lat="45.1793841" lon="8.4644125"><ele>110.0</ele><time>2026-04-04T15:25:29.616Z</time></trkpt><trkpt lat="45.1793946" lon="8.4645626"><ele>110.0</ele><time>2026-04-04T15:25:30.616Z</time></trkpt><trkpt lat="45.1794067" lon="8.4647177"><ele>110.0</ele><time>2026-04-04T15:25:31.617Z</time></trkpt><trkpt lat="45.1794194" lon="8.4648717"><ele>110.0</ele><time>2026-04-04T15:25:32.616Z</time></trkpt><trkpt lat="45.1794307" lon="8.465022"><ele>110.0</ele><time>2026-04-04T15:25:33.616Z</time></trkpt><trkpt lat="45.179441" lon="8.4651671"><ele>110.0</ele><time>2026-04-04T15:25:34.615Z</time></trkpt><trkpt lat="45.1794507" lon="8.4653096"><ele>110.0</ele><time>2026-04-04T15:25:35.615Z</time></trkpt><trkpt lat="45.1794595" lon="8.4654503"><ele>110.0</ele><time>2026-04-04T15:25:36.617Z</time></trkpt><trkpt lat="45.1794685" lon="8.4655855"><ele>110.0</ele><time>2026-04-04T15:25:37.615Z</time></trkpt><trkpt lat="45.1794829" lon="8.4657223"><ele>110.0</ele><time>2026-04-04T15:25:38.616Z</time></trkpt><trkpt lat="45.1795025" lon="8.4658589"><ele>110.0</ele><time>2026-04-04T15:25:39.616Z</time></trkpt><trkpt lat="45.1795247" lon="8.4659938"><ele>110.0</ele><time>2026-04-04T15:25:40.616Z</time></trkpt><trkpt lat="45.1795504" lon="8.4661318"><ele>110.0</ele><time>2026-04-04T15:25:41.616Z</time></trkpt><trkpt lat="45.1795849" lon="8.4662761"><ele>110.0</ele><time>2026-04-04T15:25:42.616Z</time></trkpt><trkpt lat="45.1796197" lon="8.4664147"><ele>110.0</ele><time>2026-04-04T15:25:43.616Z</time></trkpt><trkpt lat="45.1796561" lon="8.4665507"><ele>110.0</ele><time>2026-04-04T15:25:44.616Z</time></trkpt><trkpt lat="45.1796949" lon="8.4666849"><ele>110.0</ele><time>2026-04-04T15:25:45.616Z</time></trkpt><trkpt lat="45.1797363" lon="8.4668153"><ele>110.0</ele><time>2026-04-04T15:25:46.617Z</time></trkpt><trkpt lat="45.1797793" lon="8.4669425"><ele>110.0</ele><time>2026-04-04T15:25:47.616Z</time></trkpt><trkpt lat="45.1798217" lon="8.4670679"><ele>110.0</ele><time>2026-04-04T15:25:48.616Z</time></trkpt><trkpt lat="45.1798632" lon="8.4671953"><ele>110.0</ele><time>2026-04-04T15:25:49.616Z</time></trkpt><trkpt lat="45.1799027" lon="8.4673202"><ele>110.0</ele><time>2026-04-04T15:25:50.616Z</time></trkpt><trkpt lat="45.1799409" lon="8.4674454"><ele>110.0</ele><time>2026-04-04T15:25:51.616Z</time></trkpt><trkpt lat="45.1799797" lon="8.4675711"><ele>110.0</ele><time>2026-04-04T15:25:52.617Z</time></trkpt><trkpt lat="45.180018" lon="8.4676945"><ele>110.0</ele><time>2026-04-04T15:25:53.617Z</time></trkpt><trkpt lat="45.1800564" lon="8.4678157"><ele>110.0</ele><time>2026-04-04T15:25:54.617Z</time></trkpt><trkpt lat="45.1800961" lon="8.4679381"><ele>110.0</ele><time>2026-04-04T15:25:55.616Z</time></trkpt><trkpt lat="45.1801359" lon="8.4680608"><ele>110.0</ele><time>2026-04-04T15:25:56.616Z</time></trkpt><trkpt lat="45.1801742" lon="8.4681815"><ele>110.0</ele><time>2026-04-04T15:25:57.617Z</time></trkpt><trkpt lat="45.1802129" lon="8.4683052"><ele>110.0</ele><time>2026-04-04T15:25:58.616Z</time></trkpt><trkpt lat="45.1802509" lon="8.4684287"><ele>110.0</ele><time>2026-04-04T15:25:59.616Z</time></trkpt><trkpt lat="45.1802886" lon="8.4685515"><ele>110.0</ele><time>2026-04-04T15:26:00.616Z</time></trkpt><trkpt lat="45.1803272" lon="8.4686769"><ele>110.0</ele><time>2026-04-04T15:26:01.616Z</time></trkpt><trkpt lat="45.1803669" lon="8.4687979"><ele>110.0</ele><time>2026-04-04T15:26:02.616Z</time></trkpt><trkpt lat="45.1804087" lon="8.4689259"><ele>110.0</ele><time>2026-04-04T15:26:03.616Z</time></trkpt><trkpt lat="45.1804466" lon="8.4690555"><ele>110.0</ele><time>2026-04-04T15:26:04.616Z</time></trkpt><trkpt lat="45.1804808" lon="8.4691885"><ele>110.0</ele><time>2026-04-04T15:26:05.617Z</time></trkpt><trkpt lat="45.18051" lon="8.4693218"><ele>110.0</ele><time>2026-04-04T15:26:06.616Z</time></trkpt><trkpt lat="45.1805364" lon="8.4694552"><ele>110.0</ele><time>2026-04-04T15:26:07.617Z</time></trkpt><trkpt lat="45.1805593" lon="8.4695852"><ele>109.8</ele><time>2026-04-04T15:26:08.616Z</time></trkpt><trkpt lat="45.1805853" lon="8.4697195"><ele>109.6</ele><time>2026-04-04T15:26:09.617Z</time></trkpt><trkpt lat="45.180609" lon="8.4698489"><ele>109.4</ele><time>2026-04-04T15:26:10.616Z</time></trkpt><trkpt lat="45.1806328" lon="8.4699806"><ele>109.2</ele><time>2026-04-04T15:26:11.617Z</time></trkpt><trkpt lat="45.1806574" lon="8.4701082"><ele>109.0</ele><time>2026-04-04T15:26:12.616Z</time></trkpt><trkpt lat="45.1806814" lon="8.4702392"><ele>109.16666666666667</ele><time>2026-04-04T15:26:13.617Z</time></trkpt><trkpt lat="45.1807037" lon="8.4703724"><ele>109.33333333333334</ele><time>2026-04-04T15:26:14.617Z</time></trkpt><trkpt lat="45.1807249" lon="8.4704998"><ele>109.5</ele><time>2026-04-04T15:26:15.616Z</time></trkpt><trkpt lat="45.1807453" lon="8.4706202"><ele>109.66666666666666</ele><time>2026-04-04T15:26:16.616Z</time></trkpt><trkpt lat="45.1807682" lon="8.4707329"><ele>109.83333333333333</ele><time>2026-04-04T15:26:17.616Z</time></trkpt><trkpt lat="45.1807895" lon="8.4708397"><ele>110.0</ele><time>2026-04-04T15:26:18.616Z</time></trkpt><trkpt lat="45.1808108" lon="8.4709479"><ele>109.99999999999999</ele><time>2026-04-04T15:26:19.616Z</time></trkpt><trkpt lat="45.1808305" lon="8.4710561"><ele>110.0</ele><time>2026-04-04T15:26:20.616Z</time></trkpt><trkpt lat="45.1808478" lon="8.4711671"><ele>110.0</ele><time>2026-04-04T15:26:21.616Z</time></trkpt><trkpt lat="45.1808643" lon="8.4712837"><ele>110.0</ele><time>2026-04-04T15:26:22.616Z</time></trkpt><trkpt lat="45.180884" lon="8.4714058"><ele>109.99999999999999</ele><time>2026-04-04T15:26:23.616Z</time></trkpt><trkpt lat="45.1809113" lon="8.4715365"><ele>110.0</ele><time>2026-04-04T15:26:24.616Z</time></trkpt><trkpt lat="45.1809396" lon="8.4716648"><ele>109.99999999999999</ele><time>2026-04-04T15:26:25.617Z</time></trkpt><trkpt lat="45.180965" lon="8.471796"><ele>110.0</ele><time>2026-04-04T15:26:26.616Z</time></trkpt><trkpt lat="45.1809907" lon="8.4719101"><ele>110.0</ele><time>2026-04-04T15:26:27.616Z</time></trkpt><trkpt lat="45.1809991" lon="8.4720125"><ele>110.0</ele><time>2026-04-04T15:26:28.617Z</time></trkpt><trkpt lat="45.1809877" lon="8.4721075"><ele>109.99999999999999</ele><time>2026-04-04T15:26:29.616Z</time></trkpt><trkpt lat="45.180961" lon="8.4721933"><ele>110.0</ele><time>2026-04-04T15:26:30.617Z</time></trkpt><trkpt lat="45.1809336" lon="8.4722854"><ele>109.4</ele><time>2026-04-04T15:26:31.617Z</time></trkpt><trkpt lat="45.1808989" lon="8.472416"><ele>108.8</ele><time>2026-04-04T15:26:33.617Z</time></trkpt><trkpt lat="45.1808481" lon="8.4725035"><ele>108.19999999999999</ele><time>2026-04-04T15:26:38.618Z</time></trkpt><trkpt lat="45.1807863" lon="8.4726487"><ele>107.6</ele><time>2026-04-04T15:26:40.617Z</time></trkpt><trkpt lat="45.180763" lon="8.4727466"><ele>107.0</ele><time>2026-04-04T15:26:41.617Z</time></trkpt><trkpt lat="45.1807759" lon="8.4728589"><ele>107.0</ele><time>2026-04-04T15:26:42.618Z</time></trkpt><trkpt lat="45.1808115" lon="8.4729551"><ele>106.99999999999999</ele><time>2026-04-04T15:26:43.618Z</time></trkpt><trkpt lat="45.1808655" lon="8.473037"><ele>106.99999999999999</ele><time>2026-04-04T15:26:44.618Z</time></trkpt><trkpt lat="45.1809908" lon="8.4730921"><ele>107.0</ele><time>2026-04-04T15:26:46.618Z</time></trkpt><trkpt lat="45.1810654" lon="8.4731162"><ele>107.0</ele><time>2026-04-04T15:26:47.617Z</time></trkpt><trkpt lat="45.1811434" lon="8.4731722"><ele>106.99999999999999</ele><time>2026-04-04T15:26:48.617Z</time></trkpt><trkpt lat="45.1812022" lon="8.4732628"><ele>107.0</ele><time>2026-04-04T15:26:49.618Z</time></trkpt><trkpt lat="45.1812393" lon="8.4733794"><ele>107.0</ele><time>2026-04-04T15:26:50.617Z</time></trkpt><trkpt lat="45.1812639" lon="8.4734884"><ele>107.0</ele><time>2026-04-04T15:26:51.617Z</time></trkpt><trkpt lat="45.1812882" lon="8.4735874"><ele>106.99999999999999</ele><time>2026-04-04T15:26:52.618Z</time></trkpt><trkpt lat="45.1813085" lon="8.4736784"><ele>107.0</ele><time>2026-04-04T15:26:53.618Z</time></trkpt><trkpt lat="45.1813294" lon="8.4737752"><ele>107.28571428571429</ele><time>2026-04-04T15:26:54.618Z</time></trkpt><trkpt lat="45.1813488" lon="8.473874"><ele>107.57142857142857</ele><time>2026-04-04T15:26:55.618Z</time></trkpt><trkpt lat="45.1813658" lon="8.4739721"><ele>107.85714285714286</ele><time>2026-04-04T15:26:56.618Z</time></trkpt><trkpt lat="45.1813827" lon="8.4740739"><ele>108.14285714285714</ele><time>2026-04-04T15:26:57.617Z</time></trkpt><trkpt lat="45.1813981" lon="8.4741731"><ele>108.42857142857143</ele><time>2026-04-04T15:26:58.617Z</time></trkpt><trkpt lat="45.1814131" lon="8.4742695"><ele>108.71428571428572</ele><time>2026-04-04T15:26:59.617Z</time></trkpt><trkpt lat="45.1814306" lon="8.474369"><ele>109.0</ele><time>2026-04-04T15:27:00.617Z</time></trkpt><trkpt lat="45.1814471" lon="8.4744755"><ele>109.00000000000001</ele><time>2026-04-04T15:27:01.617Z</time></trkpt><trkpt lat="45.1814686" lon="8.4745864"><ele>109.0</ele><time>2026-04-04T15:27:02.617Z</time></trkpt><trkpt lat="45.1814898" lon="8.4747023"><ele>109.0</ele><time>2026-04-04T15:27:03.618Z</time></trkpt><trkpt lat="45.1815072" lon="8.4748198"><ele>109.0</ele><time>2026-04-04T15:27:04.618Z</time></trkpt><trkpt lat="45.1815292" lon="8.4749301"><ele>109.00000000000001</ele><time>2026-04-04T15:27:05.617Z</time></trkpt><trkpt lat="45.1815455" lon="8.4750547"><ele>109.0</ele><time>2026-04-04T15:27:06.618Z</time></trkpt><trkpt lat="45.1815681" lon="8.4751873"><ele>109.50000000000001</ele><time>2026-04-04T15:27:07.617Z</time></trkpt><trkpt lat="45.1815869" lon="8.475314"><ele>110.0</ele><time>2026-04-04T15:27:08.618Z</time></trkpt><trkpt lat="45.1816047" lon="8.4754287"><ele>110.5</ele><time>2026-04-04T15:27:09.617Z</time></trkpt><trkpt lat="45.1816208" lon="8.4755479"><ele>111.0</ele><time>2026-04-04T15:27:10.618Z</time></trkpt><trkpt lat="45.1816369" lon="8.4756582"><ele>111.50000000000001</ele><time>2026-04-04T15:27:11.617Z</time></trkpt><trkpt lat="45.1816561" lon="8.4757593"><ele>112.0</ele><time>2026-04-04T15:27:12.617Z</time></trkpt><trkpt lat="45.1816733" lon="8.47587"><ele>112.14285714285714</ele><time>2026-04-04T15:27:13.617Z</time></trkpt><trkpt lat="45.1816896" lon="8.4759765"><ele>112.28571428571428</ele><time>2026-04-04T15:27:14.617Z</time></trkpt><trkpt lat="45.1817074" lon="8.4760801"><ele>112.42857142857143</ele><time>2026-04-04T15:27:15.617Z</time></trkpt><trkpt lat="45.1817177" lon="8.4761786"><ele>112.57142857142857</ele><time>2026-04-04T15:27:16.617Z</time></trkpt><trkpt lat="45.1817357" lon="8.4762721"><ele>112.71428571428571</ele><time>2026-04-04T15:27:17.617Z</time></trkpt><trkpt lat="45.1817475" lon="8.4763716"><ele>112.85714285714286</ele><time>2026-04-04T15:27:18.618Z</time></trkpt><trkpt lat="45.1817664" lon="8.4764781"><ele>113.0</ele><time>2026-04-04T15:27:19.618Z</time></trkpt><trkpt lat="45.1817871" lon="8.4765814"><ele>112.99999999999999</ele><time>2026-04-04T15:27:20.618Z</time></trkpt><trkpt lat="45.1818103" lon="8.4766979"><ele>113.0</ele><time>2026-04-04T15:27:21.618Z</time></trkpt><trkpt lat="45.1818314" lon="8.4768146"><ele>113.0</ele><time>2026-04-04T15:27:22.619Z</time></trkpt><trkpt lat="45.1818518" lon="8.4769283"><ele>113.0</ele><time>2026-04-04T15:27:23.619Z</time></trkpt><trkpt lat="45.1818743" lon="8.4770484"><ele>112.99999999999999</ele><time>2026-04-04T15:27:24.618Z</time></trkpt><trkpt lat="45.1819017" lon="8.477169"><ele>113.0</ele><time>2026-04-04T15:27:25.619Z</time></trkpt><trkpt lat="45.181931" lon="8.4772829"><ele>112.85714285714286</ele><time>2026-04-04T15:27:26.619Z</time></trkpt><trkpt lat="45.1819533" lon="8.4773916"><ele>112.71428571428571</ele><time>2026-04-04T15:27:27.619Z</time></trkpt><trkpt lat="45.181975" lon="8.4774954"><ele>112.57142857142857</ele><time>2026-04-04T15:27:28.619Z</time></trkpt><trkpt lat="45.1819969" lon="8.4775952"><ele>112.42857142857143</ele><time>2026-04-04T15:27:29.619Z</time></trkpt><trkpt lat="45.182015" lon="8.4776945"><ele>112.28571428571428</ele><time>2026-04-04T15:27:30.618Z</time></trkpt><trkpt lat="45.1820369" lon="8.4777804"><ele>112.14285714285714</ele><time>2026-04-04T15:27:31.619Z</time></trkpt><trkpt lat="45.1820573" lon="8.477878"><ele>112.0</ele><time>2026-04-04T15:27:32.618Z</time></trkpt><trkpt lat="45.1820754" lon="8.477973"><ele>112.28571428571428</ele><time>2026-04-04T15:27:33.618Z</time></trkpt><trkpt lat="45.1820923" lon="8.4780681"><ele>112.57142857142857</ele><time>2026-04-04T15:27:34.618Z</time></trkpt><trkpt lat="45.1821099" lon="8.4781635"><ele>112.85714285714286</ele><time>2026-04-04T15:27:35.619Z</time></trkpt><trkpt lat="45.1821271" lon="8.4782541"><ele>113.14285714285714</ele><time>2026-04-04T15:27:36.619Z</time></trkpt><trkpt lat="45.1821629" lon="8.4784078"><ele>113.42857142857142</ele><time>2026-04-04T15:27:38.619Z</time></trkpt><trkpt lat="45.1821777" lon="8.478497"><ele>113.71428571428571</ele><time>2026-04-04T15:27:39.618Z</time></trkpt><trkpt lat="45.18219" lon="8.4785855"><ele>114.0</ele><time>2026-04-04T15:27:40.618Z</time></trkpt><trkpt lat="45.1821841" lon="8.4786891"><ele>114.0</ele><time>2026-04-04T15:27:41.619Z</time></trkpt><trkpt lat="45.182197" lon="8.4788566"><ele>114.0</ele><time>2026-04-04T15:27:43.619Z</time></trkpt><trkpt lat="45.182217" lon="8.4789588"><ele>114.0</ele><time>2026-04-04T15:27:44.619Z</time></trkpt><trkpt lat="45.1822388" lon="8.4790697"><ele>114.0</ele><time>2026-04-04T15:27:45.619Z</time></trkpt><trkpt lat="45.1822608" lon="8.4791746"><ele>114.0</ele><time>2026-04-04T15:27:46.618Z</time></trkpt><trkpt lat="45.1822854" lon="8.479281"><ele>114.0</ele><time>2026-04-04T15:27:47.618Z</time></trkpt><trkpt lat="45.1823104" lon="8.4793799"><ele>114.0</ele><time>2026-04-04T15:27:48.619Z</time></trkpt><trkpt lat="45.1823315" lon="8.4794876"><ele>114.0</ele><time>2026-04-04T15:27:49.618Z</time></trkpt><trkpt lat="45.1823519" lon="8.479595"><ele>114.0</ele><time>2026-04-04T15:27:50.619Z</time></trkpt><trkpt lat="45.1823749" lon="8.479702"><ele>114.0</ele><time>2026-04-04T15:27:51.619Z</time></trkpt><trkpt lat="45.1823983" lon="8.4798023"><ele>114.0</ele><time>2026-04-04T15:27:52.618Z</time></trkpt><trkpt lat="45.1824227" lon="8.4799075"><ele>114.0</ele><time>2026-04-04T15:27:53.618Z</time></trkpt><trkpt lat="45.182448" lon="8.480012"><ele>113.83333333333333</ele><time>2026-04-04T15:27:54.619Z</time></trkpt><trkpt lat="45.182475" lon="8.4801053"><ele>113.66666666666666</ele><time>2026-04-04T15:27:55.618Z</time></trkpt><trkpt lat="45.1825013" lon="8.4802146"><ele>113.5</ele><time>2026-04-04T15:27:56.619Z</time></trkpt><trkpt lat="45.1825249" lon="8.4803189"><ele>113.33333333333333</ele><time>2026-04-04T15:27:57.619Z</time></trkpt><trkpt lat="45.1825405" lon="8.4804398"><ele>113.16666666666666</ele><time>2026-04-04T15:27:58.619Z</time></trkpt><trkpt lat="45.1825513" lon="8.4805709"><ele>113.0</ele><time>2026-04-04T15:27:59.619Z</time></trkpt><trkpt lat="45.1825562" lon="8.4806708"><ele>112.66666666666666</ele><time>2026-04-04T15:28:00.619Z</time></trkpt><trkpt lat="45.1825749" lon="8.4807688"><ele>112.33333333333333</ele><time>2026-04-04T15:28:01.618Z</time></trkpt><trkpt lat="45.1825982" lon="8.480861"><ele>112.0</ele><time>2026-04-04T15:28:02.619Z</time></trkpt><trkpt lat="45.1826116" lon="8.4809748"><ele>111.66666666666666</ele><time>2026-04-04T15:28:03.619Z</time></trkpt><trkpt lat="45.18262" lon="8.481088"><ele>111.33333333333333</ele><time>2026-04-04T15:28:04.619Z</time></trkpt><trkpt lat="45.1826274" lon="8.4811973"><ele>111.0</ele><time>2026-04-04T15:28:05.619Z</time></trkpt><trkpt lat="45.1826396" lon="8.4812987"><ele>111.0</ele><time>2026-04-04T15:28:06.619Z</time></trkpt><trkpt lat="45.182657" lon="8.4814083"><ele>111.0</ele><time>2026-04-04T15:28:07.62Z</time></trkpt><trkpt lat="45.1826753" lon="8.4815193"><ele>111.0</ele><time>2026-04-04T15:28:08.619Z</time></trkpt><trkpt lat="45.1826934" lon="8.4816328"><ele>111.0</ele><time>2026-04-04T15:28:09.619Z</time></trkpt><trkpt lat="45.1827158" lon="8.4817517"><ele>111.0</ele><time>2026-04-04T15:28:10.62Z</time></trkpt><trkpt lat="45.1827412" lon="8.481872"><ele>111.0</ele><time>2026-04-04T15:28:11.619Z</time></trkpt><trkpt lat="45.1827634" lon="8.4819962"><ele>110.83333333333333</ele><time>2026-04-04T15:28:12.62Z</time></trkpt><trkpt lat="45.1827828" lon="8.4821112"><ele>110.66666666666666</ele><time>2026-04-04T15:28:13.619Z</time></trkpt><trkpt lat="45.1827984" lon="8.4822311"><ele>110.5</ele><time>2026-04-04T15:28:14.619Z</time></trkpt><trkpt lat="45.182818" lon="8.4823529"><ele>110.33333333333333</ele><time>2026-04-04T15:28:15.619Z</time></trkpt><trkpt lat="45.1828404" lon="8.4824738"><ele>110.16666666666666</ele><time>2026-04-04T15:28:16.62Z</time></trkpt><trkpt lat="45.1828639" lon="8.4825969"><ele>110.0</ele><time>2026-04-04T15:28:17.62Z</time></trkpt><trkpt lat="45.1828843" lon="8.4827243"><ele>110.0</ele><time>2026-04-04T15:28:18.619Z</time></trkpt><trkpt lat="45.1829094" lon="8.4828632"><ele>110.0</ele><time>2026-04-04T15:28:19.619Z</time></trkpt><trkpt lat="45.1829366" lon="8.4829996"><ele>110.0</ele><time>2026-04-04T15:28:20.62Z</time></trkpt><trkpt lat="45.1829607" lon="8.4831342"><ele>110.0</ele><time>2026-04-04T15:28:21.619Z</time></trkpt><trkpt lat="45.182986" lon="8.4832679"><ele>110.0</ele><time>2026-04-04T15:28:22.619Z</time></trkpt><trkpt lat="45.1830117" lon="8.4834064"><ele>110.0</ele><time>2026-04-04T15:28:23.619Z</time></trkpt><trkpt lat="45.1830353" lon="8.4835413"><ele>110.0</ele><time>2026-04-04T15:28:24.62Z</time></trkpt><trkpt lat="45.1830597" lon="8.4836757"><ele>110.0</ele><time>2026-04-04T15:28:25.619Z</time></trkpt><trkpt lat="45.1830834" lon="8.483809"><ele>110.0</ele><time>2026-04-04T15:28:26.619Z</time></trkpt><trkpt lat="45.1831072" lon="8.4839423"><ele>110.0</ele><time>2026-04-04T15:28:27.619Z</time></trkpt><trkpt lat="45.1831258" lon="8.4840789"><ele>110.0</ele><time>2026-04-04T15:28:28.619Z</time></trkpt><trkpt lat="45.1831403" lon="8.4842046"><ele>110.0</ele><time>2026-04-04T15:28:29.62Z</time></trkpt><trkpt lat="45.1831645" lon="8.4843351"><ele>110.0</ele><time>2026-04-04T15:28:30.619Z</time></trkpt><trkpt lat="45.1831782" lon="8.484473"><ele>110.0</ele><time>2026-04-04T15:28:31.62Z</time></trkpt><trkpt lat="45.1831968" lon="8.4846036"><ele>110.0</ele><time>2026-04-04T15:28:32.619Z</time></trkpt><trkpt lat="45.1832193" lon="8.4847319"><ele>110.0</ele><time>2026-04-04T15:28:33.62Z</time></trkpt><trkpt lat="45.1832467" lon="8.484865"><ele>110.0</ele><time>2026-04-04T15:28:34.619Z</time></trkpt><trkpt lat="45.1832749" lon="8.4849974"><ele>110.0</ele><time>2026-04-04T15:28:35.62Z</time></trkpt><trkpt lat="45.1833025" lon="8.4851312"><ele>110.0</ele><time>2026-04-04T15:28:36.62Z</time></trkpt><trkpt lat="45.1833298" lon="8.4852649"><ele>110.0</ele><time>2026-04-04T15:28:37.62Z</time></trkpt><trkpt lat="45.1833564" lon="8.4853987"><ele>109.6</ele><time>2026-04-04T15:28:38.62Z</time></trkpt><trkpt lat="45.1833816" lon="8.4855317"><ele>109.2</ele><time>2026-04-04T15:28:39.619Z</time></trkpt><trkpt lat="45.1834071" lon="8.4856645"><ele>108.80000000000001</ele><time>2026-04-04T15:28:40.62Z</time></trkpt><trkpt lat="45.183433" lon="8.4857984"><ele>108.4</ele><time>2026-04-04T15:28:41.62Z</time></trkpt><trkpt lat="45.1834562" lon="8.4859275"><ele>108.0</ele><time>2026-04-04T15:28:42.619Z</time></trkpt><trkpt lat="45.1834758" lon="8.4860511"><ele>108.0</ele><time>2026-04-04T15:28:43.619Z</time></trkpt><trkpt lat="45.1834954" lon="8.4861586"><ele>108.00000000000001</ele><time>2026-04-04T15:28:44.619Z</time></trkpt><trkpt lat="45.1835272" lon="8.4863055"><ele>108.00000000000001</ele><time>2026-04-04T15:28:46.62Z</time></trkpt><trkpt lat="45.1835626" lon="8.4864393"><ele>108.0</ele><time>2026-04-04T15:28:48.62Z</time></trkpt><trkpt lat="45.1836566" lon="8.4865471"><ele>108.0</ele><time>2026-04-04T15:28:50.62Z</time></trkpt><trkpt lat="45.1837298" lon="8.4865714"><ele>108.0</ele><time>2026-04-04T15:28:51.621Z</time></trkpt><trkpt lat="45.1838024" lon="8.4865973"><ele>108.0</ele><time>2026-04-04T15:28:52.621Z</time></trkpt><trkpt lat="45.183871" lon="8.4866262"><ele>108.0</ele><time>2026-04-04T15:28:53.62Z</time></trkpt><trkpt lat="45.1839425" lon="8.4866646"><ele>108.0</ele><time>2026-04-04T15:28:54.621Z</time></trkpt><trkpt lat="45.1840179" lon="8.4867058"><ele>108.0</ele><time>2026-04-04T15:28:55.62Z</time></trkpt><trkpt lat="45.1840947" lon="8.4867462"><ele>108.0</ele><time>2026-04-04T15:28:56.62Z</time></trkpt><trkpt lat="45.1841782" lon="8.4867863"><ele>108.4</ele><time>2026-04-04T15:28:57.62Z</time></trkpt><trkpt lat="45.1842655" lon="8.4868261"><ele>108.80000000000001</ele><time>2026-04-04T15:28:58.62Z</time></trkpt><trkpt lat="45.1843577" lon="8.4868711"><ele>109.2</ele><time>2026-04-04T15:28:59.62Z</time></trkpt><trkpt lat="45.1844556" lon="8.4869171"><ele>109.6</ele><time>2026-04-04T15:29:00.621Z</time></trkpt><trkpt lat="45.184553" lon="8.486967"><ele>110.0</ele><time>2026-04-04T15:29:01.621Z</time></trkpt><trkpt lat="45.1846508" lon="8.4870185"><ele>110.0</ele><time>2026-04-04T15:29:02.62Z</time></trkpt><trkpt lat="45.1847509" lon="8.4870673"><ele>110.0</ele><time>2026-04-04T15:29:03.621Z</time></trkpt><trkpt lat="45.1848525" lon="8.4871138"><ele>110.0</ele><time>2026-04-04T15:29:04.62Z</time></trkpt><trkpt lat="45.184953" lon="8.487164"><ele>110.0</ele><time>2026-04-04T15:29:05.621Z</time></trkpt><trkpt lat="45.1850497" lon="8.4872165"><ele>110.0</ele><time>2026-04-04T15:29:06.621Z</time></trkpt><trkpt lat="45.185148" lon="8.4872789"><ele>109.6</ele><time>2026-04-04T15:29:07.62Z</time></trkpt><trkpt lat="45.1852417" lon="8.4873275"><ele>109.2</ele><time>2026-04-04T15:29:08.62Z</time></trkpt><trkpt lat="45.1853494" lon="8.4873755"><ele>108.80000000000001</ele><time>2026-04-04T15:29:09.62Z</time></trkpt><trkpt lat="45.1854566" lon="8.4874199"><ele>108.4</ele><time>2026-04-04T15:29:10.62Z</time></trkpt><trkpt lat="45.1855617" lon="8.4874659"><ele>108.0</ele><time>2026-04-04T15:29:11.62Z</time></trkpt><trkpt lat="45.1856647" lon="8.4875188"><ele>108.0</ele><time>2026-04-04T15:29:12.62Z</time></trkpt><trkpt lat="45.1857666" lon="8.4875782"><ele>108.00000000000001</ele><time>2026-04-04T15:29:13.62Z</time></trkpt><trkpt lat="45.1858696" lon="8.4876323"><ele>108.00000000000001</ele><time>2026-04-04T15:29:14.62Z</time></trkpt><trkpt lat="45.1859746" lon="8.4876795"><ele>108.0</ele><time>2026-04-04T15:29:15.62Z</time></trkpt><trkpt lat="45.1860792" lon="8.4877263"><ele>108.0</ele><time>2026-04-04T15:29:16.62Z</time></trkpt><trkpt lat="45.1861829" lon="8.4877779"><ele>108.0</ele><time>2026-04-04T15:29:17.621Z</time></trkpt><trkpt lat="45.1862871" lon="8.4878269"><ele>108.00000000000001</ele><time>2026-04-04T15:29:18.621Z</time></trkpt><trkpt lat="45.186391" lon="8.4878744"><ele>108.00000000000001</ele><time>2026-04-04T15:29:19.62Z</time></trkpt><trkpt lat="45.1864938" lon="8.4879192"><ele>108.0</ele><time>2026-04-04T15:29:20.62Z</time></trkpt><trkpt lat="45.1865958" lon="8.4879601"><ele>108.0</ele><time>2026-04-04T15:29:21.62Z</time></trkpt><trkpt lat="45.1866961" lon="8.4880024"><ele>107.80000000000001</ele><time>2026-04-04T15:29:22.621Z</time></trkpt><trkpt lat="45.1867951" lon="8.4880565"><ele>107.60000000000001</ele><time>2026-04-04T15:29:23.621Z</time></trkpt><trkpt lat="45.1868847" lon="8.4881401"><ele>107.39999999999999</ele><time>2026-04-04T15:29:24.62Z</time></trkpt><trkpt lat="45.1869636" lon="8.488254"><ele>107.19999999999999</ele><time>2026-04-04T15:29:25.621Z</time></trkpt><trkpt lat="45.1870278" lon="8.4883876"><ele>107.0</ele><time>2026-04-04T15:29:26.62Z</time></trkpt><trkpt lat="45.1870791" lon="8.4885305"><ele>107.0</ele><time>2026-04-04T15:29:27.621Z</time></trkpt><trkpt lat="45.1871243" lon="8.4886724"><ele>106.99999999999999</ele><time>2026-04-04T15:29:28.62Z</time></trkpt><trkpt lat="45.1871763" lon="8.48881"><ele>106.99999999999999</ele><time>2026-04-04T15:29:29.621Z</time></trkpt><trkpt lat="45.1872342" lon="8.4889409"><ele>107.0</ele><time>2026-04-04T15:29:30.62Z</time></trkpt><trkpt lat="45.1872946" lon="8.4890696"><ele>107.0</ele><time>2026-04-04T15:29:31.62Z</time></trkpt><trkpt lat="45.1873545" lon="8.4891985"><ele>107.0</ele><time>2026-04-04T15:29:32.62Z</time></trkpt><trkpt lat="45.1874141" lon="8.4893282"><ele>106.99999999999999</ele><time>2026-04-04T15:29:33.62Z</time></trkpt><trkpt lat="45.1874747" lon="8.4894555"><ele>106.99999999999999</ele><time>2026-04-04T15:29:34.621Z</time></trkpt><trkpt lat="45.1875359" lon="8.4895835"><ele>107.0</ele><time>2026-04-04T15:29:35.621Z</time></trkpt><trkpt lat="45.1875984" lon="8.489711"><ele>107.0</ele><time>2026-04-04T15:29:36.621Z</time></trkpt><trkpt lat="45.1876643" lon="8.4898352"><ele>107.0</ele><time>2026-04-04T15:29:37.622Z</time></trkpt><trkpt lat="45.1877345" lon="8.4899541"><ele>106.99999999999999</ele><time>2026-04-04T15:29:38.621Z</time></trkpt><trkpt lat="45.1878083" lon="8.4900664"><ele>106.99999999999999</ele><time>2026-04-04T15:29:39.622Z</time></trkpt><trkpt lat="45.1878853" lon="8.4901764"><ele>107.0</ele><time>2026-04-04T15:29:40.621Z</time></trkpt><trkpt lat="45.1879644" lon="8.4902834"><ele>107.0</ele><time>2026-04-04T15:29:41.622Z</time></trkpt><trkpt lat="45.1880435" lon="8.4903888"><ele>107.0</ele><time>2026-04-04T15:29:42.621Z</time></trkpt><trkpt lat="45.1881216" lon="8.4904949"><ele>106.99999999999999</ele><time>2026-04-04T15:29:43.621Z</time></trkpt><trkpt lat="45.1881989" lon="8.4906009"><ele>106.99999999999999</ele><time>2026-04-04T15:29:44.622Z</time></trkpt><trkpt lat="45.1882753" lon="8.4907059"><ele>107.0</ele><time>2026-04-04T15:29:45.621Z</time></trkpt><trkpt lat="45.1883507" lon="8.4908109"><ele>107.0</ele><time>2026-04-04T15:29:46.622Z</time></trkpt><trkpt lat="45.1884272" lon="8.4909147"><ele>107.19999999999999</ele><time>2026-04-04T15:29:47.621Z</time></trkpt><trkpt lat="45.1885048" lon="8.4910163"><ele>107.39999999999999</ele><time>2026-04-04T15:29:48.621Z</time></trkpt><trkpt lat="45.1885828" lon="8.4911182"><ele>107.60000000000001</ele><time>2026-04-04T15:29:49.622Z</time></trkpt><trkpt lat="45.1886594" lon="8.4912224"><ele>107.80000000000001</ele><time>2026-04-04T15:29:50.621Z</time></trkpt><trkpt lat="45.1887328" lon="8.4913267"><ele>108.0</ele><time>2026-04-04T15:29:51.621Z</time></trkpt><trkpt lat="45.1888087" lon="8.4914312"><ele>108.0</ele><time>2026-04-04T15:29:52.621Z</time></trkpt><trkpt lat="45.1888854" lon="8.4915346"><ele>108.00000000000001</ele><time>2026-04-04T15:29:53.621Z</time></trkpt><trkpt lat="45.1889624" lon="8.4916373"><ele>108.00000000000001</ele><time>2026-04-04T15:29:54.621Z</time></trkpt><trkpt lat="45.1890394" lon="8.4917397"><ele>108.0</ele><time>2026-04-04T15:29:55.621Z</time></trkpt><trkpt lat="45.189116" lon="8.4918409"><ele>108.0</ele><time>2026-04-04T15:29:56.621Z</time></trkpt><trkpt lat="45.1891948" lon="8.4919375"><ele>108.0</ele><time>2026-04-04T15:29:57.622Z</time></trkpt><trkpt lat="45.1892781" lon="8.492028"><ele>108.00000000000001</ele><time>2026-04-04T15:29:58.622Z</time></trkpt><trkpt lat="45.1893664" lon="8.4921139"><ele>108.00000000000001</ele><time>2026-04-04T15:29:59.621Z</time></trkpt><trkpt lat="45.1894583" lon="8.4921931"><ele>108.0</ele><time>2026-04-04T15:30:00.621Z</time></trkpt><trkpt lat="45.1895509" lon="8.4922679"><ele>108.0</ele><time>2026-04-04T15:30:01.622Z</time></trkpt><trkpt lat="45.1896422" lon="8.4923421"><ele>107.80000000000001</ele><time>2026-04-04T15:30:02.621Z</time></trkpt><trkpt lat="45.1897296" lon="8.4924146"><ele>107.60000000000001</ele><time>2026-04-04T15:30:03.621Z</time></trkpt><trkpt lat="45.1898146" lon="8.4924851"><ele>107.39999999999999</ele><time>2026-04-04T15:30:04.621Z</time></trkpt><trkpt lat="45.1899004" lon="8.4925547"><ele>107.19999999999999</ele><time>2026-04-04T15:30:05.622Z</time></trkpt><trkpt lat="45.1899851" lon="8.4926246"><ele>107.0</ele><time>2026-04-04T15:30:06.621Z</time></trkpt><trkpt lat="45.1900652" lon="8.4926955"><ele>107.39999999999999</ele><time>2026-04-04T15:30:07.622Z</time></trkpt><trkpt lat="45.1901473" lon="8.4927695"><ele>107.79999999999998</ele><time>2026-04-04T15:30:08.622Z</time></trkpt><trkpt lat="45.1902296" lon="8.4928411"><ele>108.2</ele><time>2026-04-04T15:30:09.621Z</time></trkpt><trkpt lat="45.1903146" lon="8.4929111"><ele>108.6</ele><time>2026-04-04T15:30:10.621Z</time></trkpt><trkpt lat="45.1903984" lon="8.4929793"><ele>109.0</ele><time>2026-04-04T15:30:11.621Z</time></trkpt><trkpt lat="45.1904809" lon="8.4930461"><ele>109.2</ele><time>2026-04-04T15:30:12.621Z</time></trkpt><trkpt lat="45.1905615" lon="8.4931141"><ele>109.4</ele><time>2026-04-04T15:30:13.621Z</time></trkpt><trkpt lat="45.1906401" lon="8.4931821"><ele>109.6</ele><time>2026-04-04T15:30:14.622Z</time></trkpt><trkpt lat="45.1907182" lon="8.4932521"><ele>109.8</ele><time>2026-04-04T15:30:15.622Z</time></trkpt><trkpt lat="45.1907991" lon="8.4933231"><ele>110.0</ele><time>2026-04-04T15:30:16.621Z</time></trkpt><trkpt lat="45.1908808" lon="8.4933909"><ele>110.0</ele><time>2026-04-04T15:30:17.622Z</time></trkpt><trkpt lat="45.1909628" lon="8.4934584"><ele>110.0</ele><time>2026-04-04T15:30:18.622Z</time></trkpt><trkpt lat="45.1910445" lon="8.4935292"><ele>110.0</ele><time>2026-04-04T15:30:19.623Z</time></trkpt><trkpt lat="45.191127" lon="8.493603"><ele>110.0</ele><time>2026-04-04T15:30:20.622Z</time></trkpt><trkpt lat="45.1912082" lon="8.4936793"><ele>110.0</ele><time>2026-04-04T15:30:21.623Z</time></trkpt><trkpt lat="45.1912872" lon="8.4937599"><ele>110.0</ele><time>2026-04-04T15:30:22.622Z</time></trkpt><trkpt lat="45.1913649" lon="8.4938443"><ele>110.0</ele><time>2026-04-04T15:30:23.622Z</time></trkpt><trkpt lat="45.1915216" lon="8.4940225"><ele>110.0</ele><time>2026-04-04T15:30:25.622Z</time></trkpt><trkpt lat="45.1916006" lon="8.4941155"><ele>110.0</ele><time>2026-04-04T15:30:26.623Z</time></trkpt><trkpt lat="45.1916805" lon="8.4942084"><ele>110.0</ele><time>2026-04-04T15:30:27.622Z</time></trkpt><trkpt lat="45.1917584" lon="8.494304"><ele>110.0</ele><time>2026-04-04T15:30:28.622Z</time></trkpt><trkpt lat="45.1918363" lon="8.4944015"><ele>110.0</ele><time>2026-04-04T15:30:29.622Z</time></trkpt><trkpt lat="45.1919146" lon="8.4944976"><ele>110.0</ele><time>2026-04-04T15:30:30.622Z</time></trkpt><trkpt lat="45.1919903" lon="8.494589"><ele>110.0</ele><time>2026-04-04T15:30:31.622Z</time></trkpt><trkpt lat="45.1920683" lon="8.4946764"><ele>110.0</ele><time>2026-04-04T15:30:32.622Z</time></trkpt><trkpt lat="45.1921505" lon="8.4947628"><ele>110.0</ele><time>2026-04-04T15:30:33.623Z</time></trkpt><trkpt lat="45.1922368" lon="8.4948415"><ele>110.0</ele><time>2026-04-04T15:30:34.623Z</time></trkpt><trkpt lat="45.1923287" lon="8.494911"><ele>110.0</ele><time>2026-04-04T15:30:35.622Z</time></trkpt><trkpt lat="45.1924239" lon="8.4949685"><ele>110.0</ele><time>2026-04-04T15:30:36.622Z</time></trkpt><trkpt lat="45.1925213" lon="8.4950162"><ele>110.0</ele><time>2026-04-04T15:30:37.622Z</time></trkpt><trkpt lat="45.1926231" lon="8.4950569"><ele>110.0</ele><time>2026-04-04T15:30:38.622Z</time></trkpt><trkpt lat="45.1927289" lon="8.4950892"><ele>110.0</ele><time>2026-04-04T15:30:39.623Z</time></trkpt><trkpt lat="45.1928361" lon="8.4951112"><ele>110.0</ele><time>2026-04-04T15:30:40.623Z</time></trkpt><trkpt lat="45.1929416" lon="8.4951223"><ele>110.0</ele><time>2026-04-04T15:30:41.622Z</time></trkpt><trkpt lat="45.1930489" lon="8.4951254"><ele>110.0</ele><time>2026-04-04T15:30:42.622Z</time></trkpt><trkpt lat="45.1931556" lon="8.4951204"><ele>110.0</ele><time>2026-04-04T15:30:43.622Z</time></trkpt><trkpt lat="45.1932615" lon="8.4951122"><ele>110.0</ele><time>2026-04-04T15:30:44.622Z</time></trkpt><trkpt lat="45.1933673" lon="8.4951051"><ele>110.0</ele><time>2026-04-04T15:30:45.623Z</time></trkpt><trkpt lat="45.1934752" lon="8.4951015"><ele>110.0</ele><time>2026-04-04T15:30:46.622Z</time></trkpt><trkpt lat="45.1935839" lon="8.4951002"><ele>109.8</ele><time>2026-04-04T15:30:47.623Z</time></trkpt><trkpt lat="45.1936923" lon="8.4950993"><ele>109.6</ele><time>2026-04-04T15:30:48.622Z</time></trkpt><trkpt lat="45.1938002" lon="8.4950974"><ele>109.4</ele><time>2026-04-04T15:30:49.622Z</time></trkpt><trkpt lat="45.1939084" lon="8.495098"><ele>109.2</ele><time>2026-04-04T15:30:50.622Z</time></trkpt><trkpt lat="45.1940167" lon="8.4951035"><ele>109.0</ele><time>2026-04-04T15:30:51.622Z</time></trkpt><trkpt lat="45.1941221" lon="8.4951169"><ele>109.0</ele><time>2026-04-04T15:30:52.622Z</time></trkpt><trkpt lat="45.1942252" lon="8.4951436"><ele>109.0</ele><time>2026-04-04T15:30:53.622Z</time></trkpt><trkpt lat="45.1943265" lon="8.4951762"><ele>109.0</ele><time>2026-04-04T15:30:54.623Z</time></trkpt><trkpt lat="45.1944276" lon="8.4952118"><ele>109.0</ele><time>2026-04-04T15:30:55.622Z</time></trkpt><trkpt lat="45.1945282" lon="8.49525"><ele>109.0</ele><time>2026-04-04T15:30:56.623Z</time></trkpt><trkpt lat="45.1946273" lon="8.4952904"><ele>109.0</ele><time>2026-04-04T15:30:57.622Z</time></trkpt><trkpt lat="45.1947272" lon="8.495334"><ele>109.0</ele><time>2026-04-04T15:30:58.622Z</time></trkpt><trkpt lat="45.1948237" lon="8.4953774"><ele>109.0</ele><time>2026-04-04T15:30:59.623Z</time></trkpt><trkpt lat="45.1949221" lon="8.4954226"><ele>109.0</ele><time>2026-04-04T15:31:00.622Z</time></trkpt><trkpt lat="45.1950192" lon="8.4954688"><ele>109.0</ele><time>2026-04-04T15:31:01.623Z</time></trkpt><trkpt lat="45.1951159" lon="8.4955164"><ele>108.80000000000001</ele><time>2026-04-04T15:31:02.622Z</time></trkpt><trkpt lat="45.1952093" lon="8.4955693"><ele>108.60000000000001</ele><time>2026-04-04T15:31:03.623Z</time></trkpt><trkpt lat="45.1953032" lon="8.4956254"><ele>108.4</ele><time>2026-04-04T15:31:04.623Z</time></trkpt><trkpt lat="45.1953969" lon="8.4956812"><ele>108.2</ele><time>2026-04-04T15:31:05.622Z</time></trkpt><trkpt lat="45.1954883" lon="8.4957333"><ele>108.0</ele><time>2026-04-04T15:31:06.624Z</time></trkpt><trkpt lat="45.1955812" lon="8.4957846"><ele>107.60000000000001</ele><time>2026-04-04T15:31:07.623Z</time></trkpt><trkpt lat="45.1956755" lon="8.4958312"><ele>107.20000000000002</ele><time>2026-04-04T15:31:08.624Z</time></trkpt><trkpt lat="45.1957691" lon="8.4958749"><ele>106.8</ele><time>2026-04-04T15:31:09.623Z</time></trkpt><trkpt lat="45.1958637" lon="8.4959191"><ele>106.4</ele><time>2026-04-04T15:31:10.623Z</time></trkpt><trkpt lat="45.1959587" lon="8.4959623"><ele>106.0</ele><time>2026-04-04T15:31:11.624Z</time></trkpt><trkpt lat="45.1960527" lon="8.4960018"><ele>106.0</ele><time>2026-04-04T15:31:12.623Z</time></trkpt><trkpt lat="45.1961463" lon="8.4960386"><ele>106.0</ele><time>2026-04-04T15:31:13.623Z</time></trkpt><trkpt lat="45.1962402" lon="8.4960746"><ele>106.0</ele><time>2026-04-04T15:31:14.623Z</time></trkpt><trkpt lat="45.1963335" lon="8.4961122"><ele>106.0</ele><time>2026-04-04T15:31:15.623Z</time></trkpt><trkpt lat="45.1964272" lon="8.4961479"><ele>106.0</ele><time>2026-04-04T15:31:16.624Z</time></trkpt><trkpt lat="45.1965204" lon="8.4961774"><ele>106.4</ele><time>2026-04-04T15:31:17.624Z</time></trkpt><trkpt lat="45.1966144" lon="8.4962009"><ele>106.8</ele><time>2026-04-04T15:31:18.624Z</time></trkpt><trkpt lat="45.1967101" lon="8.4962196"><ele>107.20000000000002</ele><time>2026-04-04T15:31:19.623Z</time></trkpt><trkpt lat="45.1968081" lon="8.4962338"><ele>107.60000000000001</ele><time>2026-04-04T15:31:20.623Z</time></trkpt><trkpt lat="45.196906" lon="8.4962448"><ele>108.0</ele><time>2026-04-04T15:31:21.623Z</time></trkpt><trkpt lat="45.1970049" lon="8.4962533"><ele>108.0</ele><time>2026-04-04T15:31:22.623Z</time></trkpt><trkpt lat="45.1971045" lon="8.4962583"><ele>108.00000000000001</ele><time>2026-04-04T15:31:23.624Z</time></trkpt><trkpt lat="45.1972057" lon="8.4962617"><ele>108.00000000000001</ele><time>2026-04-04T15:31:24.624Z</time></trkpt><trkpt lat="45.1973081" lon="8.4962625"><ele>108.0</ele><time>2026-04-04T15:31:25.624Z</time></trkpt><trkpt lat="45.1974118" lon="8.496263"><ele>108.0</ele><time>2026-04-04T15:31:26.623Z</time></trkpt><trkpt lat="45.1975165" lon="8.4962665"><ele>108.0</ele><time>2026-04-04T15:31:27.624Z</time></trkpt><trkpt lat="45.1976211" lon="8.4962729"><ele>108.00000000000001</ele><time>2026-04-04T15:31:28.624Z</time></trkpt><trkpt lat="45.197725" lon="8.4962808"><ele>108.00000000000001</ele><time>2026-04-04T15:31:29.624Z</time></trkpt><trkpt lat="45.197829" lon="8.4962894"><ele>108.0</ele><time>2026-04-04T15:31:30.623Z</time></trkpt><trkpt lat="45.1979334" lon="8.4962969"><ele>108.0</ele><time>2026-04-04T15:31:31.623Z</time></trkpt><trkpt lat="45.1980387" lon="8.4963042"><ele>108.0</ele><time>2026-04-04T15:31:32.624Z</time></trkpt><trkpt lat="45.1981446" lon="8.496314"><ele>108.00000000000001</ele><time>2026-04-04T15:31:33.623Z</time></trkpt><trkpt lat="45.1982505" lon="8.4963272"><ele>108.00000000000001</ele><time>2026-04-04T15:31:34.623Z</time></trkpt><trkpt lat="45.1983553" lon="8.4963438"><ele>108.0</ele><time>2026-04-04T15:31:35.623Z</time></trkpt><trkpt lat="45.1984592" lon="8.4963619"><ele>108.0</ele><time>2026-04-04T15:31:36.624Z</time></trkpt><trkpt lat="45.1985636" lon="8.4963783"><ele>107.80000000000001</ele><time>2026-04-04T15:31:37.623Z</time></trkpt><trkpt lat="45.1986686" lon="8.4963957"><ele>107.60000000000001</ele><time>2026-04-04T15:31:38.624Z</time></trkpt><trkpt lat="45.1987733" lon="8.4964159"><ele>107.39999999999999</ele><time>2026-04-04T15:31:39.623Z</time></trkpt><trkpt lat="45.1988776" lon="8.4964403"><ele>107.19999999999999</ele><time>2026-04-04T15:31:40.624Z</time></trkpt><trkpt lat="45.1989839" lon="8.4964677"><ele>107.0</ele><time>2026-04-04T15:31:41.623Z</time></trkpt><trkpt lat="45.1990909" lon="8.4964962"><ele>106.8</ele><time>2026-04-04T15:31:42.623Z</time></trkpt><trkpt lat="45.1991973" lon="8.4965255"><ele>106.6</ele><time>2026-04-04T15:31:43.623Z</time></trkpt><trkpt lat="45.1993043" lon="8.4965579"><ele>106.39999999999999</ele><time>2026-04-04T15:31:44.623Z</time></trkpt><trkpt lat="45.1994124" lon="8.4965935"><ele>106.19999999999999</ele><time>2026-04-04T15:31:45.624Z</time></trkpt><trkpt lat="45.1995188" lon="8.4966251"><ele>106.0</ele><time>2026-04-04T15:31:46.623Z</time></trkpt><trkpt lat="45.1996265" lon="8.4966524"><ele>106.0</ele><time>2026-04-04T15:31:47.624Z</time></trkpt><trkpt lat="45.1997358" lon="8.496675"><ele>106.0</ele><time>2026-04-04T15:31:48.623Z</time></trkpt><trkpt lat="45.1998458" lon="8.4966892"><ele>106.0</ele><time>2026-04-04T15:31:49.623Z</time></trkpt><trkpt lat="45.1999572" lon="8.4967026"><ele>106.0</ele><time>2026-04-04T15:31:50.623Z</time></trkpt><trkpt lat="45.2000704" lon="8.4967163"><ele>106.0</ele><time>2026-04-04T15:31:51.624Z</time></trkpt><trkpt lat="45.2001831" lon="8.4967277"><ele>106.19999999999999</ele><time>2026-04-04T15:31:52.624Z</time></trkpt><trkpt lat="45.2002912" lon="8.496738"><ele>106.39999999999999</ele><time>2026-04-04T15:31:53.625Z</time></trkpt><trkpt lat="45.2004013" lon="8.496749"><ele>106.6</ele><time>2026-04-04T15:31:54.625Z</time></trkpt><trkpt lat="45.2005129" lon="8.4967599"><ele>106.8</ele><time>2026-04-04T15:31:55.625Z</time></trkpt><trkpt lat="45.200624" lon="8.4967707"><ele>107.0</ele><time>2026-04-04T15:31:56.625Z</time></trkpt><trkpt lat="45.2007348" lon="8.4967826"><ele>107.0</ele><time>2026-04-04T15:31:57.625Z</time></trkpt><trkpt lat="45.2008448" lon="8.4967934"><ele>106.99999999999999</ele><time>2026-04-04T15:31:58.624Z</time></trkpt><trkpt lat="45.2009552" lon="8.4968033"><ele>106.99999999999999</ele><time>2026-04-04T15:31:59.625Z</time></trkpt><trkpt lat="45.2010663" lon="8.4968153"><ele>107.0</ele><time>2026-04-04T15:32:00.624Z</time></trkpt><trkpt lat="45.2011751" lon="8.4968347"><ele>107.0</ele><time>2026-04-04T15:32:01.625Z</time></trkpt><trkpt lat="45.2012835" lon="8.4968638"><ele>107.0</ele><time>2026-04-04T15:32:02.625Z</time></trkpt><trkpt lat="45.2013904" lon="8.4969076"><ele>106.99999999999999</ele><time>2026-04-04T15:32:03.625Z</time></trkpt><trkpt lat="45.2014938" lon="8.496962"><ele>106.99999999999999</ele><time>2026-04-04T15:32:04.625Z</time></trkpt><trkpt lat="45.2015959" lon="8.4970185"><ele>107.0</ele><time>2026-04-04T15:32:05.625Z</time></trkpt><trkpt lat="45.2016974" lon="8.4970734"><ele>107.0</ele><time>2026-04-04T15:32:06.625Z</time></trkpt><trkpt lat="45.2018003" lon="8.4971235"><ele>107.0</ele><time>2026-04-04T15:32:07.625Z</time></trkpt><trkpt lat="45.2019023" lon="8.4971746"><ele>106.99999999999999</ele><time>2026-04-04T15:32:08.625Z</time></trkpt><trkpt lat="45.2020005" lon="8.4972251"><ele>106.99999999999999</ele><time>2026-04-04T15:32:09.624Z</time></trkpt><trkpt lat="45.2020989" lon="8.4972767"><ele>107.0</ele><time>2026-04-04T15:32:10.624Z</time></trkpt><trkpt lat="45.2021991" lon="8.4973169"><ele>107.0</ele><time>2026-04-04T15:32:11.625Z</time></trkpt><trkpt lat="45.2023024" lon="8.4973454"><ele>107.19999999999999</ele><time>2026-04-04T15:32:12.624Z</time></trkpt><trkpt lat="45.2024138" lon="8.4973599"><ele>107.39999999999999</ele><time>2026-04-04T15:32:13.625Z</time></trkpt><trkpt lat="45.202528" lon="8.4973631"><ele>107.60000000000001</ele><time>2026-04-04T15:32:14.624Z</time></trkpt><trkpt lat="45.2026382" lon="8.4973597"><ele>107.80000000000001</ele><time>2026-04-04T15:32:15.625Z</time></trkpt><trkpt lat="45.2027431" lon="8.49735"><ele>108.0</ele><time>2026-04-04T15:32:16.625Z</time></trkpt><trkpt lat="45.2028455" lon="8.4973414"><ele>108.0</ele><time>2026-04-04T15:32:17.624Z</time></trkpt><trkpt lat="45.2029515" lon="8.4973374"><ele>108.00000000000001</ele><time>2026-04-04T15:32:18.625Z</time></trkpt><trkpt lat="45.2030617" lon="8.4973372"><ele>108.00000000000001</ele><time>2026-04-04T15:32:19.625Z</time></trkpt><trkpt lat="45.2031739" lon="8.4973383"><ele>108.0</ele><time>2026-04-04T15:32:20.625Z</time></trkpt><trkpt lat="45.2032829" lon="8.4973441"><ele>108.0</ele><time>2026-04-04T15:32:21.624Z</time></trkpt><trkpt lat="45.2033915" lon="8.4973556"><ele>108.0</ele><time>2026-04-04T15:32:22.625Z</time></trkpt><trkpt lat="45.2034988" lon="8.4973792"><ele>108.00000000000001</ele><time>2026-04-04T15:32:23.625Z</time></trkpt><trkpt lat="45.2036081" lon="8.497415"><ele>108.00000000000001</ele><time>2026-04-04T15:32:24.625Z</time></trkpt><trkpt lat="45.2037154" lon="8.4974616"><ele>108.0</ele><time>2026-04-04T15:32:25.625Z</time></trkpt><trkpt lat="45.2038178" lon="8.4975148"><ele>108.0</ele><time>2026-04-04T15:32:26.625Z</time></trkpt><trkpt lat="45.2039195" lon="8.497567"><ele>108.0</ele><time>2026-04-04T15:32:27.624Z</time></trkpt><trkpt lat="45.2040194" lon="8.4976189"><ele>108.00000000000001</ele><time>2026-04-04T15:32:28.625Z</time></trkpt><trkpt lat="45.2041218" lon="8.4976724"><ele>108.00000000000001</ele><time>2026-04-04T15:32:29.625Z</time></trkpt><trkpt lat="45.2042246" lon="8.4977243"><ele>108.0</ele><time>2026-04-04T15:32:30.625Z</time></trkpt><trkpt lat="45.2043291" lon="8.4977715"><ele>108.0</ele><time>2026-04-04T15:32:31.625Z</time></trkpt><trkpt lat="45.204431" lon="8.4978187"><ele>108.0</ele><time>2026-04-04T15:32:32.625Z</time></trkpt><trkpt lat="45.2045347" lon="8.4978697"><ele>108.00000000000001</ele><time>2026-04-04T15:32:33.625Z</time></trkpt><trkpt lat="45.2046347" lon="8.4979207"><ele>108.00000000000001</ele><time>2026-04-04T15:32:34.625Z</time></trkpt><trkpt lat="45.2047347" lon="8.4979729"><ele>108.0</ele><time>2026-04-04T15:32:35.625Z</time></trkpt><trkpt lat="45.2048341" lon="8.4980204"><ele>108.0</ele><time>2026-04-04T15:32:36.626Z</time></trkpt><trkpt lat="45.2049349" lon="8.4980627"><ele>108.4</ele><time>2026-04-04T15:32:37.626Z</time></trkpt><trkpt lat="45.2050354" lon="8.4981021"><ele>108.80000000000001</ele><time>2026-04-04T15:32:38.625Z</time></trkpt><trkpt lat="45.2051369" lon="8.4981391"><ele>109.2</ele><time>2026-04-04T15:32:39.626Z</time></trkpt><trkpt lat="45.2052384" lon="8.4981738"><ele>109.6</ele><time>2026-04-04T15:32:40.626Z</time></trkpt><trkpt lat="45.205341" lon="8.4982086"><ele>110.0</ele><time>2026-04-04T15:32:41.625Z</time></trkpt><trkpt lat="45.2054447" lon="8.4982499"><ele>110.0</ele><time>2026-04-04T15:32:42.625Z</time></trkpt><trkpt lat="45.2055461" lon="8.4982976"><ele>110.0</ele><time>2026-04-04T15:32:43.626Z</time></trkpt><trkpt lat="45.2056459" lon="8.4983573"><ele>110.0</ele><time>2026-04-04T15:32:44.625Z</time></trkpt><trkpt lat="45.2057431" lon="8.4984193"><ele>110.0</ele><time>2026-04-04T15:32:45.625Z</time></trkpt><trkpt lat="45.2058367" lon="8.4984887"><ele>110.0</ele><time>2026-04-04T15:32:46.625Z</time></trkpt><trkpt lat="45.2059326" lon="8.4985617"><ele>110.2</ele><time>2026-04-04T15:32:47.625Z</time></trkpt><trkpt lat="45.2060309" lon="8.4986304"><ele>110.4</ele><time>2026-04-04T15:32:48.626Z</time></trkpt><trkpt lat="45.2061281" lon="8.4986945"><ele>110.6</ele><time>2026-04-04T15:32:49.626Z</time></trkpt><trkpt lat="45.2062292" lon="8.4987553"><ele>110.8</ele><time>2026-04-04T15:32:50.626Z</time></trkpt><trkpt lat="45.2063292" lon="8.4988044"><ele>111.0</ele><time>2026-04-04T15:32:51.625Z</time></trkpt><trkpt lat="45.2064324" lon="8.4988425"><ele>111.0</ele><time>2026-04-04T15:32:52.625Z</time></trkpt><trkpt lat="45.2065378" lon="8.4988723"><ele>111.0</ele><time>2026-04-04T15:32:53.626Z</time></trkpt><trkpt lat="45.2066427" lon="8.4988994"><ele>111.0</ele><time>2026-04-04T15:32:54.625Z</time></trkpt><trkpt lat="45.2067511" lon="8.4989355"><ele>111.0</ele><time>2026-04-04T15:32:55.626Z</time></trkpt><trkpt lat="45.2068583" lon="8.4989769"><ele>111.0</ele><time>2026-04-04T15:32:56.625Z</time></trkpt><trkpt lat="45.2069647" lon="8.4990193"><ele>111.0</ele><time>2026-04-04T15:32:57.626Z</time></trkpt><trkpt lat="45.2070709" lon="8.4990601"><ele>111.0</ele><time>2026-04-04T15:32:58.626Z</time></trkpt><trkpt lat="45.2071776" lon="8.4991011"><ele>111.0</ele><time>2026-04-04T15:32:59.625Z</time></trkpt><trkpt lat="45.2072859" lon="8.4991434"><ele>111.0</ele><time>2026-04-04T15:33:00.625Z</time></trkpt><trkpt lat="45.2073932" lon="8.499185"><ele>111.0</ele><time>2026-04-04T15:33:01.625Z</time></trkpt><trkpt lat="45.2074979" lon="8.4992241"><ele>111.0</ele><time>2026-04-04T15:33:02.626Z</time></trkpt><trkpt lat="45.2076036" lon="8.4992631"><ele>111.0</ele><time>2026-04-04T15:33:03.625Z</time></trkpt><trkpt lat="45.2077106" lon="8.4993017"><ele>111.0</ele><time>2026-04-04T15:33:04.627Z</time></trkpt><trkpt lat="45.2078176" lon="8.4993414"><ele>111.0</ele><time>2026-04-04T15:33:05.626Z</time></trkpt><trkpt lat="45.2079243" lon="8.499383"><ele>111.0</ele><time>2026-04-04T15:33:06.626Z</time></trkpt><trkpt lat="45.2080296" lon="8.4994285"><ele>111.0</ele><time>2026-04-04T15:33:07.626Z</time></trkpt><trkpt lat="45.2081341" lon="8.4994808"><ele>111.0</ele><time>2026-04-04T15:33:08.626Z</time></trkpt><trkpt lat="45.2082338" lon="8.4995467"><ele>111.0</ele><time>2026-04-04T15:33:09.625Z</time></trkpt><trkpt lat="45.2083309" lon="8.4996305"><ele>111.0</ele><time>2026-04-04T15:33:10.625Z</time></trkpt><trkpt lat="45.2084228" lon="8.4997225"><ele>111.0</ele><time>2026-04-04T15:33:11.626Z</time></trkpt><trkpt lat="45.2085129" lon="8.4998205"><ele>110.8</ele><time>2026-04-04T15:33:12.625Z</time></trkpt><trkpt lat="45.2086023" lon="8.4999167"><ele>110.6</ele><time>2026-04-04T15:33:13.625Z</time></trkpt><trkpt lat="45.2086898" lon="8.500015"><ele>110.4</ele><time>2026-04-04T15:33:14.626Z</time></trkpt><trkpt lat="45.2087766" lon="8.5001086"><ele>110.2</ele><time>2026-04-04T15:33:15.625Z</time></trkpt><trkpt lat="45.2088703" lon="8.5001889"><ele>110.0</ele><time>2026-04-04T15:33:16.625Z</time></trkpt><trkpt lat="45.2089733" lon="8.5002537"><ele>110.0</ele><time>2026-04-04T15:33:17.626Z</time></trkpt><trkpt lat="45.2090811" lon="8.5003013"><ele>110.0</ele><time>2026-04-04T15:33:18.626Z</time></trkpt><trkpt lat="45.2091911" lon="8.5003398"><ele>110.0</ele><time>2026-04-04T15:33:19.625Z</time></trkpt><trkpt lat="45.2093019" lon="8.5003766"><ele>110.0</ele><time>2026-04-04T15:33:20.626Z</time></trkpt><trkpt lat="45.2094118" lon="8.5004168"><ele>109.8</ele><time>2026-04-04T15:33:21.627Z</time></trkpt><trkpt lat="45.2095194" lon="8.5004642"><ele>109.6</ele><time>2026-04-04T15:33:22.627Z</time></trkpt><trkpt lat="45.2096207" lon="8.5005262"><ele>109.4</ele><time>2026-04-04T15:33:23.627Z</time></trkpt><trkpt lat="45.2097175" lon="8.5006032"><ele>109.2</ele><time>2026-04-04T15:33:24.627Z</time></trkpt><trkpt lat="45.209811" lon="8.5006961"><ele>109.0</ele><time>2026-04-04T15:33:25.627Z</time></trkpt><trkpt lat="45.2098984" lon="8.500796"><ele>108.80000000000001</ele><time>2026-04-04T15:33:26.626Z</time></trkpt><trkpt lat="45.2099822" lon="8.5009012"><ele>108.60000000000001</ele><time>2026-04-04T15:33:27.626Z</time></trkpt><trkpt lat="45.2100622" lon="8.501005"><ele>108.4</ele><time>2026-04-04T15:33:28.626Z</time></trkpt><trkpt lat="45.210144" lon="8.5011048"><ele>108.2</ele><time>2026-04-04T15:33:29.626Z</time></trkpt><trkpt lat="45.2102275" lon="8.5011999"><ele>108.0</ele><time>2026-04-04T15:33:30.626Z</time></trkpt><trkpt lat="45.2103101" lon="8.5012924"><ele>108.2</ele><time>2026-04-04T15:33:31.626Z</time></trkpt><trkpt lat="45.2103924" lon="8.5013854"><ele>108.4</ele><time>2026-04-04T15:33:32.627Z</time></trkpt><trkpt lat="45.2104744" lon="8.5014797"><ele>108.60000000000001</ele><time>2026-04-04T15:33:33.626Z</time></trkpt><trkpt lat="45.2105568" lon="8.5015744"><ele>108.80000000000001</ele><time>2026-04-04T15:33:34.626Z</time></trkpt><trkpt lat="45.2106381" lon="8.5016688"><ele>109.0</ele><time>2026-04-04T15:33:35.627Z</time></trkpt><trkpt lat="45.2107183" lon="8.5017646"><ele>109.0</ele><time>2026-04-04T15:33:36.626Z</time></trkpt><trkpt lat="45.2107973" lon="8.5018601"><ele>109.0</ele><time>2026-04-04T15:33:37.627Z</time></trkpt><trkpt lat="45.2108768" lon="8.5019552"><ele>109.0</ele><time>2026-04-04T15:33:38.627Z</time></trkpt><trkpt lat="45.2109554" lon="8.50205"><ele>109.0</ele><time>2026-04-04T15:33:39.626Z</time></trkpt><trkpt lat="45.2110334" lon="8.5021459"><ele>109.0</ele><time>2026-04-04T15:33:40.627Z</time></trkpt><trkpt lat="45.2111097" lon="8.5022443"><ele>109.0</ele><time>2026-04-04T15:33:41.627Z</time></trkpt><trkpt lat="45.2111853" lon="8.5023445"><ele>109.0</ele><time>2026-04-04T15:33:42.626Z</time></trkpt><trkpt lat="45.2112626" lon="8.5024443"><ele>109.0</ele><time>2026-04-04T15:33:43.626Z</time></trkpt><trkpt lat="45.2113411" lon="8.50254"><ele>109.0</ele><time>2026-04-04T15:33:44.627Z</time></trkpt><trkpt lat="45.2114232" lon="8.5026325"><ele>109.0</ele><time>2026-04-04T15:33:45.627Z</time></trkpt><trkpt lat="45.2115053" lon="8.5027262"><ele>109.0</ele><time>2026-04-04T15:33:46.626Z</time></trkpt><trkpt lat="45.2115875" lon="8.5028206"><ele>109.0</ele><time>2026-04-04T15:33:47.626Z</time></trkpt><trkpt lat="45.2116718" lon="8.5029088"><ele>109.0</ele><time>2026-04-04T15:33:48.627Z</time></trkpt><trkpt lat="45.2117611" lon="8.5029859"><ele>109.0</ele><time>2026-04-04T15:33:49.627Z</time></trkpt><trkpt lat="45.2118549" lon="8.5030586"><ele>109.0</ele><time>2026-04-04T15:33:50.627Z</time></trkpt><trkpt lat="45.2119512" lon="8.5031314"><ele>109.0</ele><time>2026-04-04T15:33:51.627Z</time></trkpt><trkpt lat="45.2120507" lon="8.5032063"><ele>109.0</ele><time>2026-04-04T15:33:52.626Z</time></trkpt><trkpt lat="45.2121492" lon="8.5032795"><ele>109.0</ele><time>2026-04-04T15:33:53.626Z</time></trkpt><trkpt lat="45.2122471" lon="8.5033588"><ele>109.0</ele><time>2026-04-04T15:33:54.627Z</time></trkpt><trkpt lat="45.2123451" lon="8.503441"><ele>109.0</ele><time>2026-04-04T15:33:55.627Z</time></trkpt><trkpt lat="45.2124408" lon="8.5035213"><ele>109.0</ele><time>2026-04-04T15:33:56.626Z</time></trkpt><trkpt lat="45.2125329" lon="8.5035953"><ele>109.0</ele><time>2026-04-04T15:33:57.626Z</time></trkpt><trkpt lat="45.2126254" lon="8.5036702"><ele>109.0</ele><time>2026-04-04T15:33:58.627Z</time></trkpt><trkpt lat="45.2127163" lon="8.5037452"><ele>109.0</ele><time>2026-04-04T15:33:59.627Z</time></trkpt><trkpt lat="45.2128054" lon="8.50382"><ele>109.0</ele><time>2026-04-04T15:34:00.626Z</time></trkpt><trkpt lat="45.2128933" lon="8.5038924"><ele>109.0</ele><time>2026-04-04T15:34:01.626Z</time></trkpt><trkpt lat="45.2129819" lon="8.5039611"><ele>109.0</ele><time>2026-04-04T15:34:02.626Z</time></trkpt><trkpt lat="45.2130713" lon="8.5040293"><ele>109.0</ele><time>2026-04-04T15:34:03.628Z</time></trkpt><trkpt lat="45.2131592" lon="8.5041"><ele>109.0</ele><time>2026-04-04T15:34:04.626Z</time></trkpt><trkpt lat="45.2132432" lon="8.5041729"><ele>109.2</ele><time>2026-04-04T15:34:05.626Z</time></trkpt><trkpt lat="45.2133272" lon="8.5042475"><ele>109.4</ele><time>2026-04-04T15:34:06.626Z</time></trkpt><trkpt lat="45.2134106" lon="8.5043214"><ele>109.6</ele><time>2026-04-04T15:34:07.627Z</time></trkpt><trkpt lat="45.2134962" lon="8.5043978"><ele>109.8</ele><time>2026-04-04T15:34:08.628Z</time></trkpt><trkpt lat="45.213583" lon="8.5044715"><ele>110.0</ele><time>2026-04-04T15:34:09.627Z</time></trkpt><trkpt lat="45.2136709" lon="8.5045413"><ele>109.8</ele><time>2026-04-04T15:34:10.628Z</time></trkpt><trkpt lat="45.2137577" lon="8.5046104"><ele>109.6</ele><time>2026-04-04T15:34:11.627Z</time></trkpt><trkpt lat="45.2138435" lon="8.5046793"><ele>109.4</ele><time>2026-04-04T15:34:12.628Z</time></trkpt><trkpt lat="45.2139293" lon="8.5047475"><ele>109.2</ele><time>2026-04-04T15:34:13.628Z</time></trkpt><trkpt lat="45.2140164" lon="8.5048158"><ele>109.0</ele><time>2026-04-04T15:34:14.627Z</time></trkpt><trkpt lat="45.2141032" lon="8.5048818"><ele>109.33333333333334</ele><time>2026-04-04T15:34:15.627Z</time></trkpt><trkpt lat="45.2141875" lon="8.5049437"><ele>109.66666666666667</ele><time>2026-04-04T15:34:16.628Z</time></trkpt><trkpt lat="45.2142645" lon="8.5050011"><ele>110.0</ele><time>2026-04-04T15:34:17.628Z</time></trkpt><trkpt lat="45.2143334" lon="8.5050536"><ele>110.33333333333334</ele><time>2026-04-04T15:34:18.627Z</time></trkpt><trkpt lat="45.2143923" lon="8.5050999"><ele>110.66666666666667</ele><time>2026-04-04T15:34:19.628Z</time></trkpt><trkpt lat="45.2144488" lon="8.5051437"><ele>111.0</ele><time>2026-04-04T15:34:20.628Z</time></trkpt><trkpt lat="45.2145084" lon="8.5051884"><ele>111.0</ele><time>2026-04-04T15:34:21.627Z</time></trkpt><trkpt lat="45.2145698" lon="8.5052344"><ele>111.0</ele><time>2026-04-04T15:34:22.627Z</time></trkpt><trkpt lat="45.2146333" lon="8.505284"><ele>111.0</ele><time>2026-04-04T15:34:23.627Z</time></trkpt><trkpt lat="45.2147005" lon="8.505339"><ele>111.0</ele><time>2026-04-04T15:34:24.628Z</time></trkpt><trkpt lat="45.2147689" lon="8.5053917"><ele>111.0</ele><time>2026-04-04T15:34:25.628Z</time></trkpt><trkpt lat="45.2148343" lon="8.5054394"><ele>111.0</ele><time>2026-04-04T15:34:26.628Z</time></trkpt><trkpt lat="45.2149022" lon="8.5054902"><ele>111.0</ele><time>2026-04-04T15:34:27.628Z</time></trkpt><trkpt lat="45.2149784" lon="8.5055489"><ele>111.16666666666667</ele><time>2026-04-04T15:34:28.627Z</time></trkpt><trkpt lat="45.2150527" lon="8.5056114"><ele>111.33333333333334</ele><time>2026-04-04T15:34:29.627Z</time></trkpt><trkpt lat="45.2151301" lon="8.5056744"><ele>111.5</ele><time>2026-04-04T15:34:30.628Z</time></trkpt><trkpt lat="45.2151952" lon="8.5057292"><ele>111.66666666666667</ele><time>2026-04-04T15:34:31.628Z</time></trkpt><trkpt lat="45.2152572" lon="8.5057759"><ele>111.83333333333334</ele><time>2026-04-04T15:34:32.627Z</time></trkpt><trkpt lat="45.2153653" lon="8.5058588"><ele>112.0</ele><time>2026-04-04T15:34:34.627Z</time></trkpt><trkpt lat="45.2154622" lon="8.5059284"><ele>112.00000000000001</ele><time>2026-04-04T15:34:36.627Z</time></trkpt><trkpt lat="45.2155465" lon="8.5059897"><ele>112.0</ele><time>2026-04-04T15:34:38.627Z</time></trkpt><trkpt lat="45.2156095" lon="8.5060421"><ele>112.0</ele><time>2026-04-04T15:34:40.628Z</time></trkpt><trkpt lat="45.215681" lon="8.5060837"><ele>112.0</ele><time>2026-04-04T15:35:07.629Z</time></trkpt><trkpt lat="45.2158097" lon="8.5061158"><ele>112.00000000000001</ele><time>2026-04-04T15:35:09.629Z</time></trkpt><trkpt lat="45.2158801" lon="8.5061334"><ele>112.0</ele><time>2026-04-04T15:35:10.628Z</time></trkpt><trkpt lat="45.2159492" lon="8.5061687"><ele>111.85714285714286</ele><time>2026-04-04T15:35:11.629Z</time></trkpt><trkpt lat="45.2160182" lon="8.5062003"><ele>111.71428571428572</ele><time>2026-04-04T15:35:12.628Z</time></trkpt><trkpt lat="45.2160877" lon="8.5062222"><ele>111.57142857142857</ele><time>2026-04-04T15:35:13.628Z</time></trkpt><trkpt lat="45.2161608" lon="8.5062416"><ele>111.42857142857143</ele><time>2026-04-04T15:35:14.629Z</time></trkpt><trkpt lat="45.216233" lon="8.5062559"><ele>111.28571428571429</ele><time>2026-04-04T15:35:15.629Z</time></trkpt><trkpt lat="45.2163033" lon="8.506272"><ele>111.14285714285714</ele><time>2026-04-04T15:35:16.629Z</time></trkpt><trkpt lat="45.2163724" lon="8.5062902"><ele>111.0</ele><time>2026-04-04T15:35:17.629Z</time></trkpt><trkpt lat="45.2164409" lon="8.5063049"><ele>111.0</ele><time>2026-04-04T15:35:18.628Z</time></trkpt><trkpt lat="45.216511" lon="8.5063114"><ele>111.0</ele><time>2026-04-04T15:35:19.629Z</time></trkpt><trkpt lat="45.2165839" lon="8.5063179"><ele>111.0</ele><time>2026-04-04T15:35:20.628Z</time></trkpt><trkpt lat="45.2166568" lon="8.5063283"><ele>111.0</ele><time>2026-04-04T15:35:21.628Z</time></trkpt><trkpt lat="45.216735" lon="8.506338"><ele>111.0</ele><time>2026-04-04T15:35:22.629Z</time></trkpt><trkpt lat="45.2168153" lon="8.5063429"><ele>111.0</ele><time>2026-04-04T15:35:23.628Z</time></trkpt><trkpt lat="45.2168919" lon="8.5063428"><ele>111.0</ele><time>2026-04-04T15:35:24.628Z</time></trkpt><trkpt lat="45.216968" lon="8.5063386"><ele>111.0</ele><time>2026-04-04T15:35:25.629Z</time></trkpt><trkpt lat="45.2170447" lon="8.5063374"><ele>111.0</ele><time>2026-04-04T15:35:26.628Z</time></trkpt><trkpt lat="45.217124" lon="8.506341"><ele>111.0</ele><time>2026-04-04T15:35:27.628Z</time></trkpt><trkpt lat="45.2172016" lon="8.5063478"><ele>111.0</ele><time>2026-04-04T15:35:28.628Z</time></trkpt><trkpt lat="45.2172791" lon="8.5063568"><ele>111.0</ele><time>2026-04-04T15:35:29.629Z</time></trkpt><trkpt lat="45.2173568" lon="8.5063636"><ele>111.0</ele><time>2026-04-04T15:35:30.629Z</time></trkpt><trkpt lat="45.2174343" lon="8.5063699"><ele>111.0</ele><time>2026-04-04T15:35:31.628Z</time></trkpt><trkpt lat="45.2175108" lon="8.506372"><ele>111.0</ele><time>2026-04-04T15:35:32.628Z</time></trkpt><trkpt lat="45.2175875" lon="8.5063716"><ele>111.0</ele><time>2026-04-04T15:35:33.629Z</time></trkpt><trkpt lat="45.2176659" lon="8.5063698"><ele>111.0</ele><time>2026-04-04T15:35:34.628Z</time></trkpt><trkpt lat="45.2177465" lon="8.5063668"><ele>111.0</ele><time>2026-04-04T15:35:35.628Z</time></trkpt><trkpt lat="45.2178267" lon="8.5063658"><ele>111.0</ele><time>2026-04-04T15:35:36.628Z</time></trkpt><trkpt lat="45.2179105" lon="8.5063674"><ele>111.0</ele><time>2026-04-04T15:35:37.628Z</time></trkpt><trkpt lat="45.2179965" lon="8.506369"><ele>111.0</ele><time>2026-04-04T15:35:38.629Z</time></trkpt><trkpt lat="45.2180825" lon="8.5063706"><ele>111.0</ele><time>2026-04-04T15:35:39.63Z</time></trkpt><trkpt lat="45.2181659" lon="8.506374"><ele>111.0</ele><time>2026-04-04T15:35:40.63Z</time></trkpt><trkpt lat="45.2182476" lon="8.5063776"><ele>111.0</ele><time>2026-04-04T15:35:41.629Z</time></trkpt><trkpt lat="45.2183334" lon="8.5063702"><ele>111.0</ele><time>2026-04-04T15:35:42.629Z</time></trkpt><trkpt lat="45.2184128" lon="8.5063673"><ele>111.0</ele><time>2026-04-04T15:35:43.629Z</time></trkpt><trkpt lat="45.2184856" lon="8.5063645"><ele>111.0</ele><time>2026-04-04T15:35:44.63Z</time></trkpt><trkpt lat="45.2185563" lon="8.5063659"><ele>111.0</ele><time>2026-04-04T15:35:45.63Z</time></trkpt><trkpt lat="45.2186233" lon="8.5063694"><ele>111.0</ele><time>2026-04-04T15:35:46.63Z</time></trkpt><trkpt lat="45.2186898" lon="8.5063719"><ele>111.0</ele><time>2026-04-04T15:35:47.63Z</time></trkpt><trkpt lat="45.2187979" lon="8.5063805"><ele>111.0</ele><time>2026-04-04T15:35:49.629Z</time></trkpt><trkpt lat="45.2189077" lon="8.506378"><ele>111.0</ele><time>2026-04-04T15:35:51.629Z</time></trkpt><trkpt lat="45.2190433" lon="8.5063881"><ele>111.0</ele><time>2026-04-04T15:35:53.63Z</time></trkpt><trkpt lat="45.2191143" lon="8.5063969"><ele>111.0</ele><time>2026-04-04T15:35:54.63Z</time></trkpt><trkpt lat="45.2191928" lon="8.5064001"><ele>111.0</ele><time>2026-04-04T15:35:55.63Z</time></trkpt><trkpt lat="45.2192787" lon="8.5063936"><ele>111.0</ele><time>2026-04-04T15:35:56.63Z</time></trkpt><trkpt lat="45.2193612" lon="8.5063944"><ele>111.0</ele><time>2026-04-04T15:35:57.629Z</time></trkpt><trkpt lat="45.2194442" lon="8.5063894"><ele>111.0</ele><time>2026-04-04T15:35:58.63Z</time></trkpt><trkpt lat="45.2195273" lon="8.5063867"><ele>111.0</ele><time>2026-04-04T15:35:59.629Z</time></trkpt><trkpt lat="45.2196132" lon="8.5063824"><ele>111.0</ele><time>2026-04-04T15:36:00.63Z</time></trkpt><trkpt lat="45.2196925" lon="8.5063793"><ele>111.0</ele><time>2026-04-04T15:36:01.63Z</time></trkpt><trkpt lat="45.2197648" lon="8.5063757"><ele>111.0</ele><time>2026-04-04T15:36:02.629Z</time></trkpt><trkpt lat="45.2198352" lon="8.5063738"><ele>111.0</ele><time>2026-04-04T15:36:03.63Z</time></trkpt><trkpt lat="45.2199297" lon="8.5063788"><ele>111.0</ele><time>2026-04-04T15:36:05.63Z</time></trkpt><trkpt lat="45.2199958" lon="8.506483"><ele>111.0</ele><time>2026-04-04T15:36:10.629Z</time></trkpt><trkpt lat="45.2199979" lon="8.5066221"><ele>111.0</ele><time>2026-04-04T15:36:12.629Z</time></trkpt><trkpt lat="45.220013" lon="8.5068045"><ele>111.0</ele><time>2026-04-04T15:36:14.629Z</time></trkpt><trkpt lat="45.2200106" lon="8.5069051"><ele>111.0</ele><time>2026-04-04T15:36:15.629Z</time></trkpt><trkpt lat="45.220003" lon="8.5070119"><ele>111.0</ele><time>2026-04-04T15:36:16.63Z</time></trkpt><trkpt lat="45.2199995" lon="8.5071646"><ele>111.0</ele><time>2026-04-04T15:36:18.629Z</time></trkpt><trkpt lat="45.2199933" lon="8.5073121"><ele>111.0</ele><time>2026-04-04T15:36:20.63Z</time></trkpt><trkpt lat="45.2199977" lon="8.5074139"><ele>111.0</ele><time>2026-04-04T15:36:22.629Z</time></trkpt><trkpt lat="45.2200889" lon="8.5074586"><ele>110.8</ele><time>2026-04-04T15:36:24.63Z</time></trkpt><trkpt lat="45.220158" lon="8.5074626"><ele>110.6</ele><time>2026-04-04T15:36:25.631Z</time></trkpt><trkpt lat="45.2202246" lon="8.5074548"><ele>110.4</ele><time>2026-04-04T15:36:26.63Z</time></trkpt><trkpt lat="45.2203472" lon="8.5074637"><ele>110.2</ele><time>2026-04-04T15:36:28.631Z</time></trkpt><trkpt lat="45.2204565" lon="8.5074747"><ele>110.0</ele><time>2026-04-04T15:36:30.63Z</time></trkpt><trkpt lat="45.2205443" lon="8.5074523"><ele>109.99999999999999</ele><time>2026-04-04T15:36:32.63Z</time></trkpt><trkpt lat="45.2206201" lon="8.5074429"><ele>110.0</ele><time>2026-04-04T15:36:34.631Z</time></trkpt><trkpt lat="45.220704" lon="8.5074246"><ele>110.0</ele><time>2026-04-04T15:36:37.631Z</time></trkpt><trkpt lat="45.2206811" lon="8.5075363"><ele>110.0</ele><time>2026-04-04T15:36:52.631Z</time></trkpt><trkpt lat="45.2206966" lon="8.5076283"><ele>109.99999999999999</ele><time>2026-04-04T15:36:54.63Z</time></trkpt><trkpt lat="45.2207055" lon="8.5077395"><ele>110.0</ele><time>2026-04-04T15:36:56.63Z</time></trkpt><trkpt lat="45.2207658" lon="8.5077937"><ele>112.0</ele><time>2026-04-04T15:36:59.63Z</time></trkpt><trkpt lat="45.2208376" lon="8.5078205"><ele>112.0</ele><time>2026-04-04T15:37:07.63Z</time></trkpt><trkpt lat="45.2209028" lon="8.5078008"><ele>112.0</ele><time>2026-04-04T15:37:12.631Z</time></trkpt></trkseg></trk></gpx>